Wetterdaten: Freitag, 03.11.2017
Datum Zeit Temp. A. Temp. A. max Feuchte A. Luftdruck Regen Wind Richtung Richtung Sonnenschein ET UV Solar Taupunkt Windchill Windböen
03.11.2017 00:00 9,7 °C 9,7 °C 79 % 1016,3 hPa 0,0 mm 1,3 km/h (1 Bft) SW 236 ° 0 min 0,000 mm 0,0 UV-I 0 W/m² 6,2 °C 9,7 °C 3,2 km/h (1 Bft)
03.11.2017 00:01 9,7 °C 9,7 °C 79 % 1016,3 hPa 0,0 mm 0,3 km/h (0 Bft) SW 236 ° 0 min 0,000 mm 0,0 UV-I 0 W/m² 6,2 °C 9,7 °C 3,2 km/h (1 Bft)
03.11.2017 00:02 9,7 °C 9,7 °C 79 % 1016,3 hPa 0,0 mm 0,0 km/h (0 Bft) SW 236 ° 0 min 0,000 mm 0,0 UV-I 0 W/m² 6,2 °C 9,7 °C 0,0 km/h (0 Bft)
03.11.2017 00:03 9,7 °C 9,7 °C 79 % 1016,3 hPa 0,0 mm 0,2 km/h (0 Bft) W-SW 247 ° 0 min 0,000 mm 0,0 UV-I 0 W/m² 6,2 °C 9,7 °C 4,8 km/h (1 Bft)
03.11.2017 00:04 9,7 °C 9,7 °C 79 % 1016,3 hPa 0,0 mm 0,5 km/h (0 Bft) W-SW 247 ° 0 min 0,000 mm 0,0 UV-I 0 W/m² 6,2 °C 9,7 °C 3,2 km/h (1 Bft)
03.11.2017 00:05 9,7 °C 9,7 °C 79 % 1016,3 hPa 0,0 mm 0,0 km/h (0 Bft) W-SW 247 ° 0 min 0,000 mm 0,0 UV-I 0 W/m² 6,2 °C 9,7 °C 0,0 km/h (0 Bft)
03.11.2017 00:06 9,7 °C 9,7 °C 79 % 1016,3 hPa 0,0 mm 0,0 km/h (0 Bft) W-SW 247 ° 0 min 0,000 mm 0,0 UV-I 0 W/m² 6,2 °C 9,7 °C 0,0 km/h (0 Bft)
03.11.2017 00:07 9,7 °C 9,7 °C 79 % 1016,2 hPa 0,0 mm 0,0 km/h (0 Bft) W-SW 247 ° 0 min 0,000 mm 0,0 UV-I 0 W/m² 6,2 °C 9,7 °C 0,0 km/h (0 Bft)
03.11.2017 00:08 9,7 °C 9,7 °C 79 % 1016,3 hPa 0,0 mm 0,0 km/h (0 Bft) W-SW 247 ° 0 min 0,000 mm 0,0 UV-I 0 W/m² 6,2 °C 9,7 °C 0,0 km/h (0 Bft)
03.11.2017 00:09 9,7 °C 9,7 °C 79 % 1016,2 hPa 0,0 mm 2,1 km/h (1 Bft) W-SW 252 ° 0 min 0,000 mm 0,0 UV-I 0 W/m² 6,2 °C 9,7 °C 3,2 km/h (1 Bft)
03.11.2017 00:10 9,7 °C 9,7 °C 79 % 1016,3 hPa 0,0 mm 2,6 km/h (1 Bft) W-SW 252 ° 0 min 0,000 mm 0,0 UV-I 0 W/m² 6,2 °C 9,7 °C 3,2 km/h (1 Bft)
03.11.2017 00:11 9,7 °C 9,7 °C 79 % 1016,3 hPa 0,0 mm 1,4 km/h (1 Bft) W-SW 252 ° 0 min 0,000 mm 0,0 UV-I 0 W/m² 6,2 °C 9,7 °C 3,2 km/h (1 Bft)
03.11.2017 00:12 9,7 °C 9,7 °C 79 % 1016,2 hPa 0,0 mm 2,3 km/h (1 Bft) W-SW 252 ° 0 min 0,000 mm 0,0 UV-I 0 W/m² 6,2 °C 9,7 °C 3,2 km/h (1 Bft)
03.11.2017 00:13 9,7 °C 9,7 °C 79 % 1016,3 hPa 0,0 mm 3,9 km/h (1 Bft) W-SW 238 ° 0 min 0,000 mm 0,0 UV-I 0 W/m² 6,2 °C 9,7 °C 4,8 km/h (1 Bft)
03.11.2017 00:14 9,7 °C 9,7 °C 79 % 1016,3 hPa 0,0 mm 3,4 km/h (1 Bft) W-SW 237 ° 0 min 0,000 mm 0,0 UV-I 0 W/m² 6,2 °C 9,7 °C 4,8 km/h (1 Bft)
03.11.2017 00:15 9,7 °C 9,7 °C 79 % 1016,3 hPa 0,0 mm 3,8 km/h (1 Bft) SW 231 ° 0 min 0,000 mm 0,0 UV-I 0 W/m² 6,2 °C 9,7 °C 4,8 km/h (1 Bft)
03.11.2017 00:16 9,7 °C 9,7 °C 79 % 1016,2 hPa 0,0 mm 3,6 km/h (1 Bft) SW 230 ° 0 min 0,000 mm 0,0 UV-I 0 W/m² 6,2 °C 9,7 °C 4,8 km/h (1 Bft)
03.11.2017 00:17 9,6 °C 9,7 °C 80 % 1016,2 hPa 0,0 mm 2,9 km/h (1 Bft) SW 230 ° 0 min 0,000 mm 0,0 UV-I 0 W/m² 6,3 °C 9,6 °C 3,2 km/h (1 Bft)
03.11.2017 00:18 9,7 °C 9,7 °C 79 % 1016,2 hPa 0,0 mm 2,9 km/h (1 Bft) SW 230 ° 0 min 0,000 mm 0,0 UV-I 0 W/m² 6,2 °C 9,7 °C 4,8 km/h (1 Bft)
03.11.2017 00:19 9,7 °C 9,7 °C 80 % 1016,2 hPa 0,0 mm 2,9 km/h (1 Bft) SW 230 ° 0 min 0,000 mm 0,0 UV-I 0 W/m² 6,4 °C 9,7 °C 4,8 km/h (1 Bft)
03.11.2017 00:20 9,6 °C 9,7 °C 80 % 1016,2 hPa 0,0 mm 1,4 km/h (1 Bft) SW 230 ° 0 min 0,000 mm 0,0 UV-I 0 W/m² 6,3 °C 9,6 °C 3,2 km/h (1 Bft)
03.11.2017 00:21 9,6 °C 9,7 °C 80 % 1016,2 hPa 0,0 mm 3,0 km/h (1 Bft) SW 223 ° 0 min 0,000 mm 0,0 UV-I 0 W/m² 6,3 °C 9,6 °C 4,8 km/h (1 Bft)
03.11.2017 00:22 9,7 °C 9,7 °C 80 % 1016,2 hPa 0,0 mm 1,2 km/h (1 Bft) SW 223 ° 0 min 0,000 mm 0,0 UV-I 0 W/m² 6,4 °C 9,7 °C 3,2 km/h (1 Bft)
03.11.2017 00:23 9,6 °C 9,7 °C 80 % 1016,2 hPa 0,0 mm 2,8 km/h (1 Bft) SW 224 ° 0 min 0,000 mm 0,0 UV-I 0 W/m² 6,3 °C 9,6 °C 4,8 km/h (1 Bft)
03.11.2017 00:24 9,6 °C 9,6 °C 80 % 1016,2 hPa 0,0 mm 1,0 km/h (0 Bft) SW 224 ° 0 min 0,000 mm 0,0 UV-I 0 W/m² 6,3 °C 9,6 °C 3,2 km/h (1 Bft)
03.11.2017 00:25 9,6 °C 9,6 °C 80 % 1016,2 hPa 0,0 mm 0,3 km/h (0 Bft) SW 224 ° 0 min 0,000 mm 0,0 UV-I 0 W/m² 6,3 °C 9,6 °C 1,6 km/h (1 Bft)
03.11.2017 00:26 9,6 °C 9,6 °C 80 % 1016,1 hPa 0,0 mm 0,9 km/h (0 Bft) SW 224 ° 0 min 0,000 mm 0,0 UV-I 0 W/m² 6,3 °C 9,6 °C 3,2 km/h (1 Bft)
03.11.2017 00:27 9,6 °C 9,6 °C 80 % 1016,2 hPa 0,0 mm 1,5 km/h (1 Bft) SW 224 ° 0 min 0,000 mm 0,0 UV-I 0 W/m² 6,3 °C 9,6 °C 3,2 km/h (1 Bft)
03.11.2017 00:28 9,6 °C 9,6 °C 80 % 1016,1 hPa 0,0 mm 3,2 km/h (1 Bft) SW 215 ° 0 min 0,000 mm 0,0 UV-I 0 W/m² 6,3 °C 9,6 °C 4,8 km/h (1 Bft)
03.11.2017 00:29 9,6 °C 9,6 °C 80 % 1016,1 hPa 0,0 mm 2,4 km/h (1 Bft) SW 215 ° 0 min 0,000 mm 0,0 UV-I 0 W/m² 6,3 °C 9,6 °C 3,2 km/h (1 Bft)
03.11.2017 00:30 9,6 °C 9,6 °C 80 % 1016,1 hPa 0,0 mm 1,7 km/h (1 Bft) SW 215 ° 0 min 0,000 mm 0,0 UV-I 0 W/m² 6,3 °C 9,6 °C 3,2 km/h (1 Bft)
03.11.2017 00:31 9,6 °C 9,6 °C 80 % 1016,1 hPa 0,0 mm 2,2 km/h (1 Bft) SW 215 ° 0 min 0,000 mm 0,0 UV-I 0 W/m² 6,3 °C 9,6 °C 3,2 km/h (1 Bft)
03.11.2017 00:32 9,6 °C 9,6 °C 80 % 1016,1 hPa 0,0 mm 1,7 km/h (1 Bft) SW 215 ° 0 min 0,000 mm 0,0 UV-I 0 W/m² 6,3 °C 9,6 °C 3,2 km/h (1 Bft)
03.11.2017 00:33 9,6 °C 9,6 °C 80 % 1016,2 hPa 0,0 mm 2,1 km/h (1 Bft) SW 215 ° 0 min 0,000 mm 0,0 UV-I 0 W/m² 6,3 °C 9,6 °C 3,2 km/h (1 Bft)
03.11.2017 00:34 9,6 °C 9,6 °C 80 % 1016,1 hPa 0,0 mm 4,2 km/h (1 Bft) SW 222 ° 0 min 0,000 mm 0,0 UV-I 0 W/m² 6,3 °C 9,6 °C 6,4 km/h (2 Bft)
03.11.2017 00:35 9,6 °C 9,6 °C 80 % 1016,1 hPa 0,0 mm 4,1 km/h (1 Bft) S-SW 207 ° 0 min 0,000 mm 0,0 UV-I 0 W/m² 6,3 °C 9,6 °C 6,4 km/h (2 Bft)
03.11.2017 00:36 9,6 °C 9,6 °C 80 % 1016,1 hPa 0,0 mm 3,4 km/h (1 Bft) S-SW 197 ° 0 min 0,000 mm 0,0 UV-I 0 W/m² 6,3 °C 9,6 °C 4,8 km/h (1 Bft)
03.11.2017 00:37 9,6 °C 9,6 °C 80 % 1016,1 hPa 0,0 mm 4,3 km/h (1 Bft) W-SW 253 ° 0 min 0,000 mm 0,0 UV-I 0 W/m² 6,3 °C 9,6 °C 6,4 km/h (2 Bft)
03.11.2017 00:38 9,6 °C 9,6 °C 80 % 1016,1 hPa 0,0 mm 1,9 km/h (1 Bft) W-SW 252 ° 0 min 0,000 mm 0,0 UV-I 0 W/m² 6,3 °C 9,6 °C 3,2 km/h (1 Bft)
03.11.2017 00:39 9,6 °C 9,6 °C 80 % 1016,1 hPa 0,0 mm 2,6 km/h (1 Bft) W-SW 239 ° 0 min 0,000 mm 0,0 UV-I 0 W/m² 6,3 °C 9,6 °C 4,8 km/h (1 Bft)
03.11.2017 00:40 9,6 °C 9,6 °C 80 % 1016,1 hPa 0,0 mm 3,3 km/h (1 Bft) S-SW 201 ° 0 min 0,000 mm 0,0 UV-I 0 W/m² 6,3 °C 9,6 °C 6,4 km/h (2 Bft)
03.11.2017 00:41 9,6 °C 9,6 °C 80 % 1016,1 hPa 0,0 mm 3,4 km/h (1 Bft) S-SW 201 ° 0 min 0,000 mm 0,0 UV-I 0 W/m² 6,3 °C 9,6 °C 4,8 km/h (1 Bft)
03.11.2017 00:42 9,6 °C 9,6 °C 80 % 1016,1 hPa 0,0 mm 4,7 km/h (1 Bft) S 180 ° 0 min 0,000 mm 0,0 UV-I 0 W/m² 6,3 °C 9,4 °C 9,7 km/h (2 Bft)
03.11.2017 00:43 9,6 °C 9,6 °C 80 % 1016,1 hPa 0,0 mm 5,7 km/h (1 Bft) S-SW 195 ° 0 min 0,000 mm 0,0 UV-I 0 W/m² 6,3 °C 9,1 °C 8,0 km/h (2 Bft)
03.11.2017 00:44 9,6 °C 9,6 °C 80 % 1016,1 hPa 0,0 mm 5,0 km/h (1 Bft) SW 234 ° 0 min 0,000 mm 0,0 UV-I 0 W/m² 6,3 °C 9,3 °C 6,4 km/h (2 Bft)
03.11.2017 00:45 9,6 °C 9,6 °C 80 % 1016,1 hPa 0,0 mm 4,2 km/h (1 Bft) S-SW 198 ° 0 min 0,000 mm 0,0 UV-I 0 W/m² 6,3 °C 9,6 °C 8,0 km/h (2 Bft)
03.11.2017 00:46 9,6 °C 9,6 °C 80 % 1016,0 hPa 0,0 mm 6,1 km/h (2 Bft) S-SW 203 ° 0 min 0,000 mm 0,0 UV-I 0 W/m² 6,3 °C 9,0 °C 9,7 km/h (2 Bft)
03.11.2017 00:47 9,6 °C 9,6 °C 80 % 1016,1 hPa 0,0 mm 4,3 km/h (1 Bft) S-SW 204 ° 0 min 0,000 mm 0,0 UV-I 0 W/m² 6,3 °C 9,6 °C 6,4 km/h (2 Bft)
03.11.2017 00:48 9,6 °C 9,6 °C 80 % 1016,0 hPa 0,0 mm 2,3 km/h (1 Bft) S-SW 205 ° 0 min 0,000 mm 0,0 UV-I 0 W/m² 6,3 °C 9,6 °C 4,8 km/h (1 Bft)
03.11.2017 00:49 9,6 °C 9,6 °C 80 % 1016,0 hPa 0,0 mm 2,9 km/h (1 Bft) S-SW 205 ° 0 min 0,000 mm 0,0 UV-I 0 W/m² 6,3 °C 9,6 °C 4,8 km/h (1 Bft)
03.11.2017 00:50 9,6 °C 9,6 °C 80 % 1016,0 hPa 0,0 mm 3,7 km/h (1 Bft) S-SW 204 ° 0 min 0,000 mm 0,0 UV-I 0 W/m² 6,3 °C 9,6 °C 8,0 km/h (2 Bft)
03.11.2017 00:51 9,6 °C 9,6 °C 80 % 1016,0 hPa 0,0 mm 4,8 km/h (1 Bft) S-SW 203 ° 0 min 0,000 mm 0,0 UV-I 0 W/m² 6,3 °C 9,4 °C 8,0 km/h (2 Bft)
03.11.2017 00:52 9,6 °C 9,6 °C 80 % 1016,1 hPa 0,0 mm 7,4 km/h (2 Bft) S-SW 211 ° 0 min 0,000 mm 0,0 UV-I 0 W/m² 6,3 °C 8,7 °C 11,3 km/h (2 Bft)
03.11.2017 00:53 9,6 °C 9,6 °C 80 % 1016,1 hPa 0,0 mm 3,5 km/h (1 Bft) SW 218 ° 0 min 0,000 mm 0,0 UV-I 0 W/m² 6,3 °C 9,6 °C 4,8 km/h (1 Bft)
03.11.2017 00:54 9,6 °C 9,6 °C 80 % 1016,1 hPa 0,0 mm 3,6 km/h (1 Bft) W-SW 242 ° 0 min 0,000 mm 0,0 UV-I 0 W/m² 6,3 °C 9,6 °C 6,4 km/h (2 Bft)
03.11.2017 00:55 9,6 °C 9,6 °C 80 % 1016,1 hPa 0,0 mm 2,7 km/h (1 Bft) W-SW 244 ° 0 min 0,000 mm 0,0 UV-I 0 W/m² 6,3 °C 9,6 °C 4,8 km/h (1 Bft)
03.11.2017 00:56 9,6 °C 9,6 °C 80 % 1016,1 hPa 0,0 mm 1,5 km/h (1 Bft) W-SW 244 ° 0 min 0,000 mm 0,0 UV-I 0 W/m² 6,3 °C 9,6 °C 3,2 km/h (1 Bft)
03.11.2017 00:57 9,6 °C 9,6 °C 80 % 1016,1 hPa 0,0 mm 0,7 km/h (0 Bft) W-SW 244 ° 0 min 0,000 mm 0,0 UV-I 0 W/m² 6,3 °C 9,6 °C 3,2 km/h (1 Bft)
03.11.2017 00:58 9,6 °C 9,6 °C 80 % 1016,1 hPa 0,0 mm 1,0 km/h (0 Bft) W-SW 243 ° 0 min 0,000 mm 0,0 UV-I 0 W/m² 6,3 °C 9,6 °C 3,2 km/h (1 Bft)
03.11.2017 00:59 9,6 °C 9,6 °C 80 % 1016,1 hPa 0,0 mm 1,9 km/h (1 Bft) W-SW 243 ° 0 min 0,000 mm 0,0 UV-I 0 W/m² 6,3 °C 9,6 °C 4,8 km/h (1 Bft)
03.11.2017 01:00 9,6 °C 9,6 °C 80 % 1016,1 hPa 0,0 mm 2,2 km/h (1 Bft) SW 223 ° 0 min 0,025 mm 0,0 UV-I 0 W/m² 6,3 °C 9,6 °C 3,2 km/h (1 Bft)
03.11.2017 01:01 9,5 °C 9,6 °C 80 % 1016,1 hPa 0,0 mm 1,1 km/h (1 Bft) SW 221 ° 0 min 0,000 mm 0,0 UV-I 0 W/m² 6,2 °C 9,5 °C 3,2 km/h (1 Bft)
03.11.2017 01:02 9,6 °C 9,6 °C 80 % 1016,1 hPa 0,0 mm 3,2 km/h (1 Bft) SW 221 ° 0 min 0,000 mm 0,0 UV-I 0 W/m² 6,3 °C 9,6 °C 4,8 km/h (1 Bft)
03.11.2017 01:03 9,6 °C 9,6 °C 80 % 1016,2 hPa 0,0 mm 3,1 km/h (1 Bft) SW 220 ° 0 min 0,000 mm 0,0 UV-I 0 W/m² 6,3 °C 9,6 °C 4,8 km/h (1 Bft)
03.11.2017 01:04 9,6 °C 9,6 °C 80 % 1016,1 hPa 0,0 mm 5,1 km/h (1 Bft) S-SW 207 ° 0 min 0,000 mm 0,0 UV-I 0 W/m² 6,3 °C 9,3 °C 6,4 km/h (2 Bft)
03.11.2017 01:05 9,6 °C 9,6 °C 80 % 1016,1 hPa 0,0 mm 4,4 km/h (1 Bft) SW 225 ° 0 min 0,000 mm 0,0 UV-I 0 W/m² 6,3 °C 9,6 °C 8,0 km/h (2 Bft)
03.11.2017 01:06 9,6 °C 9,6 °C 80 % 1016,1 hPa 0,0 mm 4,0 km/h (1 Bft) S 184 ° 0 min 0,000 mm 0,0 UV-I 0 W/m² 6,3 °C 9,6 °C 6,4 km/h (2 Bft)
03.11.2017 01:07 9,6 °C 9,6 °C 80 % 1016,1 hPa 0,0 mm 1,1 km/h (1 Bft) S 184 ° 0 min 0,000 mm 0,0 UV-I 0 W/m² 6,3 °C 9,6 °C 6,4 km/h (2 Bft)
03.11.2017 01:08 9,6 °C 9,6 °C 80 % 1016,1 hPa 0,0 mm 2,3 km/h (1 Bft) S 184 ° 0 min 0,000 mm 0,0 UV-I 0 W/m² 6,3 °C 9,6 °C 4,8 km/h (1 Bft)
03.11.2017 01:09 9,6 °C 9,6 °C 80 % 1016,1 hPa 0,0 mm 2,2 km/h (1 Bft) S 185 ° 0 min 0,000 mm 0,0 UV-I 0 W/m² 6,3 °C 9,6 °C 4,8 km/h (1 Bft)
03.11.2017 01:10 9,6 °C 9,6 °C 80 % 1016,0 hPa 0,0 mm 3,5 km/h (1 Bft) S 185 ° 0 min 0,000 mm 0,0 UV-I 0 W/m² 6,3 °C 9,6 °C 6,4 km/h (2 Bft)
03.11.2017 01:11 9,6 °C 9,7 °C 80 % 1016,0 hPa 0,0 mm 0,9 km/h (0 Bft) S 185 ° 0 min 0,000 mm 0,0 UV-I 0 W/m² 6,3 °C 9,6 °C 3,2 km/h (1 Bft)
03.11.2017 01:12 9,6 °C 9,7 °C 80 % 1016,0 hPa 0,0 mm 2,3 km/h (1 Bft) S 185 ° 0 min 0,000 mm 0,0 UV-I 0 W/m² 6,3 °C 9,6 °C 4,8 km/h (1 Bft)
03.11.2017 01:13 9,7 °C 9,7 °C 80 % 1016,0 hPa 0,0 mm 0,5 km/h (0 Bft) S 186 ° 0 min 0,000 mm 0,0 UV-I 0 W/m² 6,4 °C 9,7 °C 3,2 km/h (1 Bft)
03.11.2017 01:14 9,6 °C 9,7 °C 80 % 1016,1 hPa 0,0 mm 1,9 km/h (1 Bft) S 186 ° 0 min 0,000 mm 0,0 UV-I 0 W/m² 6,3 °C 9,6 °C 4,8 km/h (1 Bft)
03.11.2017 01:15 9,6 °C 9,7 °C 80 % 1016,0 hPa 0,0 mm 2,3 km/h (1 Bft) S 186 ° 0 min 0,000 mm 0,0 UV-I 0 W/m² 6,3 °C 9,6 °C 4,8 km/h (1 Bft)
03.11.2017 01:16 9,6 °C 9,7 °C 80 % 1016,0 hPa 0,0 mm 5,8 km/h (2 Bft) W-SW 246 ° 0 min 0,000 mm 0,0 UV-I 0 W/m² 6,3 °C 9,1 °C 11,3 km/h (2 Bft)
03.11.2017 01:17 9,6 °C 9,6 °C 80 % 1016,0 hPa 0,0 mm 3,3 km/h (1 Bft) W-SW 251 ° 0 min 0,000 mm 0,0 UV-I 0 W/m² 6,3 °C 9,6 °C 6,4 km/h (2 Bft)
03.11.2017 01:18 9,6 °C 9,6 °C 80 % 1016,0 hPa 0,0 mm 2,4 km/h (1 Bft) SW 232 ° 0 min 0,000 mm 0,0 UV-I 0 W/m² 6,3 °C 9,6 °C 4,8 km/h (1 Bft)
03.11.2017 01:19 9,6 °C 9,6 °C 80 % 1015,9 hPa 0,0 mm 4,3 km/h (1 Bft) W-SW 242 ° 0 min 0,000 mm 0,0 UV-I 0 W/m² 6,3 °C 9,6 °C 6,4 km/h (2 Bft)
03.11.2017 01:20 9,6 °C 9,6 °C 80 % 1016,0 hPa 0,0 mm 2,9 km/h (1 Bft) S-SW 210 ° 0 min 0,000 mm 0,0 UV-I 0 W/m² 6,3 °C 9,6 °C 4,8 km/h (1 Bft)
03.11.2017 01:21 9,6 °C 9,6 °C 80 % 1015,9 hPa 0,0 mm 2,5 km/h (1 Bft) W-SW 245 ° 0 min 0,000 mm 0,0 UV-I 0 W/m² 6,3 °C 9,6 °C 4,8 km/h (1 Bft)
03.11.2017 01:22 9,6 °C 9,6 °C 80 % 1015,9 hPa 0,0 mm 0,0 km/h (0 Bft) W-SW 245 ° 0 min 0,000 mm 0,0 UV-I 0 W/m² 6,3 °C 9,6 °C 0,0 km/h (0 Bft)
03.11.2017 01:23 9,6 °C 9,6 °C 80 % 1015,9 hPa 0,0 mm 0,1 km/h (0 Bft) W-SW 239 ° 0 min 0,000 mm 0,0 UV-I 0 W/m² 6,3 °C 9,6 °C 3,2 km/h (1 Bft)
03.11.2017 01:24 9,6 °C 9,6 °C 80 % 1015,9 hPa 0,0 mm 1,9 km/h (1 Bft) W-SW 239 ° 0 min 0,000 mm 0,0 UV-I 0 W/m² 6,3 °C 9,6 °C 4,8 km/h (1 Bft)
03.11.2017 01:25 9,6 °C 9,6 °C 80 % 1015,9 hPa 0,0 mm 0,0 km/h (0 Bft) W-SW 239 ° 0 min 0,000 mm 0,0 UV-I 0 W/m² 6,3 °C 9,6 °C 0,0 km/h (0 Bft)
03.11.2017 01:26 9,6 °C 9,6 °C 80 % 1015,9 hPa 0,0 mm 0,5 km/h (0 Bft) W-SW 239 ° 0 min 0,000 mm 0,0 UV-I 0 W/m² 6,3 °C 9,6 °C 3,2 km/h (1 Bft)
03.11.2017 01:27 9,6 °C 9,6 °C 80 % 1015,9 hPa 0,0 mm 0,5 km/h (0 Bft) W-SW 239 ° 0 min 0,000 mm 0,0 UV-I 0 W/m² 6,3 °C 9,6 °C 3,2 km/h (1 Bft)
03.11.2017 01:28 9,6 °C 9,6 °C 80 % 1015,9 hPa 0,0 mm 2,2 km/h (1 Bft) W-SW 247 ° 0 min 0,000 mm 0,0 UV-I 0 W/m² 6,3 °C 9,6 °C 4,8 km/h (1 Bft)
03.11.2017 01:29 9,6 °C 9,6 °C 80 % 1015,9 hPa 0,0 mm 0,3 km/h (0 Bft) W-SW 247 ° 0 min 0,000 mm 0,0 UV-I 0 W/m² 6,3 °C 9,6 °C 1,6 km/h (1 Bft)
03.11.2017 01:30 9,5 °C 9,6 °C 80 % 1016,0 hPa 0,0 mm 0,0 km/h (0 Bft) W-SW 247 ° 0 min 0,000 mm 0,0 UV-I 0 W/m² 6,2 °C 9,5 °C 0,0 km/h (0 Bft)
03.11.2017 01:31 9,6 °C 9,6 °C 80 % 1016,0 hPa 0,0 mm 0,0 km/h (0 Bft) W-SW 247 ° 0 min 0,000 mm 0,0 UV-I 0 W/m² 6,3 °C 9,6 °C 0,0 km/h (0 Bft)
03.11.2017 01:32 9,6 °C 9,6 °C 80 % 1016,0 hPa 0,0 mm 1,0 km/h (0 Bft) W-SW 242 ° 0 min 0,000 mm 0,0 UV-I 0 W/m² 6,3 °C 9,6 °C 4,8 km/h (1 Bft)
03.11.2017 01:33 9,6 °C 9,6 °C 81 % 1016,0 hPa 0,0 mm 1,5 km/h (1 Bft) W-SW 240 ° 0 min 0,000 mm 0,0 UV-I 0 W/m² 6,5 °C 9,6 °C 3,2 km/h (1 Bft)
03.11.2017 01:34 9,6 °C 9,6 °C 80 % 1015,9 hPa 0,0 mm 1,5 km/h (1 Bft) W-SW 240 ° 0 min 0,000 mm 0,0 UV-I 0 W/m² 6,3 °C 9,6 °C 3,2 km/h (1 Bft)
03.11.2017 01:35 9,6 °C 9,6 °C 81 % 1015,9 hPa 0,0 mm 0,1 km/h (0 Bft) W-SW 240 ° 0 min 0,000 mm 0,0 UV-I 0 W/m² 6,5 °C 9,6 °C 1,6 km/h (1 Bft)
03.11.2017 01:36 9,6 °C 9,6 °C 81 % 1016,0 hPa 0,0 mm 0,8 km/h (0 Bft) W-SW 240 ° 0 min 0,000 mm 0,0 UV-I 0 W/m² 6,5 °C 9,6 °C 1,6 km/h (1 Bft)
03.11.2017 01:37 9,5 °C 9,6 °C 81 % 1016,0 hPa 0,0 mm 0,5 km/h (0 Bft) W-SW 240 ° 0 min 0,000 mm 0,0 UV-I 0 W/m² 6,4 °C 9,5 °C 1,6 km/h (1 Bft)
03.11.2017 01:38 9,5 °C 9,5 °C 81 % 1016,0 hPa 0,0 mm 1,3 km/h (1 Bft) W-SW 240 ° 0 min 0,000 mm 0,0 UV-I 0 W/m² 6,4 °C 9,5 °C 3,2 km/h (1 Bft)
03.11.2017 01:39 9,5 °C 9,5 °C 81 % 1016,0 hPa 0,0 mm 0,0 km/h (0 Bft) W-SW 240 ° 0 min 0,000 mm 0,0 UV-I 0 W/m² 6,4 °C 9,5 °C 0,0 km/h (0 Bft)
03.11.2017 01:40 9,4 °C 9,5 °C 81 % 1016,0 hPa 0,0 mm 0,0 km/h (0 Bft) W-SW 240 ° 0 min 0,000 mm 0,0 UV-I 0 W/m² 6,3 °C 9,4 °C 0,0 km/h (0 Bft)
03.11.2017 01:41 9,4 °C 9,4 °C 81 % 1016,0 hPa 0,0 mm 0,0 km/h (0 Bft) W-SW 240 ° 0 min 0,000 mm 0,0 UV-I 0 W/m² 6,3 °C 9,4 °C 0,0 km/h (0 Bft)
03.11.2017 01:42 9,4 °C 9,4 °C 81 % 1016,1 hPa 0,0 mm 0,0 km/h (0 Bft) W-SW 240 ° 0 min 0,000 mm 0,0 UV-I 0 W/m² 6,3 °C 9,4 °C 0,0 km/h (0 Bft)
03.11.2017 01:43 9,3 °C 9,4 °C 81 % 1016,1 hPa 0,0 mm 0,0 km/h (0 Bft) W-SW 240 ° 0 min 0,000 mm 0,0 UV-I 0 W/m² 6,2 °C 9,3 °C 0,0 km/h (0 Bft)
03.11.2017 01:44 9,3 °C 9,3 °C 82 % 1016,1 hPa 0,0 mm 0,0 km/h (0 Bft) W-SW 240 ° 0 min 0,000 mm 0,0 UV-I 0 W/m² 6,4 °C 9,3 °C 0,0 km/h (0 Bft)
03.11.2017 01:45 9,3 °C 9,3 °C 82 % 1016,1 hPa 0,0 mm 0,0 km/h (0 Bft) W-SW 240 ° 0 min 0,000 mm 0,0 UV-I 0 W/m² 6,4 °C 9,3 °C 0,0 km/h (0 Bft)
03.11.2017 01:46 9,3 °C 9,3 °C 82 % 1016,1 hPa 0,0 mm 0,0 km/h (0 Bft) W-SW 240 ° 0 min 0,000 mm 0,0 UV-I 0 W/m² 6,4 °C 9,3 °C 0,0 km/h (0 Bft)
03.11.2017 01:47 9,3 °C 9,3 °C 82 % 1016,0 hPa 0,0 mm 0,3 km/h (0 Bft) W-SW 240 ° 0 min 0,000 mm 0,0 UV-I 0 W/m² 6,4 °C 9,3 °C 1,6 km/h (1 Bft)
03.11.2017 01:48 9,3 °C 9,3 °C 82 % 1016,0 hPa 0,0 mm 0,0 km/h (0 Bft) W-SW 240 ° 0 min 0,000 mm 0,0 UV-I 0 W/m² 6,4 °C 9,3 °C 0,0 km/h (0 Bft)
03.11.2017 01:49 9,3 °C 9,3 °C 82 % 1016,0 hPa 0,0 mm 0,0 km/h (0 Bft) W-SW 240 ° 0 min 0,000 mm 0,0 UV-I 0 W/m² 6,4 °C 9,3 °C 0,0 km/h (0 Bft)
03.11.2017 01:50 9,3 °C 9,3 °C 81 % 1015,9 hPa 0,0 mm 2,3 km/h (1 Bft) W-SW 240 ° 0 min 0,000 mm 0,0 UV-I 0 W/m² 6,2 °C 9,3 °C 4,8 km/h (1 Bft)
03.11.2017 01:51 9,4 °C 9,4 °C 81 % 1016,0 hPa 0,0 mm 1,0 km/h (0 Bft) W-SW 240 ° 0 min 0,000 mm 0,0 UV-I 0 W/m² 6,3 °C 9,4 °C 3,2 km/h (1 Bft)
03.11.2017 01:52 9,4 °C 9,4 °C 82 % 1016,0 hPa 0,0 mm 0,0 km/h (0 Bft) W-SW 240 ° 0 min 0,000 mm 0,0 UV-I 0 W/m² 6,5 °C 9,4 °C 0,0 km/h (0 Bft)
03.11.2017 01:53 9,4 °C 9,4 °C 81 % 1016,0 hPa 0,0 mm 2,4 km/h (1 Bft) SW 220 ° 0 min 0,000 mm 0,0 UV-I 0 W/m² 6,3 °C 9,4 °C 4,8 km/h (1 Bft)
03.11.2017 01:54 9,4 °C 9,4 °C 81 % 1016,0 hPa 0,0 mm 2,1 km/h (1 Bft) SW 224 ° 0 min 0,000 mm 0,0 UV-I 0 W/m² 6,3 °C 9,4 °C 3,2 km/h (1 Bft)
03.11.2017 01:55 9,4 °C 9,4 °C 81 % 1016,0 hPa 0,0 mm 3,0 km/h (1 Bft) W-SW 246 ° 0 min 0,000 mm 0,0 UV-I 0 W/m² 6,3 °C 9,4 °C 4,8 km/h (1 Bft)
03.11.2017 01:56 9,5 °C 9,5 °C 81 % 1016,0 hPa 0,0 mm 2,5 km/h (1 Bft) W-SW 246 ° 0 min 0,000 mm 0,0 UV-I 0 W/m² 6,4 °C 9,5 °C 6,4 km/h (2 Bft)
03.11.2017 01:57 9,5 °C 9,5 °C 81 % 1016,0 hPa 0,0 mm 7,0 km/h (2 Bft) W 273 ° 0 min 0,000 mm 0,0 UV-I 0 W/m² 6,4 °C 8,6 °C 12,9 km/h (3 Bft)
03.11.2017 01:58 9,5 °C 9,5 °C 81 % 1016,0 hPa 0,0 mm 8,2 km/h (2 Bft) W-NW 290 ° 0 min 0,000 mm 0,0 UV-I 0 W/m² 6,4 °C 8,4 °C 12,9 km/h (3 Bft)
03.11.2017 01:59 9,5 °C 9,6 °C 81 % 1016,0 hPa 0,0 mm 5,8 km/h (2 Bft) W 271 ° 0 min 0,000 mm 0,0 UV-I 0 W/m² 6,4 °C 9,0 °C 11,3 km/h (2 Bft)
03.11.2017 02:00 9,6 °C 9,6 °C 81 % 1016,0 hPa 0,0 mm 1,9 km/h (1 Bft) W 270 ° 0 min 0,000 mm 0,0 UV-I 0 W/m² 6,5 °C 9,6 °C 4,8 km/h (1 Bft)
03.11.2017 02:01 9,5 °C 9,6 °C 82 % 1015,9 hPa 0,0 mm 3,0 km/h (1 Bft) W 270 ° 0 min 0,026 mm 0,0 UV-I 0 W/m² 6,6 °C 9,5 °C 4,8 km/h (1 Bft)
03.11.2017 02:02 9,5 °C 9,6 °C 82 % 1016,0 hPa 0,0 mm 1,4 km/h (1 Bft) W 270 ° 0 min 0,000 mm 0,0 UV-I 0 W/m² 6,6 °C 9,5 °C 3,2 km/h (1 Bft)
03.11.2017 02:03 9,4 °C 9,5 °C 82 % 1016,0 hPa 0,0 mm 2,5 km/h (1 Bft) W 270 ° 0 min 0,000 mm 0,0 UV-I 0 W/m² 6,5 °C 9,4 °C 3,2 km/h (1 Bft)
03.11.2017 02:04 9,4 °C 9,4 °C 82 % 1016,1 hPa 0,0 mm 1,8 km/h (1 Bft) W 270 ° 0 min 0,000 mm 0,0 UV-I 0 W/m² 6,5 °C 9,4 °C 3,2 km/h (1 Bft)
03.11.2017 02:05 9,4 °C 9,4 °C 82 % 1016,1 hPa 0,0 mm 1,3 km/h (1 Bft) W 270 ° 0 min 0,000 mm 0,0 UV-I 0 W/m² 6,5 °C 9,4 °C 3,2 km/h (1 Bft)
03.11.2017 02:06 9,4 °C 9,4 °C 82 % 1016,0 hPa 0,0 mm 2,1 km/h (1 Bft) W 270 ° 0 min 0,000 mm 0,0 UV-I 0 W/m² 6,5 °C 9,4 °C 4,8 km/h (1 Bft)
03.11.2017 02:07 9,4 °C 9,4 °C 82 % 1016,1 hPa 0,0 mm 2,5 km/h (1 Bft) W 270 ° 0 min 0,000 mm 0,0 UV-I 0 W/m² 6,5 °C 9,4 °C 4,8 km/h (1 Bft)
03.11.2017 02:08 9,4 °C 9,4 °C 82 % 1016,0 hPa 0,0 mm 1,8 km/h (1 Bft) W 270 ° 0 min 0,000 mm 0,0 UV-I 0 W/m² 6,5 °C 9,4 °C 3,2 km/h (1 Bft)
03.11.2017 02:09 9,4 °C 9,4 °C 82 % 1016,0 hPa 0,0 mm 0,0 km/h (0 Bft) W 270 ° 0 min 0,000 mm 0,0 UV-I 0 W/m² 6,5 °C 9,4 °C 0,0 km/h (0 Bft)
03.11.2017 02:10 9,4 °C 9,4 °C 82 % 1016,0 hPa 0,0 mm 0,0 km/h (0 Bft) W 270 ° 0 min 0,000 mm 0,0 UV-I 0 W/m² 6,5 °C 9,4 °C 0,0 km/h (0 Bft)
03.11.2017 02:11 9,4 °C 9,4 °C 82 % 1016,0 hPa 0,0 mm 0,5 km/h (0 Bft) W 270 ° 0 min 0,000 mm 0,0 UV-I 0 W/m² 6,5 °C 9,4 °C 1,6 km/h (1 Bft)
03.11.2017 02:12 9,4 °C 9,4 °C 82 % 1016,0 hPa 0,0 mm 2,3 km/h (1 Bft) W 270 ° 0 min 0,000 mm 0,0 UV-I 0 W/m² 6,5 °C 9,4 °C 4,8 km/h (1 Bft)
03.11.2017 02:13 9,3 °C 9,4 °C 82 % 1016,0 hPa 0,0 mm 0,3 km/h (0 Bft) W 270 ° 0 min 0,000 mm 0,0 UV-I 0 W/m² 6,4 °C 9,3 °C 1,6 km/h (1 Bft)
03.11.2017 02:14 9,4 °C 9,4 °C 82 % 1016,0 hPa 0,0 mm 0,0 km/h (0 Bft) W 270 ° 0 min 0,000 mm 0,0 UV-I 0 W/m² 6,5 °C 9,4 °C 0,0 km/h (0 Bft)
03.11.2017 02:15 9,3 °C 9,4 °C 82 % 1016,1 hPa 0,0 mm 0,0 km/h (0 Bft) W 270 ° 0 min 0,000 mm 0,0 UV-I 0 W/m² 6,4 °C 9,3 °C 0,0 km/h (0 Bft)
03.11.2017 02:16 9,4 °C 9,4 °C 82 % 1016,0 hPa 0,0 mm 0,0 km/h (0 Bft) W 270 ° 0 min 0,000 mm 0,0 UV-I 0 W/m² 6,5 °C 9,4 °C 0,0 km/h (0 Bft)
03.11.2017 02:17 9,4 °C 9,4 °C 82 % 1016,1 hPa 0,0 mm 0,7 km/h (0 Bft) W 270 ° 0 min 0,000 mm 0,0 UV-I 0 W/m² 6,5 °C 9,4 °C 1,6 km/h (1 Bft)
03.11.2017 02:18 9,4 °C 9,4 °C 83 % 1016,1 hPa 0,0 mm 1,9 km/h (1 Bft) W-SW 246 ° 0 min 0,000 mm 0,0 UV-I 0 W/m² 6,7 °C 9,4 °C 4,8 km/h (1 Bft)
03.11.2017 02:19 9,4 °C 9,4 °C 83 % 1016,0 hPa 0,0 mm 5,1 km/h (1 Bft) W 268 ° 0 min 0,000 mm 0,0 UV-I 0 W/m² 6,7 °C 9,0 °C 6,4 km/h (2 Bft)
03.11.2017 02:20 9,3 °C 9,4 °C 83 % 1016,0 hPa 0,0 mm 1,0 km/h (0 Bft) W 268 ° 0 min 0,000 mm 0,0 UV-I 0 W/m² 6,6 °C 9,3 °C 1,6 km/h (1 Bft)
03.11.2017 02:21 9,3 °C 9,3 °C 83 % 1015,9 hPa 0,0 mm 1,1 km/h (1 Bft) W 268 ° 0 min 0,000 mm 0,0 UV-I 0 W/m² 6,6 °C 9,3 °C 3,2 km/h (1 Bft)
03.11.2017 02:22 9,3 °C 9,3 °C 83 % 1016,0 hPa 0,0 mm 0,0 km/h (0 Bft) W 268 ° 0 min 0,000 mm 0,0 UV-I 0 W/m² 6,6 °C 9,3 °C 0,0 km/h (0 Bft)
03.11.2017 02:23 9,3 °C 9,3 °C 84 % 1016,0 hPa 0,0 mm 0,0 km/h (0 Bft) W 268 ° 0 min 0,000 mm 0,0 UV-I 0 W/m² 6,7 °C 9,3 °C 0,0 km/h (0 Bft)
03.11.2017 02:24 9,2 °C 9,3 °C 84 % 1015,9 hPa 0,0 mm 0,0 km/h (0 Bft) W 268 ° 0 min 0,000 mm 0,0 UV-I 0 W/m² 6,6 °C 9,2 °C 0,0 km/h (0 Bft)
03.11.2017 02:25 9,2 °C 9,2 °C 84 % 1015,9 hPa 0,0 mm 0,0 km/h (0 Bft) W 268 ° 0 min 0,000 mm 0,0 UV-I 0 W/m² 6,6 °C 9,2 °C 0,0 km/h (0 Bft)
03.11.2017 02:26 9,2 °C 9,2 °C 84 % 1015,9 hPa 0,0 mm 0,0 km/h (0 Bft) W 268 ° 0 min 0,000 mm 0,0 UV-I 0 W/m² 6,6 °C 9,2 °C 0,0 km/h (0 Bft)
03.11.2017 02:27 9,2 °C 9,2 °C 84 % 1015,9 hPa 0,0 mm 0,0 km/h (0 Bft) W 268 ° 0 min 0,000 mm 0,0 UV-I 0 W/m² 6,6 °C 9,2 °C 0,0 km/h (0 Bft)
03.11.2017 02:28 9,1 °C 9,2 °C 84 % 1015,9 hPa 0,0 mm 0,0 km/h (0 Bft) W 268 ° 0 min 0,000 mm 0,0 UV-I 0 W/m² 6,5 °C 9,1 °C 0,0 km/h (0 Bft)
03.11.2017 02:29 9,1 °C 9,1 °C 85 % 1015,9 hPa 0,0 mm 0,0 km/h (0 Bft) W 268 ° 0 min 0,000 mm 0,0 UV-I 0 W/m² 6,7 °C 9,1 °C 0,0 km/h (0 Bft)
03.11.2017 02:30 9,1 °C 9,1 °C 85 % 1015,9 hPa 0,0 mm 0,0 km/h (0 Bft) W 268 ° 0 min 0,000 mm 0,0 UV-I 0 W/m² 6,7 °C 9,1 °C 0,0 km/h (0 Bft)
03.11.2017 02:31 9,1 °C 9,1 °C 85 % 1015,9 hPa 0,0 mm 0,0 km/h (0 Bft) W 268 ° 0 min 0,000 mm 0,0 UV-I 0 W/m² 6,7 °C 9,1 °C 0,0 km/h (0 Bft)
03.11.2017 02:32 9,1 °C 9,1 °C 85 % 1015,9 hPa 0,0 mm 0,0 km/h (0 Bft) W 268 ° 0 min 0,000 mm 0,0 UV-I 0 W/m² 6,7 °C 9,1 °C 0,0 km/h (0 Bft)
03.11.2017 02:33 9,1 °C 9,1 °C 85 % 1015,9 hPa 0,0 mm 0,2 km/h (0 Bft) W 268 ° 0 min 0,000 mm 0,0 UV-I 0 W/m² 6,7 °C 9,1 °C 1,6 km/h (1 Bft)
03.11.2017 02:34 9,1 °C 9,1 °C 85 % 1015,9 hPa 0,0 mm 0,0 km/h (0 Bft) W 268 ° 0 min 0,000 mm 0,0 UV-I 0 W/m² 6,7 °C 9,1 °C 0,0 km/h (0 Bft)
03.11.2017 02:35 9,1 °C 9,1 °C 85 % 1015,9 hPa 0,0 mm 0,0 km/h (0 Bft) W 268 ° 0 min 0,000 mm 0,0 UV-I 0 W/m² 6,7 °C 9,1 °C 0,0 km/h (0 Bft)
03.11.2017 02:36 9,1 °C 9,1 °C 85 % 1016,0 hPa 0,0 mm 1,5 km/h (1 Bft) W 268 ° 0 min 0,000 mm 0,0 UV-I 0 W/m² 6,7 °C 9,1 °C 3,2 km/h (1 Bft)
03.11.2017 02:37 9,1 °C 9,1 °C 85 % 1016,0 hPa 0,0 mm 0,8 km/h (0 Bft) W 268 ° 0 min 0,000 mm 0,0 UV-I 0 W/m² 6,7 °C 9,1 °C 1,6 km/h (1 Bft)
03.11.2017 02:38 9,0 °C 9,1 °C 86 % 1015,9 hPa 0,0 mm 0,0 km/h (0 Bft) W 268 ° 0 min 0,000 mm 0,0 UV-I 0 W/m² 6,8 °C 9,0 °C 0,0 km/h (0 Bft)
03.11.2017 02:39 9,0 °C 9,1 °C 86 % 1015,9 hPa 0,0 mm 0,0 km/h (0 Bft) W 268 ° 0 min 0,000 mm 0,0 UV-I 0 W/m² 6,8 °C 9,0 °C 0,0 km/h (0 Bft)
03.11.2017 02:40 9,0 °C 9,0 °C 86 % 1015,9 hPa 0,0 mm 0,0 km/h (0 Bft) W 268 ° 0 min 0,000 mm 0,0 UV-I 0 W/m² 6,8 °C 9,0 °C 0,0 km/h (0 Bft)
03.11.2017 02:41 8,9 °C 9,0 °C 86 % 1015,9 hPa 0,0 mm 0,0 km/h (0 Bft) W 268 ° 0 min 0,000 mm 0,0 UV-I 0 W/m² 6,7 °C 8,9 °C 0,0 km/h (0 Bft)
03.11.2017 02:42 8,9 °C 8,9 °C 86 % 1015,9 hPa 0,0 mm 0,0 km/h (0 Bft) W 268 ° 0 min 0,000 mm 0,0 UV-I 0 W/m² 6,7 °C 8,9 °C 0,0 km/h (0 Bft)
03.11.2017 02:43 8,9 °C 8,9 °C 86 % 1015,9 hPa 0,0 mm 0,0 km/h (0 Bft) W 268 ° 0 min 0,000 mm 0,0 UV-I 0 W/m² 6,7 °C 8,9 °C 0,0 km/h (0 Bft)
03.11.2017 02:44 8,9 °C 8,9 °C 86 % 1015,9 hPa 0,0 mm 0,8 km/h (0 Bft) W 268 ° 0 min 0,000 mm 0,0 UV-I 0 W/m² 6,7 °C 8,9 °C 1,6 km/h (1 Bft)
03.11.2017 02:45 8,9 °C 8,9 °C 86 % 1015,9 hPa 0,0 mm 0,3 km/h (0 Bft) W 268 ° 0 min 0,000 mm 0,0 UV-I 0 W/m² 6,7 °C 8,9 °C 1,6 km/h (1 Bft)
03.11.2017 02:46 8,9 °C 8,9 °C 86 % 1015,9 hPa 0,0 mm 0,0 km/h (0 Bft) W 268 ° 0 min 0,000 mm 0,0 UV-I 0 W/m² 6,7 °C 8,9 °C 0,0 km/h (0 Bft)
03.11.2017 02:47 8,9 °C 8,9 °C 86 % 1016,0 hPa 0,0 mm 0,6 km/h (0 Bft) W 268 ° 0 min 0,000 mm 0,0 UV-I 0 W/m² 6,7 °C 8,9 °C 3,2 km/h (1 Bft)
03.11.2017 02:48 8,9 °C 8,9 °C 86 % 1016,0 hPa 0,0 mm 4,6 km/h (1 Bft) SW 216 ° 0 min 0,000 mm 0,0 UV-I 0 W/m² 6,7 °C 8,6 °C 6,4 km/h (2 Bft)
03.11.2017 02:49 8,9 °C 8,9 °C 87 % 1016,1 hPa 0,0 mm 4,4 km/h (1 Bft) SW 214 ° 0 min 0,000 mm 0,0 UV-I 0 W/m² 6,9 °C 8,9 °C 6,4 km/h (2 Bft)
03.11.2017 02:50 8,9 °C 8,9 °C 87 % 1016,0 hPa 0,0 mm 2,1 km/h (1 Bft) SW 214 ° 0 min 0,000 mm 0,0 UV-I 0 W/m² 6,9 °C 8,9 °C 3,2 km/h (1 Bft)
03.11.2017 02:51 8,9 °C 8,9 °C 87 % 1016,1 hPa 0,0 mm 2,7 km/h (1 Bft) SW 214 ° 0 min 0,000 mm 0,0 UV-I 0 W/m² 6,9 °C 8,9 °C 4,8 km/h (1 Bft)
03.11.2017 02:52 8,9 °C 8,9 °C 87 % 1016,1 hPa 0,0 mm 3,8 km/h (1 Bft) SW 214 ° 0 min 0,000 mm 0,0 UV-I 0 W/m² 6,9 °C 8,9 °C 4,8 km/h (1 Bft)
03.11.2017 02:53 8,9 °C 8,9 °C 87 % 1016,1 hPa 0,0 mm 1,5 km/h (1 Bft) SW 214 ° 0 min 0,000 mm 0,0 UV-I 0 W/m² 6,9 °C 8,9 °C 3,2 km/h (1 Bft)
03.11.2017 02:54 8,9 °C 8,9 °C 88 % 1016,1 hPa 0,0 mm 2,1 km/h (1 Bft) SW 214 ° 0 min 0,000 mm 0,0 UV-I 0 W/m² 7,0 °C 8,9 °C 3,2 km/h (1 Bft)
03.11.2017 02:55 8,8 °C 8,9 °C 88 % 1016,1 hPa 0,0 mm 2,2 km/h (1 Bft) SW 214 ° 0 min 0,000 mm 0,0 UV-I 0 W/m² 6,9 °C 8,8 °C 3,2 km/h (1 Bft)
03.11.2017 02:56 8,8 °C 8,8 °C 88 % 1016,0 hPa 0,0 mm 4,0 km/h (1 Bft) S-SW 213 ° 0 min 0,000 mm 0,0 UV-I 0 W/m² 6,9 °C 8,8 °C 4,8 km/h (1 Bft)
03.11.2017 02:57 8,8 °C 8,8 °C 88 % 1016,0 hPa 0,0 mm 2,4 km/h (1 Bft) S-SW 213 ° 0 min 0,000 mm 0,0 UV-I 0 W/m² 6,9 °C 8,8 °C 4,8 km/h (1 Bft)
03.11.2017 02:58 8,8 °C 8,8 °C 89 % 1016,0 hPa 0,0 mm 2,2 km/h (1 Bft) S-SW 213 ° 0 min 0,000 mm 0,0 UV-I 0 W/m² 7,1 °C 8,8 °C 3,2 km/h (1 Bft)
03.11.2017 02:59 8,7 °C 8,8 °C 89 % 1016,0 hPa 0,0 mm 2,0 km/h (1 Bft) S-SW 213 ° 0 min 0,000 mm 0,0 UV-I 0 W/m² 7,0 °C 8,7 °C 3,2 km/h (1 Bft)
03.11.2017 03:00 8,7 °C 8,7 °C 89 % 1016,0 hPa 0,0 mm 1,9 km/h (1 Bft) S-SW 213 ° 0 min 0,000 mm 0,0 UV-I 0 W/m² 7,0 °C 8,7 °C 3,2 km/h (1 Bft)
03.11.2017 03:01 8,7 °C 8,7 °C 89 % 1015,9 hPa 0,0 mm 0,7 km/h (0 Bft) S-SW 213 ° 0 min 0,000 mm 0,0 UV-I 0 W/m² 7,0 °C 8,7 °C 1,6 km/h (1 Bft)
03.11.2017 03:02 8,7 °C 8,7 °C 89 % 1015,9 hPa 0,0 mm 0,6 km/h (0 Bft) S-SW 213 ° 0 min 0,000 mm 0,0 UV-I 0 W/m² 7,0 °C 8,7 °C 1,6 km/h (1 Bft)
03.11.2017 03:03 8,7 °C 8,7 °C 89 % 1015,9 hPa 0,0 mm 0,0 km/h (0 Bft) S-SW 213 ° 0 min 0,000 mm 0,0 UV-I 0 W/m² 7,0 °C 8,7 °C 0,0 km/h (0 Bft)
03.11.2017 03:04 8,7 °C 8,7 °C 89 % 1016,0 hPa 0,0 mm 0,0 km/h (0 Bft) S-SW 213 ° 0 min 0,000 mm 0,0 UV-I 0 W/m² 7,0 °C 8,7 °C 0,0 km/h (0 Bft)
03.11.2017 03:05 8,7 °C 8,7 °C 89 % 1016,0 hPa 0,0 mm 0,0 km/h (0 Bft) S-SW 213 ° 0 min 0,000 mm 0,0 UV-I 0 W/m² 7,0 °C 8,7 °C 0,0 km/h (0 Bft)
03.11.2017 03:06 8,7 °C 8,7 °C 89 % 1016,0 hPa 0,0 mm 0,0 km/h (0 Bft) S-SW 213 ° 0 min 0,000 mm 0,0 UV-I 0 W/m² 7,0 °C 8,7 °C 0,0 km/h (0 Bft)
03.11.2017 03:07 8,6 °C 8,7 °C 90 % 1016,0 hPa 0,0 mm 0,0 km/h (0 Bft) S-SW 213 ° 0 min 0,000 mm 0,0 UV-I 0 W/m² 7,1 °C 8,6 °C 0,0 km/h (0 Bft)
03.11.2017 03:08 8,6 °C 8,6 °C 90 % 1016,0 hPa 0,0 mm 0,0 km/h (0 Bft) S-SW 213 ° 0 min 0,000 mm 0,0 UV-I 0 W/m² 7,1 °C 8,6 °C 0,0 km/h (0 Bft)
03.11.2017 03:09 8,6 °C 8,6 °C 90 % 1016,0 hPa 0,0 mm 0,0 km/h (0 Bft) S-SW 213 ° 0 min 0,000 mm 0,0 UV-I 0 W/m² 7,1 °C 8,6 °C 0,0 km/h (0 Bft)
03.11.2017 03:10 8,6 °C 8,6 °C 90 % 1016,1 hPa 0,0 mm 0,0 km/h (0 Bft) S-SW 213 ° 0 min 0,000 mm 0,0 UV-I 0 W/m² 7,1 °C 8,6 °C 0,0 km/h (0 Bft)
03.11.2017 03:11 8,6 °C 8,6 °C 90 % 1016,1 hPa 0,0 mm 0,0 km/h (0 Bft) S-SW 213 ° 0 min 0,000 mm 0,0 UV-I 0 W/m² 7,1 °C 8,6 °C 0,0 km/h (0 Bft)
03.11.2017 03:12 8,4 °C 8,6 °C 90 % 1016,0 hPa 0,0 mm 0,0 km/h (0 Bft) S-SW 213 ° 0 min 0,000 mm 0,0 UV-I 0 W/m² 6,9 °C 8,4 °C 0,0 km/h (0 Bft)
03.11.2017 03:13 8,4 °C 8,5 °C 90 % 1016,0 hPa 0,0 mm 0,0 km/h (0 Bft) S-SW 213 ° 0 min 0,000 mm 0,0 UV-I 0 W/m² 6,9 °C 8,4 °C 0,0 km/h (0 Bft)
03.11.2017 03:14 8,4 °C 8,4 °C 90 % 1016,0 hPa 0,0 mm 0,0 km/h (0 Bft) S-SW 213 ° 0 min 0,000 mm 0,0 UV-I 0 W/m² 6,9 °C 8,4 °C 0,0 km/h (0 Bft)
03.11.2017 03:15 8,4 °C 8,4 °C 90 % 1016,0 hPa 0,0 mm 0,0 km/h (0 Bft) S-SW 213 ° 0 min 0,000 mm 0,0 UV-I 0 W/m² 6,9 °C 8,4 °C 0,0 km/h (0 Bft)
03.11.2017 03:16 8,4 °C 8,4 °C 90 % 1016,0 hPa 0,0 mm 0,0 km/h (0 Bft) S-SW 213 ° 0 min 0,000 mm 0,0 UV-I 0 W/m² 6,9 °C 8,4 °C 0,0 km/h (0 Bft)
03.11.2017 03:17 8,4 °C 8,4 °C 91 % 1016,0 hPa 0,0 mm 0,0 km/h (0 Bft) S-SW 213 ° 0 min 0,000 mm 0,0 UV-I 0 W/m² 7,0 °C 8,4 °C 0,0 km/h (0 Bft)
03.11.2017 03:18 8,3 °C 8,4 °C 90 % 1015,9 hPa 0,0 mm 0,0 km/h (0 Bft) S-SW 213 ° 0 min 0,000 mm 0,0 UV-I 0 W/m² 6,8 °C 8,3 °C 0,0 km/h (0 Bft)
03.11.2017 03:19 8,3 °C 8,3 °C 90 % 1015,9 hPa 0,0 mm 0,0 km/h (0 Bft) S-SW 213 ° 0 min 0,000 mm 0,0 UV-I 0 W/m² 6,8 °C 8,3 °C 0,0 km/h (0 Bft)
03.11.2017 03:20 8,4 °C 8,4 °C 91 % 1015,9 hPa 0,0 mm 0,0 km/h (0 Bft) S-SW 213 ° 0 min 0,000 mm 0,0 UV-I 0 W/m² 7,0 °C 8,4 °C 0,0 km/h (0 Bft)
03.11.2017 03:21 8,4 °C 8,4 °C 91 % 1015,8 hPa 0,0 mm 0,0 km/h (0 Bft) S-SW 213 ° 0 min 0,000 mm 0,0 UV-I 0 W/m² 7,0 °C 8,4 °C 0,0 km/h (0 Bft)
03.11.2017 03:22 8,4 °C 8,4 °C 91 % 1015,8 hPa 0,0 mm 0,0 km/h (0 Bft) S-SW 213 ° 0 min 0,000 mm 0,0 UV-I 0 W/m² 7,0 °C 8,4 °C 0,0 km/h (0 Bft)
03.11.2017 03:23 8,4 °C 8,4 °C 91 % 1015,9 hPa 0,0 mm 0,0 km/h (0 Bft) S-SW 213 ° 0 min 0,000 mm 0,0 UV-I 0 W/m² 7,0 °C 8,4 °C 0,0 km/h (0 Bft)
03.11.2017 03:24 8,4 °C 8,4 °C 91 % 1015,8 hPa 0,0 mm 0,0 km/h (0 Bft) S-SW 213 ° 0 min 0,000 mm 0,0 UV-I 0 W/m² 7,0 °C 8,4 °C 0,0 km/h (0 Bft)
03.11.2017 03:25 8,4 °C 8,5 °C 91 % 1015,8 hPa 0,0 mm 0,0 km/h (0 Bft) S-SW 213 ° 0 min 0,000 mm 0,0 UV-I 0 W/m² 7,0 °C 8,4 °C 0,0 km/h (0 Bft)
03.11.2017 03:26 8,4 °C 8,5 °C 91 % 1015,8 hPa 0,0 mm 0,0 km/h (0 Bft) S-SW 213 ° 0 min 0,000 mm 0,0 UV-I 0 W/m² 7,0 °C 8,4 °C 0,0 km/h (0 Bft)
03.11.2017 03:27 8,5 °C 8,5 °C 91 % 1015,8 hPa 0,0 mm 0,0 km/h (0 Bft) S-SW 213 ° 0 min 0,000 mm 0,0 UV-I 0 W/m² 7,1 °C 8,5 °C 0,0 km/h (0 Bft)
03.11.2017 03:28 8,4 °C 8,5 °C 91 % 1015,8 hPa 0,0 mm 0,0 km/h (0 Bft) S-SW 213 ° 0 min 0,000 mm 0,0 UV-I 0 W/m² 7,0 °C 8,4 °C 0,0 km/h (0 Bft)
03.11.2017 03:29 8,5 °C 8,5 °C 91 % 1015,8 hPa 0,0 mm 0,0 km/h (0 Bft) S-SW 213 ° 0 min 0,000 mm 0,0 UV-I 0 W/m² 7,1 °C 8,5 °C 0,0 km/h (0 Bft)
03.11.2017 03:30 8,5 °C 8,5 °C 90 % 1015,8 hPa 0,0 mm 0,0 km/h (0 Bft) S-SW 213 ° 0 min 0,000 mm 0,0 UV-I 0 W/m² 7,0 °C 8,5 °C 0,0 km/h (0 Bft)
03.11.2017 03:31 8,5 °C 8,5 °C 90 % 1015,7 hPa 0,0 mm 0,0 km/h (0 Bft) S-SW 213 ° 0 min 0,000 mm 0,0 UV-I 0 W/m² 7,0 °C 8,5 °C 0,0 km/h (0 Bft)
03.11.2017 03:32 8,5 °C 8,5 °C 90 % 1015,7 hPa 0,0 mm 0,0 km/h (0 Bft) S-SW 213 ° 0 min 0,000 mm 0,0 UV-I 0 W/m² 7,0 °C 8,5 °C 0,0 km/h (0 Bft)
03.11.2017 03:33 8,5 °C 8,6 °C 90 % 1015,7 hPa 0,0 mm 0,0 km/h (0 Bft) S-SW 213 ° 0 min 0,000 mm 0,0 UV-I 0 W/m² 7,0 °C 8,5 °C 0,0 km/h (0 Bft)
03.11.2017 03:34 8,4 °C 8,5 °C 90 % 1015,7 hPa 0,0 mm 0,0 km/h (0 Bft) S-SW 213 ° 0 min 0,000 mm 0,0 UV-I 0 W/m² 6,9 °C 8,4 °C 0,0 km/h (0 Bft)
03.11.2017 03:35 8,4 °C 8,5 °C 90 % 1015,8 hPa 0,0 mm 0,0 km/h (0 Bft) S-SW 213 ° 0 min 0,000 mm 0,0 UV-I 0 W/m² 6,9 °C 8,4 °C 0,0 km/h (0 Bft)
03.11.2017 03:36 8,4 °C 8,4 °C 90 % 1015,7 hPa 0,0 mm 0,0 km/h (0 Bft) S-SW 213 ° 0 min 0,000 mm 0,0 UV-I 0 W/m² 6,9 °C 8,4 °C 0,0 km/h (0 Bft)
03.11.2017 03:37 8,4 °C 8,4 °C 90 % 1015,8 hPa 0,0 mm 0,0 km/h (0 Bft) S-SW 213 ° 0 min 0,000 mm 0,0 UV-I 0 W/m² 6,9 °C 8,4 °C 0,0 km/h (0 Bft)
03.11.2017 03:38 8,3 °C 8,4 °C 90 % 1015,8 hPa 0,0 mm 0,0 km/h (0 Bft) S-SW 213 ° 0 min 0,000 mm 0,0 UV-I 0 W/m² 6,8 °C 8,3 °C 0,0 km/h (0 Bft)
03.11.2017 03:39 8,3 °C 8,3 °C 90 % 1015,8 hPa 0,0 mm 0,0 km/h (0 Bft) S-SW 213 ° 0 min 0,000 mm 0,0 UV-I 0 W/m² 6,8 °C 8,3 °C 0,0 km/h (0 Bft)
03.11.2017 03:40 8,3 °C 8,3 °C 90 % 1015,8 hPa 0,2 mm 0,0 km/h (0 Bft) S-SW 213 ° 0 min 0,000 mm 0,0 UV-I 0 W/m² 6,8 °C 8,3 °C 0,0 km/h (0 Bft)
03.11.2017 03:41 8,3 °C 8,3 °C 90 % 1015,8 hPa 0,0 mm 0,0 km/h (0 Bft) S-SW 213 ° 0 min 0,000 mm 0,0 UV-I 0 W/m² 6,8 °C 8,3 °C 0,0 km/h (0 Bft)
03.11.2017 03:42 8,3 °C 8,3 °C 90 % 1015,8 hPa 0,0 mm 0,0 km/h (0 Bft) S-SW 213 ° 0 min 0,000 mm 0,0 UV-I 0 W/m² 6,8 °C 8,3 °C 0,0 km/h (0 Bft)
03.11.2017 03:43 8,3 °C 8,3 °C 91 % 1015,8 hPa 0,0 mm 0,0 km/h (0 Bft) S-SW 213 ° 0 min 0,000 mm 0,0 UV-I 0 W/m² 6,9 °C 8,3 °C 0,0 km/h (0 Bft)
03.11.2017 03:44 8,3 °C 8,3 °C 90 % 1015,8 hPa 0,0 mm 0,0 km/h (0 Bft) S-SW 213 ° 0 min 0,000 mm 0,0 UV-I 0 W/m² 6,8 °C 8,3 °C 0,0 km/h (0 Bft)
03.11.2017 03:45 8,3 °C 8,3 °C 91 % 1015,9 hPa 0,0 mm 0,0 km/h (0 Bft) S-SW 213 ° 0 min 0,000 mm 0,0 UV-I 0 W/m² 6,9 °C 8,3 °C 0,0 km/h (0 Bft)
03.11.2017 03:46 8,3 °C 8,3 °C 91 % 1015,9 hPa 0,0 mm 0,0 km/h (0 Bft) S-SW 213 ° 0 min 0,000 mm 0,0 UV-I 0 W/m² 6,9 °C 8,3 °C 0,0 km/h (0 Bft)
03.11.2017 03:47 8,2 °C 8,3 °C 91 % 1015,9 hPa 0,2 mm 0,0 km/h (0 Bft) S-SW 213 ° 0 min 0,000 mm 0,0 UV-I 0 W/m² 6,8 °C 8,2 °C 0,0 km/h (0 Bft)
03.11.2017 03:48 8,2 °C 8,2 °C 91 % 1015,9 hPa 0,0 mm 0,0 km/h (0 Bft) S-SW 213 ° 0 min 0,000 mm 0,0 UV-I 0 W/m² 6,8 °C 8,2 °C 0,0 km/h (0 Bft)
03.11.2017 03:49 8,1 °C 8,2 °C 91 % 1015,9 hPa 0,0 mm 0,0 km/h (0 Bft) S-SW 213 ° 0 min 0,000 mm 0,0 UV-I 0 W/m² 6,7 °C 8,1 °C 0,0 km/h (0 Bft)
03.11.2017 03:50 8,1 °C 8,1 °C 91 % 1015,9 hPa 0,0 mm 0,0 km/h (0 Bft) S-SW 213 ° 0 min 0,000 mm 0,0 UV-I 0 W/m² 6,7 °C 8,1 °C 0,0 km/h (0 Bft)
03.11.2017 03:51 8,1 °C 8,1 °C 91 % 1016,0 hPa 0,0 mm 0,0 km/h (0 Bft) S-SW 213 ° 0 min 0,000 mm 0,0 UV-I 0 W/m² 6,7 °C 8,1 °C 0,0 km/h (0 Bft)
03.11.2017 03:52 8,1 °C 8,1 °C 91 % 1016,0 hPa 0,2 mm 0,0 km/h (0 Bft) S-SW 213 ° 0 min 0,000 mm 0,0 UV-I 0 W/m² 6,7 °C 8,1 °C 0,0 km/h (0 Bft)
03.11.2017 03:53 8,0 °C 8,1 °C 91 % 1016,0 hPa 0,0 mm 0,0 km/h (0 Bft) S-SW 213 ° 0 min 0,000 mm 0,0 UV-I 0 W/m² 6,6 °C 8,0 °C 0,0 km/h (0 Bft)
03.11.2017 03:54 7,9 °C 8,0 °C 91 % 1015,9 hPa 0,0 mm 0,0 km/h (0 Bft) S-SW 213 ° 0 min 0,000 mm 0,0 UV-I 0 W/m² 6,5 °C 7,9 °C 0,0 km/h (0 Bft)
03.11.2017 03:55 7,9 °C 8,0 °C 92 % 1015,9 hPa 0,0 mm 0,0 km/h (0 Bft) S-SW 213 ° 0 min 0,000 mm 0,0 UV-I 0 W/m² 6,7 °C 7,9 °C 0,0 km/h (0 Bft)
03.11.2017 03:56 7,9 °C 8,0 °C 92 % 1016,0 hPa 0,0 mm 0,0 km/h (0 Bft) S-SW 213 ° 0 min 0,000 mm 0,0 UV-I 0 W/m² 6,7 °C 7,9 °C 0,0 km/h (0 Bft)
03.11.2017 03:57 7,9 °C 7,9 °C 92 % 1015,9 hPa 0,2 mm 0,8 km/h (0 Bft) NW 305 ° 0 min 0,000 mm 0,0 UV-I 0 W/m² 6,7 °C 7,9 °C 3,2 km/h (1 Bft)
03.11.2017 03:58 7,9 °C 7,9 °C 92 % 1016,0 hPa 0,0 mm 1,4 km/h (1 Bft) NW 305 ° 0 min 0,000 mm 0,0 UV-I 0 W/m² 6,7 °C 7,9 °C 3,2 km/h (1 Bft)
03.11.2017 03:59 7,9 °C 7,9 °C 92 % 1016,1 hPa 0,0 mm 0,2 km/h (0 Bft) NW 305 ° 0 min 0,000 mm 0,0 UV-I 0 W/m² 6,7 °C 7,9 °C 1,6 km/h (1 Bft)
03.11.2017 04:00 7,9 °C 7,9 °C 92 % 1016,0 hPa 0,2 mm 0,0 km/h (0 Bft) NW 305 ° 0 min 0,000 mm 0,0 UV-I 0 W/m² 6,7 °C 7,9 °C 0,0 km/h (0 Bft)
03.11.2017 04:01 7,9 °C 7,9 °C 92 % 1015,9 hPa 0,0 mm 0,0 km/h (0 Bft) NW 305 ° 0 min 0,000 mm 0,0 UV-I 0 W/m² 6,7 °C 7,9 °C 0,0 km/h (0 Bft)
03.11.2017 04:02 7,9 °C 7,9 °C 92 % 1015,9 hPa 0,0 mm 0,0 km/h (0 Bft) NW 305 ° 0 min 0,000 mm 0,0 UV-I 0 W/m² 6,7 °C 7,9 °C 0,0 km/h (0 Bft)
03.11.2017 04:03 7,9 °C 7,9 °C 92 % 1015,9 hPa 0,0 mm 0,0 km/h (0 Bft) NW 305 ° 0 min 0,000 mm 0,0 UV-I 0 W/m² 6,7 °C 7,9 °C 0,0 km/h (0 Bft)
03.11.2017 04:04 7,9 °C 7,9 °C 92 % 1016,0 hPa 0,0 mm 0,0 km/h (0 Bft) NW 305 ° 0 min 0,000 mm 0,0 UV-I 0 W/m² 6,7 °C 7,9 °C 0,0 km/h (0 Bft)
03.11.2017 04:05 7,8 °C 7,9 °C 92 % 1016,0 hPa 0,2 mm 0,0 km/h (0 Bft) NW 305 ° 0 min 0,000 mm 0,0 UV-I 0 W/m² 6,6 °C 7,8 °C 0,0 km/h (0 Bft)
03.11.2017 04:06 7,8 °C 7,8 °C 92 % 1016,0 hPa 0,0 mm 0,0 km/h (0 Bft) NW 305 ° 0 min 0,000 mm 0,0 UV-I 0 W/m² 6,6 °C 7,8 °C 0,0 km/h (0 Bft)
03.11.2017 04:07 7,8 °C 7,9 °C 92 % 1016,0 hPa 0,0 mm 0,0 km/h (0 Bft) NW 305 ° 0 min 0,000 mm 0,0 UV-I 0 W/m² 6,6 °C 7,8 °C 0,0 km/h (0 Bft)
03.11.2017 04:08 7,8 °C 7,8 °C 92 % 1016,0 hPa 0,2 mm 0,0 km/h (0 Bft) NW 305 ° 0 min 0,000 mm 0,0 UV-I 0 W/m² 6,6 °C 7,8 °C 0,0 km/h (0 Bft)
03.11.2017 04:09 7,8 °C 7,8 °C 92 % 1016,0 hPa 0,0 mm 0,0 km/h (0 Bft) NW 305 ° 0 min 0,000 mm 0,0 UV-I 0 W/m² 6,6 °C 7,8 °C 0,0 km/h (0 Bft)
03.11.2017 04:10 7,8 °C 7,8 °C 93 % 1016,0 hPa 0,0 mm 0,0 km/h (0 Bft) NW 305 ° 0 min 0,000 mm 0,0 UV-I 0 W/m² 6,7 °C 7,8 °C 0,0 km/h (0 Bft)
03.11.2017 04:11 7,8 °C 7,8 °C 93 % 1016,0 hPa 0,0 mm 0,0 km/h (0 Bft) NW 305 ° 0 min 0,000 mm 0,0 UV-I 0 W/m² 6,7 °C 7,8 °C 0,0 km/h (0 Bft)
03.11.2017 04:12 7,8 °C 7,8 °C 93 % 1015,9 hPa 0,0 mm 0,0 km/h (0 Bft) NW 305 ° 0 min 0,000 mm 0,0 UV-I 0 W/m² 6,7 °C 7,8 °C 0,0 km/h (0 Bft)
03.11.2017 04:13 7,8 °C 7,8 °C 93 % 1016,0 hPa 0,0 mm 0,0 km/h (0 Bft) N 0 ° 0 min 0,000 mm 0,0 UV-I 0 W/m² 6,7 °C 7,8 °C 0,0 km/h (0 Bft)
03.11.2017 04:14 7,8 °C 7,8 °C 93 % 1016,0 hPa 0,0 mm 0,0 km/h (0 Bft) N 0 ° 0 min 0,000 mm 0,0 UV-I 0 W/m² 6,7 °C 7,8 °C 0,0 km/h (0 Bft)
03.11.2017 04:15 7,8 °C 7,8 °C 93 % 1016,0 hPa 0,2 mm 0,0 km/h (0 Bft) N 0 ° 0 min 0,000 mm 0,0 UV-I 0 W/m² 6,7 °C 7,8 °C 0,0 km/h (0 Bft)
03.11.2017 04:16 7,8 °C 7,8 °C 93 % 1016,1 hPa 0,0 mm 0,0 km/h (0 Bft) N 0 ° 0 min 0,000 mm 0,0 UV-I 0 W/m² 6,7 °C 7,8 °C 0,0 km/h (0 Bft)
03.11.2017 04:17 7,8 °C 7,8 °C 93 % 1016,1 hPa 0,0 mm 0,0 km/h (0 Bft) N 0 ° 0 min 0,000 mm 0,0 UV-I 0 W/m² 6,7 °C 7,8 °C 0,0 km/h (0 Bft)
03.11.2017 04:18 7,8 °C 7,8 °C 93 % 1016,1 hPa 0,0 mm 0,0 km/h (0 Bft) N 0 ° 0 min 0,000 mm 0,0 UV-I 0 W/m² 6,7 °C 7,8 °C 0,0 km/h (0 Bft)
03.11.2017 04:19 7,8 °C 7,8 °C 93 % 1016,1 hPa 0,2 mm 0,0 km/h (0 Bft) N 0 ° 0 min 0,000 mm 0,0 UV-I 0 W/m² 6,7 °C 7,8 °C 0,0 km/h (0 Bft)
03.11.2017 04:20 7,8 °C 7,8 °C 93 % 1016,1 hPa 0,0 mm 0,0 km/h (0 Bft) N 0 ° 0 min 0,000 mm 0,0 UV-I 0 W/m² 6,7 °C 7,8 °C 0,0 km/h (0 Bft)
03.11.2017 04:21 7,8 °C 7,8 °C 93 % 1015,9 hPa 0,0 mm 0,0 km/h (0 Bft) N 0 ° 0 min 0,000 mm 0,0 UV-I 0 W/m² 6,7 °C 7,8 °C 0,0 km/h (0 Bft)
03.11.2017 04:22 7,8 °C 7,8 °C 93 % 1016,0 hPa 0,2 mm 0,0 km/h (0 Bft) N 0 ° 0 min 0,000 mm 0,0 UV-I 0 W/m² 6,7 °C 7,8 °C 0,0 km/h (0 Bft)
03.11.2017 04:25 7,8 °C 7,8 °C 93 % 1016,1 hPa 0,2 mm 0,0 km/h (0 Bft) NW 305 ° 0 min 0,000 mm 0,0 UV-I 0 W/m² 6,7 °C 7,8 °C 0,0 km/h (0 Bft)
03.11.2017 04:26 7,8 °C 7,8 °C 93 % 1016,1 hPa 0,0 mm 0,0 km/h (0 Bft) NW 305 ° 0 min 0,000 mm 0,0 UV-I 0 W/m² 6,7 °C 7,8 °C 0,0 km/h (0 Bft)
03.11.2017 04:27 7,8 °C 7,8 °C 93 % 1016,1 hPa 0,2 mm 0,0 km/h (0 Bft) NW 305 ° 0 min 0,000 mm 0,0 UV-I 0 W/m² 6,7 °C 7,8 °C 0,0 km/h (0 Bft)
03.11.2017 04:28 7,7 °C 7,8 °C 93 % 1016,1 hPa 0,0 mm 0,0 km/h (0 Bft) NW 305 ° 0 min 0,000 mm 0,0 UV-I 0 W/m² 6,6 °C 7,7 °C 0,0 km/h (0 Bft)
03.11.2017 04:29 7,7 °C 7,7 °C 93 % 1016,1 hPa 0,0 mm 0,0 km/h (0 Bft) NW 305 ° 0 min 0,000 mm 0,0 UV-I 0 W/m² 6,6 °C 7,7 °C 0,0 km/h (0 Bft)
03.11.2017 04:30 7,7 °C 7,7 °C 93 % 1016,1 hPa 0,2 mm 0,0 km/h (0 Bft) NW 305 ° 0 min 0,000 mm 0,0 UV-I 0 W/m² 6,6 °C 7,7 °C 0,0 km/h (0 Bft)
03.11.2017 04:31 7,7 °C 7,7 °C 93 % 1016,1 hPa 0,0 mm 0,0 km/h (0 Bft) NW 305 ° 0 min 0,000 mm 0,0 UV-I 0 W/m² 6,6 °C 7,7 °C 0,0 km/h (0 Bft)
03.11.2017 04:32 7,7 °C 7,7 °C 93 % 1016,0 hPa 0,0 mm 0,0 km/h (0 Bft) NW 305 ° 0 min 0,000 mm 0,0 UV-I 0 W/m² 6,6 °C 7,7 °C 0,0 km/h (0 Bft)
03.11.2017 04:33 7,7 °C 7,7 °C 93 % 1016,0 hPa 0,0 mm 0,0 km/h (0 Bft) NW 305 ° 0 min 0,000 mm 0,0 UV-I 0 W/m² 6,6 °C 7,7 °C 0,0 km/h (0 Bft)
03.11.2017 04:34 7,7 °C 7,7 °C 94 % 1016,1 hPa 0,2 mm 0,0 km/h (0 Bft) NW 305 ° 0 min 0,000 mm 0,0 UV-I 0 W/m² 6,8 °C 7,7 °C 0,0 km/h (0 Bft)
03.11.2017 04:35 7,7 °C 7,7 °C 94 % 1016,1 hPa 0,0 mm 0,0 km/h (0 Bft) NW 305 ° 0 min 0,000 mm 0,0 UV-I 0 W/m² 6,8 °C 7,7 °C 0,0 km/h (0 Bft)
03.11.2017 04:36 7,7 °C 7,7 °C 94 % 1016,1 hPa 0,0 mm 0,0 km/h (0 Bft) NW 305 ° 0 min 0,000 mm 0,0 UV-I 0 W/m² 6,8 °C 7,7 °C 0,0 km/h (0 Bft)
03.11.2017 04:37 7,7 °C 7,7 °C 94 % 1016,1 hPa 0,2 mm 0,0 km/h (0 Bft) NW 305 ° 0 min 0,000 mm 0,0 UV-I 0 W/m² 6,8 °C 7,7 °C 0,0 km/h (0 Bft)
03.11.2017 04:38 7,7 °C 7,7 °C 94 % 1016,2 hPa 0,0 mm 0,0 km/h (0 Bft) NW 305 ° 0 min 0,000 mm 0,0 UV-I 0 W/m² 6,8 °C 7,7 °C 0,0 km/h (0 Bft)
03.11.2017 04:39 7,7 °C 7,7 °C 94 % 1016,2 hPa 0,0 mm 0,0 km/h (0 Bft) NW 305 ° 0 min 0,000 mm 0,0 UV-I 0 W/m² 6,8 °C 7,7 °C 0,0 km/h (0 Bft)
03.11.2017 04:40 7,7 °C 7,7 °C 94 % 1016,2 hPa 0,2 mm 0,0 km/h (0 Bft) NW 305 ° 0 min 0,000 mm 0,0 UV-I 0 W/m² 6,8 °C 7,7 °C 0,0 km/h (0 Bft)
03.11.2017 04:41 7,7 °C 7,7 °C 94 % 1016,2 hPa 0,0 mm 0,0 km/h (0 Bft) NW 305 ° 0 min 0,000 mm 0,0 UV-I 0 W/m² 6,8 °C 7,7 °C 0,0 km/h (0 Bft)
03.11.2017 04:42 7,7 °C 7,7 °C 94 % 1016,2 hPa 0,0 mm 0,0 km/h (0 Bft) NW 305 ° 0 min 0,000 mm 0,0 UV-I 0 W/m² 6,8 °C 7,7 °C 0,0 km/h (0 Bft)
03.11.2017 04:43 7,7 °C 7,7 °C 94 % 1016,2 hPa 0,2 mm 0,0 km/h (0 Bft) NW 305 ° 0 min 0,000 mm 0,0 UV-I 0 W/m² 6,8 °C 7,7 °C 0,0 km/h (0 Bft)
03.11.2017 04:44 7,6 °C 7,7 °C 94 % 1016,2 hPa 0,0 mm 0,0 km/h (0 Bft) NW 305 ° 0 min 0,000 mm 0,0 UV-I 0 W/m² 6,7 °C 7,6 °C 0,0 km/h (0 Bft)
03.11.2017 04:45 7,7 °C 7,7 °C 94 % 1016,2 hPa 0,0 mm 0,0 km/h (0 Bft) NW 305 ° 0 min 0,000 mm 0,0 UV-I 0 W/m² 6,8 °C 7,7 °C 0,0 km/h (0 Bft)
03.11.2017 04:46 7,7 °C 7,7 °C 94 % 1016,2 hPa 0,0 mm 0,0 km/h (0 Bft) NW 305 ° 0 min 0,000 mm 0,0 UV-I 0 W/m² 6,8 °C 7,7 °C 0,0 km/h (0 Bft)
03.11.2017 04:47 7,6 °C 7,7 °C 94 % 1016,3 hPa 0,2 mm 0,0 km/h (0 Bft) NW 305 ° 0 min 0,000 mm 0,0 UV-I 0 W/m² 6,7 °C 7,6 °C 0,0 km/h (0 Bft)
03.11.2017 04:48 7,7 °C 7,7 °C 94 % 1016,3 hPa 0,0 mm 0,0 km/h (0 Bft) NW 305 ° 0 min 0,000 mm 0,0 UV-I 0 W/m² 6,8 °C 7,7 °C 0,0 km/h (0 Bft)
03.11.2017 04:49 7,7 °C 7,7 °C 94 % 1016,2 hPa 0,0 mm 0,0 km/h (0 Bft) NW 305 ° 0 min 0,000 mm 0,0 UV-I 0 W/m² 6,8 °C 7,7 °C 0,0 km/h (0 Bft)
03.11.2017 04:50 7,6 °C 7,7 °C 94 % 1016,2 hPa 0,2 mm 0,0 km/h (0 Bft) NW 305 ° 0 min 0,000 mm 0,0 UV-I 0 W/m² 6,7 °C 7,6 °C 0,0 km/h (0 Bft)
03.11.2017 04:51 7,7 °C 7,7 °C 94 % 1016,2 hPa 0,0 mm 0,0 km/h (0 Bft) NW 305 ° 0 min 0,000 mm 0,0 UV-I 0 W/m² 6,8 °C 7,7 °C 0,0 km/h (0 Bft)
03.11.2017 04:52 7,7 °C 7,7 °C 94 % 1016,2 hPa 0,0 mm 0,0 km/h (0 Bft) NW 305 ° 0 min 0,000 mm 0,0 UV-I 0 W/m² 6,8 °C 7,7 °C 0,0 km/h (0 Bft)
03.11.2017 04:53 7,7 °C 7,7 °C 94 % 1016,2 hPa 0,0 mm 0,0 km/h (0 Bft) NW 305 ° 0 min 0,000 mm 0,0 UV-I 0 W/m² 6,8 °C 7,7 °C 0,0 km/h (0 Bft)
03.11.2017 04:54 7,7 °C 7,7 °C 94 % 1016,2 hPa 0,2 mm 0,0 km/h (0 Bft) NW 305 ° 0 min 0,000 mm 0,0 UV-I 0 W/m² 6,8 °C 7,7 °C 0,0 km/h (0 Bft)
03.11.2017 04:55 7,7 °C 7,7 °C 94 % 1016,2 hPa 0,0 mm 0,0 km/h (0 Bft) NW 305 ° 0 min 0,000 mm 0,0 UV-I 0 W/m² 6,8 °C 7,7 °C 0,0 km/h (0 Bft)
03.11.2017 04:56 7,7 °C 7,7 °C 94 % 1016,2 hPa 0,0 mm 0,0 km/h (0 Bft) NW 305 ° 0 min 0,000 mm 0,0 UV-I 0 W/m² 6,8 °C 7,7 °C 0,0 km/h (0 Bft)
03.11.2017 04:57 7,7 °C 7,7 °C 94 % 1016,2 hPa 0,0 mm 0,0 km/h (0 Bft) NW 305 ° 0 min 0,000 mm 0,0 UV-I 0 W/m² 6,8 °C 7,7 °C 0,0 km/h (0 Bft)
03.11.2017 04:58 7,7 °C 7,7 °C 94 % 1016,2 hPa 0,2 mm 0,0 km/h (0 Bft) NW 305 ° 0 min 0,000 mm 0,0 UV-I 0 W/m² 6,8 °C 7,7 °C 0,0 km/h (0 Bft)
03.11.2017 04:59 7,7 °C 7,7 °C 94 % 1016,2 hPa 0,0 mm 0,0 km/h (0 Bft) NW 305 ° 0 min 0,000 mm 0,0 UV-I 0 W/m² 6,8 °C 7,7 °C 0,0 km/h (0 Bft)
03.11.2017 05:00 7,7 °C 7,7 °C 94 % 1016,2 hPa 0,0 mm 0,0 km/h (0 Bft) NW 305 ° 0 min 0,000 mm 0,0 UV-I 0 W/m² 6,8 °C 7,7 °C 0,0 km/h (0 Bft)
03.11.2017 05:01 7,6 °C 7,7 °C 94 % 1016,2 hPa 0,0 mm 0,0 km/h (0 Bft) NW 305 ° 0 min 0,000 mm 0,0 UV-I 0 W/m² 6,7 °C 7,6 °C 0,0 km/h (0 Bft)
03.11.2017 05:02 7,7 °C 7,7 °C 94 % 1016,2 hPa 0,0 mm 0,0 km/h (0 Bft) NW 305 ° 0 min 0,000 mm 0,0 UV-I 0 W/m² 6,8 °C 7,7 °C 0,0 km/h (0 Bft)
03.11.2017 05:03 7,7 °C 7,7 °C 94 % 1016,2 hPa 0,0 mm 0,0 km/h (0 Bft) NW 305 ° 0 min 0,000 mm 0,0 UV-I 0 W/m² 6,8 °C 7,7 °C 0,0 km/h (0 Bft)
03.11.2017 05:04 7,6 °C 7,7 °C 94 % 1016,3 hPa 0,2 mm 0,0 km/h (0 Bft) NW 305 ° 0 min 0,000 mm 0,0 UV-I 0 W/m² 6,7 °C 7,6 °C 0,0 km/h (0 Bft)
03.11.2017 05:05 7,6 °C 7,7 °C 94 % 1016,3 hPa 0,0 mm 0,0 km/h (0 Bft) NW 305 ° 0 min 0,000 mm 0,0 UV-I 0 W/m² 6,7 °C 7,6 °C 0,0 km/h (0 Bft)
03.11.2017 05:06 7,6 °C 7,6 °C 94 % 1016,3 hPa 0,0 mm 0,0 km/h (0 Bft) NW 305 ° 0 min 0,000 mm 0,0 UV-I 0 W/m² 6,7 °C 7,6 °C 0,0 km/h (0 Bft)
03.11.2017 05:07 7,6 °C 7,6 °C 94 % 1016,4 hPa 0,0 mm 0,0 km/h (0 Bft) NW 305 ° 0 min 0,000 mm 0,0 UV-I 0 W/m² 6,7 °C 7,6 °C 0,0 km/h (0 Bft)
03.11.2017 05:08 7,6 °C 7,6 °C 94 % 1016,3 hPa 0,2 mm 0,0 km/h (0 Bft) NW 305 ° 0 min 0,000 mm 0,0 UV-I 0 W/m² 6,7 °C 7,6 °C 0,0 km/h (0 Bft)
03.11.2017 05:09 7,6 °C 7,6 °C 94 % 1016,3 hPa 0,0 mm 0,0 km/h (0 Bft) NW 305 ° 0 min 0,000 mm 0,0 UV-I 0 W/m² 6,7 °C 7,6 °C 0,0 km/h (0 Bft)
03.11.2017 05:10 7,6 °C 7,6 °C 94 % 1016,3 hPa 0,0 mm 1,4 km/h (1 Bft) NW 305 ° 0 min 0,000 mm 0,0 UV-I 0 W/m² 6,7 °C 7,6 °C 3,2 km/h (1 Bft)
03.11.2017 05:11 7,6 °C 7,6 °C 94 % 1016,3 hPa 0,0 mm 3,4 km/h (1 Bft) NW 309 ° 0 min 0,000 mm 0,0 UV-I 0 W/m² 6,7 °C 7,6 °C 4,8 km/h (1 Bft)
03.11.2017 05:12 7,6 °C 7,6 °C 94 % 1016,3 hPa 0,2 mm 3,1 km/h (1 Bft) N-NW 333 ° 0 min 0,000 mm 0,0 UV-I 0 W/m² 6,7 °C 7,6 °C 4,8 km/h (1 Bft)
03.11.2017 05:13 7,6 °C 7,6 °C 94 % 1016,3 hPa 0,0 mm 4,3 km/h (1 Bft) N-NW 346 ° 0 min 0,000 mm 0,0 UV-I 0 W/m² 6,7 °C 7,6 °C 6,4 km/h (2 Bft)
03.11.2017 05:14 7,6 °C 7,6 °C 94 % 1016,3 hPa 0,0 mm 2,7 km/h (1 Bft) N-NW 346 ° 0 min 0,000 mm 0,0 UV-I 0 W/m² 6,7 °C 7,6 °C 3,2 km/h (1 Bft)
03.11.2017 05:15 7,6 °C 7,6 °C 94 % 1016,3 hPa 0,0 mm 2,1 km/h (1 Bft) N 351 ° 0 min 0,000 mm 0,0 UV-I 0 W/m² 6,7 °C 7,6 °C 4,8 km/h (1 Bft)
03.11.2017 05:16 7,6 °C 7,6 °C 94 % 1016,2 hPa 0,2 mm 4,2 km/h (1 Bft) N 5 ° 0 min 0,000 mm 0,0 UV-I 0 W/m² 6,7 °C 7,6 °C 6,4 km/h (2 Bft)
03.11.2017 05:17 7,6 °C 7,6 °C 94 % 1016,2 hPa 0,0 mm 1,4 km/h (1 Bft) N 5 ° 0 min 0,000 mm 0,0 UV-I 0 W/m² 6,7 °C 7,6 °C 3,2 km/h (1 Bft)
03.11.2017 05:18 7,6 °C 7,6 °C 94 % 1016,3 hPa 0,0 mm 0,7 km/h (0 Bft) N 5 ° 0 min 0,000 mm 0,0 UV-I 0 W/m² 6,7 °C 7,6 °C 3,2 km/h (1 Bft)
03.11.2017 05:19 7,6 °C 7,6 °C 94 % 1016,2 hPa 0,0 mm 1,6 km/h (1 Bft) N-NO 12 ° 0 min 0,000 mm 0,0 UV-I 0 W/m² 6,7 °C 7,6 °C 4,8 km/h (1 Bft)
03.11.2017 05:20 7,6 °C 7,6 °C 94 % 1016,2 hPa 0,2 mm 1,3 km/h (1 Bft) N-NO 19 ° 0 min 0,000 mm 0,0 UV-I 0 W/m² 6,7 °C 7,6 °C 4,8 km/h (1 Bft)
03.11.2017 05:21 7,6 °C 7,6 °C 94 % 1016,2 hPa 0,0 mm 2,3 km/h (1 Bft) N-NO 13 ° 0 min 0,000 mm 0,0 UV-I 0 W/m² 6,7 °C 7,6 °C 4,8 km/h (1 Bft)
03.11.2017 05:22 7,6 °C 7,6 °C 94 % 1016,3 hPa 0,0 mm 0,6 km/h (0 Bft) N-NO 13 ° 0 min 0,000 mm 0,0 UV-I 0 W/m² 6,7 °C 7,6 °C 1,6 km/h (1 Bft)
03.11.2017 05:23 7,6 °C 7,6 °C 94 % 1016,2 hPa 0,0 mm 0,0 km/h (0 Bft) N-NO 13 ° 0 min 0,000 mm 0,0 UV-I 0 W/m² 6,7 °C 7,6 °C 0,0 km/h (0 Bft)
03.11.2017 05:24 7,6 °C 7,6 °C 94 % 1016,2 hPa 0,2 mm 0,8 km/h (0 Bft) N-NO 12 ° 0 min 0,000 mm 0,0 UV-I 0 W/m² 6,7 °C 7,6 °C 3,2 km/h (1 Bft)
03.11.2017 05:25 7,6 °C 7,6 °C 94 % 1016,2 hPa 0,0 mm 0,3 km/h (0 Bft) NO 38 ° 0 min 0,000 mm 0,0 UV-I 0 W/m² 6,7 °C 7,6 °C 3,2 km/h (1 Bft)
03.11.2017 05:26 7,6 °C 7,6 °C 94 % 1016,1 hPa 0,0 mm 0,7 km/h (0 Bft) NO 38 ° 0 min 0,000 mm 0,0 UV-I 0 W/m² 6,7 °C 7,6 °C 1,6 km/h (1 Bft)
03.11.2017 05:27 7,5 °C 7,6 °C 94 % 1016,2 hPa 0,0 mm 0,7 km/h (0 Bft) NO 38 ° 0 min 0,000 mm 0,0 UV-I 0 W/m² 6,6 °C 7,5 °C 3,2 km/h (1 Bft)
03.11.2017 05:28 7,4 °C 7,6 °C 94 % 1016,1 hPa 0,0 mm 2,0 km/h (1 Bft) NO 49 ° 0 min 0,000 mm 0,0 UV-I 0 W/m² 6,5 °C 7,4 °C 4,8 km/h (1 Bft)
03.11.2017 05:29 7,4 °C 7,5 °C 94 % 1016,1 hPa 0,0 mm 1,9 km/h (1 Bft) NO 44 ° 0 min 0,000 mm 0,0 UV-I 0 W/m² 6,5 °C 7,4 °C 3,2 km/h (1 Bft)
03.11.2017 05:30 7,4 °C 7,4 °C 94 % 1016,1 hPa 0,2 mm 0,3 km/h (0 Bft) NO 44 ° 0 min 0,000 mm 0,0 UV-I 0 W/m² 6,5 °C 7,4 °C 1,6 km/h (1 Bft)
03.11.2017 05:31 7,4 °C 7,4 °C 94 % 1016,2 hPa 0,0 mm 0,0 km/h (0 Bft) NO 44 ° 0 min 0,000 mm 0,0 UV-I 0 W/m² 6,5 °C 7,4 °C 0,0 km/h (0 Bft)
03.11.2017 05:32 7,4 °C 7,4 °C 94 % 1016,2 hPa 0,0 mm 0,1 km/h (0 Bft) NO 44 ° 0 min 0,000 mm 0,0 UV-I 0 W/m² 6,5 °C 7,4 °C 1,6 km/h (1 Bft)
03.11.2017 05:33 7,4 °C 7,4 °C 94 % 1016,2 hPa 0,0 mm 1,5 km/h (1 Bft) N-NO 14 ° 0 min 0,000 mm 0,0 UV-I 0 W/m² 6,5 °C 7,4 °C 4,8 km/h (1 Bft)
03.11.2017 05:34 7,3 °C 7,4 °C 94 % 1016,3 hPa 0,0 mm 0,7 km/h (0 Bft) N-NO 14 ° 0 min 0,000 mm 0,0 UV-I 0 W/m² 6,4 °C 7,3 °C 1,6 km/h (1 Bft)
03.11.2017 05:35 7,3 °C 7,4 °C 94 % 1016,2 hPa 0,0 mm 0,0 km/h (0 Bft) N-NO 14 ° 0 min 0,000 mm 0,0 UV-I 0 W/m² 6,4 °C 7,3 °C 0,0 km/h (0 Bft)
03.11.2017 05:36 7,3 °C 7,4 °C 94 % 1016,2 hPa 0,0 mm 0,0 km/h (0 Bft) N-NO 14 ° 0 min 0,000 mm 0,0 UV-I 0 W/m² 6,4 °C 7,3 °C 0,0 km/h (0 Bft)
03.11.2017 05:37 7,3 °C 7,4 °C 94 % 1016,1 hPa 0,2 mm 0,0 km/h (0 Bft) N-NO 14 ° 0 min 0,000 mm 0,0 UV-I 0 W/m² 6,4 °C 7,3 °C 0,0 km/h (0 Bft)
03.11.2017 05:38 7,3 °C 7,3 °C 94 % 1016,1 hPa 0,0 mm 0,0 km/h (0 Bft) N-NO 14 ° 0 min 0,000 mm 0,0 UV-I 0 W/m² 6,4 °C 7,3 °C 0,0 km/h (0 Bft)
03.11.2017 05:39 7,3 °C 7,3 °C 94 % 1016,1 hPa 0,0 mm 0,0 km/h (0 Bft) N-NO 14 ° 0 min 0,000 mm 0,0 UV-I 0 W/m² 6,4 °C 7,3 °C 0,0 km/h (0 Bft)
03.11.2017 05:40 7,4 °C 7,4 °C 94 % 1016,2 hPa 0,0 mm 0,0 km/h (0 Bft) N-NO 14 ° 0 min 0,000 mm 0,0 UV-I 0 W/m² 6,5 °C 7,4 °C 0,0 km/h (0 Bft)
03.11.2017 05:41 7,3 °C 7,4 °C 94 % 1016,3 hPa 0,0 mm 0,0 km/h (0 Bft) N-NO 14 ° 0 min 0,000 mm 0,0 UV-I 0 W/m² 6,4 °C 7,3 °C 0,0 km/h (0 Bft)
03.11.2017 05:42 7,3 °C 7,3 °C 94 % 1016,3 hPa 0,0 mm 0,0 km/h (0 Bft) N-NO 14 ° 0 min 0,000 mm 0,0 UV-I 0 W/m² 6,4 °C 7,3 °C 0,0 km/h (0 Bft)
03.11.2017 05:43 7,4 °C 7,4 °C 94 % 1016,2 hPa 0,0 mm 0,0 km/h (0 Bft) N-NO 14 ° 0 min 0,000 mm 0,0 UV-I 0 W/m² 6,5 °C 7,4 °C 0,0 km/h (0 Bft)
03.11.2017 05:44 7,4 °C 7,4 °C 94 % 1016,2 hPa 0,0 mm 0,0 km/h (0 Bft) N-NO 14 ° 0 min 0,000 mm 0,0 UV-I 0 W/m² 6,5 °C 7,4 °C 0,0 km/h (0 Bft)
03.11.2017 05:45 7,3 °C 7,4 °C 94 % 1016,2 hPa 0,0 mm 0,0 km/h (0 Bft) N-NO 14 ° 0 min 0,000 mm 0,0 UV-I 0 W/m² 6,4 °C 7,3 °C 0,0 km/h (0 Bft)
03.11.2017 05:46 7,3 °C 7,3 °C 94 % 1016,2 hPa 0,0 mm 0,0 km/h (0 Bft) N-NO 14 ° 0 min 0,000 mm 0,0 UV-I 0 W/m² 6,4 °C 7,3 °C 0,0 km/h (0 Bft)
03.11.2017 05:47 7,3 °C 7,3 °C 94 % 1016,2 hPa 0,0 mm 0,0 km/h (0 Bft) N-NO 14 ° 0 min 0,000 mm 0,0 UV-I 0 W/m² 6,4 °C 7,3 °C 0,0 km/h (0 Bft)
03.11.2017 05:48 7,3 °C 7,3 °C 94 % 1016,2 hPa 0,2 mm 0,0 km/h (0 Bft) N-NO 14 ° 0 min 0,000 mm 0,0 UV-I 0 W/m² 6,4 °C 7,3 °C 0,0 km/h (0 Bft)
03.11.2017 05:49 7,3 °C 7,3 °C 94 % 1016,3 hPa 0,0 mm 0,0 km/h (0 Bft) N-NO 14 ° 0 min 0,000 mm 0,0 UV-I 0 W/m² 6,4 °C 7,3 °C 0,0 km/h (0 Bft)
03.11.2017 05:50 7,3 °C 7,3 °C 94 % 1016,2 hPa 0,0 mm 0,0 km/h (0 Bft) N-NO 14 ° 0 min 0,000 mm 0,0 UV-I 0 W/m² 6,4 °C 7,3 °C 0,0 km/h (0 Bft)
03.11.2017 05:51 7,3 °C 7,3 °C 94 % 1016,2 hPa 0,0 mm 0,0 km/h (0 Bft) N-NO 14 ° 0 min 0,000 mm 0,0 UV-I 0 W/m² 6,4 °C 7,3 °C 0,0 km/h (0 Bft)
03.11.2017 05:52 7,3 °C 7,3 °C 94 % 1016,2 hPa 0,0 mm 0,0 km/h (0 Bft) N-NO 14 ° 0 min 0,000 mm 0,0 UV-I 0 W/m² 6,4 °C 7,3 °C 0,0 km/h (0 Bft)
03.11.2017 05:53 7,3 °C 7,3 °C 94 % 1016,2 hPa 0,0 mm 0,0 km/h (0 Bft) N-NO 14 ° 0 min 0,000 mm 0,0 UV-I 0 W/m² 6,4 °C 7,3 °C 0,0 km/h (0 Bft)
03.11.2017 05:54 7,3 °C 7,3 °C 94 % 1016,2 hPa 0,0 mm 0,0 km/h (0 Bft) N-NO 14 ° 0 min 0,000 mm 0,0 UV-I 0 W/m² 6,4 °C 7,3 °C 0,0 km/h (0 Bft)
03.11.2017 05:55 7,3 °C 7,3 °C 94 % 1016,2 hPa 0,0 mm 0,0 km/h (0 Bft) N-NO 14 ° 0 min 0,000 mm 0,0 UV-I 0 W/m² 6,4 °C 7,3 °C 0,0 km/h (0 Bft)
03.11.2017 05:56 7,3 °C 7,3 °C 94 % 1016,2 hPa 0,0 mm 0,0 km/h (0 Bft) N-NO 14 ° 0 min 0,000 mm 0,0 UV-I 0 W/m² 6,4 °C 7,3 °C 0,0 km/h (0 Bft)
03.11.2017 05:57 7,2 °C 7,3 °C 94 % 1016,3 hPa 0,0 mm 0,7 km/h (0 Bft) N-NO 14 ° 0 min 0,000 mm 0,0 UV-I 0 W/m² 6,3 °C 7,2 °C 3,2 km/h (1 Bft)
03.11.2017 05:58 7,2 °C 7,2 °C 94 % 1016,3 hPa 0,0 mm 2,4 km/h (1 Bft) N-NO 14 ° 0 min 0,000 mm 0,0 UV-I 0 W/m² 6,3 °C 7,2 °C 3,2 km/h (1 Bft)
03.11.2017 05:59 7,2 °C 7,2 °C 94 % 1016,3 hPa 0,0 mm 0,7 km/h (0 Bft) N-NO 14 ° 0 min 0,000 mm 0,0 UV-I 0 W/m² 6,3 °C 7,2 °C 1,6 km/h (1 Bft)
03.11.2017 06:00 7,2 °C 7,2 °C 94 % 1016,3 hPa 0,2 mm 0,0 km/h (0 Bft) N-NO 14 ° 0 min 0,000 mm 0,0 UV-I 0 W/m² 6,3 °C 7,2 °C 0,0 km/h (0 Bft)
03.11.2017 06:01 7,2 °C 7,2 °C 94 % 1016,3 hPa 0,0 mm 0,0 km/h (0 Bft) N-NO 14 ° 0 min 0,000 mm 0,0 UV-I 0 W/m² 6,3 °C 7,2 °C 0,0 km/h (0 Bft)
03.11.2017 06:02 7,2 °C 7,2 °C 94 % 1016,2 hPa 0,0 mm 0,0 km/h (0 Bft) N-NO 14 ° 0 min 0,000 mm 0,0 UV-I 0 W/m² 6,3 °C 7,2 °C 0,0 km/h (0 Bft)
03.11.2017 06:03 7,2 °C 7,2 °C 94 % 1016,2 hPa 0,0 mm 0,0 km/h (0 Bft) N-NO 14 ° 0 min 0,000 mm 0,0 UV-I 0 W/m² 6,3 °C 7,2 °C 0,0 km/h (0 Bft)
03.11.2017 06:04 7,2 °C 7,2 °C 94 % 1016,2 hPa 0,0 mm 0,0 km/h (0 Bft) N-NO 14 ° 0 min 0,000 mm 0,0 UV-I 0 W/m² 6,3 °C 7,2 °C 0,0 km/h (0 Bft)
03.11.2017 06:05 7,2 °C 7,2 °C 94 % 1016,2 hPa 0,0 mm 0,0 km/h (0 Bft) N-NO 14 ° 0 min 0,000 mm 0,0 UV-I 0 W/m² 6,3 °C 7,2 °C 0,0 km/h (0 Bft)
03.11.2017 06:06 7,2 °C 7,2 °C 94 % 1016,1 hPa 0,0 mm 0,0 km/h (0 Bft) N-NO 14 ° 0 min 0,000 mm 0,0 UV-I 0 W/m² 6,3 °C 7,2 °C 0,0 km/h (0 Bft)
03.11.2017 06:07 7,2 °C 7,2 °C 94 % 1016,1 hPa 0,2 mm 0,0 km/h (0 Bft) N-NO 14 ° 0 min 0,000 mm 0,0 UV-I 0 W/m² 6,3 °C 7,2 °C 0,0 km/h (0 Bft)
03.11.2017 06:08 7,2 °C 7,2 °C 94 % 1016,1 hPa 0,0 mm 0,0 km/h (0 Bft) N-NO 14 ° 0 min 0,000 mm 0,0 UV-I 0 W/m² 6,3 °C 7,2 °C 0,0 km/h (0 Bft)
03.11.2017 06:09 7,2 °C 7,2 °C 94 % 1016,1 hPa 0,0 mm 0,0 km/h (0 Bft) N-NO 14 ° 0 min 0,000 mm 0,0 UV-I 0 W/m² 6,3 °C 7,2 °C 0,0 km/h (0 Bft)
03.11.2017 06:10 7,2 °C 7,2 °C 94 % 1016,1 hPa 0,0 mm 0,0 km/h (0 Bft) N-NO 14 ° 0 min 0,000 mm 0,0 UV-I 0 W/m² 6,3 °C 7,2 °C 0,0 km/h (0 Bft)
03.11.2017 06:11 7,2 °C 7,2 °C 94 % 1016,1 hPa 0,0 mm 0,0 km/h (0 Bft) N-NO 14 ° 0 min 0,000 mm 0,0 UV-I 0 W/m² 6,3 °C 7,2 °C 0,0 km/h (0 Bft)
03.11.2017 06:12 7,1 °C 7,2 °C 94 % 1016,1 hPa 0,0 mm 0,0 km/h (0 Bft) N-NO 14 ° 0 min 0,000 mm 0,0 UV-I 0 W/m² 6,2 °C 7,1 °C 0,0 km/h (0 Bft)
03.11.2017 06:13 7,1 °C 7,1 °C 94 % 1016,2 hPa 0,0 mm 0,0 km/h (0 Bft) N-NO 14 ° 0 min 0,000 mm 0,0 UV-I 0 W/m² 6,2 °C 7,1 °C 0,0 km/h (0 Bft)
03.11.2017 06:14 7,1 °C 7,1 °C 94 % 1016,1 hPa 0,2 mm 0,0 km/h (0 Bft) N-NO 14 ° 0 min 0,000 mm 0,0 UV-I 0 W/m² 6,2 °C 7,1 °C 0,0 km/h (0 Bft)
03.11.2017 06:15 7,1 °C 7,1 °C 94 % 1016,1 hPa 0,0 mm 0,0 km/h (0 Bft) N-NO 14 ° 0 min 0,000 mm 0,0 UV-I 0 W/m² 6,2 °C 7,1 °C 0,0 km/h (0 Bft)
03.11.2017 06:16 7,1 °C 7,1 °C 94 % 1016,1 hPa 0,0 mm 0,0 km/h (0 Bft) N-NO 14 ° 0 min 0,000 mm 0,0 UV-I 0 W/m² 6,2 °C 7,1 °C 0,0 km/h (0 Bft)
03.11.2017 06:17 7,1 °C 7,1 °C 94 % 1016,0 hPa 0,0 mm 0,0 km/h (0 Bft) N-NO 14 ° 0 min 0,000 mm 0,0 UV-I 0 W/m² 6,2 °C 7,1 °C 0,0 km/h (0 Bft)
03.11.2017 06:18 7,1 °C 7,1 °C 94 % 1016,0 hPa 0,0 mm 0,0 km/h (0 Bft) N-NO 14 ° 0 min 0,000 mm 0,0 UV-I 0 W/m² 6,2 °C 7,1 °C 0,0 km/h (0 Bft)
03.11.2017 06:19 7,1 °C 7,1 °C 94 % 1016,1 hPa 0,0 mm 0,0 km/h (0 Bft) N-NO 14 ° 0 min 0,000 mm 0,0 UV-I 0 W/m² 6,2 °C 7,1 °C 0,0 km/h (0 Bft)
03.11.2017 06:20 7,1 °C 7,1 °C 94 % 1016,1 hPa 0,0 mm 0,1 km/h (0 Bft) N-NO 14 ° 0 min 0,000 mm 0,0 UV-I 0 W/m² 6,2 °C 7,1 °C 1,6 km/h (1 Bft)
03.11.2017 06:21 7,1 °C 7,1 °C 94 % 1016,1 hPa 0,0 mm 1,1 km/h (1 Bft) N-NO 14 ° 0 min 0,000 mm 0,0 UV-I 0 W/m² 6,2 °C 7,1 °C 1,6 km/h (1 Bft)
03.11.2017 06:22 7,1 °C 7,1 °C 94 % 1016,1 hPa 0,0 mm 1,3 km/h (1 Bft) N-NO 14 ° 0 min 0,000 mm 0,0 UV-I 0 W/m² 6,2 °C 7,1 °C 1,6 km/h (1 Bft)
03.11.2017 06:23 7,1 °C 7,1 °C 94 % 1016,1 hPa 0,0 mm 1,2 km/h (1 Bft) N-NO 14 ° 0 min 0,000 mm 0,0 UV-I 0 W/m² 6,2 °C 7,1 °C 1,6 km/h (1 Bft)
03.11.2017 06:24 7,1 °C 7,1 °C 94 % 1016,1 hPa 0,0 mm 0,9 km/h (0 Bft) N-NO 14 ° 0 min 0,000 mm 0,0 UV-I 0 W/m² 6,2 °C 7,1 °C 1,6 km/h (1 Bft)
03.11.2017 06:25 7,1 °C 7,1 °C 94 % 1016,1 hPa 0,0 mm 0,0 km/h (0 Bft) N-NO 14 ° 0 min 0,000 mm 0,0 UV-I 0 W/m² 6,2 °C 7,1 °C 0,0 km/h (0 Bft)
03.11.2017 06:26 7,1 °C 7,1 °C 94 % 1016,1 hPa 0,0 mm 0,0 km/h (0 Bft) N-NO 14 ° 0 min 0,000 mm 0,0 UV-I 0 W/m² 6,2 °C 7,1 °C 0,0 km/h (0 Bft)
03.11.2017 06:27 7,1 °C 7,1 °C 94 % 1016,1 hPa 0,0 mm 0,0 km/h (0 Bft) N-NO 14 ° 0 min 0,000 mm 0,0 UV-I 0 W/m² 6,2 °C 7,1 °C 0,0 km/h (0 Bft)
03.11.2017 06:28 7,1 °C 7,1 °C 94 % 1016,1 hPa 0,0 mm 0,0 km/h (0 Bft) N-NO 14 ° 0 min 0,000 mm 0,0 UV-I 0 W/m² 6,2 °C 7,1 °C 0,0 km/h (0 Bft)
03.11.2017 06:29 7,1 °C 7,1 °C 94 % 1016,1 hPa 0,0 mm 0,0 km/h (0 Bft) N-NO 14 ° 0 min 0,000 mm 0,0 UV-I 0 W/m² 6,2 °C 7,1 °C 0,0 km/h (0 Bft)
03.11.2017 06:30 7,1 °C 7,1 °C 94 % 1016,1 hPa 0,0 mm 0,0 km/h (0 Bft) N-NO 14 ° 0 min 0,000 mm 0,0 UV-I 0 W/m² 6,2 °C 7,1 °C 0,0 km/h (0 Bft)
03.11.2017 06:31 7,1 °C 7,1 °C 94 % 1016,1 hPa 0,0 mm 0,0 km/h (0 Bft) N-NO 14 ° 0 min 0,000 mm 0,0 UV-I 0 W/m² 6,2 °C 7,1 °C 0,0 km/h (0 Bft)
03.11.2017 06:32 7,1 °C 7,1 °C 94 % 1016,1 hPa 0,0 mm 0,0 km/h (0 Bft) N-NO 14 ° 0 min 0,000 mm 0,0 UV-I 0 W/m² 6,2 °C 7,1 °C 0,0 km/h (0 Bft)
03.11.2017 06:33 7,1 °C 7,1 °C 94 % 1016,2 hPa 0,0 mm 1,5 km/h (1 Bft) N-NO 14 ° 0 min 0,000 mm 0,0 UV-I 0 W/m² 6,2 °C 7,1 °C 3,2 km/h (1 Bft)
03.11.2017 06:34 7,1 °C 7,1 °C 94 % 1016,2 hPa 0,0 mm 1,3 km/h (1 Bft) N-NO 14 ° 0 min 0,000 mm 0,0 UV-I 0 W/m² 6,2 °C 7,1 °C 3,2 km/h (1 Bft)
03.11.2017 06:35 7,1 °C 7,1 °C 94 % 1016,2 hPa 0,0 mm 0,0 km/h (0 Bft) N-NO 14 ° 0 min 0,000 mm 0,0 UV-I 0 W/m² 6,2 °C 7,1 °C 0,0 km/h (0 Bft)
03.11.2017 06:36 7,1 °C 7,1 °C 94 % 1016,2 hPa 0,2 mm 0,0 km/h (0 Bft) N-NO 14 ° 0 min 0,000 mm 0,0 UV-I 0 W/m² 6,2 °C 7,1 °C 0,0 km/h (0 Bft)
03.11.2017 06:37 7,1 °C 7,1 °C 94 % 1016,2 hPa 0,0 mm 0,0 km/h (0 Bft) N-NO 14 ° 0 min 0,000 mm 0,0 UV-I 0 W/m² 6,2 °C 7,1 °C 0,0 km/h (0 Bft)
03.11.2017 06:38 7,1 °C 7,1 °C 94 % 1016,2 hPa 0,0 mm 0,0 km/h (0 Bft) N-NO 14 ° 0 min 0,000 mm 0,0 UV-I 0 W/m² 6,2 °C 7,1 °C 0,0 km/h (0 Bft)
03.11.2017 06:39 7,1 °C 7,1 °C 94 % 1016,3 hPa 0,0 mm 0,0 km/h (0 Bft) N-NO 14 ° 0 min 0,000 mm 0,0 UV-I 0 W/m² 6,2 °C 7,1 °C 0,0 km/h (0 Bft)
03.11.2017 06:40 7,1 °C 7,1 °C 94 % 1016,3 hPa 0,0 mm 0,0 km/h (0 Bft) N-NO 14 ° 0 min 0,000 mm 0,0 UV-I 0 W/m² 6,2 °C 7,1 °C 0,0 km/h (0 Bft)
03.11.2017 06:41 7,1 °C 7,1 °C 94 % 1016,3 hPa 0,0 mm 0,0 km/h (0 Bft) N-NO 14 ° 0 min 0,000 mm 0,0 UV-I 0 W/m² 6,2 °C 7,1 °C 0,0 km/h (0 Bft)
03.11.2017 06:42 7,1 °C 7,1 °C 94 % 1016,2 hPa 0,0 mm 0,0 km/h (0 Bft) N-NO 14 ° 0 min 0,000 mm 0,0 UV-I 0 W/m² 6,2 °C 7,1 °C 0,0 km/h (0 Bft)
03.11.2017 06:43 7,1 °C 7,1 °C 94 % 1016,2 hPa 0,2 mm 0,0 km/h (0 Bft) N-NO 14 ° 0 min 0,000 mm 0,0 UV-I 0 W/m² 6,2 °C 7,1 °C 0,0 km/h (0 Bft)
03.11.2017 06:44 7,1 °C 7,1 °C 94 % 1016,2 hPa 0,0 mm 0,0 km/h (0 Bft) N-NO 14 ° 0 min 0,000 mm 0,0 UV-I 0 W/m² 6,2 °C 7,1 °C 0,0 km/h (0 Bft)
03.11.2017 06:45 7,1 °C 7,1 °C 94 % 1016,2 hPa 0,0 mm 0,0 km/h (0 Bft) N-NO 14 ° 0 min 0,000 mm 0,0 UV-I 0 W/m² 6,2 °C 7,1 °C 0,0 km/h (0 Bft)
03.11.2017 06:46 7,1 °C 7,1 °C 94 % 1016,2 hPa 0,0 mm 0,0 km/h (0 Bft) N-NO 14 ° 0 min 0,000 mm 0,0 UV-I 0 W/m² 6,2 °C 7,1 °C 0,0 km/h (0 Bft)
03.11.2017 06:47 7,1 °C 7,1 °C 94 % 1016,2 hPa 0,0 mm 0,0 km/h (0 Bft) N-NO 14 ° 0 min 0,000 mm 0,0 UV-I 0 W/m² 6,2 °C 7,1 °C 0,0 km/h (0 Bft)
03.11.2017 06:48 7,1 °C 7,1 °C 94 % 1016,2 hPa 0,0 mm 0,0 km/h (0 Bft) N-NO 14 ° 0 min 0,000 mm 0,0 UV-I 0 W/m² 6,2 °C 7,1 °C 0,0 km/h (0 Bft)
03.11.2017 06:49 7,1 °C 7,1 °C 94 % 1016,2 hPa 0,2 mm 0,0 km/h (0 Bft) N-NO 14 ° 0 min 0,000 mm 0,0 UV-I 0 W/m² 6,2 °C 7,1 °C 0,0 km/h (0 Bft)
03.11.2017 06:50 7,1 °C 7,1 °C 94 % 1016,2 hPa 0,0 mm 0,0 km/h (0 Bft) N-NO 14 ° 0 min 0,000 mm 0,0 UV-I 0 W/m² 6,2 °C 7,1 °C 0,0 km/h (0 Bft)
03.11.2017 06:51 7,1 °C 7,1 °C 94 % 1016,2 hPa 0,0 mm 0,0 km/h (0 Bft) N-NO 14 ° 0 min 0,000 mm 0,0 UV-I 0 W/m² 6,2 °C 7,1 °C 0,0 km/h (0 Bft)
03.11.2017 06:52 7,1 °C 7,1 °C 94 % 1016,2 hPa 0,0 mm 0,0 km/h (0 Bft) N-NO 14 ° 0 min 0,000 mm 0,0 UV-I 0 W/m² 6,2 °C 7,1 °C 0,0 km/h (0 Bft)
03.11.2017 06:53 7,1 °C 7,1 °C 94 % 1016,2 hPa 0,0 mm 0,0 km/h (0 Bft) N-NO 14 ° 0 min 0,000 mm 0,0 UV-I 0 W/m² 6,2 °C 7,1 °C 0,0 km/h (0 Bft)
03.11.2017 06:54 7,1 °C 7,1 °C 94 % 1016,2 hPa 0,0 mm 0,0 km/h (0 Bft) N-NO 14 ° 0 min 0,000 mm 0,0 UV-I 0 W/m² 6,2 °C 7,1 °C 0,0 km/h (0 Bft)
03.11.2017 06:55 7,1 °C 7,1 °C 94 % 1016,1 hPa 0,0 mm 0,5 km/h (0 Bft) N-NO 14 ° 0 min 0,000 mm 0,0 UV-I 0 W/m² 6,2 °C 7,1 °C 3,2 km/h (1 Bft)
03.11.2017 06:56 7,1 °C 7,1 °C 94 % 1016,2 hPa 0,0 mm 0,7 km/h (0 Bft) N-NO 14 ° 0 min 0,000 mm 0,0 UV-I 0 W/m² 6,2 °C 7,1 °C 1,6 km/h (1 Bft)
03.11.2017 06:57 7,1 °C 7,1 °C 94 % 1016,2 hPa 0,0 mm 0,0 km/h (0 Bft) N-NO 14 ° 0 min 0,000 mm 0,0 UV-I 0 W/m² 6,2 °C 7,1 °C 0,0 km/h (0 Bft)
03.11.2017 06:58 7,1 °C 7,1 °C 94 % 1016,2 hPa 0,0 mm 0,0 km/h (0 Bft) N-NO 14 ° 0 min 0,000 mm 0,0 UV-I 0 W/m² 6,2 °C 7,1 °C 0,0 km/h (0 Bft)
03.11.2017 06:59 7,1 °C 7,1 °C 94 % 1016,2 hPa 0,0 mm 0,0 km/h (0 Bft) N-NO 14 ° 0 min 0,000 mm 0,0 UV-I 0 W/m² 6,2 °C 7,1 °C 0,0 km/h (0 Bft)
03.11.2017 07:00 7,1 °C 7,1 °C 94 % 1016,2 hPa 0,0 mm 0,0 km/h (0 Bft) N-NO 14 ° 0 min 0,000 mm 0,0 UV-I 0 W/m² 6,2 °C 7,1 °C 0,0 km/h (0 Bft)
03.11.2017 07:01 7,1 °C 7,1 °C 94 % 1016,2 hPa 0,0 mm 0,0 km/h (0 Bft) N-NO 14 ° 0 min 0,000 mm 0,0 UV-I 0 W/m² 6,2 °C 7,1 °C 0,0 km/h (0 Bft)
03.11.2017 07:02 7,1 °C 7,1 °C 94 % 1016,2 hPa 0,0 mm 0,0 km/h (0 Bft) N-NO 14 ° 0 min 0,000 mm 0,0 UV-I 0 W/m² 6,2 °C 7,1 °C 0,0 km/h (0 Bft)
03.11.2017 07:03 7,1 °C 7,1 °C 94 % 1016,2 hPa 0,0 mm 0,0 km/h (0 Bft) N-NO 14 ° 0 min 0,000 mm 0,0 UV-I 0 W/m² 6,2 °C 7,1 °C 0,0 km/h (0 Bft)
03.11.2017 07:04 7,1 °C 7,1 °C 94 % 1016,2 hPa 0,0 mm 0,0 km/h (0 Bft) N-NO 14 ° 0 min 0,000 mm 0,0 UV-I 0 W/m² 6,2 °C 7,1 °C 0,0 km/h (0 Bft)
03.11.2017 07:05 7,1 °C 7,1 °C 94 % 1016,2 hPa 0,2 mm 0,0 km/h (0 Bft) N-NO 14 ° 0 min 0,000 mm 0,0 UV-I 0 W/m² 6,2 °C 7,1 °C 0,0 km/h (0 Bft)
03.11.2017 07:06 7,1 °C 7,1 °C 94 % 1016,2 hPa 0,0 mm 0,0 km/h (0 Bft) N-NO 14 ° 0 min 0,000 mm 0,0 UV-I 0 W/m² 6,2 °C 7,1 °C 0,0 km/h (0 Bft)
03.11.2017 07:07 7,1 °C 7,1 °C 94 % 1016,2 hPa 0,0 mm 0,0 km/h (0 Bft) N-NO 14 ° 0 min 0,000 mm 0,0 UV-I 0 W/m² 6,2 °C 7,1 °C 0,0 km/h (0 Bft)
03.11.2017 07:08 7,1 °C 7,1 °C 94 % 1016,3 hPa 0,0 mm 0,0 km/h (0 Bft) N-NO 14 ° 0 min 0,000 mm 0,0 UV-I 0 W/m² 6,2 °C 7,1 °C 0,0 km/h (0 Bft)
03.11.2017 07:09 7,1 °C 7,1 °C 94 % 1016,3 hPa 0,0 mm 0,0 km/h (0 Bft) N-NO 14 ° 0 min 0,000 mm 0,0 UV-I 0 W/m² 6,2 °C 7,1 °C 0,0 km/h (0 Bft)
03.11.2017 07:10 7,1 °C 7,1 °C 94 % 1016,3 hPa 0,0 mm 0,0 km/h (0 Bft) N-NO 14 ° 0 min 0,000 mm 0,0 UV-I 0 W/m² 6,2 °C 7,1 °C 0,0 km/h (0 Bft)
03.11.2017 07:11 7,1 °C 7,1 °C 94 % 1016,3 hPa 0,0 mm 0,0 km/h (0 Bft) N-NO 14 ° 0 min 0,000 mm 0,0 UV-I 0 W/m² 6,2 °C 7,1 °C 0,0 km/h (0 Bft)
03.11.2017 07:12 7,1 °C 7,1 °C 94 % 1016,3 hPa 0,0 mm 0,0 km/h (0 Bft) N-NO 14 ° 0 min 0,000 mm 0,0 UV-I 0 W/m² 6,2 °C 7,1 °C 0,0 km/h (0 Bft)
03.11.2017 07:13 7,1 °C 7,1 °C 94 % 1016,3 hPa 0,0 mm 0,0 km/h (0 Bft) N-NO 14 ° 0 min 0,000 mm 0,0 UV-I 0 W/m² 6,2 °C 7,1 °C 0,0 km/h (0 Bft)
03.11.2017 07:14 7,1 °C 7,1 °C 94 % 1016,3 hPa 0,0 mm 0,0 km/h (0 Bft) N-NO 14 ° 0 min 0,000 mm 0,0 UV-I 0 W/m² 6,2 °C 7,1 °C 0,0 km/h (0 Bft)
03.11.2017 07:15 7,1 °C 7,1 °C 94 % 1016,3 hPa 0,0 mm 0,0 km/h (0 Bft) N-NO 14 ° 0 min 0,000 mm 0,0 UV-I 0 W/m² 6,2 °C 7,1 °C 0,0 km/h (0 Bft)
03.11.2017 07:16 7,1 °C 7,1 °C 94 % 1016,3 hPa 0,0 mm 0,0 km/h (0 Bft) N-NO 14 ° 0 min 0,000 mm 0,0 UV-I 0 W/m² 6,2 °C 7,1 °C 0,0 km/h (0 Bft)
03.11.2017 07:17 7,1 °C 7,1 °C 94 % 1016,3 hPa 0,0 mm 0,0 km/h (0 Bft) N-NO 14 ° 0 min 0,000 mm 0,0 UV-I 0 W/m² 6,2 °C 7,1 °C 0,0 km/h (0 Bft)
03.11.2017 07:18 7,1 °C 7,1 °C 94 % 1016,3 hPa 0,0 mm 0,0 km/h (0 Bft) N-NO 14 ° 0 min 0,000 mm 0,0 UV-I 0 W/m² 6,2 °C 7,1 °C 0,0 km/h (0 Bft)
03.11.2017 07:19 7,0 °C 7,1 °C 95 % 1016,3 hPa 0,0 mm 0,0 km/h (0 Bft) N-NO 14 ° 0 min 0,000 mm 0,0 UV-I 0 W/m² 6,3 °C 7,0 °C 0,0 km/h (0 Bft)
03.11.2017 07:20 7,0 °C 7,1 °C 95 % 1016,3 hPa 0,0 mm 0,0 km/h (0 Bft) N-NO 14 ° 0 min 0,000 mm 0,0 UV-I 0 W/m² 6,3 °C 7,0 °C 0,0 km/h (0 Bft)
03.11.2017 07:21 7,1 °C 7,1 °C 95 % 1016,3 hPa 0,0 mm 0,0 km/h (0 Bft) N-NO 14 ° 0 min 0,000 mm 0,0 UV-I 0 W/m² 6,4 °C 7,1 °C 0,0 km/h (0 Bft)
03.11.2017 07:22 7,1 °C 7,1 °C 95 % 1016,3 hPa 0,0 mm 0,0 km/h (0 Bft) N-NO 14 ° 0 min 0,000 mm 0,0 UV-I 0 W/m² 6,4 °C 7,1 °C 0,0 km/h (0 Bft)
03.11.2017 07:23 7,1 °C 7,1 °C 95 % 1016,3 hPa 0,0 mm 0,0 km/h (0 Bft) N-NO 14 ° 0 min 0,000 mm 0,0 UV-I 0 W/m² 6,4 °C 7,1 °C 0,0 km/h (0 Bft)
03.11.2017 07:24 7,1 °C 7,1 °C 95 % 1016,3 hPa 0,0 mm 0,0 km/h (0 Bft) N-NO 14 ° 0 min 0,000 mm 0,0 UV-I 0 W/m² 6,4 °C 7,1 °C 0,0 km/h (0 Bft)
03.11.2017 07:25 7,1 °C 7,1 °C 95 % 1016,3 hPa 0,0 mm 0,0 km/h (0 Bft) N-NO 14 ° 0 min 0,000 mm 0,0 UV-I 0 W/m² 6,4 °C 7,1 °C 0,0 km/h (0 Bft)
03.11.2017 07:26 7,1 °C 7,1 °C 95 % 1016,3 hPa 0,0 mm 0,0 km/h (0 Bft) N-NO 14 ° 0 min 0,000 mm 0,0 UV-I 0 W/m² 6,4 °C 7,1 °C 0,0 km/h (0 Bft)
03.11.2017 07:27 7,1 °C 7,1 °C 95 % 1016,3 hPa 0,0 mm 0,0 km/h (0 Bft) N-NO 14 ° 0 min 0,000 mm 0,0 UV-I 0 W/m² 6,4 °C 7,1 °C 0,0 km/h (0 Bft)
03.11.2017 07:28 7,1 °C 7,1 °C 95 % 1016,3 hPa 0,0 mm 0,0 km/h (0 Bft) N-NO 14 ° 0 min 0,000 mm 0,0 UV-I 0 W/m² 6,4 °C 7,1 °C 0,0 km/h (0 Bft)
03.11.2017 07:29 7,1 °C 7,1 °C 95 % 1016,3 hPa 0,0 mm 0,0 km/h (0 Bft) N-NO 14 ° 0 min 0,000 mm 0,0 UV-I 0 W/m² 6,4 °C 7,1 °C 0,0 km/h (0 Bft)
03.11.2017 07:30 7,1 °C 7,1 °C 95 % 1016,4 hPa 0,0 mm 0,0 km/h (0 Bft) N-NO 14 ° 0 min 0,000 mm 0,0 UV-I 0 W/m² 6,4 °C 7,1 °C 0,0 km/h (0 Bft)
03.11.2017 07:31 7,1 °C 7,1 °C 95 % 1016,3 hPa 0,0 mm 0,0 km/h (0 Bft) N-NO 14 ° 0 min 0,000 mm 0,0 UV-I 0 W/m² 6,4 °C 7,1 °C 0,0 km/h (0 Bft)
03.11.2017 07:32 7,1 °C 7,1 °C 95 % 1016,3 hPa 0,0 mm 0,0 km/h (0 Bft) N-NO 14 ° 0 min 0,000 mm 0,0 UV-I 0 W/m² 6,4 °C 7,1 °C 0,0 km/h (0 Bft)
03.11.2017 07:33 7,1 °C 7,1 °C 95 % 1016,3 hPa 0,0 mm 0,0 km/h (0 Bft) N-NO 14 ° 0 min 0,000 mm 0,0 UV-I 0 W/m² 6,4 °C 7,1 °C 0,0 km/h (0 Bft)
03.11.2017 07:34 7,1 °C 7,1 °C 95 % 1016,3 hPa 0,0 mm 0,0 km/h (0 Bft) N-NO 14 ° 0 min 0,000 mm 0,0 UV-I 0 W/m² 6,4 °C 7,1 °C 0,0 km/h (0 Bft)
03.11.2017 07:35 7,1 °C 7,1 °C 95 % 1016,4 hPa 0,0 mm 0,0 km/h (0 Bft) N-NO 14 ° 0 min 0,000 mm 0,0 UV-I 0 W/m² 6,4 °C 7,1 °C 0,0 km/h (0 Bft)
03.11.2017 07:36 7,1 °C 7,1 °C 95 % 1016,4 hPa 0,0 mm 0,0 km/h (0 Bft) N-NO 14 ° 0 min 0,000 mm 0,0 UV-I 0 W/m² 6,4 °C 7,1 °C 0,0 km/h (0 Bft)
03.11.2017 07:37 7,1 °C 7,1 °C 95 % 1016,4 hPa 0,0 mm 0,0 km/h (0 Bft) N-NO 14 ° 0 min 0,000 mm 0,0 UV-I 0 W/m² 6,4 °C 7,1 °C 0,0 km/h (0 Bft)
03.11.2017 07:38 7,1 °C 7,1 °C 95 % 1016,4 hPa 0,0 mm 0,0 km/h (0 Bft) N-NO 14 ° 0 min 0,000 mm 0,0 UV-I 0 W/m² 6,4 °C 7,1 °C 0,0 km/h (0 Bft)
03.11.2017 07:39 7,1 °C 7,1 °C 95 % 1016,4 hPa 0,0 mm 0,0 km/h (0 Bft) N-NO 14 ° 0 min 0,000 mm 0,0 UV-I 0 W/m² 6,4 °C 7,1 °C 0,0 km/h (0 Bft)
03.11.2017 07:40 7,1 °C 7,1 °C 95 % 1016,4 hPa 0,0 mm 0,0 km/h (0 Bft) N-NO 14 ° 0 min 0,000 mm 0,0 UV-I 0 W/m² 6,4 °C 7,1 °C 0,0 km/h (0 Bft)
03.11.2017 07:41 7,1 °C 7,1 °C 95 % 1016,4 hPa 0,0 mm 0,0 km/h (0 Bft) N-NO 14 ° 0 min 0,000 mm 0,0 UV-I 0 W/m² 6,4 °C 7,1 °C 0,0 km/h (0 Bft)
03.11.2017 07:42 7,1 °C 7,1 °C 95 % 1016,4 hPa 0,0 mm 0,0 km/h (0 Bft) N-NO 14 ° 0 min 0,000 mm 0,0 UV-I 0 W/m² 6,4 °C 7,1 °C 0,0 km/h (0 Bft)
03.11.2017 07:43 7,1 °C 7,1 °C 95 % 1016,4 hPa 0,0 mm 0,0 km/h (0 Bft) N-NO 14 ° 0 min 0,000 mm 0,0 UV-I 0 W/m² 6,4 °C 7,1 °C 0,0 km/h (0 Bft)
03.11.2017 07:44 7,1 °C 7,1 °C 95 % 1016,4 hPa 0,0 mm 0,0 km/h (0 Bft) N-NO 14 ° 0 min 0,000 mm 0,0 UV-I 0 W/m² 6,4 °C 7,1 °C 0,0 km/h (0 Bft)
03.11.2017 07:45 7,1 °C 7,1 °C 95 % 1016,4 hPa 0,0 mm 0,0 km/h (0 Bft) N-NO 14 ° 0 min 0,000 mm 0,0 UV-I 0 W/m² 6,4 °C 7,1 °C 0,0 km/h (0 Bft)
03.11.2017 07:46 7,1 °C 7,1 °C 95 % 1016,5 hPa 0,2 mm 0,0 km/h (0 Bft) N-NO 14 ° 0 min 0,000 mm 0,0 UV-I 0 W/m² 6,4 °C 7,1 °C 0,0 km/h (0 Bft)
03.11.2017 07:47 7,1 °C 7,1 °C 95 % 1016,5 hPa 0,0 mm 0,0 km/h (0 Bft) N-NO 14 ° 0 min 0,000 mm 0,0 UV-I 5 W/m² 6,4 °C 7,1 °C 0,0 km/h (0 Bft)
03.11.2017 07:48 7,1 °C 7,1 °C 95 % 1016,5 hPa 0,0 mm 0,0 km/h (0 Bft) N-NO 14 ° 0 min 0,000 mm 0,0 UV-I 5 W/m² 6,4 °C 7,1 °C 0,0 km/h (0 Bft)
03.11.2017 07:49 7,1 °C 7,1 °C 95 % 1016,4 hPa 0,0 mm 0,0 km/h (0 Bft) N-NO 14 ° 0 min 0,000 mm 0,0 UV-I 7 W/m² 6,4 °C 7,1 °C 0,0 km/h (0 Bft)
03.11.2017 07:50 7,1 °C 7,1 °C 95 % 1016,5 hPa 0,0 mm 0,0 km/h (0 Bft) N-NO 14 ° 0 min 0,000 mm 0,0 UV-I 7 W/m² 6,4 °C 7,1 °C 0,0 km/h (0 Bft)
03.11.2017 07:51 7,1 °C 7,1 °C 95 % 1016,5 hPa 0,0 mm 0,0 km/h (0 Bft) N-NO 14 ° 0 min 0,000 mm 0,0 UV-I 7 W/m² 6,4 °C 7,1 °C 0,0 km/h (0 Bft)
03.11.2017 07:52 7,1 °C 7,1 °C 95 % 1016,5 hPa 0,0 mm 0,0 km/h (0 Bft) N-NO 14 ° 0 min 0,000 mm 0,0 UV-I 7 W/m² 6,4 °C 7,1 °C 0,0 km/h (0 Bft)
03.11.2017 07:53 7,1 °C 7,1 °C 95 % 1016,5 hPa 0,0 mm 0,0 km/h (0 Bft) N-NO 14 ° 0 min 0,000 mm 0,0 UV-I 9 W/m² 6,4 °C 7,1 °C 0,0 km/h (0 Bft)
03.11.2017 07:54 7,1 °C 7,1 °C 95 % 1016,5 hPa 0,0 mm 0,0 km/h (0 Bft) N-NO 14 ° 0 min 0,000 mm 0,0 UV-I 7 W/m² 6,4 °C 7,1 °C 0,0 km/h (0 Bft)
03.11.2017 07:55 7,1 °C 7,1 °C 95 % 1016,5 hPa 0,0 mm 0,0 km/h (0 Bft) N-NO 14 ° 0 min 0,000 mm 0,0 UV-I 7 W/m² 6,4 °C 7,1 °C 0,0 km/h (0 Bft)
03.11.2017 07:56 7,1 °C 7,1 °C 95 % 1016,5 hPa 0,0 mm 0,0 km/h (0 Bft) N-NO 14 ° 0 min 0,000 mm 0,0 UV-I 7 W/m² 6,4 °C 7,1 °C 0,0 km/h (0 Bft)
03.11.2017 07:57 7,1 °C 7,1 °C 95 % 1016,5 hPa 0,0 mm 0,0 km/h (0 Bft) N-NO 14 ° 0 min 0,000 mm 0,0 UV-I 7 W/m² 6,4 °C 7,1 °C 0,0 km/h (0 Bft)
03.11.2017 07:58 7,1 °C 7,1 °C 95 % 1016,5 hPa 0,0 mm 0,0 km/h (0 Bft) N-NO 14 ° 0 min 0,000 mm 0,0 UV-I 7 W/m² 6,4 °C 7,1 °C 0,0 km/h (0 Bft)
03.11.2017 07:59 7,1 °C 7,1 °C 95 % 1016,6 hPa 0,0 mm 0,0 km/h (0 Bft) N-NO 14 ° 0 min 0,000 mm 0,0 UV-I 7 W/m² 6,4 °C 7,1 °C 0,0 km/h (0 Bft)
03.11.2017 08:00 7,1 °C 7,1 °C 95 % 1016,6 hPa 0,0 mm 0,0 km/h (0 Bft) N-NO 14 ° 0 min 0,000 mm 0,0 UV-I 7 W/m² 6,4 °C 7,1 °C 0,0 km/h (0 Bft)
03.11.2017 08:01 7,1 °C 7,1 °C 95 % 1016,6 hPa 0,0 mm 1,6 km/h (1 Bft) N-NO 14 ° 0 min 0,000 mm 0,0 UV-I 7 W/m² 6,4 °C 7,1 °C 3,2 km/h (1 Bft)
03.11.2017 08:02 7,1 °C 7,1 °C 95 % 1016,6 hPa 0,0 mm 0,3 km/h (0 Bft) N-NO 14 ° 0 min 0,000 mm 0,0 UV-I 7 W/m² 6,4 °C 7,1 °C 1,6 km/h (1 Bft)
03.11.2017 08:03 7,1 °C 7,1 °C 95 % 1016,6 hPa 0,0 mm 0,0 km/h (0 Bft) N-NO 14 ° 0 min 0,000 mm 0,0 UV-I 7 W/m² 6,4 °C 7,1 °C 0,0 km/h (0 Bft)
03.11.2017 08:04 7,1 °C 7,1 °C 95 % 1016,5 hPa 0,0 mm 0,0 km/h (0 Bft) N-NO 14 ° 0 min 0,000 mm 0,0 UV-I 7 W/m² 6,4 °C 7,1 °C 0,0 km/h (0 Bft)
03.11.2017 08:05 7,1 °C 7,1 °C 95 % 1016,5 hPa 0,0 mm 0,0 km/h (0 Bft) N-NO 14 ° 0 min 0,000 mm 0,0 UV-I 7 W/m² 6,4 °C 7,1 °C 0,0 km/h (0 Bft)
03.11.2017 08:06 7,1 °C 7,1 °C 95 % 1016,5 hPa 0,0 mm 0,0 km/h (0 Bft) N-NO 14 ° 0 min 0,000 mm 0,0 UV-I 7 W/m² 6,4 °C 7,1 °C 0,0 km/h (0 Bft)
03.11.2017 08:07 7,1 °C 7,1 °C 95 % 1016,6 hPa 0,0 mm 0,0 km/h (0 Bft) N-NO 14 ° 0 min 0,000 mm 0,0 UV-I 7 W/m² 6,4 °C 7,1 °C 0,0 km/h (0 Bft)
03.11.2017 08:08 7,1 °C 7,1 °C 95 % 1016,6 hPa 0,0 mm 0,0 km/h (0 Bft) N-NO 14 ° 0 min 0,000 mm 0,0 UV-I 9 W/m² 6,4 °C 7,1 °C 0,0 km/h (0 Bft)
03.11.2017 08:09 7,1 °C 7,1 °C 95 % 1016,6 hPa 0,0 mm 0,0 km/h (0 Bft) N-NO 14 ° 0 min 0,000 mm 0,0 UV-I 9 W/m² 6,4 °C 7,1 °C 0,0 km/h (0 Bft)
03.11.2017 08:10 7,1 °C 7,1 °C 95 % 1016,6 hPa 0,0 mm 0,0 km/h (0 Bft) N-NO 14 ° 0 min 0,000 mm 0,0 UV-I 9 W/m² 6,4 °C 7,1 °C 0,0 km/h (0 Bft)
03.11.2017 08:11 7,1 °C 7,1 °C 95 % 1016,6 hPa 0,0 mm 0,0 km/h (0 Bft) N-NO 14 ° 0 min 0,000 mm 0,0 UV-I 9 W/m² 6,4 °C 7,1 °C 0,0 km/h (0 Bft)
03.11.2017 08:12 7,1 °C 7,1 °C 95 % 1016,6 hPa 0,0 mm 0,0 km/h (0 Bft) N-NO 14 ° 0 min 0,000 mm 0,0 UV-I 9 W/m² 6,4 °C 7,1 °C 0,0 km/h (0 Bft)
03.11.2017 08:13 7,1 °C 7,1 °C 95 % 1016,6 hPa 0,0 mm 0,0 km/h (0 Bft) N-NO 14 ° 0 min 0,000 mm 0,0 UV-I 9 W/m² 6,4 °C 7,1 °C 0,0 km/h (0 Bft)
03.11.2017 08:14 7,1 °C 7,1 °C 95 % 1016,6 hPa 0,0 mm 0,0 km/h (0 Bft) N-NO 14 ° 0 min 0,000 mm 0,0 UV-I 11 W/m² 6,4 °C 7,1 °C 0,0 km/h (0 Bft)
03.11.2017 08:15 7,1 °C 7,1 °C 95 % 1016,6 hPa 0,0 mm 0,0 km/h (0 Bft) N-NO 14 ° 0 min 0,000 mm 0,0 UV-I 11 W/m² 6,4 °C 7,1 °C 0,0 km/h (0 Bft)
03.11.2017 08:16 7,1 °C 7,1 °C 95 % 1016,6 hPa 0,0 mm 0,0 km/h (0 Bft) N-NO 14 ° 0 min 0,000 mm 0,0 UV-I 11 W/m² 6,4 °C 7,1 °C 0,0 km/h (0 Bft)
03.11.2017 08:17 7,1 °C 7,1 °C 95 % 1016,6 hPa 0,0 mm 0,0 km/h (0 Bft) N-NO 14 ° 0 min 0,000 mm 0,0 UV-I 9 W/m² 6,4 °C 7,1 °C 0,0 km/h (0 Bft)
03.11.2017 08:18 7,1 °C 7,1 °C 95 % 1016,6 hPa 0,0 mm 0,0 km/h (0 Bft) N-NO 14 ° 0 min 0,000 mm 0,0 UV-I 9 W/m² 6,4 °C 7,1 °C 0,0 km/h (0 Bft)
03.11.2017 08:19 7,1 °C 7,2 °C 95 % 1016,6 hPa 0,0 mm 0,0 km/h (0 Bft) N-NO 14 ° 0 min 0,000 mm 0,0 UV-I 9 W/m² 6,4 °C 7,1 °C 0,0 km/h (0 Bft)
03.11.2017 08:20 7,2 °C 7,2 °C 95 % 1016,6 hPa 0,0 mm 0,0 km/h (0 Bft) N-NO 14 ° 0 min 0,000 mm 0,0 UV-I 11 W/m² 6,5 °C 7,2 °C 0,0 km/h (0 Bft)
03.11.2017 08:21 7,1 °C 7,2 °C 95 % 1016,6 hPa 0,0 mm 0,0 km/h (0 Bft) N-NO 14 ° 0 min 0,000 mm 0,0 UV-I 11 W/m² 6,4 °C 7,1 °C 0,0 km/h (0 Bft)
03.11.2017 08:22 7,1 °C 7,2 °C 95 % 1016,6 hPa 0,0 mm 0,0 km/h (0 Bft) N-NO 14 ° 0 min 0,000 mm 0,0 UV-I 11 W/m² 6,4 °C 7,1 °C 0,0 km/h (0 Bft)
03.11.2017 08:23 7,1 °C 7,2 °C 95 % 1016,6 hPa 0,0 mm 0,0 km/h (0 Bft) N-NO 14 ° 0 min 0,000 mm 0,0 UV-I 12 W/m² 6,4 °C 7,1 °C 0,0 km/h (0 Bft)
03.11.2017 08:24 7,1 °C 7,1 °C 95 % 1016,6 hPa 0,0 mm 0,0 km/h (0 Bft) N-NO 14 ° 0 min 0,000 mm 0,0 UV-I 14 W/m² 6,4 °C 7,1 °C 0,0 km/h (0 Bft)
03.11.2017 08:25 7,1 °C 7,1 °C 95 % 1016,6 hPa 0,0 mm 0,0 km/h (0 Bft) N-NO 14 ° 0 min 0,000 mm 0,0 UV-I 14 W/m² 6,4 °C 7,1 °C 0,0 km/h (0 Bft)
03.11.2017 08:26 7,1 °C 7,1 °C 95 % 1016,6 hPa 0,0 mm 0,0 km/h (0 Bft) N-NO 14 ° 0 min 0,000 mm 0,0 UV-I 14 W/m² 6,4 °C 7,1 °C 0,0 km/h (0 Bft)
03.11.2017 08:27 7,1 °C 7,1 °C 95 % 1016,6 hPa 0,0 mm 0,0 km/h (0 Bft) N-NO 14 ° 0 min 0,000 mm 0,0 UV-I 14 W/m² 6,4 °C 7,1 °C 0,0 km/h (0 Bft)
03.11.2017 08:28 7,1 °C 7,2 °C 95 % 1016,6 hPa 0,0 mm 0,0 km/h (0 Bft) N-NO 14 ° 0 min 0,000 mm 0,0 UV-I 16 W/m² 6,4 °C 7,1 °C 0,0 km/h (0 Bft)
03.11.2017 08:29 7,1 °C 7,2 °C 95 % 1016,6 hPa 0,0 mm 0,0 km/h (0 Bft) N-NO 14 ° 0 min 0,000 mm 0,0 UV-I 16 W/m² 6,4 °C 7,1 °C 0,0 km/h (0 Bft)
03.11.2017 08:30 7,1 °C 7,1 °C 95 % 1016,6 hPa 0,0 mm 0,0 km/h (0 Bft) N-NO 14 ° 0 min 0,000 mm 0,0 UV-I 18 W/m² 6,4 °C 7,1 °C 0,0 km/h (0 Bft)
03.11.2017 08:31 7,2 °C 7,2 °C 95 % 1016,6 hPa 0,0 mm 0,0 km/h (0 Bft) N-NO 14 ° 0 min 0,000 mm 0,0 UV-I 25 W/m² 6,5 °C 7,2 °C 0,0 km/h (0 Bft)
03.11.2017 08:32 7,1 °C 7,2 °C 95 % 1016,6 hPa 0,0 mm 0,0 km/h (0 Bft) N-NO 14 ° 0 min 0,000 mm 0,0 UV-I 32 W/m² 6,4 °C 7,1 °C 0,0 km/h (0 Bft)
03.11.2017 08:33 7,2 °C 7,2 °C 95 % 1016,6 hPa 0,0 mm 0,0 km/h (0 Bft) N-NO 14 ° 0 min 0,000 mm 0,0 UV-I 39 W/m² 6,5 °C 7,2 °C 0,0 km/h (0 Bft)
03.11.2017 08:34 7,2 °C 7,2 °C 95 % 1016,6 hPa 0,0 mm 0,0 km/h (0 Bft) N-NO 14 ° 0 min 0,000 mm 0,0 UV-I 47 W/m² 6,5 °C 7,2 °C 0,0 km/h (0 Bft)
03.11.2017 08:35 7,2 °C 7,2 °C 95 % 1016,6 hPa 0,0 mm 0,0 km/h (0 Bft) N-NO 14 ° 0 min 0,000 mm 0,0 UV-I 47 W/m² 6,5 °C 7,2 °C 0,0 km/h (0 Bft)
03.11.2017 08:36 7,2 °C 7,2 °C 95 % 1016,6 hPa 0,0 mm 0,0 km/h (0 Bft) N-NO 14 ° 0 min 0,000 mm 0,0 UV-I 54 W/m² 6,5 °C 7,2 °C 0,0 km/h (0 Bft)
03.11.2017 08:37 7,2 °C 7,2 °C 95 % 1016,6 hPa 0,0 mm 0,0 km/h (0 Bft) N-NO 14 ° 0 min 0,000 mm 0,0 UV-I 56 W/m² 6,5 °C 7,2 °C 0,0 km/h (0 Bft)
03.11.2017 08:38 7,2 °C 7,2 °C 95 % 1016,6 hPa 0,0 mm 0,0 km/h (0 Bft) N-NO 14 ° 0 min 0,000 mm 0,0 UV-I 54 W/m² 6,5 °C 7,2 °C 0,0 km/h (0 Bft)
03.11.2017 08:39 7,2 °C 7,2 °C 95 % 1016,6 hPa 0,0 mm 0,0 km/h (0 Bft) N-NO 14 ° 0 min 0,000 mm 0,0 UV-I 51 W/m² 6,5 °C 7,2 °C 0,0 km/h (0 Bft)
03.11.2017 08:40 7,2 °C 7,3 °C 95 % 1016,6 hPa 0,0 mm 0,0 km/h (0 Bft) N-NO 14 ° 0 min 0,000 mm 0,0 UV-I 51 W/m² 6,5 °C 7,2 °C 0,0 km/h (0 Bft)
03.11.2017 08:41 7,3 °C 7,3 °C 95 % 1016,6 hPa 0,0 mm 0,0 km/h (0 Bft) N-NO 14 ° 0 min 0,000 mm 0,0 UV-I 46 W/m² 6,6 °C 7,3 °C 0,0 km/h (0 Bft)
03.11.2017 08:42 7,3 °C 7,3 °C 95 % 1016,6 hPa 0,0 mm 0,0 km/h (0 Bft) N-NO 14 ° 0 min 0,000 mm 0,0 UV-I 47 W/m² 6,6 °C 7,3 °C 0,0 km/h (0 Bft)
03.11.2017 08:43 7,3 °C 7,3 °C 95 % 1016,6 hPa 0,0 mm 0,0 km/h (0 Bft) N-NO 14 ° 0 min 0,000 mm 0,0 UV-I 63 W/m² 6,6 °C 7,3 °C 0,0 km/h (0 Bft)
03.11.2017 08:44 7,4 °C 7,4 °C 95 % 1016,6 hPa 0,0 mm 0,0 km/h (0 Bft) N-NO 14 ° 0 min 0,000 mm 0,0 UV-I 67 W/m² 6,7 °C 7,4 °C 0,0 km/h (0 Bft)
03.11.2017 08:45 7,4 °C 7,4 °C 95 % 1016,6 hPa 0,0 mm 0,0 km/h (0 Bft) N-NO 14 ° 0 min 0,000 mm 0,0 UV-I 62 W/m² 6,7 °C 7,4 °C 0,0 km/h (0 Bft)
03.11.2017 08:46 7,4 °C 7,4 °C 95 % 1016,6 hPa 0,0 mm 0,0 km/h (0 Bft) N-NO 14 ° 0 min 0,000 mm 0,0 UV-I 58 W/m² 6,7 °C 7,4 °C 0,0 km/h (0 Bft)
03.11.2017 08:47 7,4 °C 7,4 °C 95 % 1016,6 hPa 0,0 mm 0,0 km/h (0 Bft) N-NO 14 ° 0 min 0,000 mm 0,5 UV-I 58 W/m² 6,7 °C 7,4 °C 0,0 km/h (0 Bft)
03.11.2017 08:48 7,4 °C 7,4 °C 95 % 1016,6 hPa 0,0 mm 0,0 km/h (0 Bft) N-NO 14 ° 0 min 0,000 mm 0,0 UV-I 54 W/m² 6,7 °C 7,4 °C 0,0 km/h (0 Bft)
03.11.2017 08:49 7,4 °C 7,5 °C 95 % 1016,6 hPa 0,0 mm 0,0 km/h (0 Bft) N-NO 14 ° 0 min 0,000 mm 0,0 UV-I 39 W/m² 6,7 °C 7,4 °C 0,0 km/h (0 Bft)
03.11.2017 08:50 7,4 °C 7,5 °C 95 % 1016,6 hPa 0,0 mm 0,0 km/h (0 Bft) N-NO 14 ° 0 min 0,000 mm 0,0 UV-I 35 W/m² 6,7 °C 7,4 °C 0,0 km/h (0 Bft)
03.11.2017 08:51 7,4 °C 7,4 °C 95 % 1016,6 hPa 0,0 mm 0,0 km/h (0 Bft) N-NO 14 ° 0 min 0,000 mm 0,0 UV-I 37 W/m² 6,7 °C 7,4 °C 0,0 km/h (0 Bft)
03.11.2017 08:52 7,4 °C 7,4 °C 95 % 1016,6 hPa 0,0 mm 0,0 km/h (0 Bft) N-NO 14 ° 0 min 0,000 mm 0,0 UV-I 39 W/m² 6,7 °C 7,4 °C 0,0 km/h (0 Bft)
03.11.2017 08:53 7,4 °C 7,4 °C 95 % 1016,6 hPa 0,0 mm 0,0 km/h (0 Bft) N-NO 14 ° 0 min 0,000 mm 0,0 UV-I 39 W/m² 6,7 °C 7,4 °C 0,0 km/h (0 Bft)
03.11.2017 08:54 7,4 °C 7,4 °C 95 % 1016,6 hPa 0,0 mm 0,0 km/h (0 Bft) N-NO 14 ° 0 min 0,000 mm 0,0 UV-I 39 W/m² 6,7 °C 7,4 °C 0,0 km/h (0 Bft)
03.11.2017 08:55 7,4 °C 7,4 °C 95 % 1016,6 hPa 0,0 mm 0,0 km/h (0 Bft) N-NO 14 ° 0 min 0,000 mm 0,0 UV-I 42 W/m² 6,7 °C 7,4 °C 0,0 km/h (0 Bft)
03.11.2017 08:56 7,4 °C 7,4 °C 95 % 1016,6 hPa 0,0 mm 0,0 km/h (0 Bft) N-NO 14 ° 0 min 0,000 mm 0,0 UV-I 44 W/m² 6,7 °C 7,4 °C 0,0 km/h (0 Bft)
03.11.2017 08:57 7,4 °C 7,4 °C 95 % 1016,6 hPa 0,0 mm 0,0 km/h (0 Bft) N-NO 14 ° 0 min 0,000 mm 0,0 UV-I 42 W/m² 6,7 °C 7,4 °C 0,0 km/h (0 Bft)
03.11.2017 08:58 7,4 °C 7,4 °C 95 % 1016,6 hPa 0,0 mm 0,0 km/h (0 Bft) N-NO 14 ° 0 min 0,000 mm 0,0 UV-I 40 W/m² 6,7 °C 7,4 °C 0,0 km/h (0 Bft)
03.11.2017 08:59 7,4 °C 7,4 °C 95 % 1016,6 hPa 0,0 mm 0,0 km/h (0 Bft) N-NO 14 ° 0 min 0,000 mm 0,0 UV-I 39 W/m² 6,7 °C 7,4 °C 0,0 km/h (0 Bft)
03.11.2017 09:00 7,4 °C 7,4 °C 95 % 1016,6 hPa 0,0 mm 0,0 km/h (0 Bft) N-NO 14 ° 0 min 0,000 mm 0,0 UV-I 42 W/m² 6,7 °C 7,4 °C 0,0 km/h (0 Bft)
03.11.2017 09:01 7,4 °C 7,4 °C 95 % 1016,6 hPa 0,0 mm 0,0 km/h (0 Bft) N-NO 14 ° 0 min 0,000 mm 0,0 UV-I 44 W/m² 6,7 °C 7,4 °C 0,0 km/h (0 Bft)
03.11.2017 09:02 7,4 °C 7,4 °C 95 % 1016,6 hPa 0,0 mm 0,0 km/h (0 Bft) N-NO 14 ° 0 min 0,000 mm 0,0 UV-I 46 W/m² 6,7 °C 7,4 °C 0,0 km/h (0 Bft)
03.11.2017 09:03 7,4 °C 7,4 °C 95 % 1016,6 hPa 0,0 mm 0,0 km/h (0 Bft) N-NO 14 ° 0 min 0,000 mm 0,0 UV-I 44 W/m² 6,7 °C 7,4 °C 0,0 km/h (0 Bft)
03.11.2017 09:04 7,4 °C 7,4 °C 95 % 1016,6 hPa 0,0 mm 0,0 km/h (0 Bft) N-NO 14 ° 0 min 0,000 mm 0,0 UV-I 44 W/m² 6,7 °C 7,4 °C 0,0 km/h (0 Bft)
03.11.2017 09:05 7,4 °C 7,4 °C 95 % 1016,6 hPa 0,0 mm 0,0 km/h (0 Bft) N-NO 14 ° 0 min 0,000 mm 0,0 UV-I 46 W/m² 6,7 °C 7,4 °C 0,0 km/h (0 Bft)
03.11.2017 09:06 7,4 °C 7,4 °C 95 % 1016,6 hPa 0,0 mm 0,0 km/h (0 Bft) N-NO 14 ° 0 min 0,000 mm 0,0 UV-I 42 W/m² 6,7 °C 7,4 °C 0,0 km/h (0 Bft)
03.11.2017 09:07 7,4 °C 7,4 °C 95 % 1016,6 hPa 0,0 mm 0,0 km/h (0 Bft) N-NO 14 ° 0 min 0,000 mm 0,0 UV-I 42 W/m² 6,7 °C 7,4 °C 0,0 km/h (0 Bft)
03.11.2017 09:08 7,4 °C 7,4 °C 95 % 1016,6 hPa 0,0 mm 0,0 km/h (0 Bft) N-NO 14 ° 0 min 0,000 mm 0,0 UV-I 42 W/m² 6,7 °C 7,4 °C 0,0 km/h (0 Bft)
03.11.2017 09:09 7,4 °C 7,4 °C 95 % 1016,6 hPa 0,0 mm 0,0 km/h (0 Bft) N-NO 14 ° 0 min 0,000 mm 0,0 UV-I 47 W/m² 6,7 °C 7,4 °C 0,0 km/h (0 Bft)
03.11.2017 09:10 7,4 °C 7,4 °C 95 % 1016,6 hPa 0,0 mm 0,0 km/h (0 Bft) N-NO 14 ° 0 min 0,000 mm 0,0 UV-I 49 W/m² 6,7 °C 7,4 °C 0,0 km/h (0 Bft)
03.11.2017 09:11 7,4 °C 7,4 °C 95 % 1016,6 hPa 0,0 mm 0,0 km/h (0 Bft) N-NO 14 ° 0 min 0,000 mm 0,0 UV-I 49 W/m² 6,7 °C 7,4 °C 0,0 km/h (0 Bft)
03.11.2017 09:12 7,4 °C 7,4 °C 95 % 1016,6 hPa 0,0 mm 0,0 km/h (0 Bft) N-NO 14 ° 0 min 0,000 mm 0,0 UV-I 44 W/m² 6,7 °C 7,4 °C 0,0 km/h (0 Bft)
03.11.2017 09:13 7,5 °C 7,5 °C 95 % 1016,6 hPa 0,0 mm 0,0 km/h (0 Bft) N-NO 14 ° 0 min 0,000 mm 0,0 UV-I 42 W/m² 6,8 °C 7,5 °C 0,0 km/h (0 Bft)
03.11.2017 09:14 7,5 °C 7,5 °C 95 % 1016,6 hPa 0,0 mm 0,0 km/h (0 Bft) N-NO 14 ° 0 min 0,000 mm 0,0 UV-I 44 W/m² 6,8 °C 7,5 °C 0,0 km/h (0 Bft)
03.11.2017 09:15 7,5 °C 7,5 °C 95 % 1016,6 hPa 0,0 mm 0,0 km/h (0 Bft) N-NO 14 ° 0 min 0,000 mm 0,0 UV-I 49 W/m² 6,8 °C 7,5 °C 0,0 km/h (0 Bft)
03.11.2017 09:16 7,6 °C 7,6 °C 95 % 1016,6 hPa 0,0 mm 0,0 km/h (0 Bft) N-NO 14 ° 0 min 0,000 mm 0,0 UV-I 53 W/m² 6,9 °C 7,6 °C 0,0 km/h (0 Bft)
03.11.2017 09:17 7,6 °C 7,6 °C 95 % 1016,6 hPa 0,0 mm 0,0 km/h (0 Bft) N-NO 14 ° 0 min 0,000 mm 0,5 UV-I 56 W/m² 6,9 °C 7,6 °C 0,0 km/h (0 Bft)
03.11.2017 09:18 7,6 °C 7,6 °C 95 % 1016,6 hPa 0,0 mm 0,0 km/h (0 Bft) N-NO 14 ° 0 min 0,000 mm 0,6 UV-I 69 W/m² 6,9 °C 7,6 °C 0,0 km/h (0 Bft)
03.11.2017 09:19 7,6 °C 7,6 °C 95 % 1016,6 hPa 0,0 mm 0,0 km/h (0 Bft) N-NO 14 ° 0 min 0,000 mm 0,6 UV-I 67 W/m² 6,9 °C 7,6 °C 0,0 km/h (0 Bft)
03.11.2017 09:20 7,6 °C 7,6 °C 95 % 1016,6 hPa 0,0 mm 0,0 km/h (0 Bft) N-NO 14 ° 0 min 0,000 mm 0,6 UV-I 63 W/m² 6,9 °C 7,6 °C 0,0 km/h (0 Bft)
03.11.2017 09:21 7,6 °C 7,6 °C 95 % 1016,6 hPa 0,0 mm 0,7 km/h (0 Bft) N-NO 14 ° 0 min 0,000 mm 0,7 UV-I 63 W/m² 6,9 °C 7,6 °C 3,2 km/h (1 Bft)
03.11.2017 09:22 7,6 °C 7,6 °C 95 % 1016,6 hPa 0,0 mm 2,6 km/h (1 Bft) N-NO 14 ° 0 min 0,000 mm 0,7 UV-I 63 W/m² 6,9 °C 7,6 °C 3,2 km/h (1 Bft)
03.11.2017 09:23 7,6 °C 7,6 °C 95 % 1016,6 hPa 0,0 mm 1,2 km/h (1 Bft) N-NO 14 ° 0 min 0,000 mm 0,7 UV-I 62 W/m² 6,9 °C 7,6 °C 3,2 km/h (1 Bft)
03.11.2017 09:24 7,6 °C 7,6 °C 95 % 1016,6 hPa 0,0 mm 1,5 km/h (1 Bft) N-NO 14 ° 0 min 0,000 mm 0,7 UV-I 60 W/m² 6,9 °C 7,6 °C 3,2 km/h (1 Bft)
03.11.2017 09:25 7,6 °C 7,6 °C 95 % 1016,6 hPa 0,0 mm 0,5 km/h (0 Bft) N-NO 14 ° 0 min 0,000 mm 0,7 UV-I 63 W/m² 6,9 °C 7,6 °C 1,6 km/h (1 Bft)
03.11.2017 09:26 7,6 °C 7,6 °C 95 % 1016,6 hPa 0,0 mm 0,0 km/h (0 Bft) N-NO 14 ° 0 min 0,000 mm 0,7 UV-I 70 W/m² 6,9 °C 7,6 °C 0,0 km/h (0 Bft)
03.11.2017 09:27 7,6 °C 7,6 °C 95 % 1016,7 hPa 0,0 mm 0,0 km/h (0 Bft) N-NO 14 ° 0 min 0,000 mm 0,7 UV-I 77 W/m² 6,9 °C 7,6 °C 0,0 km/h (0 Bft)
03.11.2017 09:28 7,6 °C 7,6 °C 95 % 1016,7 hPa 0,0 mm 0,0 km/h (0 Bft) N-NO 14 ° 0 min 0,000 mm 0,7 UV-I 86 W/m² 6,9 °C 7,6 °C 0,0 km/h (0 Bft)
03.11.2017 09:29 7,6 °C 7,6 °C 95 % 1016,7 hPa 0,0 mm 0,0 km/h (0 Bft) N-NO 14 ° 0 min 0,000 mm 0,7 UV-I 90 W/m² 6,9 °C 7,6 °C 0,0 km/h (0 Bft)
03.11.2017 09:30 7,7 °C 7,7 °C 95 % 1016,6 hPa 0,0 mm 0,0 km/h (0 Bft) N-NO 14 ° 0 min 0,000 mm 0,7 UV-I 83 W/m² 7,0 °C 7,7 °C 0,0 km/h (0 Bft)
03.11.2017 09:31 7,7 °C 7,7 °C 95 % 1016,6 hPa 0,0 mm 0,0 km/h (0 Bft) N-NO 14 ° 0 min 0,000 mm 0,7 UV-I 84 W/m² 7,0 °C 7,7 °C 0,0 km/h (0 Bft)
03.11.2017 09:32 7,7 °C 7,7 °C 95 % 1016,6 hPa 0,0 mm 0,0 km/h (0 Bft) N-NO 14 ° 0 min 0,000 mm 0,7 UV-I 95 W/m² 7,0 °C 7,7 °C 0,0 km/h (0 Bft)
03.11.2017 09:33 7,7 °C 7,7 °C 95 % 1016,6 hPa 0,0 mm 0,0 km/h (0 Bft) N-NO 14 ° 0 min 0,000 mm 0,7 UV-I 104 W/m² 7,0 °C 7,7 °C 0,0 km/h (0 Bft)
03.11.2017 09:34 7,7 °C 7,7 °C 95 % 1016,6 hPa 0,0 mm 0,0 km/h (0 Bft) N-NO 14 ° 0 min 0,000 mm 0,7 UV-I 102 W/m² 7,0 °C 7,7 °C 0,0 km/h (0 Bft)
03.11.2017 09:35 7,7 °C 7,7 °C 95 % 1016,6 hPa 0,0 mm 0,0 km/h (0 Bft) N-NO 14 ° 0 min 0,000 mm 0,7 UV-I 97 W/m² 7,0 °C 7,7 °C 0,0 km/h (0 Bft)
03.11.2017 09:36 7,7 °C 7,7 °C 95 % 1016,7 hPa 0,0 mm 0,0 km/h (0 Bft) N-NO 14 ° 0 min 0,000 mm 0,6 UV-I 90 W/m² 7,0 °C 7,7 °C 0,0 km/h (0 Bft)
03.11.2017 09:37 7,7 °C 7,7 °C 95 % 1016,7 hPa 0,0 mm 0,0 km/h (0 Bft) N-NO 14 ° 0 min 0,000 mm 0,6 UV-I 91 W/m² 7,0 °C 7,7 °C 0,0 km/h (0 Bft)
03.11.2017 09:38 7,8 °C 7,8 °C 95 % 1016,7 hPa 0,0 mm 0,0 km/h (0 Bft) N-NO 14 ° 0 min 0,000 mm 0,6 UV-I 91 W/m² 7,0 °C 7,8 °C 0,0 km/h (0 Bft)
03.11.2017 09:39 7,8 °C 7,8 °C 94 % 1016,7 hPa 0,0 mm 0,0 km/h (0 Bft) N-NO 14 ° 0 min 0,000 mm 0,6 UV-I 86 W/m² 6,9 °C 7,8 °C 0,0 km/h (0 Bft)
03.11.2017 09:40 7,8 °C 7,8 °C 94 % 1016,7 hPa 0,0 mm 0,0 km/h (0 Bft) N-NO 14 ° 0 min 0,000 mm 0,6 UV-I 79 W/m² 6,9 °C 7,8 °C 0,0 km/h (0 Bft)
03.11.2017 09:41 7,8 °C 7,8 °C 95 % 1016,7 hPa 0,0 mm 0,0 km/h (0 Bft) N-NO 14 ° 0 min 0,000 mm 0,6 UV-I 77 W/m² 7,0 °C 7,8 °C 0,0 km/h (0 Bft)
03.11.2017 09:42 7,8 °C 7,8 °C 95 % 1016,6 hPa 0,0 mm 0,0 km/h (0 Bft) N-NO 14 ° 0 min 0,000 mm 0,6 UV-I 90 W/m² 7,0 °C 7,8 °C 0,0 km/h (0 Bft)
03.11.2017 09:43 7,9 °C 7,9 °C 95 % 1016,6 hPa 0,0 mm 0,3 km/h (0 Bft) N-NO 14 ° 0 min 0,000 mm 0,6 UV-I 84 W/m² 7,1 °C 7,9 °C 3,2 km/h (1 Bft)
03.11.2017 09:44 7,9 °C 7,9 °C 95 % 1016,7 hPa 0,0 mm 3,2 km/h (1 Bft) N-NO 14 ° 0 min 0,000 mm 0,5 UV-I 74 W/m² 7,1 °C 7,9 °C 4,8 km/h (1 Bft)
03.11.2017 09:45 7,9 °C 7,9 °C 95 % 1016,7 hPa 0,0 mm 1,5 km/h (1 Bft) N-NO 14 ° 0 min 0,000 mm 0,5 UV-I 70 W/m² 7,1 °C 7,9 °C 3,2 km/h (1 Bft)
03.11.2017 09:46 7,9 °C 7,9 °C 94 % 1016,7 hPa 0,0 mm 1,7 km/h (1 Bft) N-NO 14 ° 0 min 0,000 mm 0,6 UV-I 70 W/m² 7,0 °C 7,9 °C 3,2 km/h (1 Bft)
03.11.2017 09:47 8,0 °C 8,0 °C 94 % 1016,7 hPa 0,0 mm 0,0 km/h (0 Bft) N-NO 14 ° 0 min 0,000 mm 0,6 UV-I 79 W/m² 7,1 °C 8,0 °C 0,0 km/h (0 Bft)
03.11.2017 09:48 8,1 °C 8,1 °C 94 % 1016,7 hPa 0,0 mm 0,8 km/h (0 Bft) N-NO 14 ° 0 min 0,000 mm 0,6 UV-I 79 W/m² 7,2 °C 8,1 °C 3,2 km/h (1 Bft)
03.11.2017 09:49 8,0 °C 8,1 °C 94 % 1016,7 hPa 0,0 mm 0,1 km/h (0 Bft) N-NO 14 ° 0 min 0,000 mm 0,6 UV-I 76 W/m² 7,1 °C 8,0 °C 1,6 km/h (1 Bft)
03.11.2017 09:50 8,0 °C 8,1 °C 94 % 1016,7 hPa 0,0 mm 0,0 km/h (0 Bft) N-NO 14 ° 0 min 0,000 mm 0,6 UV-I 72 W/m² 7,1 °C 8,0 °C 0,0 km/h (0 Bft)
03.11.2017 09:51 8,1 °C 8,1 °C 94 % 1016,7 hPa 0,0 mm 1,9 km/h (1 Bft) N-NO 14 ° 0 min 0,000 mm 0,5 UV-I 69 W/m² 7,2 °C 8,1 °C 3,2 km/h (1 Bft)
03.11.2017 09:52 8,1 °C 8,1 °C 94 % 1016,7 hPa 0,0 mm 2,1 km/h (1 Bft) N-NO 14 ° 0 min 0,000 mm 0,5 UV-I 63 W/m² 7,2 °C 8,1 °C 4,8 km/h (1 Bft)
03.11.2017 09:53 8,1 °C 8,1 °C 94 % 1016,7 hPa 0,0 mm 3,0 km/h (1 Bft) NO 43 ° 0 min 0,000 mm 0,0 UV-I 54 W/m² 7,2 °C 8,1 °C 4,8 km/h (1 Bft)
03.11.2017 09:54 8,1 °C 8,1 °C 94 % 1016,7 hPa 0,0 mm 2,2 km/h (1 Bft) NO 43 ° 0 min 0,000 mm 0,0 UV-I 53 W/m² 7,2 °C 8,1 °C 3,2 km/h (1 Bft)
03.11.2017 09:55 8,0 °C 8,1 °C 94 % 1016,7 hPa 0,0 mm 3,0 km/h (1 Bft) O-NO 59 ° 0 min 0,000 mm 0,0 UV-I 51 W/m² 7,1 °C 8,0 °C 4,8 km/h (1 Bft)
03.11.2017 09:56 8,1 °C 8,1 °C 94 % 1016,7 hPa 0,0 mm 3,0 km/h (1 Bft) O-NO 59 ° 0 min 0,000 mm 0,0 UV-I 51 W/m² 7,2 °C 8,1 °C 4,8 km/h (1 Bft)
03.11.2017 09:57 8,0 °C 8,1 °C 93 % 1016,7 hPa 0,0 mm 1,8 km/h (1 Bft) O-NO 59 ° 0 min 0,000 mm 0,0 UV-I 49 W/m² 6,9 °C 8,0 °C 3,2 km/h (1 Bft)
03.11.2017 09:58 8,1 °C 8,1 °C 93 % 1016,7 hPa 0,0 mm 2,7 km/h (1 Bft) O-NO 59 ° 0 min 0,000 mm 0,0 UV-I 51 W/m² 7,0 °C 8,1 °C 4,8 km/h (1 Bft)
03.11.2017 09:59 8,1 °C 8,1 °C 93 % 1016,7 hPa 0,0 mm 1,8 km/h (1 Bft) O-NO 59 ° 0 min 0,000 mm 0,0 UV-I 58 W/m² 7,0 °C 8,1 °C 6,4 km/h (2 Bft)
03.11.2017 10:00 8,1 °C 8,1 °C 93 % 1016,7 hPa 0,0 mm 1,7 km/h (1 Bft) O-NO 59 ° 0 min 0,000 mm 0,5 UV-I 67 W/m² 7,0 °C 8,1 °C 4,8 km/h (1 Bft)
03.11.2017 10:01 8,1 °C 8,1 °C 93 % 1016,7 hPa 0,0 mm 1,5 km/h (1 Bft) O-NO 59 ° 0 min 0,025 mm 0,5 UV-I 74 W/m² 7,0 °C 8,1 °C 3,2 km/h (1 Bft)
03.11.2017 10:02 8,0 °C 8,1 °C 92 % 1016,7 hPa 0,0 mm 1,7 km/h (1 Bft) O-NO 60 ° 0 min 0,000 mm 0,5 UV-I 74 W/m² 6,8 °C 8,0 °C 3,2 km/h (1 Bft)
03.11.2017 10:03 8,0 °C 8,1 °C 92 % 1016,7 hPa 0,0 mm 0,3 km/h (0 Bft) O-NO 60 ° 0 min 0,000 mm 0,5 UV-I 76 W/m² 6,8 °C 8,0 °C 1,6 km/h (1 Bft)
03.11.2017 10:04 8,1 °C 8,1 °C 92 % 1016,7 hPa 0,0 mm 1,9 km/h (1 Bft) O-NO 60 ° 0 min 0,000 mm 0,5 UV-I 79 W/m² 6,9 °C 8,1 °C 3,2 km/h (1 Bft)
03.11.2017 10:05 8,1 °C 8,1 °C 92 % 1016,7 hPa 0,0 mm 3,5 km/h (1 Bft) O-NO 60 ° 0 min 0,000 mm 0,6 UV-I 81 W/m² 6,9 °C 8,1 °C 4,8 km/h (1 Bft)
03.11.2017 10:06 8,1 °C 8,1 °C 92 % 1016,7 hPa 0,0 mm 0,8 km/h (0 Bft) O-NO 60 ° 0 min 0,000 mm 0,6 UV-I 79 W/m² 6,9 °C 8,1 °C 3,2 km/h (1 Bft)
03.11.2017 10:07 8,1 °C 8,1 °C 92 % 1016,7 hPa 0,0 mm 0,0 km/h (0 Bft) O-NO 60 ° 0 min 0,000 mm 0,6 UV-I 79 W/m² 6,9 °C 8,1 °C 0,0 km/h (0 Bft)
03.11.2017 10:08 8,2 °C 8,2 °C 93 % 1016,7 hPa 0,0 mm 0,2 km/h (0 Bft) O-NO 60 ° 0 min 0,000 mm 0,6 UV-I 83 W/m² 7,1 °C 8,2 °C 1,6 km/h (1 Bft)
03.11.2017 10:09 8,2 °C 8,2 °C 93 % 1016,7 hPa 0,0 mm 2,9 km/h (1 Bft) O-NO 60 ° 0 min 0,000 mm 0,7 UV-I 88 W/m² 7,1 °C 8,2 °C 4,8 km/h (1 Bft)
03.11.2017 10:10 8,2 °C 8,2 °C 93 % 1016,7 hPa 0,0 mm 3,8 km/h (1 Bft) O-NO 61 ° 0 min 0,000 mm 0,7 UV-I 91 W/m² 7,1 °C 8,2 °C 6,4 km/h (2 Bft)
03.11.2017 10:11 8,3 °C 8,3 °C 93 % 1016,7 hPa 0,0 mm 1,9 km/h (1 Bft) O-NO 61 ° 0 min 0,000 mm 0,7 UV-I 97 W/m² 7,2 °C 8,3 °C 3,2 km/h (1 Bft)
03.11.2017 10:12 8,3 °C 8,3 °C 93 % 1016,7 hPa 0,0 mm 1,3 km/h (1 Bft) O-NO 61 ° 0 min 0,000 mm 0,7 UV-I 98 W/m² 7,2 °C 8,3 °C 3,2 km/h (1 Bft)
03.11.2017 10:13 8,3 °C 8,3 °C 93 % 1016,7 hPa 0,0 mm 0,4 km/h (0 Bft) O-NO 61 ° 0 min 0,000 mm 0,7 UV-I 105 W/m² 7,2 °C 8,3 °C 1,6 km/h (1 Bft)
03.11.2017 10:14 8,3 °C 8,3 °C 93 % 1016,7 hPa 0,0 mm 0,0 km/h (0 Bft) O-NO 61 ° 0 min 0,000 mm 0,7 UV-I 111 W/m² 7,2 °C 8,3 °C 0,0 km/h (0 Bft)
03.11.2017 10:15 8,3 °C 8,3 °C 92 % 1016,7 hPa 0,0 mm 0,0 km/h (0 Bft) O-NO 61 ° 0 min 0,000 mm 0,7 UV-I 113 W/m² 7,1 °C 8,3 °C 0,0 km/h (0 Bft)
03.11.2017 10:16 8,3 °C 8,3 °C 92 % 1016,8 hPa 0,0 mm 1,8 km/h (1 Bft) O-NO 61 ° 0 min 0,000 mm 0,8 UV-I 114 W/m² 7,1 °C 8,3 °C 3,2 km/h (1 Bft)
03.11.2017 10:17 8,3 °C 8,3 °C 93 % 1016,7 hPa 0,0 mm 2,7 km/h (1 Bft) O-NO 61 ° 0 min 0,000 mm 0,8 UV-I 128 W/m² 7,2 °C 8,3 °C 4,8 km/h (1 Bft)
03.11.2017 10:19 8,3 °C 8,4 °C 92 % 1016,8 hPa 0,0 mm 2,4 km/h (1 Bft) O-NO 61 ° 0 min 0,000 mm 0,8 UV-I 123 W/m² 7,1 °C 8,3 °C 3,2 km/h (1 Bft)
03.11.2017 10:20 8,3 °C 8,4 °C 92 % 1016,8 hPa 0,0 mm 2,5 km/h (1 Bft) O-NO 61 ° 0 min 0,000 mm 0,8 UV-I 116 W/m² 7,1 °C 8,3 °C 4,8 km/h (1 Bft)
03.11.2017 10:21 8,4 °C 8,4 °C 92 % 1016,8 hPa 0,0 mm 1,4 km/h (1 Bft) O-NO 61 ° 0 min 0,000 mm 0,7 UV-I 102 W/m² 7,2 °C 8,4 °C 4,8 km/h (1 Bft)
03.11.2017 10:22 8,3 °C 8,4 °C 92 % 1016,8 hPa 0,0 mm 2,3 km/h (1 Bft) O-NO 61 ° 0 min 0,000 mm 0,6 UV-I 91 W/m² 7,1 °C 8,3 °C 3,2 km/h (1 Bft)
03.11.2017 10:23 8,3 °C 8,3 °C 92 % 1016,8 hPa 0,0 mm 1,1 km/h (1 Bft) O-NO 61 ° 0 min 0,000 mm 0,6 UV-I 95 W/m² 7,1 °C 8,3 °C 3,2 km/h (1 Bft)
03.11.2017 10:24 8,3 °C 8,3 °C 92 % 1016,8 hPa 0,0 mm 2,7 km/h (1 Bft) O-NO 61 ° 0 min 0,000 mm 0,7 UV-I 107 W/m² 7,1 °C 8,3 °C 3,2 km/h (1 Bft)
03.11.2017 10:25 8,4 °C 8,4 °C 91 % 1016,8 hPa 0,0 mm 3,9 km/h (1 Bft) O-NO 59 ° 0 min 0,000 mm 0,8 UV-I 127 W/m² 7,0 °C 8,4 °C 6,4 km/h (2 Bft)
03.11.2017 10:26 8,3 °C 8,4 °C 91 % 1016,8 hPa 0,0 mm 2,3 km/h (1 Bft) O-NO 59 ° 0 min 0,000 mm 0,9 UV-I 146 W/m² 6,9 °C 8,3 °C 3,2 km/h (1 Bft)
03.11.2017 10:27 8,3 °C 8,4 °C 91 % 1016,8 hPa 0,0 mm 2,9 km/h (1 Bft) O-NO 59 ° 0 min 0,000 mm 1,0 UV-I 163 W/m² 6,9 °C 8,3 °C 4,8 km/h (1 Bft)
03.11.2017 10:29 8,4 °C 8,4 °C 91 % 1016,8 hPa 0,0 mm 0,2 km/h (0 Bft) O-NO 59 ° 0 min 0,000 mm 1,1 UV-I 190 W/m² 7,0 °C 8,4 °C 1,6 km/h (1 Bft)
03.11.2017 10:30 8,4 °C 8,4 °C 91 % 1016,8 hPa 0,0 mm 0,1 km/h (0 Bft) O-NO 59 ° 0 min 0,000 mm 1,1 UV-I 172 W/m² 7,0 °C 8,4 °C 1,6 km/h (1 Bft)
03.11.2017 10:31 8,4 °C 8,4 °C 91 % 1016,8 hPa 0,0 mm 1,0 km/h (0 Bft) O-NO 59 ° 0 min 0,000 mm 1,1 UV-I 167 W/m² 7,0 °C 8,4 °C 1,6 km/h (1 Bft)
03.11.2017 10:32 8,6 °C 8,6 °C 91 % 1016,8 hPa 0,0 mm 0,5 km/h (0 Bft) O-NO 59 ° 0 min 0,000 mm 1,2 UV-I 190 W/m² 7,2 °C 8,6 °C 1,6 km/h (1 Bft)
03.11.2017 10:33 8,6 °C 8,6 °C 91 % 1016,8 hPa 0,0 mm 1,5 km/h (1 Bft) O-NO 59 ° 0 min 0,000 mm 1,3 UV-I 213 W/m² 7,2 °C 8,6 °C 3,2 km/h (1 Bft)
03.11.2017 10:34 8,6 °C 8,6 °C 91 % 1016,8 hPa 0,0 mm 1,8 km/h (1 Bft) O-NO 59 ° 0 min 0,000 mm 1,3 UV-I 230 W/m² 7,2 °C 8,6 °C 3,2 km/h (1 Bft)
03.11.2017 10:35 8,7 °C 8,7 °C 92 % 1016,8 hPa 0,0 mm 0,8 km/h (0 Bft) O-NO 59 ° 0 min 0,000 mm 1,3 UV-I 211 W/m² 7,5 °C 8,7 °C 1,6 km/h (1 Bft)
03.11.2017 10:36 8,7 °C 8,7 °C 91 % 1016,8 hPa 0,0 mm 1,2 km/h (1 Bft) O-NO 59 ° 0 min 0,000 mm 1,3 UV-I 200 W/m² 7,3 °C 8,7 °C 3,2 km/h (1 Bft)
03.11.2017 10:37 8,7 °C 8,8 °C 91 % 1016,8 hPa 0,0 mm 3,1 km/h (1 Bft) O-NO 59 ° 0 min 0,000 mm 1,3 UV-I 192 W/m² 7,3 °C 8,7 °C 4,8 km/h (1 Bft)
03.11.2017 10:38 8,8 °C 8,8 °C 90 % 1016,8 hPa 0,0 mm 2,6 km/h (1 Bft) O-NO 59 ° 0 min 0,000 mm 1,3 UV-I 178 W/m² 7,3 °C 8,8 °C 4,8 km/h (1 Bft)
03.11.2017 10:39 8,8 °C 8,8 °C 90 % 1016,8 hPa 0,0 mm 3,5 km/h (1 Bft) O-NO 59 ° 0 min 0,000 mm 1,3 UV-I 190 W/m² 7,3 °C 8,8 °C 6,4 km/h (2 Bft)
03.11.2017 10:40 8,8 °C 8,8 °C 90 % 1016,8 hPa 0,0 mm 1,8 km/h (1 Bft) O-NO 59 ° 0 min 0,000 mm 1,3 UV-I 186 W/m² 7,3 °C 8,8 °C 4,8 km/h (1 Bft)
03.11.2017 10:41 8,9 °C 8,9 °C 91 % 1016,8 hPa 0,0 mm 4,1 km/h (1 Bft) O-NO 59 ° 0 min 0,000 mm 1,3 UV-I 181 W/m² 7,5 °C 8,9 °C 4,8 km/h (1 Bft)
03.11.2017 10:42 8,9 °C 8,9 °C 90 % 1016,8 hPa 0,0 mm 3,9 km/h (1 Bft) O-NO 59 ° 0 min 0,000 mm 1,3 UV-I 178 W/m² 7,4 °C 8,9 °C 6,4 km/h (2 Bft)
03.11.2017 10:43 8,8 °C 8,9 °C 90 % 1016,8 hPa 0,0 mm 5,2 km/h (1 Bft) O-NO 59 ° 0 min 0,000 mm 1,3 UV-I 172 W/m² 7,3 °C 8,3 °C 6,4 km/h (2 Bft)
03.11.2017 10:44 8,8 °C 8,9 °C 89 % 1016,8 hPa 0,0 mm 4,0 km/h (1 Bft) O-NO 59 ° 0 min 0,000 mm 1,4 UV-I 190 W/m² 7,1 °C 8,8 °C 6,4 km/h (2 Bft)
03.11.2017 10:45 8,8 °C 8,8 °C 89 % 1016,8 hPa 0,0 mm 2,8 km/h (1 Bft) O-NO 59 ° 0 min 0,000 mm 1,4 UV-I 211 W/m² 7,1 °C 8,8 °C 4,8 km/h (1 Bft)
03.11.2017 10:46 8,9 °C 8,9 °C 89 % 1016,8 hPa 0,0 mm 3,8 km/h (1 Bft) O-NO 59 ° 0 min 0,000 mm 1,4 UV-I 239 W/m² 7,2 °C 8,9 °C 6,4 km/h (2 Bft)
03.11.2017 10:47 8,9 °C 8,9 °C 90 % 1016,8 hPa 0,0 mm 3,2 km/h (1 Bft) O-NO 59 ° 0 min 0,000 mm 1,4 UV-I 241 W/m² 7,4 °C 8,9 °C 4,8 km/h (1 Bft)
03.11.2017 10:48 8,9 °C 8,9 °C 90 % 1016,8 hPa 0,0 mm 1,3 km/h (1 Bft) O-NO 59 ° 0 min 0,000 mm 1,3 UV-I 214 W/m² 7,4 °C 8,9 °C 3,2 km/h (1 Bft)
03.11.2017 10:49 8,9 °C 8,9 °C 90 % 1016,8 hPa 0,0 mm 3,0 km/h (1 Bft) O-NO 59 ° 0 min 0,000 mm 1,3 UV-I 195 W/m² 7,4 °C 8,9 °C 4,8 km/h (1 Bft)
03.11.2017 10:50 9,0 °C 9,0 °C 90 % 1016,8 hPa 0,0 mm 4,2 km/h (1 Bft) O-NO 60 ° 0 min 0,000 mm 1,3 UV-I 211 W/m² 7,4 °C 9,0 °C 8,0 km/h (2 Bft)
03.11.2017 10:51 9,1 °C 9,1 °C 90 % 1016,8 hPa 0,0 mm 5,6 km/h (1 Bft) NO 56 ° 0 min 0,000 mm 1,3 UV-I 229 W/m² 7,5 °C 8,6 °C 8,0 km/h (2 Bft)
03.11.2017 10:52 9,1 °C 9,1 °C 89 % 1016,8 hPa 0,0 mm 7,4 km/h (2 Bft) O 82 ° 0 min 0,000 mm 1,4 UV-I 265 W/m² 7,4 °C 8,1 °C 9,7 km/h (2 Bft)
03.11.2017 10:53 9,1 °C 9,1 °C 90 % 1016,8 hPa 0,0 mm 5,8 km/h (2 Bft) O-NO 76 ° 0 min 0,000 mm 1,4 UV-I 253 W/m² 7,5 °C 8,5 °C 8,0 km/h (2 Bft)
03.11.2017 10:54 9,1 °C 9,1 °C 89 % 1016,8 hPa 0,0 mm 3,0 km/h (1 Bft) O-NO 73 ° 0 min 0,000 mm 1,3 UV-I 223 W/m² 7,4 °C 9,1 °C 4,8 km/h (1 Bft)
03.11.2017 10:55 9,1 °C 9,1 °C 89 % 1016,8 hPa 0,0 mm 4,4 km/h (1 Bft) O-NO 72 ° 0 min 0,000 mm 1,4 UV-I 229 W/m² 7,4 °C 9,1 °C 8,0 km/h (2 Bft)
03.11.2017 10:56 9,1 °C 9,1 °C 88 % 1016,8 hPa 0,0 mm 1,6 km/h (1 Bft) O-NO 72 ° 0 min 0,000 mm 1,5 UV-I 264 W/m² 7,2 °C 9,1 °C 3,2 km/h (1 Bft)
03.11.2017 10:57 9,0 °C 9,1 °C 88 % 1016,8 hPa 0,0 mm 1,6 km/h (1 Bft) O-NO 72 ° 0 min 0,000 mm 1,5 UV-I 287 W/m² 7,1 °C 9,0 °C 3,2 km/h (1 Bft)
03.11.2017 10:58 9,1 °C 9,1 °C 89 % 1016,7 hPa 0,0 mm 1,8 km/h (1 Bft) O-NO 72 ° 0 min 0,000 mm 1,5 UV-I 257 W/m² 7,4 °C 9,1 °C 4,8 km/h (1 Bft)
03.11.2017 10:59 9,2 °C 9,2 °C 89 % 1016,7 hPa 0,0 mm 5,3 km/h (1 Bft) NO 50 ° 0 min 0,000 mm 1,4 UV-I 230 W/m² 7,5 °C 8,8 °C 8,0 km/h (2 Bft)
03.11.2017 11:00 9,2 °C 9,2 °C 89 % 1016,7 hPa 0,0 mm 5,0 km/h (1 Bft) O-NO 63 ° 0 min 0,076 mm 1,5 UV-I 236 W/m² 7,5 °C 8,8 °C 8,0 km/h (2 Bft)
03.11.2017 11:01 9,2 °C 9,2 °C 89 % 1016,7 hPa 0,0 mm 4,5 km/h (1 Bft) O-NO 76 ° 0 min 0,000 mm 1,5 UV-I 204 W/m² 7,5 °C 9,2 °C 11,3 km/h (2 Bft)
03.11.2017 11:02 9,2 °C 9,2 °C 88 % 1016,7 hPa 0,0 mm 5,4 km/h (1 Bft) O-NO 74 ° 0 min 0,000 mm 1,4 UV-I 197 W/m² 7,3 °C 8,7 °C 8,0 km/h (2 Bft)
03.11.2017 11:03 9,1 °C 9,2 °C 87 % 1016,7 hPa 0,0 mm 5,7 km/h (1 Bft) O-NO 76 ° 0 min 0,000 mm 1,4 UV-I 193 W/m² 7,1 °C 8,5 °C 6,4 km/h (2 Bft)
03.11.2017 11:04 9,1 °C 9,1 °C 88 % 1016,7 hPa 0,0 mm 4,5 km/h (1 Bft) O 82 ° 0 min 0,000 mm 1,5 UV-I 199 W/m² 7,2 °C 9,1 °C 6,4 km/h (2 Bft)
03.11.2017 11:05 9,1 °C 9,1 °C 88 % 1016,7 hPa 0,0 mm 3,9 km/h (1 Bft) O 79 ° 0 min 0,000 mm 1,4 UV-I 167 W/m² 7,2 °C 9,1 °C 6,4 km/h (2 Bft)
03.11.2017 11:06 9,1 °C 9,1 °C 88 % 1016,7 hPa 0,0 mm 4,7 km/h (1 Bft) O 82 ° 0 min 0,000 mm 1,3 UV-I 146 W/m² 7,2 °C 8,8 °C 8,0 km/h (2 Bft)
03.11.2017 11:07 9,0 °C 9,1 °C 88 % 1016,7 hPa 0,0 mm 5,2 km/h (1 Bft) O 82 ° 0 min 0,000 mm 1,3 UV-I 141 W/m² 7,1 °C 8,6 °C 6,4 km/h (2 Bft)
03.11.2017 11:08 9,0 °C 9,0 °C 88 % 1016,7 hPa 0,0 mm 5,2 km/h (1 Bft) O 83 ° 0 min 0,000 mm 1,4 UV-I 148 W/m² 7,1 °C 8,6 °C 6,4 km/h (2 Bft)
03.11.2017 11:09 9,0 °C 9,0 °C 88 % 1016,7 hPa 0,0 mm 2,7 km/h (1 Bft) O 83 ° 0 min 0,000 mm 1,4 UV-I 153 W/m² 7,1 °C 9,0 °C 4,8 km/h (1 Bft)
03.11.2017 11:10 9,0 °C 9,0 °C 88 % 1016,6 hPa 0,0 mm 3,6 km/h (1 Bft) O-NO 77 ° 0 min 0,000 mm 1,4 UV-I 171 W/m² 7,1 °C 9,0 °C 6,4 km/h (2 Bft)
03.11.2017 11:11 9,0 °C 9,0 °C 89 % 1016,7 hPa 0,0 mm 3,0 km/h (1 Bft) O-NO 76 ° 0 min 0,000 mm 1,5 UV-I 172 W/m² 7,3 °C 9,0 °C 4,8 km/h (1 Bft)
03.11.2017 11:12 9,0 °C 9,1 °C 89 % 1016,7 hPa 0,0 mm 6,3 km/h (2 Bft) NO 46 ° 0 min 0,000 mm 1,4 UV-I 169 W/m² 7,3 °C 8,2 °C 8,0 km/h (2 Bft)
03.11.2017 11:13 9,0 °C 9,0 °C 88 % 1016,7 hPa 0,0 mm 4,7 km/h (1 Bft) O 86 ° 0 min 0,000 mm 1,4 UV-I 176 W/m² 7,1 °C 8,7 °C 11,3 km/h (2 Bft)
03.11.2017 11:14 9,0 °C 9,0 °C 88 % 1016,7 hPa 0,0 mm 3,3 km/h (1 Bft) O 86 ° 0 min 0,000 mm 1,4 UV-I 176 W/m² 7,1 °C 9,0 °C 4,8 km/h (1 Bft)
03.11.2017 11:15 9,0 °C 9,0 °C 88 % 1016,6 hPa 0,0 mm 2,6 km/h (1 Bft) O 86 ° 0 min 0,000 mm 1,4 UV-I 183 W/m² 7,1 °C 9,0 °C 4,8 km/h (1 Bft)
03.11.2017 11:16 9,0 °C 9,0 °C 88 % 1016,7 hPa 0,0 mm 5,3 km/h (1 Bft) O-NO 61 ° 0 min 0,000 mm 1,5 UV-I 204 W/m² 7,1 °C 8,5 °C 8,0 km/h (2 Bft)
03.11.2017 11:17 9,1 °C 9,1 °C 88 % 1016,7 hPa 0,0 mm 4,9 km/h (1 Bft) O 83 ° 0 min 0,000 mm 1,5 UV-I 225 W/m² 7,2 °C 8,8 °C 6,4 km/h (2 Bft)
03.11.2017 11:18 9,1 °C 9,1 °C 88 % 1016,7 hPa 0,0 mm 3,9 km/h (1 Bft) O-NO 74 ° 0 min 0,000 mm 1,6 UV-I 232 W/m² 7,2 °C 9,1 °C 6,4 km/h (2 Bft)
03.11.2017 11:19 9,1 °C 9,1 °C 88 % 1016,6 hPa 0,0 mm 1,8 km/h (1 Bft) O-NO 73 ° 0 min 0,000 mm 1,6 UV-I 244 W/m² 7,2 °C 9,1 °C 4,8 km/h (1 Bft)
03.11.2017 11:20 9,1 °C 9,1 °C 89 % 1016,6 hPa 0,0 mm 2,9 km/h (1 Bft) O-NO 73 ° 0 min 0,000 mm 1,6 UV-I 244 W/m² 7,4 °C 9,1 °C 4,8 km/h (1 Bft)
03.11.2017 11:21 9,2 °C 9,2 °C 89 % 1016,6 hPa 0,0 mm 3,4 km/h (1 Bft) O-NO 74 ° 0 min 0,000 mm 1,6 UV-I 232 W/m² 7,5 °C 9,2 °C 6,4 km/h (2 Bft)
03.11.2017 11:22 9,2 °C 9,2 °C 90 % 1016,6 hPa 0,0 mm 5,3 km/h (1 Bft) O-NO 67 ° 0 min 0,000 mm 1,6 UV-I 227 W/m² 7,6 °C 8,8 °C 8,0 km/h (2 Bft)
03.11.2017 11:23 9,2 °C 9,2 °C 89 % 1016,6 hPa 0,0 mm 4,8 km/h (1 Bft) O-NO 67 ° 0 min 0,000 mm 1,6 UV-I 230 W/m² 7,5 °C 8,9 °C 6,4 km/h (2 Bft)
03.11.2017 11:24 9,2 °C 9,2 °C 88 % 1016,6 hPa 0,0 mm 5,9 km/h (2 Bft) O-NO 59 ° 0 min 0,000 mm 1,6 UV-I 232 W/m² 7,3 °C 8,6 °C 8,0 km/h (2 Bft)
03.11.2017 11:25 9,1 °C 9,2 °C 88 % 1016,6 hPa 0,0 mm 3,4 km/h (1 Bft) O-NO 59 ° 0 min 0,000 mm 1,7 UV-I 253 W/m² 7,2 °C 9,1 °C 4,8 km/h (1 Bft)
03.11.2017 11:26 9,1 °C 9,2 °C 89 % 1016,6 hPa 0,0 mm 3,2 km/h (1 Bft) O-SO 111 ° 0 min 0,000 mm 1,6 UV-I 260 W/m² 7,4 °C 9,1 °C 6,4 km/h (2 Bft)
03.11.2017 11:27 9,1 °C 9,2 °C 88 % 1016,6 hPa 0,0 mm 0,6 km/h (0 Bft) O-SO 103 ° 0 min 0,000 mm 1,6 UV-I 243 W/m² 7,2 °C 9,1 °C 3,2 km/h (1 Bft)
03.11.2017 11:28 9,1 °C 9,1 °C 88 % 1016,6 hPa 0,0 mm 0,4 km/h (0 Bft) O-SO 103 ° 0 min 0,000 mm 1,5 UV-I 237 W/m² 7,2 °C 9,1 °C 1,6 km/h (1 Bft)
03.11.2017 11:29 9,2 °C 9,2 °C 89 % 1016,6 hPa 0,0 mm 5,4 km/h (1 Bft) O-NO 78 ° 0 min 0,000 mm 1,5 UV-I 229 W/m² 7,5 °C 8,7 °C 8,0 km/h (2 Bft)
03.11.2017 11:30 9,2 °C 9,2 °C 89 % 1016,6 hPa 0,0 mm 3,6 km/h (1 Bft) O-NO 78 ° 0 min 0,000 mm 1,6 UV-I 237 W/m² 7,5 °C 9,2 °C 6,4 km/h (2 Bft)
03.11.2017 11:31 9,2 °C 9,2 °C 88 % 1016,5 hPa 0,0 mm 1,7 km/h (1 Bft) O-NO 78 ° 0 min 0,000 mm 1,6 UV-I 241 W/m² 7,3 °C 9,2 °C 4,8 km/h (1 Bft)
03.11.2017 11:32 9,2 °C 9,2 °C 88 % 1016,6 hPa 0,0 mm 4,2 km/h (1 Bft) O-NO 72 ° 0 min 0,000 mm 1,6 UV-I 225 W/m² 7,3 °C 9,2 °C 6,4 km/h (2 Bft)
03.11.2017 11:33 9,2 °C 9,2 °C 88 % 1016,6 hPa 0,0 mm 6,8 km/h (2 Bft) O-NO 68 ° 0 min 0,000 mm 1,6 UV-I 216 W/m² 7,3 °C 8,3 °C 8,0 km/h (2 Bft)
03.11.2017 11:34 9,2 °C 9,2 °C 87 % 1016,5 hPa 0,0 mm 5,3 km/h (1 Bft) O-NO 75 ° 0 min 0,000 mm 1,6 UV-I 207 W/m² 7,2 °C 8,8 °C 8,0 km/h (2 Bft)
03.11.2017 11:35 9,2 °C 9,2 °C 87 % 1016,5 hPa 0,0 mm 5,0 km/h (1 Bft) O-NO 59 ° 0 min 0,000 mm 1,6 UV-I 200 W/m² 7,2 °C 8,8 °C 8,0 km/h (2 Bft)
03.11.2017 11:36 9,2 °C 9,2 °C 87 % 1016,5 hPa 0,0 mm 5,2 km/h (1 Bft) O-NO 67 ° 0 min 0,000 mm 1,6 UV-I 204 W/m² 7,2 °C 8,8 °C 6,4 km/h (2 Bft)
03.11.2017 11:37 9,2 °C 9,2 °C 87 % 1016,5 hPa 0,0 mm 5,9 km/h (2 Bft) O-NO 61 ° 0 min 0,000 mm 1,7 UV-I 207 W/m² 7,2 °C 8,6 °C 8,0 km/h (2 Bft)
03.11.2017 11:38 9,2 °C 9,2 °C 87 % 1016,5 hPa 0,0 mm 6,4 km/h (2 Bft) O-NO 61 ° 0 min 0,000 mm 1,6 UV-I 200 W/m² 7,2 °C 8,4 °C 9,7 km/h (2 Bft)
03.11.2017 11:39 9,1 °C 9,2 °C 87 % 1016,5 hPa 0,0 mm 4,6 km/h (1 Bft) O-NO 76 ° 0 min 0,000 mm 1,6 UV-I 171 W/m² 7,1 °C 8,9 °C 6,4 km/h (2 Bft)
03.11.2017 11:40 9,1 °C 9,2 °C 87 % 1016,5 hPa 0,0 mm 5,6 km/h (1 Bft) O-NO 72 ° 0 min 0,000 mm 1,5 UV-I 153 W/m² 7,1 °C 8,6 °C 9,7 km/h (2 Bft)
03.11.2017 11:41 9,1 °C 9,1 °C 87 % 1016,4 hPa 0,0 mm 3,0 km/h (1 Bft) O-NO 76 ° 0 min 0,000 mm 1,5 UV-I 141 W/m² 7,1 °C 9,1 °C 6,4 km/h (2 Bft)
03.11.2017 11:42 9,1 °C 9,1 °C 87 % 1016,4 hPa 0,0 mm 6,0 km/h (2 Bft) O-NO 69 ° 0 min 0,000 mm 1,5 UV-I 135 W/m² 7,1 °C 8,4 °C 8,0 km/h (2 Bft)
03.11.2017 11:43 9,1 °C 9,1 °C 87 % 1016,4 hPa 0,0 mm 5,7 km/h (1 Bft) O-NO 65 ° 0 min 0,000 mm 1,5 UV-I 139 W/m² 7,1 °C 8,5 °C 8,0 km/h (2 Bft)
03.11.2017 11:44 9,1 °C 9,1 °C 87 % 1016,4 hPa 0,0 mm 5,8 km/h (2 Bft) O-NO 71 ° 0 min 0,000 mm 1,4 UV-I 142 W/m² 7,1 °C 8,5 °C 8,0 km/h (2 Bft)
03.11.2017 11:45 9,1 °C 9,1 °C 88 % 1016,4 hPa 0,0 mm 2,3 km/h (1 Bft) O-NO 71 ° 0 min 0,000 mm 1,4 UV-I 142 W/m² 7,2 °C 9,1 °C 4,8 km/h (1 Bft)
03.11.2017 11:46 9,1 °C 9,1 °C 89 % 1016,4 hPa 0,0 mm 3,0 km/h (1 Bft) O-NO 71 ° 0 min 0,000 mm 1,5 UV-I 156 W/m² 7,4 °C 9,1 °C 4,8 km/h (1 Bft)
03.11.2017 11:47 9,1 °C 9,1 °C 88 % 1016,4 hPa 0,0 mm 4,6 km/h (1 Bft) O-NO 67 ° 0 min 0,000 mm 1,6 UV-I 174 W/m² 7,2 °C 8,9 °C 6,4 km/h (2 Bft)
03.11.2017 11:48 9,1 °C 9,1 °C 87 % 1016,4 hPa 0,0 mm 5,4 km/h (1 Bft) O-NO 73 ° 0 min 0,000 mm 1,6 UV-I 188 W/m² 7,1 °C 8,6 °C 8,0 km/h (2 Bft)
03.11.2017 11:49 9,0 °C 9,1 °C 87 % 1016,4 hPa 0,0 mm 5,4 km/h (1 Bft) O-NO 74 ° 0 min 0,000 mm 1,7 UV-I 202 W/m² 7,0 °C 8,5 °C 8,0 km/h (2 Bft)
03.11.2017 11:50 9,0 °C 9,1 °C 87 % 1016,4 hPa 0,0 mm 4,4 km/h (1 Bft) O-NO 65 ° 0 min 0,000 mm 1,6 UV-I 160 W/m² 7,0 °C 9,0 °C 8,0 km/h (2 Bft)
03.11.2017 11:51 8,9 °C 9,0 °C 87 % 1016,4 hPa 0,0 mm 4,6 km/h (1 Bft) O-NO 70 ° 0 min 0,000 mm 1,5 UV-I 153 W/m² 6,9 °C 8,6 °C 6,4 km/h (2 Bft)
03.11.2017 11:52 8,9 °C 8,9 °C 87 % 1016,4 hPa 0,0 mm 4,1 km/h (1 Bft) O-NO 71 ° 0 min 0,000 mm 1,5 UV-I 160 W/m² 6,9 °C 8,9 °C 6,4 km/h (2 Bft)
03.11.2017 11:53 8,9 °C 8,9 °C 87 % 1016,4 hPa 0,0 mm 4,2 km/h (1 Bft) O-NO 72 ° 0 min 0,000 mm 1,5 UV-I 179 W/m² 6,9 °C 8,9 °C 6,4 km/h (2 Bft)
03.11.2017 11:54 8,9 °C 8,9 °C 87 % 1016,4 hPa 0,0 mm 4,2 km/h (1 Bft) O-NO 75 ° 0 min 0,000 mm 1,6 UV-I 199 W/m² 6,9 °C 8,9 °C 6,4 km/h (2 Bft)
03.11.2017 11:55 8,9 °C 8,9 °C 87 % 1016,4 hPa 0,0 mm 1,5 km/h (1 Bft) O-NO 75 ° 0 min 0,000 mm 1,6 UV-I 209 W/m² 6,9 °C 8,9 °C 3,2 km/h (1 Bft)
03.11.2017 11:56 8,9 °C 8,9 °C 88 % 1016,4 hPa 0,0 mm 2,3 km/h (1 Bft) O-NO 75 ° 0 min 0,000 mm 1,6 UV-I 209 W/m² 7,0 °C 8,9 °C 4,8 km/h (1 Bft)
03.11.2017 11:57 8,9 °C 8,9 °C 88 % 1016,3 hPa 0,0 mm 3,5 km/h (1 Bft) O-NO 75 ° 0 min 0,000 mm 1,5 UV-I 206 W/m² 7,0 °C 8,9 °C 6,4 km/h (2 Bft)
03.11.2017 11:58 8,9 °C 8,9 °C 88 % 1016,3 hPa 0,0 mm 4,4 km/h (1 Bft) O-NO 73 ° 0 min 0,000 mm 1,5 UV-I 211 W/m² 7,0 °C 8,9 °C 6,4 km/h (2 Bft)
03.11.2017 11:59 9,0 °C 9,0 °C 89 % 1016,3 hPa 0,0 mm 3,4 km/h (1 Bft) O-NO 67 ° 0 min 0,000 mm 1,5 UV-I 229 W/m² 7,3 °C 9,0 °C 4,8 km/h (1 Bft)
03.11.2017 12:00 9,1 °C 9,1 °C 89 % 1016,3 hPa 0,0 mm 4,2 km/h (1 Bft) O-NO 74 ° 0 min 0,102 mm 1,5 UV-I 248 W/m² 7,4 °C 9,1 °C 6,4 km/h (2 Bft)
03.11.2017 12:01 9,1 °C 9,2 °C 87 % 1016,3 hPa 0,0 mm 6,6 km/h (2 Bft) O-NO 71 ° 0 min 0,000 mm 1,5 UV-I 255 W/m² 7,1 °C 8,3 °C 8,0 km/h (2 Bft)
03.11.2017 12:02 9,1 °C 9,1 °C 87 % 1016,3 hPa 0,0 mm 6,8 km/h (2 Bft) O-NO 73 ° 0 min 0,000 mm 1,6 UV-I 260 W/m² 7,1 °C 8,2 °C 8,0 km/h (2 Bft)
03.11.2017 12:03 9,2 °C 9,2 °C 86 % 1016,3 hPa 0,0 mm 5,4 km/h (1 Bft) O-NO 73 ° 0 min 0,000 mm 1,6 UV-I 262 W/m² 7,0 °C 8,7 °C 8,0 km/h (2 Bft)
03.11.2017 12:04 9,2 °C 9,2 °C 87 % 1016,3 hPa 0,0 mm 3,1 km/h (1 Bft) O-NO 73 ° 0 min 0,000 mm 1,6 UV-I 258 W/m² 7,2 °C 9,2 °C 4,8 km/h (1 Bft)
03.11.2017 12:05 9,2 °C 9,2 °C 87 % 1016,3 hPa 0,0 mm 2,5 km/h (1 Bft) O-NO 73 ° 0 min 0,000 mm 1,6 UV-I 262 W/m² 7,2 °C 9,2 °C 4,8 km/h (1 Bft)
03.11.2017 12:06 9,3 °C 9,3 °C 88 % 1016,2 hPa 0,0 mm 3,8 km/h (1 Bft) O-NO 60 ° 0 min 0,000 mm 1,6 UV-I 262 W/m² 7,4 °C 9,3 °C 9,7 km/h (2 Bft)
03.11.2017 12:07 9,3 °C 9,3 °C 87 % 1016,2 hPa 0,0 mm 7,8 km/h (2 Bft) NO 45 ° 0 min 0,000 mm 1,5 UV-I 250 W/m² 7,2 °C 8,2 °C 9,7 km/h (2 Bft)
03.11.2017 12:08 9,3 °C 9,3 °C 86 % 1016,2 hPa 0,0 mm 6,1 km/h (2 Bft) O-NO 58 ° 0 min 0,000 mm 1,5 UV-I 227 W/m² 7,1 °C 8,6 °C 8,0 km/h (2 Bft)
03.11.2017 12:09 9,3 °C 9,3 °C 86 % 1016,2 hPa 0,0 mm 4,0 km/h (1 Bft) NO 51 ° 0 min 0,000 mm 1,5 UV-I 225 W/m² 7,1 °C 9,3 °C 4,8 km/h (1 Bft)
03.11.2017 12:10 9,3 °C 9,3 °C 86 % 1016,1 hPa 0,0 mm 6,5 km/h (2 Bft) NO 36 ° 0 min 0,000 mm 1,4 UV-I 214 W/m² 7,1 °C 8,5 °C 9,7 km/h (2 Bft)
03.11.2017 12:11 9,4 °C 9,4 °C 86 % 1016,1 hPa 0,0 mm 5,9 km/h (2 Bft) O-NO 62 ° 0 min 0,000 mm 1,4 UV-I 202 W/m² 7,2 °C 8,8 °C 9,7 km/h (2 Bft)
03.11.2017 12:12 9,4 °C 9,4 °C 85 % 1016,1 hPa 0,0 mm 5,6 km/h (1 Bft) O-NO 59 ° 0 min 0,000 mm 1,3 UV-I 188 W/m² 7,0 °C 8,9 °C 8,0 km/h (2 Bft)
03.11.2017 12:13 9,4 °C 9,4 °C 85 % 1016,1 hPa 0,0 mm 6,6 km/h (2 Bft) O 84 ° 0 min 0,000 mm 1,3 UV-I 176 W/m² 7,0 °C 8,6 °C 11,3 km/h (2 Bft)
03.11.2017 12:14 9,3 °C 9,4 °C 85 % 1016,2 hPa 0,0 mm 5,3 km/h (1 Bft) O 90 ° 0 min 0,000 mm 1,2 UV-I 160 W/m² 6,9 °C 8,9 °C 6,4 km/h (2 Bft)
03.11.2017 12:15 9,3 °C 9,3 °C 86 % 1016,2 hPa 0,0 mm 3,6 km/h (1 Bft) O 79 ° 0 min 0,000 mm 1,2 UV-I 158 W/m² 7,1 °C 9,3 °C 6,4 km/h (2 Bft)
03.11.2017 12:16 9,3 °C 9,3 °C 86 % 1016,1 hPa 0,0 mm 6,5 km/h (2 Bft) N-NO 33 ° 0 min 0,000 mm 1,2 UV-I 156 W/m² 7,1 °C 8,5 °C 8,0 km/h (2 Bft)
03.11.2017 12:17 9,3 °C 9,3 °C 86 % 1016,2 hPa 0,0 mm 5,3 km/h (1 Bft) NO 36 ° 0 min 0,000 mm 1,1 UV-I 153 W/m² 7,1 °C 8,9 °C 8,0 km/h (2 Bft)
03.11.2017 12:18 9,4 °C 9,4 °C 86 % 1016,2 hPa 0,0 mm 3,7 km/h (1 Bft) NO 36 ° 0 min 0,000 mm 1,1 UV-I 146 W/m² 7,2 °C 9,4 °C 4,8 km/h (1 Bft)
03.11.2017 12:19 9,4 °C 9,4 °C 86 % 1016,1 hPa 0,0 mm 3,2 km/h (1 Bft) O-NO 75 ° 0 min 0,000 mm 1,0 UV-I 135 W/m² 7,2 °C 9,4 °C 4,8 km/h (1 Bft)
03.11.2017 12:20 9,4 °C 9,4 °C 86 % 1016,2 hPa 0,0 mm 4,8 km/h (1 Bft) N-NO 32 ° 0 min 0,000 mm 1,0 UV-I 123 W/m² 7,2 °C 9,1 °C 9,7 km/h (2 Bft)
03.11.2017 12:21 9,4 °C 9,4 °C 87 % 1016,2 hPa 0,0 mm 3,1 km/h (1 Bft) NO 34 ° 0 min 0,000 mm 0,9 UV-I 121 W/m² 7,3 °C 9,4 °C 6,4 km/h (2 Bft)
03.11.2017 12:22 9,4 °C 9,5 °C 87 % 1016,1 hPa 0,0 mm 2,3 km/h (1 Bft) O-NO 58 ° 0 min 0,000 mm 0,9 UV-I 120 W/m² 7,3 °C 9,4 °C 3,2 km/h (1 Bft)
03.11.2017 12:23 9,5 °C 9,5 °C 87 % 1016,2 hPa 0,0 mm 4,7 km/h (1 Bft) NO 51 ° 0 min 0,000 mm 0,9 UV-I 114 W/m² 7,4 °C 9,3 °C 6,4 km/h (2 Bft)
03.11.2017 12:24 9,5 °C 9,5 °C 87 % 1016,1 hPa 0,0 mm 4,8 km/h (1 Bft) O-NO 61 ° 0 min 0,000 mm 0,9 UV-I 111 W/m² 7,4 °C 9,3 °C 6,4 km/h (2 Bft)
03.11.2017 12:25 9,4 °C 9,5 °C 86 % 1016,1 hPa 0,0 mm 5,8 km/h (2 Bft) NO 40 ° 0 min 0,000 mm 0,9 UV-I 109 W/m² 7,2 °C 8,8 °C 8,0 km/h (2 Bft)
03.11.2017 12:26 9,4 °C 9,4 °C 86 % 1016,0 hPa 0,0 mm 5,0 km/h (1 Bft) NO 49 ° 0 min 0,000 mm 0,9 UV-I 105 W/m² 7,2 °C 9,1 °C 8,0 km/h (2 Bft)
03.11.2017 12:27 9,4 °C 9,4 °C 86 % 1016,1 hPa 0,0 mm 4,2 km/h (1 Bft) NO 46 ° 0 min 0,000 mm 0,8 UV-I 100 W/m² 7,2 °C 9,4 °C 6,4 km/h (2 Bft)
03.11.2017 12:28 9,4 °C 9,4 °C 86 % 1016,0 hPa 0,0 mm 3,9 km/h (1 Bft) NO 49 ° 0 min 0,000 mm 0,8 UV-I 95 W/m² 7,2 °C 9,4 °C 4,8 km/h (1 Bft)
03.11.2017 12:29 9,4 °C 9,4 °C 86 % 1016,0 hPa 0,0 mm 3,4 km/h (1 Bft) NO 42 ° 0 min 0,000 mm 0,8 UV-I 91 W/m² 7,2 °C 9,4 °C 4,8 km/h (1 Bft)
03.11.2017 12:30 9,4 °C 9,4 °C 86 % 1015,9 hPa 0,0 mm 4,2 km/h (1 Bft) NO 44 ° 0 min 0,000 mm 0,8 UV-I 91 W/m² 7,2 °C 9,4 °C 6,4 km/h (2 Bft)
03.11.2017 12:31 9,3 °C 9,4 °C 86 % 1016,0 hPa 0,0 mm 5,0 km/h (1 Bft) NO 51 ° 0 min 0,000 mm 0,8 UV-I 93 W/m² 7,1 °C 9,0 °C 6,4 km/h (2 Bft)
03.11.2017 12:32 9,3 °C 9,3 °C 87 % 1015,9 hPa 0,0 mm 3,9 km/h (1 Bft) NO 48 ° 0 min 0,000 mm 0,8 UV-I 93 W/m² 7,2 °C 9,3 °C 4,8 km/h (1 Bft)
03.11.2017 12:33 9,3 °C 9,3 °C 87 % 1015,9 hPa 0,0 mm 3,5 km/h (1 Bft) NO 46 ° 0 min 0,000 mm 0,9 UV-I 97 W/m² 7,2 °C 9,3 °C 6,4 km/h (2 Bft)
03.11.2017 12:34 9,3 °C 9,3 °C 87 % 1015,9 hPa 0,0 mm 2,5 km/h (1 Bft) NO 46 ° 0 min 0,000 mm 0,9 UV-I 104 W/m² 7,2 °C 9,3 °C 4,8 km/h (1 Bft)
03.11.2017 12:35 9,3 °C 9,3 °C 88 % 1015,9 hPa 0,0 mm 3,3 km/h (1 Bft) O 80 ° 0 min 0,000 mm 1,0 UV-I 114 W/m² 7,4 °C 9,3 °C 4,8 km/h (1 Bft)
03.11.2017 12:36 9,3 °C 9,3 °C 88 % 1015,9 hPa 0,0 mm 4,2 km/h (1 Bft) O 80 ° 0 min 0,000 mm 1,1 UV-I 125 W/m² 7,4 °C 9,3 °C 6,4 km/h (2 Bft)
03.11.2017 12:37 9,3 °C 9,3 °C 88 % 1015,8 hPa 0,0 mm 3,0 km/h (1 Bft) O 80 ° 0 min 0,000 mm 1,2 UV-I 142 W/m² 7,4 °C 9,3 °C 4,8 km/h (1 Bft)
03.11.2017 12:38 9,3 °C 9,3 °C 88 % 1015,8 hPa 0,0 mm 3,3 km/h (1 Bft) N-NO 28 ° 0 min 0,000 mm 1,4 UV-I 144 W/m² 7,4 °C 9,3 °C 4,8 km/h (1 Bft)
03.11.2017 12:39 9,3 °C 9,3 °C 88 % 1015,8 hPa 0,0 mm 4,5 km/h (1 Bft) O-NO 58 ° 0 min 0,000 mm 1,4 UV-I 142 W/m² 7,4 °C 9,3 °C 6,4 km/h (2 Bft)
03.11.2017 12:40 9,3 °C 9,3 °C 88 % 1015,8 hPa 0,0 mm 4,9 km/h (1 Bft) NO 47 ° 0 min 0,000 mm 1,4 UV-I 142 W/m² 7,4 °C 9,0 °C 8,0 km/h (2 Bft)
03.11.2017 12:41 9,3 °C 9,3 °C 88 % 1015,9 hPa 0,0 mm 4,8 km/h (1 Bft) O-NO 63 ° 0 min 0,000 mm 1,4 UV-I 142 W/m² 7,4 °C 9,0 °C 6,4 km/h (2 Bft)
03.11.2017 12:42 9,3 °C 9,3 °C 88 % 1015,8 hPa 0,0 mm 3,4 km/h (1 Bft) O-NO 58 ° 0 min 0,000 mm 1,4 UV-I 132 W/m² 7,4 °C 9,3 °C 6,4 km/h (2 Bft)
03.11.2017 12:43 9,3 °C 9,3 °C 88 % 1015,8 hPa 0,0 mm 5,6 km/h (1 Bft) O-NO 68 ° 0 min 0,000 mm 1,4 UV-I 125 W/m² 7,4 °C 8,8 °C 8,0 km/h (2 Bft)
03.11.2017 12:44 9,3 °C 9,3 °C 89 % 1015,8 hPa 0,0 mm 2,5 km/h (1 Bft) O-NO 64 ° 0 min 0,000 mm 1,4 UV-I 130 W/m² 7,6 °C 9,3 °C 4,8 km/h (1 Bft)
03.11.2017 12:45 9,3 °C 9,3 °C 89 % 1015,8 hPa 0,0 mm 2,7 km/h (1 Bft) O 90 ° 0 min 0,000 mm 1,4 UV-I 132 W/m² 7,6 °C 9,3 °C 6,4 km/h (2 Bft)
03.11.2017 12:46 9,3 °C 9,3 °C 89 % 1015,8 hPa 0,0 mm 2,8 km/h (1 Bft) O-NO 61 ° 0 min 0,000 mm 1,4 UV-I 128 W/m² 7,6 °C 9,3 °C 4,8 km/h (1 Bft)
03.11.2017 12:47 9,2 °C 9,3 °C 89 % 1015,8 hPa 0,0 mm 5,1 km/h (1 Bft) NO 42 ° 0 min 0,000 mm 1,4 UV-I 118 W/m² 7,5 °C 8,8 °C 8,0 km/h (2 Bft)
03.11.2017 12:48 9,2 °C 9,2 °C 89 % 1015,8 hPa 0,0 mm 4,8 km/h (1 Bft) O 87 ° 0 min 0,000 mm 1,4 UV-I 111 W/m² 7,5 °C 8,9 °C 6,4 km/h (2 Bft)
03.11.2017 12:49 9,2 °C 9,2 °C 89 % 1015,8 hPa 0,0 mm 3,0 km/h (1 Bft) O-NO 73 ° 0 min 0,000 mm 1,4 UV-I 130 W/m² 7,5 °C 9,2 °C 4,8 km/h (1 Bft)
03.11.2017 12:50 9,2 °C 9,2 °C 89 % 1015,8 hPa 0,0 mm 4,6 km/h (1 Bft) O-NO 78 ° 0 min 0,000 mm 1,5 UV-I 127 W/m² 7,5 °C 9,0 °C 6,4 km/h (2 Bft)
03.11.2017 12:51 9,2 °C 9,2 °C 89 % 1015,8 hPa 0,0 mm 6,0 km/h (2 Bft) O 85 ° 0 min 0,000 mm 1,5 UV-I 127 W/m² 7,5 °C 8,6 °C 9,7 km/h (2 Bft)
03.11.2017 12:52 9,2 °C 9,2 °C 90 % 1015,7 hPa 0,0 mm 2,3 km/h (1 Bft) O 85 ° 0 min 0,000 mm 1,5 UV-I 132 W/m² 7,6 °C 9,2 °C 3,2 km/h (1 Bft)
03.11.2017 12:53 9,2 °C 9,2 °C 90 % 1015,7 hPa 0,0 mm 3,5 km/h (1 Bft) O 93 ° 0 min 0,000 mm 1,5 UV-I 135 W/m² 7,6 °C 9,2 °C 6,4 km/h (2 Bft)
03.11.2017 12:54 9,1 °C 9,2 °C 91 % 1015,7 hPa 0,0 mm 6,2 km/h (2 Bft) O 93 ° 0 min 0,000 mm 1,5 UV-I 148 W/m² 7,7 °C 8,4 °C 9,7 km/h (2 Bft)
03.11.2017 12:55 9,1 °C 9,1 °C 90 % 1015,7 hPa 0,0 mm 4,1 km/h (1 Bft) NO 55 ° 0 min 0,000 mm 1,5 UV-I 158 W/m² 7,5 °C 9,1 °C 6,4 km/h (2 Bft)
03.11.2017 12:56 9,2 °C 9,2 °C 90 % 1015,7 hPa 0,0 mm 6,3 km/h (2 Bft) NO 44 ° 0 min 0,000 mm 1,4 UV-I 132 W/m² 7,6 °C 8,5 °C 8,0 km/h (2 Bft)
03.11.2017 12:57 9,2 °C 9,2 °C 90 % 1015,7 hPa 0,0 mm 3,8 km/h (1 Bft) O 83 ° 0 min 0,000 mm 1,4 UV-I 137 W/m² 7,6 °C 9,2 °C 4,8 km/h (1 Bft)
03.11.2017 12:58 9,2 °C 9,3 °C 90 % 1015,7 hPa 0,0 mm 3,3 km/h (1 Bft) O-SO 110 ° 0 min 0,000 mm 1,4 UV-I 139 W/m² 7,6 °C 9,2 °C 6,4 km/h (2 Bft)
03.11.2017 12:59 9,3 °C 9,3 °C 90 % 1015,7 hPa 0,0 mm 4,5 km/h (1 Bft) O-NO 62 ° 0 min 0,000 mm 1,5 UV-I 148 W/m² 7,7 °C 9,3 °C 6,4 km/h (2 Bft)
03.11.2017 13:00 9,3 °C 9,3 °C 90 % 1015,7 hPa 0,0 mm 5,6 km/h (1 Bft) O-NO 58 ° 0 min 0,076 mm 1,5 UV-I 163 W/m² 7,7 °C 8,8 °C 8,0 km/h (2 Bft)
03.11.2017 13:01 9,4 °C 9,4 °C 89 % 1015,7 hPa 0,0 mm 6,2 km/h (2 Bft) O 88 ° 0 min 0,000 mm 1,5 UV-I 185 W/m² 7,7 °C 8,7 °C 11,3 km/h (2 Bft)
03.11.2017 13:02 9,4 °C 9,4 °C 90 % 1015,7 hPa 0,0 mm 5,2 km/h (1 Bft) O-NO 61 ° 0 min 0,000 mm 1,4 UV-I 163 W/m² 7,8 °C 9,0 °C 8,0 km/h (2 Bft)
03.11.2017 13:03 9,4 °C 9,4 °C 89 % 1015,7 hPa 0,0 mm 6,3 km/h (2 Bft) O-NO 72 ° 0 min 0,000 mm 1,3 UV-I 141 W/m² 7,7 °C 8,7 °C 8,0 km/h (2 Bft)
03.11.2017 13:04 9,4 °C 9,4 °C 89 % 1015,7 hPa 0,0 mm 4,8 km/h (1 Bft) O 90 ° 0 min 0,000 mm 1,3 UV-I 135 W/m² 7,7 °C 9,1 °C 6,4 km/h (2 Bft)
03.11.2017 13:05 9,4 °C 9,4 °C 89 % 1015,6 hPa 0,0 mm 5,6 km/h (1 Bft) O-SO 105 ° 0 min 0,000 mm 1,3 UV-I 130 W/m² 7,7 °C 8,9 °C 8,0 km/h (2 Bft)
03.11.2017 13:06 9,4 °C 9,4 °C 89 % 1015,6 hPa 0,0 mm 4,3 km/h (1 Bft) O-SO 111 ° 0 min 0,000 mm 1,3 UV-I 111 W/m² 7,7 °C 9,4 °C 6,4 km/h (2 Bft)
03.11.2017 13:07 9,4 °C 9,4 °C 89 % 1015,6 hPa 0,0 mm 3,8 km/h (1 Bft) SO 138 ° 0 min 0,000 mm 1,3 UV-I 121 W/m² 7,7 °C 9,4 °C 6,4 km/h (2 Bft)
03.11.2017 13:08 9,3 °C 9,4 °C 90 % 1015,6 hPa 0,0 mm 2,2 km/h (1 Bft) O-SO 105 ° 0 min 0,000 mm 1,3 UV-I 118 W/m² 7,7 °C 9,3 °C 4,8 km/h (1 Bft)
03.11.2017 13:09 9,3 °C 9,3 °C 90 % 1015,6 hPa 0,0 mm 3,1 km/h (1 Bft) O 88 ° 0 min 0,000 mm 1,3 UV-I 121 W/m² 7,7 °C 9,3 °C 4,8 km/h (1 Bft)
03.11.2017 13:10 9,3 °C 9,3 °C 90 % 1015,6 hPa 0,0 mm 0,9 km/h (0 Bft) O 88 ° 0 min 0,000 mm 1,3 UV-I 121 W/m² 7,7 °C 9,3 °C 3,2 km/h (1 Bft)
03.11.2017 13:11 9,3 °C 9,3 °C 90 % 1015,6 hPa 0,0 mm 0,1 km/h (0 Bft) O 88 ° 0 min 0,000 mm 1,3 UV-I 114 W/m² 7,7 °C 9,3 °C 1,6 km/h (1 Bft)
03.11.2017 13:12 9,3 °C 9,3 °C 90 % 1015,6 hPa 0,0 mm 2,7 km/h (1 Bft) O 81 ° 0 min 0,000 mm 1,3 UV-I 105 W/m² 7,7 °C 9,3 °C 4,8 km/h (1 Bft)
03.11.2017 13:13 9,3 °C 9,3 °C 90 % 1015,5 hPa 0,0 mm 0,8 km/h (0 Bft) O 81 ° 0 min 0,000 mm 1,2 UV-I 91 W/m² 7,7 °C 9,3 °C 3,2 km/h (1 Bft)
03.11.2017 13:14 9,2 °C 9,3 °C 90 % 1015,5 hPa 0,0 mm 0,0 km/h (0 Bft) O 81 ° 0 min 0,000 mm 1,2 UV-I 91 W/m² 7,6 °C 9,2 °C 0,0 km/h (0 Bft)
03.11.2017 13:15 9,3 °C 9,3 °C 90 % 1015,6 hPa 0,0 mm 4,6 km/h (1 Bft) O-NO 58 ° 0 min 0,000 mm 1,2 UV-I 97 W/m² 7,7 °C 9,1 °C 8,0 km/h (2 Bft)
03.11.2017 13:16 9,3 °C 9,3 °C 89 % 1015,6 hPa 0,0 mm 4,1 km/h (1 Bft) O 79 ° 0 min 0,000 mm 1,3 UV-I 109 W/m² 7,6 °C 9,3 °C 6,4 km/h (2 Bft)
03.11.2017 13:17 9,2 °C 9,3 °C 90 % 1015,6 hPa 0,0 mm 2,7 km/h (1 Bft) O-NO 72 ° 0 min 0,000 mm 1,3 UV-I 118 W/m² 7,6 °C 9,2 °C 4,8 km/h (1 Bft)
03.11.2017 13:18 9,2 °C 9,2 °C 89 % 1015,5 hPa 0,0 mm 1,7 km/h (1 Bft) SO 136 ° 0 min 0,000 mm 1,3 UV-I 130 W/m² 7,5 °C 9,2 °C 3,2 km/h (1 Bft)
03.11.2017 13:19 9,2 °C 9,2 °C 89 % 1015,6 hPa 0,0 mm 1,5 km/h (1 Bft) SO 144 ° 0 min 0,000 mm 1,3 UV-I 134 W/m² 7,5 °C 9,2 °C 4,8 km/h (1 Bft)
03.11.2017 13:20 9,2 °C 9,2 °C 89 % 1015,6 hPa 0,0 mm 0,8 km/h (0 Bft) O 99 ° 0 min 0,000 mm 1,3 UV-I 130 W/m² 7,5 °C 9,2 °C 3,2 km/h (1 Bft)
03.11.2017 13:21 9,2 °C 9,2 °C 89 % 1015,5 hPa 0,0 mm 0,5 km/h (0 Bft) O 99 ° 0 min 0,000 mm 1,3 UV-I 125 W/m² 7,5 °C 9,2 °C 1,6 km/h (1 Bft)
03.11.2017 13:22 9,2 °C 9,2 °C 90 % 1015,6 hPa 0,0 mm 1,5 km/h (1 Bft) O 86 ° 0 min 0,000 mm 1,2 UV-I 120 W/m² 7,6 °C 9,2 °C 3,2 km/h (1 Bft)
03.11.2017 13:23 9,2 °C 9,2 °C 90 % 1015,5 hPa 0,0 mm 2,3 km/h (1 Bft) O 86 ° 0 min 0,000 mm 1,2 UV-I 120 W/m² 7,6 °C 9,2 °C 3,2 km/h (1 Bft)
03.11.2017 13:24 9,2 °C 9,2 °C 90 % 1015,5 hPa 0,0 mm 2,1 km/h (1 Bft) O 90 ° 0 min 0,000 mm 1,2 UV-I 127 W/m² 7,6 °C 9,2 °C 4,8 km/h (1 Bft)
03.11.2017 13:25 9,2 °C 9,2 °C 89 % 1015,5 hPa 0,0 mm 1,7 km/h (1 Bft) O 90 ° 0 min 0,000 mm 1,2 UV-I 134 W/m² 7,5 °C 9,2 °C 3,2 km/h (1 Bft)
03.11.2017 13:26 9,2 °C 9,2 °C 89 % 1015,5 hPa 0,0 mm 0,1 km/h (0 Bft) O 90 ° 0 min 0,000 mm 1,2 UV-I 141 W/m² 7,5 °C 9,2 °C 1,6 km/h (1 Bft)
03.11.2017 13:27 9,3 °C 9,3 °C 90 % 1015,5 hPa 0,0 mm 1,4 km/h (1 Bft) O 90 ° 0 min 0,000 mm 1,2 UV-I 146 W/m² 7,7 °C 9,3 °C 3,2 km/h (1 Bft)
03.11.2017 13:28 9,3 °C 9,3 °C 91 % 1015,4 hPa 0,0 mm 3,2 km/h (1 Bft) NO 54 ° 0 min 0,000 mm 1,2 UV-I 149 W/m² 7,9 °C 9,3 °C 6,4 km/h (2 Bft)
03.11.2017 13:29 9,3 °C 9,3 °C 90 % 1015,5 hPa 0,0 mm 2,4 km/h (1 Bft) O-NO 72 ° 0 min 0,000 mm 1,2 UV-I 148 W/m² 7,7 °C 9,3 °C 6,4 km/h (2 Bft)
03.11.2017 13:30 9,3 °C 9,3 °C 90 % 1015,5 hPa 0,0 mm 3,8 km/h (1 Bft) O-NO 70 ° 0 min 0,000 mm 1,2 UV-I 146 W/m² 7,7 °C 9,3 °C 4,8 km/h (1 Bft)
03.11.2017 13:31 9,3 °C 9,3 °C 89 % 1015,5 hPa 0,0 mm 5,2 km/h (1 Bft) O 98 ° 0 min 0,000 mm 1,2 UV-I 146 W/m² 7,6 °C 8,9 °C 9,7 km/h (2 Bft)
03.11.2017 13:32 9,3 °C 9,3 °C 89 % 1015,5 hPa 0,0 mm 4,5 km/h (1 Bft) O-NO 72 ° 0 min 0,000 mm 1,2 UV-I 149 W/m² 7,6 °C 9,3 °C 6,4 km/h (2 Bft)
03.11.2017 13:33 9,4 °C 9,4 °C 89 % 1015,5 hPa 0,0 mm 2,9 km/h (1 Bft) O-NO 78 ° 0 min 0,000 mm 1,2 UV-I 155 W/m² 7,7 °C 9,4 °C 4,8 km/h (1 Bft)
03.11.2017 13:34 9,4 °C 9,4 °C 89 % 1015,5 hPa 0,0 mm 4,5 km/h (1 Bft) O 84 ° 0 min 0,000 mm 1,2 UV-I 160 W/m² 7,7 °C 9,4 °C 6,4 km/h (2 Bft)
03.11.2017 13:35 9,4 °C 9,4 °C 90 % 1015,5 hPa 0,0 mm 3,3 km/h (1 Bft) SO 132 ° 0 min 0,000 mm 1,2 UV-I 167 W/m² 7,8 °C 9,4 °C 6,4 km/h (2 Bft)
03.11.2017 13:36 9,5 °C 9,5 °C 89 % 1015,5 hPa 0,0 mm 1,7 km/h (1 Bft) SO 134 ° 0 min 0,000 mm 1,2 UV-I 171 W/m² 7,8 °C 9,5 °C 4,8 km/h (1 Bft)
03.11.2017 13:37 9,5 °C 9,5 °C 89 % 1015,4 hPa 0,0 mm 3,7 km/h (1 Bft) O-NO 73 ° 0 min 0,000 mm 1,2 UV-I 165 W/m² 7,8 °C 9,5 °C 6,4 km/h (2 Bft)
03.11.2017 13:38 9,6 °C 9,6 °C 89 % 1015,4 hPa 0,0 mm 5,6 km/h (1 Bft) O 83 ° 0 min 0,000 mm 1,2 UV-I 167 W/m² 7,9 °C 9,1 °C 8,0 km/h (2 Bft)
03.11.2017 13:39 9,6 °C 9,6 °C 89 % 1015,4 hPa 0,0 mm 3,8 km/h (1 Bft) O 83 ° 0 min 0,000 mm 1,2 UV-I 174 W/m² 7,9 °C 9,6 °C 6,4 km/h (2 Bft)
03.11.2017 13:40 9,6 °C 9,6 °C 89 % 1015,4 hPa 0,0 mm 2,7 km/h (1 Bft) O-NO 57 ° 0 min 0,000 mm 1,3 UV-I 195 W/m² 7,9 °C 9,6 °C 4,8 km/h (1 Bft)
03.11.2017 13:41 9,7 °C 9,7 °C 89 % 1015,4 hPa 0,0 mm 3,8 km/h (1 Bft) O-NO 62 ° 0 min 0,000 mm 1,3 UV-I 204 W/m² 8,0 °C 9,7 °C 4,8 km/h (1 Bft)
03.11.2017 13:42 9,7 °C 9,7 °C 89 % 1015,4 hPa 0,0 mm 3,6 km/h (1 Bft) NO 48 ° 0 min 0,000 mm 1,4 UV-I 211 W/m² 8,0 °C 9,7 °C 6,4 km/h (2 Bft)
03.11.2017 13:43 9,7 °C 9,7 °C 89 % 1015,4 hPa 0,0 mm 5,8 km/h (2 Bft) O 88 ° 0 min 0,000 mm 1,3 UV-I 225 W/m² 8,0 °C 9,2 °C 8,0 km/h (2 Bft)
03.11.2017 13:44 9,7 °C 9,7 °C 88 % 1015,4 hPa 0,0 mm 4,0 km/h (1 Bft) O-NO 67 ° 0 min 0,000 mm 1,3 UV-I 188 W/m² 7,8 °C 9,7 °C 6,4 km/h (2 Bft)
03.11.2017 13:45 9,7 °C 9,7 °C 88 % 1015,4 hPa 0,0 mm 5,2 km/h (1 Bft) O-NO 66 ° 0 min 0,000 mm 1,3 UV-I 178 W/m² 7,8 °C 9,4 °C 8,0 km/h (2 Bft)
03.11.2017 13:46 9,8 °C 9,8 °C 88 % 1015,4 hPa 0,0 mm 3,8 km/h (1 Bft) O 91 ° 0 min 0,000 mm 1,2 UV-I 172 W/m² 7,9 °C 9,8 °C 6,4 km/h (2 Bft)
03.11.2017 13:47 9,8 °C 9,8 °C 89 % 1015,4 hPa 0,0 mm 2,1 km/h (1 Bft) O-NO 71 ° 0 min 0,000 mm 1,2 UV-I 160 W/m² 8,1 °C 9,8 °C 4,8 km/h (1 Bft)
03.11.2017 13:48 9,8 °C 9,8 °C 89 % 1015,3 hPa 0,0 mm 3,9 km/h (1 Bft) O-NO 59 ° 0 min 0,000 mm 1,2 UV-I 137 W/m² 8,1 °C 9,8 °C 6,4 km/h (2 Bft)
03.11.2017 13:49 9,8 °C 9,8 °C 89 % 1015,3 hPa 0,0 mm 6,1 km/h (2 Bft) O-SO 123 ° 0 min 0,000 mm 1,1 UV-I 128 W/m² 8,1 °C 9,2 °C 9,7 km/h (2 Bft)
03.11.2017 13:50 9,8 °C 9,8 °C 89 % 1015,3 hPa 0,0 mm 6,4 km/h (2 Bft) S-SO 155 ° 0 min 0,000 mm 1,1 UV-I 128 W/m² 8,1 °C 9,1 °C 11,3 km/h (2 Bft)
03.11.2017 13:51 9,7 °C 9,8 °C 88 % 1015,3 hPa 0,0 mm 2,8 km/h (1 Bft) O-NO 69 ° 0 min 0,000 mm 1,1 UV-I 137 W/m² 7,8 °C 9,7 °C 4,8 km/h (1 Bft)
03.11.2017 13:52 9,6 °C 9,7 °C 89 % 1015,3 hPa 0,0 mm 3,6 km/h (1 Bft) O-NO 65 ° 0 min 0,000 mm 1,2 UV-I 153 W/m² 7,9 °C 9,6 °C 6,4 km/h (2 Bft)
03.11.2017 13:53 9,6 °C 9,6 °C 89 % 1015,3 hPa 0,0 mm 2,3 km/h (1 Bft) O-NO 68 ° 0 min 0,000 mm 1,2 UV-I 151 W/m² 7,9 °C 9,6 °C 4,8 km/h (1 Bft)
03.11.2017 13:54 9,6 °C 9,6 °C 89 % 1015,3 hPa 0,0 mm 4,5 km/h (1 Bft) O-NO 68 ° 0 min 0,000 mm 1,2 UV-I 132 W/m² 7,9 °C 9,6 °C 6,4 km/h (2 Bft)
03.11.2017 13:55 9,6 °C 9,6 °C 89 % 1015,3 hPa 0,0 mm 4,0 km/h (1 Bft) O 80 ° 0 min 0,000 mm 1,1 UV-I 121 W/m² 7,9 °C 9,6 °C 6,4 km/h (2 Bft)
03.11.2017 13:56 9,7 °C 9,7 °C 89 % 1015,3 hPa 0,0 mm 2,5 km/h (1 Bft) O 79 ° 0 min 0,000 mm 1,1 UV-I 120 W/m² 8,0 °C 9,7 °C 4,8 km/h (1 Bft)
03.11.2017 13:57 9,7 °C 9,7 °C 89 % 1015,2 hPa 0,0 mm 4,5 km/h (1 Bft) O-NO 69 ° 0 min 0,000 mm 1,1 UV-I 123 W/m² 8,0 °C 9,7 °C 6,4 km/h (2 Bft)
03.11.2017 13:58 9,7 °C 9,7 °C 89 % 1015,3 hPa 0,0 mm 3,4 km/h (1 Bft) O-NO 69 ° 0 min 0,000 mm 1,1 UV-I 128 W/m² 8,0 °C 9,7 °C 4,8 km/h (1 Bft)
03.11.2017 13:59 9,7 °C 9,7 °C 89 % 1015,3 hPa 0,0 mm 3,9 km/h (1 Bft) O 93 ° 0 min 0,000 mm 1,1 UV-I 139 W/m² 8,0 °C 9,7 °C 6,4 km/h (2 Bft)
03.11.2017 14:00 9,6 °C 9,7 °C 89 % 1015,3 hPa 0,0 mm 1,9 km/h (1 Bft) O-NO 77 ° 0 min 0,076 mm 1,1 UV-I 139 W/m² 7,9 °C 9,6 °C 6,4 km/h (2 Bft)
03.11.2017 14:01 9,6 °C 9,6 °C 89 % 1015,3 hPa 0,0 mm 3,0 km/h (1 Bft) O 92 ° 0 min 0,000 mm 1,1 UV-I 144 W/m² 7,9 °C 9,6 °C 4,8 km/h (1 Bft)
03.11.2017 14:02 9,6 °C 9,6 °C 89 % 1015,3 hPa 0,0 mm 5,7 km/h (1 Bft) O 87 ° 0 min 0,000 mm 1,1 UV-I 149 W/m² 7,9 °C 9,1 °C 11,3 km/h (2 Bft)
03.11.2017 14:03 9,6 °C 9,6 °C 89 % 1015,2 hPa 0,0 mm 5,1 km/h (1 Bft) O-NO 69 ° 0 min 0,000 mm 1,1 UV-I 151 W/m² 7,9 °C 9,3 °C 9,7 km/h (2 Bft)
03.11.2017 14:04 9,6 °C 9,7 °C 89 % 1015,2 hPa 0,0 mm 4,1 km/h (1 Bft) O-NO 70 ° 0 min 0,000 mm 1,1 UV-I 153 W/m² 7,9 °C 9,6 °C 8,0 km/h (2 Bft)
03.11.2017 14:05 9,7 °C 9,7 °C 88 % 1015,2 hPa 0,0 mm 5,5 km/h (1 Bft) O-NO 61 ° 0 min 0,000 mm 1,1 UV-I 156 W/m² 7,8 °C 9,3 °C 9,7 km/h (2 Bft)
03.11.2017 14:06 9,6 °C 9,7 °C 88 % 1015,2 hPa 0,0 mm 4,2 km/h (1 Bft) NO 55 ° 0 min 0,000 mm 1,1 UV-I 176 W/m² 7,7 °C 9,6 °C 6,4 km/h (2 Bft)
03.11.2017 14:07 9,7 °C 9,7 °C 88 % 1015,2 hPa 0,0 mm 3,9 km/h (1 Bft) O-SO 107 ° 0 min 0,000 mm 1,1 UV-I 178 W/m² 7,8 °C 9,7 °C 9,7 km/h (2 Bft)
03.11.2017 14:08 9,6 °C 9,7 °C 88 % 1015,2 hPa 0,0 mm 0,9 km/h (0 Bft) O-SO 109 ° 0 min 0,000 mm 1,2 UV-I 176 W/m² 7,7 °C 9,6 °C 3,2 km/h (1 Bft)
03.11.2017 14:09 9,7 °C 9,7 °C 89 % 1015,2 hPa 0,0 mm 6,0 km/h (2 Bft) O 87 ° 0 min 0,000 mm 1,1 UV-I 204 W/m² 8,0 °C 9,1 °C 9,7 km/h (2 Bft)
03.11.2017 14:10 9,7 °C 9,7 °C 89 % 1015,1 hPa 0,0 mm 7,4 km/h (2 Bft) O-NO 72 ° 0 min 0,000 mm 1,1 UV-I 162 W/m² 8,0 °C 8,8 °C 11,3 km/h (2 Bft)
03.11.2017 14:11 9,7 °C 9,7 °C 88 % 1015,2 hPa 0,0 mm 4,7 km/h (1 Bft) O-NO 58 ° 0 min 0,000 mm 1,2 UV-I 176 W/m² 7,8 °C 9,5 °C 9,7 km/h (2 Bft)
03.11.2017 14:12 9,7 °C 9,7 °C 89 % 1015,1 hPa 0,0 mm 4,7 km/h (1 Bft) O-NO 74 ° 0 min 0,000 mm 1,1 UV-I 172 W/m² 8,0 °C 9,5 °C 8,0 km/h (2 Bft)
03.11.2017 14:13 9,7 °C 9,7 °C 89 % 1015,1 hPa 0,0 mm 3,9 km/h (1 Bft) O-NO 64 ° 0 min 0,000 mm 1,1 UV-I 141 W/m² 8,0 °C 9,7 °C 6,4 km/h (2 Bft)
03.11.2017 14:14 9,7 °C 9,7 °C 88 % 1015,1 hPa 0,0 mm 3,5 km/h (1 Bft) O-NO 63 ° 0 min 0,000 mm 1,1 UV-I 134 W/m² 7,8 °C 9,7 °C 4,8 km/h (1 Bft)
03.11.2017 14:15 9,7 °C 9,7 °C 88 % 1015,1 hPa 0,0 mm 3,6 km/h (1 Bft) O-NO 72 ° 0 min 0,000 mm 1,1 UV-I 132 W/m² 7,8 °C 9,7 °C 4,8 km/h (1 Bft)
03.11.2017 14:16 9,7 °C 9,8 °C 88 % 1015,1 hPa 0,0 mm 5,9 km/h (2 Bft) O-NO 76 ° 0 min 0,000 mm 1,1 UV-I 137 W/m² 7,8 °C 9,2 °C 9,7 km/h (2 Bft)
03.11.2017 14:17 9,7 °C 9,7 °C 88 % 1015,1 hPa 0,0 mm 3,6 km/h (1 Bft) O-NO 68 ° 0 min 0,000 mm 1,1 UV-I 142 W/m² 7,8 °C 9,7 °C 6,4 km/h (2 Bft)
03.11.2017 14:18 9,7 °C 9,7 °C 89 % 1015,1 hPa 0,0 mm 3,4 km/h (1 Bft) O 90 ° 0 min 0,000 mm 1,1 UV-I 153 W/m² 8,0 °C 9,7 °C 4,8 km/h (1 Bft)
03.11.2017 14:19 9,6 °C 9,7 °C 88 % 1015,1 hPa 0,0 mm 1,9 km/h (1 Bft) O 86 ° 0 min 0,000 mm 1,1 UV-I 158 W/m² 7,7 °C 9,6 °C 4,8 km/h (1 Bft)
03.11.2017 14:20 9,6 °C 9,7 °C 88 % 1015,1 hPa 0,0 mm 2,1 km/h (1 Bft) O 86 ° 0 min 0,000 mm 1,2 UV-I 158 W/m² 7,7 °C 9,6 °C 3,2 km/h (1 Bft)
03.11.2017 14:21 9,7 °C 9,7 °C 88 % 1015,1 hPa 0,0 mm 4,2 km/h (1 Bft) O-NO 76 ° 0 min 0,000 mm 1,1 UV-I 207 W/m² 7,8 °C 9,7 °C 4,8 km/h (1 Bft)
03.11.2017 14:22 9,7 °C 9,7 °C 89 % 1015,1 hPa 0,0 mm 4,5 km/h (1 Bft) NO 56 ° 0 min 0,000 mm 1,1 UV-I 193 W/m² 8,0 °C 9,7 °C 8,0 km/h (2 Bft)
03.11.2017 14:23 9,7 °C 9,7 °C 88 % 1015,1 hPa 0,0 mm 4,4 km/h (1 Bft) O 93 ° 0 min 0,000 mm 1,1 UV-I 178 W/m² 7,8 °C 9,7 °C 8,0 km/h (2 Bft)
03.11.2017 14:24 9,7 °C 9,8 °C 88 % 1015,1 hPa 0,0 mm 1,7 km/h (1 Bft) O 93 ° 0 min 0,000 mm 1,0 UV-I 149 W/m² 7,8 °C 9,7 °C 4,8 km/h (1 Bft)
03.11.2017 14:25 9,7 °C 9,7 °C 88 % 1015,1 hPa 0,0 mm 3,5 km/h (1 Bft) O-NO 69 ° 0 min 0,000 mm 1,0 UV-I 151 W/m² 7,8 °C 9,7 °C 4,8 km/h (1 Bft)
03.11.2017 14:26 9,7 °C 9,7 °C 88 % 1015,1 hPa 0,0 mm 5,8 km/h (2 Bft) O-NO 69 ° 0 min 0,000 mm 1,0 UV-I 158 W/m² 7,8 °C 9,2 °C 9,7 km/h (2 Bft)
03.11.2017 14:27 9,7 °C 9,7 °C 88 % 1015,1 hPa 0,0 mm 4,2 km/h (1 Bft) O-NO 65 ° 0 min 0,000 mm 1,0 UV-I 183 W/m² 7,8 °C 9,7 °C 4,8 km/h (1 Bft)
03.11.2017 14:28 9,7 °C 9,7 °C 88 % 1015,1 hPa 0,0 mm 4,1 km/h (1 Bft) O-NO 73 ° 0 min 0,000 mm 1,0 UV-I 144 W/m² 7,8 °C 9,7 °C 6,4 km/h (2 Bft)
03.11.2017 14:29 9,7 °C 9,7 °C 88 % 1015,1 hPa 0,0 mm 6,3 km/h (2 Bft) O-NO 71 ° 0 min 0,000 mm 1,0 UV-I 139 W/m² 7,8 °C 9,0 °C 9,7 km/h (2 Bft)
03.11.2017 14:30 9,7 °C 9,8 °C 88 % 1015,1 hPa 0,0 mm 4,2 km/h (1 Bft) O-NO 63 ° 0 min 0,000 mm 1,0 UV-I 137 W/m² 7,8 °C 9,7 °C 4,8 km/h (1 Bft)
03.11.2017 14:31 9,7 °C 9,8 °C 87 % 1015,1 hPa 0,0 mm 4,1 km/h (1 Bft) NO 52 ° 0 min 0,000 mm 0,9 UV-I 135 W/m² 7,6 °C 9,7 °C 4,8 km/h (1 Bft)
03.11.2017 14:32 9,7 °C 9,8 °C 87 % 1015,1 hPa 0,0 mm 6,2 km/h (2 Bft) O-NO 69 ° 0 min 0,000 mm 0,9 UV-I 134 W/m² 7,6 °C 9,1 °C 11,3 km/h (2 Bft)
03.11.2017 14:33 9,8 °C 9,8 °C 86 % 1015,1 hPa 0,0 mm 6,5 km/h (2 Bft) O-NO 74 ° 0 min 0,000 mm 0,9 UV-I 130 W/m² 7,6 °C 9,1 °C 11,3 km/h (2 Bft)
03.11.2017 14:34 9,7 °C 9,8 °C 87 % 1015,0 hPa 0,0 mm 5,4 km/h (1 Bft) O 82 ° 0 min 0,000 mm 0,9 UV-I 128 W/m² 7,6 °C 9,3 °C 8,0 km/h (2 Bft)
03.11.2017 14:35 9,7 °C 9,8 °C 87 % 1015,0 hPa 0,0 mm 6,4 km/h (2 Bft) O-NO 62 ° 0 min 0,000 mm 0,9 UV-I 132 W/m² 7,6 °C 9,0 °C 11,3 km/h (2 Bft)
03.11.2017 14:36 9,8 °C 9,8 °C 86 % 1015,0 hPa 0,0 mm 3,5 km/h (1 Bft) O-NO 74 ° 0 min 0,000 mm 0,9 UV-I 139 W/m² 7,6 °C 9,8 °C 4,8 km/h (1 Bft)
03.11.2017 14:37 9,8 °C 9,8 °C 86 % 1015,0 hPa 0,0 mm 6,5 km/h (2 Bft) O-NO 64 ° 0 min 0,000 mm 0,9 UV-I 137 W/m² 7,6 °C 9,1 °C 9,7 km/h (2 Bft)
03.11.2017 14:38 9,8 °C 9,8 °C 86 % 1015,0 hPa 0,0 mm 6,6 km/h (2 Bft) O-NO 77 ° 0 min 0,000 mm 0,9 UV-I 134 W/m² 7,6 °C 9,1 °C 11,3 km/h (2 Bft)
03.11.2017 14:39 9,8 °C 9,8 °C 86 % 1015,0 hPa 0,0 mm 7,2 km/h (2 Bft) O-NO 67 ° 0 min 0,000 mm 0,9 UV-I 127 W/m² 7,6 °C 8,9 °C 12,9 km/h (3 Bft)
03.11.2017 14:40 9,8 °C 9,8 °C 86 % 1015,0 hPa 0,0 mm 7,1 km/h (2 Bft) NO 51 ° 0 min 0,000 mm 0,9 UV-I 121 W/m² 7,6 °C 9,0 °C 11,3 km/h (2 Bft)
03.11.2017 14:41 9,8 °C 9,8 °C 86 % 1015,0 hPa 0,0 mm 6,2 km/h (2 Bft) O 82 ° 0 min 0,000 mm 0,8 UV-I 118 W/m² 7,6 °C 9,2 °C 8,0 km/h (2 Bft)
03.11.2017 14:42 9,8 °C 9,8 °C 86 % 1015,0 hPa 0,0 mm 5,3 km/h (1 Bft) O 80 ° 0 min 0,000 mm 0,9 UV-I 121 W/m² 7,6 °C 9,4 °C 8,0 km/h (2 Bft)
03.11.2017 14:43 9,8 °C 9,8 °C 86 % 1015,0 hPa 0,0 mm 6,5 km/h (2 Bft) O-NO 74 ° 0 min 0,000 mm 0,9 UV-I 134 W/m² 7,6 °C 9,1 °C 8,0 km/h (2 Bft)
03.11.2017 14:44 9,8 °C 9,8 °C 87 % 1015,0 hPa 0,0 mm 5,6 km/h (1 Bft) O 81 ° 0 min 0,000 mm 0,9 UV-I 139 W/m² 7,7 °C 9,4 °C 8,0 km/h (2 Bft)
03.11.2017 14:45 9,8 °C 9,8 °C 87 % 1014,9 hPa 0,0 mm 6,5 km/h (2 Bft) O-NO 76 ° 0 min 0,000 mm 0,8 UV-I 139 W/m² 7,7 °C 9,1 °C 9,7 km/h (2 Bft)
03.11.2017 14:46 9,8 °C 9,8 °C 87 % 1014,9 hPa 0,0 mm 5,4 km/h (1 Bft) O 80 ° 0 min 0,000 mm 0,8 UV-I 114 W/m² 7,7 °C 9,4 °C 8,0 km/h (2 Bft)
03.11.2017 14:47 9,7 °C 9,8 °C 87 % 1014,9 hPa 0,0 mm 4,5 km/h (1 Bft) O-NO 73 ° 0 min 0,000 mm 0,8 UV-I 118 W/m² 7,6 °C 9,7 °C 8,0 km/h (2 Bft)
03.11.2017 14:48 9,7 °C 9,8 °C 87 % 1014,9 hPa 0,0 mm 4,5 km/h (1 Bft) O-NO 67 ° 0 min 0,000 mm 0,8 UV-I 128 W/m² 7,6 °C 9,7 °C 6,4 km/h (2 Bft)
03.11.2017 14:49 9,7 °C 9,7 °C 87 % 1015,0 hPa 0,0 mm 6,4 km/h (2 Bft) O-NO 73 ° 0 min 0,000 mm 0,8 UV-I 142 W/m² 7,6 °C 9,0 °C 11,3 km/h (2 Bft)
03.11.2017 14:50 9,7 °C 9,7 °C 87 % 1015,0 hPa 0,0 mm 6,7 km/h (2 Bft) O 80 ° 0 min 0,000 mm 0,8 UV-I 128 W/m² 7,6 °C 8,9 °C 8,0 km/h (2 Bft)
03.11.2017 14:51 9,7 °C 9,7 °C 87 % 1015,0 hPa 0,0 mm 4,1 km/h (1 Bft) O-NO 76 ° 0 min 0,000 mm 0,8 UV-I 114 W/m² 7,6 °C 9,7 °C 8,0 km/h (2 Bft)
03.11.2017 14:52 9,6 °C 9,7 °C 87 % 1015,0 hPa 0,0 mm 5,0 km/h (1 Bft) O 96 ° 0 min 0,000 mm 0,8 UV-I 113 W/m² 7,5 °C 9,3 °C 8,0 km/h (2 Bft)
03.11.2017 14:53 9,6 °C 9,6 °C 87 % 1015,0 hPa 0,0 mm 3,9 km/h (1 Bft) O-NO 64 ° 0 min 0,000 mm 0,7 UV-I 113 W/m² 7,5 °C 9,6 °C 6,4 km/h (2 Bft)
03.11.2017 14:54 9,7 °C 9,7 °C 88 % 1015,0 hPa 0,0 mm 4,8 km/h (1 Bft) O-SO 106 ° 0 min 0,000 mm 0,7 UV-I 114 W/m² 7,8 °C 9,5 °C 9,7 km/h (2 Bft)
03.11.2017 14:55 9,7 °C 9,7 °C 89 % 1014,9 hPa 0,0 mm 3,6 km/h (1 Bft) O-NO 68 ° 0 min 0,000 mm 0,7 UV-I 116 W/m² 8,0 °C 9,7 °C 6,4 km/h (2 Bft)
03.11.2017 14:56 9,7 °C 9,7 °C 89 % 1014,9 hPa 0,0 mm 3,2 km/h (1 Bft) O-NO 72 ° 0 min 0,000 mm 0,7 UV-I 118 W/m² 8,0 °C 9,7 °C 6,4 km/h (2 Bft)
03.11.2017 14:57 9,6 °C 9,7 °C 88 % 1014,9 hPa 0,0 mm 3,6 km/h (1 Bft) O-NO 74 ° 0 min 0,000 mm 0,7 UV-I 118 W/m² 7,7 °C 9,6 °C 6,4 km/h (2 Bft)
03.11.2017 14:58 9,6 °C 9,6 °C 89 % 1014,9 hPa 0,0 mm 3,8 km/h (1 Bft) O-NO 72 ° 0 min 0,000 mm 0,7 UV-I 114 W/m² 7,9 °C 9,6 °C 6,4 km/h (2 Bft)
03.11.2017 14:59 9,6 °C 9,6 °C 88 % 1014,9 hPa 0,0 mm 4,3 km/h (1 Bft) O-NO 71 ° 0 min 0,000 mm 0,7 UV-I 111 W/m² 7,7 °C 9,6 °C 6,4 km/h (2 Bft)
03.11.2017 15:00 9,6 °C 9,6 °C 89 % 1015,0 hPa 0,0 mm 2,7 km/h (1 Bft) O-NO 71 ° 0 min 0,000 mm 0,7 UV-I 107 W/m² 7,9 °C 9,6 °C 4,8 km/h (1 Bft)
03.11.2017 15:01 9,6 °C 9,6 °C 89 % 1015,0 hPa 0,0 mm 4,0 km/h (1 Bft) O-NO 64 ° 0 min 0,077 mm 0,7 UV-I 105 W/m² 7,9 °C 9,6 °C 8,0 km/h (2 Bft)
03.11.2017 15:02 9,7 °C 9,7 °C 89 % 1015,0 hPa 0,0 mm 0,9 km/h (0 Bft) O-NO 64 ° 0 min 0,000 mm 0,7 UV-I 102 W/m² 8,0 °C 9,7 °C 4,8 km/h (1 Bft)
03.11.2017 15:03 9,6 °C 9,7 °C 89 % 1015,0 hPa 0,0 mm 4,2 km/h (1 Bft) O-NO 72 ° 0 min 0,000 mm 0,7 UV-I 98 W/m² 7,9 °C 9,6 °C 4,8 km/h (1 Bft)
03.11.2017 15:04 9,6 °C 9,6 °C 89 % 1015,0 hPa 0,0 mm 3,4 km/h (1 Bft) O-NO 71 ° 0 min 0,000 mm 0,7 UV-I 90 W/m² 7,9 °C 9,6 °C 4,8 km/h (1 Bft)
03.11.2017 15:05 9,6 °C 9,6 °C 89 % 1015,0 hPa 0,0 mm 0,8 km/h (0 Bft) O-NO 71 ° 0 min 0,000 mm 0,7 UV-I 90 W/m² 7,9 °C 9,6 °C 3,2 km/h (1 Bft)
03.11.2017 15:06 9,6 °C 9,6 °C 89 % 1014,9 hPa 0,0 mm 2,5 km/h (1 Bft) O-NO 72 ° 0 min 0,000 mm 0,7 UV-I 95 W/m² 7,9 °C 9,6 °C 4,8 km/h (1 Bft)
03.11.2017 15:07 9,6 °C 9,6 °C 88 % 1015,0 hPa 0,0 mm 3,9 km/h (1 Bft) O 93 ° 0 min 0,000 mm 0,7 UV-I 91 W/m² 7,7 °C 9,6 °C 6,4 km/h (2 Bft)
03.11.2017 15:08 9,6 °C 9,6 °C 89 % 1015,0 hPa 0,0 mm 0,9 km/h (0 Bft) O 93 ° 0 min 0,000 mm 0,7 UV-I 77 W/m² 7,9 °C 9,6 °C 3,2 km/h (1 Bft)
03.11.2017 15:09 9,6 °C 9,6 °C 89 % 1015,0 hPa 0,0 mm 2,5 km/h (1 Bft) O 93 ° 0 min 0,000 mm 0,7 UV-I 77 W/m² 7,9 °C 9,6 °C 3,2 km/h (1 Bft)
03.11.2017 15:10 9,6 °C 9,6 °C 89 % 1015,0 hPa 0,0 mm 1,7 km/h (1 Bft) O 93 ° 0 min 0,000 mm 0,6 UV-I 74 W/m² 7,9 °C 9,6 °C 3,2 km/h (1 Bft)
03.11.2017 15:11 9,5 °C 9,6 °C 89 % 1015,0 hPa 0,0 mm 2,7 km/h (1 Bft) O 92 ° 0 min 0,000 mm 0,6 UV-I 72 W/m² 7,8 °C 9,5 °C 4,8 km/h (1 Bft)
03.11.2017 15:12 9,5 °C 9,6 °C 90 % 1015,0 hPa 0,0 mm 2,7 km/h (1 Bft) O 87 ° 0 min 0,000 mm 0,6 UV-I 67 W/m² 7,9 °C 9,5 °C 4,8 km/h (1 Bft)
03.11.2017 15:13 9,4 °C 9,5 °C 90 % 1015,0 hPa 0,0 mm 3,2 km/h (1 Bft) O 87 ° 0 min 0,000 mm 0,6 UV-I 62 W/m² 7,8 °C 9,4 °C 4,8 km/h (1 Bft)
03.11.2017 15:14 9,4 °C 9,4 °C 90 % 1015,0 hPa 0,0 mm 3,0 km/h (1 Bft) O 87 ° 0 min 0,000 mm 0,6 UV-I 56 W/m² 7,8 °C 9,4 °C 4,8 km/h (1 Bft)
03.11.2017 15:15 9,3 °C 9,4 °C 90 % 1015,0 hPa 0,0 mm 2,3 km/h (1 Bft) N-NO 32 ° 0 min 0,000 mm 0,0 UV-I 49 W/m² 7,7 °C 9,3 °C 4,8 km/h (1 Bft)
03.11.2017 15:16 9,3 °C 9,3 °C 90 % 1015,0 hPa 0,0 mm 1,8 km/h (1 Bft) N-NO 33 ° 0 min 0,000 mm 0,0 UV-I 47 W/m² 7,7 °C 9,3 °C 4,8 km/h (1 Bft)
03.11.2017 15:17 9,2 °C 9,3 °C 90 % 1015,0 hPa 0,0 mm 1,4 km/h (1 Bft) N-NO 33 ° 0 min 0,000 mm 0,0 UV-I 47 W/m² 7,6 °C 9,2 °C 3,2 km/h (1 Bft)
03.11.2017 15:18 9,2 °C 9,2 °C 89 % 1015,0 hPa 0,0 mm 0,0 km/h (0 Bft) N-NO 33 ° 0 min 0,000 mm 0,0 UV-I 49 W/m² 7,5 °C 9,2 °C 0,0 km/h (0 Bft)
03.11.2017 15:19 9,2 °C 9,2 °C 90 % 1015,0 hPa 0,0 mm 0,0 km/h (0 Bft) N-NO 33 ° 0 min 0,000 mm 0,0 UV-I 47 W/m² 7,6 °C 9,2 °C 0,0 km/h (0 Bft)
03.11.2017 15:20 9,1 °C 9,2 °C 90 % 1014,9 hPa 0,0 mm 0,0 km/h (0 Bft) N-NO 33 ° 0 min 0,000 mm 0,0 UV-I 46 W/m² 7,5 °C 9,1 °C 0,0 km/h (0 Bft)
03.11.2017 15:21 9,1 °C 9,1 °C 90 % 1015,0 hPa 0,0 mm 0,0 km/h (0 Bft) N-NO 33 ° 0 min 0,000 mm 0,0 UV-I 44 W/m² 7,5 °C 9,1 °C 0,0 km/h (0 Bft)
03.11.2017 15:22 9,0 °C 9,1 °C 90 % 1015,0 hPa 0,0 mm 0,0 km/h (0 Bft) N-NO 33 ° 0 min 0,000 mm 0,0 UV-I 46 W/m² 7,4 °C 9,0 °C 0,0 km/h (0 Bft)
03.11.2017 15:23 8,9 °C 9,0 °C 90 % 1015,0 hPa 0,0 mm 0,1 km/h (0 Bft) N-NO 33 ° 0 min 0,000 mm 0,0 UV-I 46 W/m² 7,4 °C 8,9 °C 1,6 km/h (1 Bft)
03.11.2017 15:24 8,8 °C 8,9 °C 90 % 1014,9 hPa 0,0 mm 0,3 km/h (0 Bft) N-NO 33 ° 0 min 0,000 mm 0,0 UV-I 46 W/m² 7,3 °C 8,8 °C 1,6 km/h (1 Bft)
03.11.2017 15:25 8,8 °C 8,8 °C 90 % 1014,9 hPa 0,0 mm 0,0 km/h (0 Bft) N-NO 33 ° 0 min 0,000 mm 0,0 UV-I 46 W/m² 7,3 °C 8,8 °C 0,0 km/h (0 Bft)
03.11.2017 15:26 8,8 °C 8,8 °C 90 % 1015,0 hPa 0,0 mm 0,2 km/h (0 Bft) N-NO 33 ° 0 min 0,000 mm 0,0 UV-I 44 W/m² 7,3 °C 8,8 °C 1,6 km/h (1 Bft)
03.11.2017 15:27 8,8 °C 8,8 °C 90 % 1014,9 hPa 0,0 mm 0,0 km/h (0 Bft) N-NO 33 ° 0 min 0,000 mm 0,0 UV-I 42 W/m² 7,3 °C 8,8 °C 0,0 km/h (0 Bft)
03.11.2017 15:28 8,8 °C 8,8 °C 90 % 1014,9 hPa 0,0 mm 0,0 km/h (0 Bft) N-NO 33 ° 0 min 0,000 mm 0,0 UV-I 44 W/m² 7,3 °C 8,8 °C 0,0 km/h (0 Bft)
03.11.2017 15:29 8,7 °C 8,8 °C 90 % 1014,9 hPa 0,0 mm 1,0 km/h (0 Bft) N-NO 33 ° 0 min 0,000 mm 0,0 UV-I 46 W/m² 7,2 °C 8,7 °C 3,2 km/h (1 Bft)
03.11.2017 15:30 8,7 °C 8,7 °C 91 % 1014,9 hPa 0,0 mm 0,0 km/h (0 Bft) N-NO 33 ° 0 min 0,000 mm 0,0 UV-I 47 W/m² 7,3 °C 8,7 °C 0,0 km/h (0 Bft)
03.11.2017 15:31 8,6 °C 8,7 °C 91 % 1014,9 hPa 0,0 mm 0,0 km/h (0 Bft) N-NO 33 ° 0 min 0,000 mm 0,0 UV-I 46 W/m² 7,2 °C 8,6 °C 0,0 km/h (0 Bft)
03.11.2017 15:32 8,6 °C 8,7 °C 91 % 1014,9 hPa 0,0 mm 0,0 km/h (0 Bft) N-NO 33 ° 0 min 0,000 mm 0,0 UV-I 46 W/m² 7,2 °C 8,6 °C 0,0 km/h (0 Bft)
03.11.2017 15:33 8,7 °C 8,7 °C 91 % 1014,9 hPa 0,0 mm 0,9 km/h (0 Bft) N-NO 33 ° 0 min 0,000 mm 0,0 UV-I 40 W/m² 7,3 °C 8,7 °C 1,6 km/h (1 Bft)
03.11.2017 15:34 8,7 °C 8,7 °C 91 % 1014,9 hPa 0,0 mm 0,0 km/h (0 Bft) N-NO 33 ° 0 min 0,000 mm 0,0 UV-I 37 W/m² 7,3 °C 8,7 °C 0,0 km/h (0 Bft)
03.11.2017 15:35 8,7 °C 8,7 °C 91 % 1014,9 hPa 0,0 mm 0,0 km/h (0 Bft) N-NO 33 ° 0 min 0,000 mm 0,0 UV-I 37 W/m² 7,3 °C 8,7 °C 0,0 km/h (0 Bft)
03.11.2017 15:36 8,7 °C 8,7 °C 91 % 1014,9 hPa 0,0 mm 0,0 km/h (0 Bft) N-NO 33 ° 0 min 0,000 mm 0,0 UV-I 37 W/m² 7,3 °C 8,7 °C 0,0 km/h (0 Bft)
03.11.2017 15:37 8,7 °C 8,7 °C 91 % 1014,8 hPa 0,0 mm 0,0 km/h (0 Bft) N-NO 33 ° 0 min 0,000 mm 0,0 UV-I 37 W/m² 7,3 °C 8,7 °C 0,0 km/h (0 Bft)
03.11.2017 15:38 8,6 °C 8,7 °C 91 % 1014,8 hPa 0,0 mm 0,0 km/h (0 Bft) N-NO 33 ° 0 min 0,000 mm 0,0 UV-I 35 W/m² 7,2 °C 8,6 °C 0,0 km/h (0 Bft)
03.11.2017 15:39 8,6 °C 8,6 °C 91 % 1014,8 hPa 0,0 mm 0,1 km/h (0 Bft) N-NO 33 ° 0 min 0,000 mm 0,0 UV-I 33 W/m² 7,2 °C 8,6 °C 1,6 km/h (1 Bft)
03.11.2017 15:40 8,6 °C 8,6 °C 91 % 1014,8 hPa 0,0 mm 0,0 km/h (0 Bft) N-NO 33 ° 0 min 0,000 mm 0,0 UV-I 33 W/m² 7,2 °C 8,6 °C 0,0 km/h (0 Bft)
03.11.2017 15:41 8,6 °C 8,6 °C 92 % 1014,8 hPa 0,0 mm 0,0 km/h (0 Bft) N-NO 33 ° 0 min 0,000 mm 0,0 UV-I 33 W/m² 7,4 °C 8,6 °C 0,0 km/h (0 Bft)
03.11.2017 15:42 8,6 °C 8,6 °C 92 % 1014,8 hPa 0,0 mm 0,0 km/h (0 Bft) N-NO 33 ° 0 min 0,000 mm 0,0 UV-I 33 W/m² 7,4 °C 8,6 °C 0,0 km/h (0 Bft)
03.11.2017 15:43 8,6 °C 8,6 °C 92 % 1014,7 hPa 0,0 mm 0,0 km/h (0 Bft) N-NO 33 ° 0 min 0,000 mm 0,0 UV-I 33 W/m² 7,4 °C 8,6 °C 0,0 km/h (0 Bft)
03.11.2017 15:44 8,6 °C 8,6 °C 92 % 1014,8 hPa 0,0 mm 0,0 km/h (0 Bft) N-NO 33 ° 0 min 0,000 mm 0,0 UV-I 33 W/m² 7,4 °C 8,6 °C 0,0 km/h (0 Bft)
03.11.2017 15:45 8,6 °C 8,6 °C 92 % 1014,8 hPa 0,0 mm 0,0 km/h (0 Bft) N-NO 33 ° 0 min 0,000 mm 0,0 UV-I 33 W/m² 7,4 °C 8,6 °C 0,0 km/h (0 Bft)
03.11.2017 15:46 8,6 °C 8,6 °C 92 % 1014,8 hPa 0,0 mm 0,0 km/h (0 Bft) N-NO 33 ° 0 min 0,000 mm 0,0 UV-I 33 W/m² 7,4 °C 8,6 °C 0,0 km/h (0 Bft)
03.11.2017 15:47 8,6 °C 8,6 °C 92 % 1014,7 hPa 0,0 mm 0,1 km/h (0 Bft) N-NO 33 ° 0 min 0,000 mm 0,0 UV-I 33 W/m² 7,4 °C 8,6 °C 1,6 km/h (1 Bft)
03.11.2017 15:48 8,6 °C 8,6 °C 92 % 1014,7 hPa 0,0 mm 0,0 km/h (0 Bft) N-NO 33 ° 0 min 0,000 mm 0,0 UV-I 33 W/m² 7,4 °C 8,6 °C 0,0 km/h (0 Bft)
03.11.2017 15:49 8,7 °C 8,7 °C 92 % 1014,7 hPa 0,0 mm 0,0 km/h (0 Bft) N-NO 33 ° 0 min 0,000 mm 0,0 UV-I 33 W/m² 7,5 °C 8,7 °C 0,0 km/h (0 Bft)
03.11.2017 15:50 8,7 °C 8,7 °C 92 % 1014,8 hPa 0,0 mm 0,0 km/h (0 Bft) N-NO 33 ° 0 min 0,000 mm 0,0 UV-I 32 W/m² 7,5 °C 8,7 °C 0,0 km/h (0 Bft)
03.11.2017 15:51 8,6 °C 8,7 °C 92 % 1014,7 hPa 0,0 mm 0,5 km/h (0 Bft) O-SO 109 ° 0 min 0,000 mm 0,0 UV-I 32 W/m² 7,4 °C 8,6 °C 1,6 km/h (1 Bft)
03.11.2017 15:52 8,7 °C 8,7 °C 91 % 1014,8 hPa 0,0 mm 0,1 km/h (0 Bft) O-SO 109 ° 0 min 0,000 mm 0,0 UV-I 32 W/m² 7,3 °C 8,7 °C 1,6 km/h (1 Bft)
03.11.2017 15:54 8,6 °C 8,7 °C 92 % 1014,7 hPa 0,0 mm 0,1 km/h (0 Bft) O-SO 109 ° 0 min 0,000 mm 0,0 UV-I 30 W/m² 7,4 °C 8,6 °C 1,6 km/h (1 Bft)
03.11.2017 15:55 8,6 °C 8,6 °C 92 % 1014,7 hPa 0,0 mm 0,0 km/h (0 Bft) O-SO 109 ° 0 min 0,000 mm 0,0 UV-I 28 W/m² 7,4 °C 8,6 °C 0,0 km/h (0 Bft)
03.11.2017 15:56 8,6 °C 8,6 °C 92 % 1014,7 hPa 0,0 mm 0,2 km/h (0 Bft) O-SO 109 ° 0 min 0,000 mm 0,0 UV-I 28 W/m² 7,4 °C 8,6 °C 1,6 km/h (1 Bft)
03.11.2017 15:57 8,6 °C 8,6 °C 91 % 1014,7 hPa 0,0 mm 0,0 km/h (0 Bft) O-SO 109 ° 0 min 0,000 mm 0,0 UV-I 28 W/m² 7,2 °C 8,6 °C 0,0 km/h (0 Bft)
03.11.2017 15:58 8,6 °C 8,6 °C 92 % 1014,7 hPa 0,0 mm 0,0 km/h (0 Bft) O-SO 109 ° 0 min 0,000 mm 0,0 UV-I 28 W/m² 7,4 °C 8,6 °C 0,0 km/h (0 Bft)
03.11.2017 15:59 8,6 °C 8,6 °C 92 % 1014,7 hPa 0,0 mm 0,0 km/h (0 Bft) O-SO 109 ° 0 min 0,000 mm 0,0 UV-I 26 W/m² 7,4 °C 8,6 °C 0,0 km/h (0 Bft)
03.11.2017 16:00 8,6 °C 8,6 °C 92 % 1014,7 hPa 0,0 mm 0,1 km/h (0 Bft) O-SO 109 ° 0 min 0,000 mm 0,0 UV-I 26 W/m² 7,4 °C 8,6 °C 1,6 km/h (1 Bft)
03.11.2017 16:01 8,6 °C 8,6 °C 92 % 1014,7 hPa 0,0 mm 1,7 km/h (1 Bft) O-SO 109 ° 0 min 0,025 mm 0,0 UV-I 26 W/m² 7,4 °C 8,6 °C 3,2 km/h (1 Bft)
03.11.2017 16:02 8,6 °C 8,6 °C 92 % 1014,7 hPa 0,0 mm 0,6 km/h (0 Bft) O-SO 109 ° 0 min 0,000 mm 0,0 UV-I 26 W/m² 7,4 °C 8,6 °C 1,6 km/h (1 Bft)
03.11.2017 16:03 8,6 °C 8,6 °C 92 % 1014,7 hPa 0,0 mm 1,9 km/h (1 Bft) O-SO 109 ° 0 min 0,000 mm 0,0 UV-I 26 W/m² 7,4 °C 8,6 °C 3,2 km/h (1 Bft)
03.11.2017 16:04 8,6 °C 8,6 °C 92 % 1014,7 hPa 0,0 mm 0,6 km/h (0 Bft) O-SO 109 ° 0 min 0,000 mm 0,0 UV-I 26 W/m² 7,4 °C 8,6 °C 1,6 km/h (1 Bft)
03.11.2017 16:05 8,6 °C 8,6 °C 92 % 1014,7 hPa 0,0 mm 0,0 km/h (0 Bft) O-SO 109 ° 0 min 0,000 mm 0,0 UV-I 26 W/m² 7,4 °C 8,6 °C 0,0 km/h (0 Bft)
03.11.2017 16:06 8,5 °C 8,6 °C 92 % 1014,6 hPa 0,0 mm 0,1 km/h (0 Bft) O-SO 109 ° 0 min 0,000 mm 0,0 UV-I 26 W/m² 7,3 °C 8,5 °C 1,6 km/h (1 Bft)
03.11.2017 16:07 8,4 °C 8,5 °C 92 % 1014,7 hPa 0,0 mm 2,1 km/h (1 Bft) O-SO 109 ° 0 min 0,000 mm 0,0 UV-I 26 W/m² 7,2 °C 8,4 °C 3,2 km/h (1 Bft)
03.11.2017 16:08 8,4 °C 8,4 °C 92 % 1014,7 hPa 0,0 mm 2,2 km/h (1 Bft) O-SO 109 ° 0 min 0,000 mm 0,0 UV-I 25 W/m² 7,2 °C 8,4 °C 3,2 km/h (1 Bft)
03.11.2017 16:09 8,3 °C 8,4 °C 92 % 1014,7 hPa 0,0 mm 1,9 km/h (1 Bft) O-SO 109 ° 0 min 0,000 mm 0,0 UV-I 25 W/m² 7,1 °C 8,3 °C 3,2 km/h (1 Bft)
03.11.2017 16:10 8,3 °C 8,3 °C 91 % 1014,7 hPa 0,0 mm 0,9 km/h (0 Bft) O-SO 109 ° 0 min 0,000 mm 0,0 UV-I 25 W/m² 6,9 °C 8,3 °C 3,2 km/h (1 Bft)
03.11.2017 16:11 8,3 °C 8,3 °C 92 % 1014,6 hPa 0,0 mm 0,1 km/h (0 Bft) O-SO 109 ° 0 min 0,000 mm 0,0 UV-I 23 W/m² 7,1 °C 8,3 °C 1,6 km/h (1 Bft)
03.11.2017 16:12 8,3 °C 8,3 °C 92 % 1014,6 hPa 0,0 mm 0,6 km/h (0 Bft) O-SO 109 ° 0 min 0,000 mm 0,0 UV-I 23 W/m² 7,1 °C 8,3 °C 1,6 km/h (1 Bft)
03.11.2017 16:13 8,3 °C 8,3 °C 92 % 1014,6 hPa 0,0 mm 0,9 km/h (0 Bft) O-SO 109 ° 0 min 0,000 mm 0,0 UV-I 23 W/m² 7,1 °C 8,3 °C 1,6 km/h (1 Bft)
03.11.2017 16:14 8,3 °C 8,3 °C 92 % 1014,6 hPa 0,0 mm 0,7 km/h (0 Bft) O-SO 109 ° 0 min 0,000 mm 0,0 UV-I 21 W/m² 7,1 °C 8,3 °C 1,6 km/h (1 Bft)
03.11.2017 16:15 8,3 °C 8,3 °C 92 % 1014,7 hPa 0,0 mm 1,5 km/h (1 Bft) O-SO 109 ° 0 min 0,000 mm 0,0 UV-I 21 W/m² 7,1 °C 8,3 °C 3,2 km/h (1 Bft)
03.11.2017 16:16 8,3 °C 8,3 °C 92 % 1014,7 hPa 0,0 mm 2,3 km/h (1 Bft) O-SO 109 ° 0 min 0,000 mm 0,0 UV-I 21 W/m² 7,1 °C 8,3 °C 3,2 km/h (1 Bft)
03.11.2017 16:17 8,1 °C 8,3 °C 92 % 1014,7 hPa 0,0 mm 0,8 km/h (0 Bft) O-SO 109 ° 0 min 0,000 mm 0,0 UV-I 21 W/m² 6,9 °C 8,1 °C 1,6 km/h (1 Bft)
03.11.2017 16:18 8,1 °C 8,1 °C 92 % 1014,7 hPa 0,0 mm 0,8 km/h (0 Bft) O-SO 109 ° 0 min 0,000 mm 0,0 UV-I 21 W/m² 6,9 °C 8,1 °C 1,6 km/h (1 Bft)
03.11.2017 16:19 8,0 °C 8,1 °C 92 % 1014,7 hPa 0,0 mm 1,5 km/h (1 Bft) O-SO 109 ° 0 min 0,000 mm 0,0 UV-I 19 W/m² 6,8 °C 8,0 °C 3,2 km/h (1 Bft)
03.11.2017 16:20 8,0 °C 8,0 °C 92 % 1014,7 hPa 0,0 mm 1,6 km/h (1 Bft) O-SO 109 ° 0 min 0,000 mm 0,0 UV-I 19 W/m² 6,8 °C 8,0 °C 3,2 km/h (1 Bft)
03.11.2017 16:21 7,9 °C 8,0 °C 92 % 1014,7 hPa 0,0 mm 1,8 km/h (1 Bft) O-SO 109 ° 0 min 0,000 mm 0,0 UV-I 19 W/m² 6,7 °C 7,9 °C 3,2 km/h (1 Bft)
03.11.2017 16:22 7,8 °C 7,9 °C 92 % 1014,7 hPa 0,0 mm 0,0 km/h (0 Bft) O-SO 109 ° 0 min 0,000 mm 0,0 UV-I 19 W/m² 6,6 °C 7,8 °C 0,0 km/h (0 Bft)
03.11.2017 16:23 7,8 °C 7,8 °C 93 % 1014,7 hPa 0,0 mm 0,0 km/h (0 Bft) O-SO 109 ° 0 min 0,000 mm 0,0 UV-I 18 W/m² 6,7 °C 7,8 °C 0,0 km/h (0 Bft)
03.11.2017 16:24 7,8 °C 7,8 °C 93 % 1014,7 hPa 0,0 mm 0,0 km/h (0 Bft) O-SO 109 ° 0 min 0,000 mm 0,0 UV-I 18 W/m² 6,7 °C 7,8 °C 0,0 km/h (0 Bft)
03.11.2017 16:25 7,8 °C 7,8 °C 93 % 1014,7 hPa 0,0 mm 0,0 km/h (0 Bft) O-SO 109 ° 0 min 0,000 mm 0,0 UV-I 18 W/m² 6,7 °C 7,8 °C 0,0 km/h (0 Bft)
03.11.2017 16:26 7,8 °C 7,8 °C 93 % 1014,7 hPa 0,0 mm 0,0 km/h (0 Bft) O-SO 109 ° 0 min 0,000 mm 0,0 UV-I 18 W/m² 6,7 °C 7,8 °C 0,0 km/h (0 Bft)
03.11.2017 16:27 7,8 °C 7,8 °C 93 % 1014,7 hPa 0,0 mm 0,0 km/h (0 Bft) O-SO 109 ° 0 min 0,000 mm 0,0 UV-I 18 W/m² 6,7 °C 7,8 °C 0,0 km/h (0 Bft)
03.11.2017 16:28 7,8 °C 7,8 °C 93 % 1014,7 hPa 0,0 mm 0,0 km/h (0 Bft) O-SO 109 ° 0 min 0,000 mm 0,0 UV-I 16 W/m² 6,7 °C 7,8 °C 0,0 km/h (0 Bft)
03.11.2017 16:29 7,7 °C 7,8 °C 93 % 1014,7 hPa 0,0 mm 0,0 km/h (0 Bft) O-SO 109 ° 0 min 0,000 mm 0,0 UV-I 16 W/m² 6,6 °C 7,7 °C 0,0 km/h (0 Bft)
03.11.2017 16:30 7,7 °C 7,7 °C 93 % 1014,7 hPa 0,0 mm 0,0 km/h (0 Bft) O-SO 109 ° 0 min 0,000 mm 0,0 UV-I 16 W/m² 6,6 °C 7,7 °C 0,0 km/h (0 Bft)
03.11.2017 16:31 7,7 °C 7,7 °C 93 % 1014,7 hPa 0,0 mm 0,0 km/h (0 Bft) O-SO 109 ° 0 min 0,000 mm 0,0 UV-I 14 W/m² 6,6 °C 7,7 °C 0,0 km/h (0 Bft)
03.11.2017 16:32 7,7 °C 7,7 °C 93 % 1014,7 hPa 0,0 mm 0,0 km/h (0 Bft) O-SO 109 ° 0 min 0,000 mm 0,0 UV-I 14 W/m² 6,6 °C 7,7 °C 0,0 km/h (0 Bft)
03.11.2017 16:33 7,6 °C 7,7 °C 93 % 1014,6 hPa 0,0 mm 0,0 km/h (0 Bft) O-SO 109 ° 0 min 0,000 mm 0,0 UV-I 14 W/m² 6,5 °C 7,6 °C 0,0 km/h (0 Bft)
03.11.2017 16:34 7,6 °C 7,6 °C 93 % 1014,6 hPa 0,0 mm 0,0 km/h (0 Bft) O-SO 109 ° 0 min 0,000 mm 0,0 UV-I 14 W/m² 6,5 °C 7,6 °C 0,0 km/h (0 Bft)
03.11.2017 16:35 7,6 °C 7,6 °C 93 % 1014,7 hPa 0,0 mm 0,0 km/h (0 Bft) O-SO 109 ° 0 min 0,000 mm 0,0 UV-I 12 W/m² 6,5 °C 7,6 °C 0,0 km/h (0 Bft)
03.11.2017 16:36 7,6 °C 7,6 °C 93 % 1014,7 hPa 0,0 mm 0,0 km/h (0 Bft) O-SO 109 ° 0 min 0,000 mm 0,0 UV-I 12 W/m² 6,5 °C 7,6 °C 0,0 km/h (0 Bft)
03.11.2017 16:37 7,5 °C 7,6 °C 93 % 1014,7 hPa 0,0 mm 0,0 km/h (0 Bft) O-SO 109 ° 0 min 0,000 mm 0,0 UV-I 12 W/m² 6,4 °C 7,5 °C 0,0 km/h (0 Bft)
03.11.2017 16:38 7,4 °C 7,5 °C 93 % 1014,7 hPa 0,0 mm 0,1 km/h (0 Bft) O-SO 109 ° 0 min 0,000 mm 0,0 UV-I 12 W/m² 6,3 °C 7,4 °C 1,6 km/h (1 Bft)
03.11.2017 16:39 7,4 °C 7,4 °C 93 % 1014,7 hPa 0,0 mm 2,3 km/h (1 Bft) O-SO 109 ° 0 min 0,000 mm 0,0 UV-I 11 W/m² 6,3 °C 7,4 °C 3,2 km/h (1 Bft)
03.11.2017 16:40 7,4 °C 7,4 °C 93 % 1014,7 hPa 0,0 mm 1,3 km/h (1 Bft) O-SO 109 ° 0 min 0,000 mm 0,0 UV-I 11 W/m² 6,3 °C 7,4 °C 3,2 km/h (1 Bft)
03.11.2017 16:41 7,4 °C 7,4 °C 93 % 1014,7 hPa 0,0 mm 0,0 km/h (0 Bft) O-SO 109 ° 0 min 0,000 mm 0,0 UV-I 11 W/m² 6,3 °C 7,4 °C 0,0 km/h (0 Bft)
03.11.2017 16:42 7,4 °C 7,4 °C 93 % 1014,7 hPa 0,0 mm 0,0 km/h (0 Bft) O-SO 109 ° 0 min 0,000 mm 0,0 UV-I 11 W/m² 6,3 °C 7,4 °C 0,0 km/h (0 Bft)
03.11.2017 16:43 7,4 °C 7,4 °C 93 % 1014,7 hPa 0,0 mm 0,0 km/h (0 Bft) O-SO 109 ° 0 min 0,000 mm 0,0 UV-I 9 W/m² 6,3 °C 7,4 °C 0,0 km/h (0 Bft)
03.11.2017 16:44 7,4 °C 7,4 °C 93 % 1014,7 hPa 0,0 mm 0,0 km/h (0 Bft) O-SO 109 ° 0 min 0,000 mm 0,0 UV-I 9 W/m² 6,3 °C 7,4 °C 0,0 km/h (0 Bft)
03.11.2017 16:45 7,3 °C 7,4 °C 93 % 1014,7 hPa 0,0 mm 0,0 km/h (0 Bft) O-SO 109 ° 0 min 0,000 mm 0,0 UV-I 9 W/m² 6,2 °C 7,3 °C 0,0 km/h (0 Bft)
03.11.2017 16:46 7,3 °C 7,3 °C 93 % 1014,7 hPa 0,0 mm 0,0 km/h (0 Bft) O-SO 109 ° 0 min 0,000 mm 0,0 UV-I 7 W/m² 6,2 °C 7,3 °C 0,0 km/h (0 Bft)
03.11.2017 16:47 7,3 °C 7,3 °C 93 % 1014,7 hPa 0,0 mm 0,0 km/h (0 Bft) O-SO 109 ° 0 min 0,000 mm 0,0 UV-I 7 W/m² 6,2 °C 7,3 °C 0,0 km/h (0 Bft)
03.11.2017 16:48 7,3 °C 7,3 °C 93 % 1014,7 hPa 0,0 mm 0,0 km/h (0 Bft) O-SO 109 ° 0 min 0,000 mm 0,0 UV-I 7 W/m² 6,2 °C 7,3 °C 0,0 km/h (0 Bft)
03.11.2017 16:49 7,3 °C 7,3 °C 93 % 1014,7 hPa 0,0 mm 0,0 km/h (0 Bft) O-SO 109 ° 0 min 0,000 mm 0,0 UV-I 5 W/m² 6,2 °C 7,3 °C 0,0 km/h (0 Bft)
03.11.2017 16:50 7,3 °C 7,3 °C 93 % 1014,7 hPa 0,0 mm 0,0 km/h (0 Bft) O-SO 109 ° 0 min 0,000 mm 0,0 UV-I 5 W/m² 6,2 °C 7,3 °C 0,0 km/h (0 Bft)
03.11.2017 16:51 7,2 °C 7,3 °C 93 % 1014,7 hPa 0,0 mm 0,0 km/h (0 Bft) O-SO 109 ° 0 min 0,000 mm 0,0 UV-I 5 W/m² 6,1 °C 7,2 °C 0,0 km/h (0 Bft)
03.11.2017 16:52 7,2 °C 7,3 °C 93 % 1014,7 hPa 0,0 mm 0,0 km/h (0 Bft) O-SO 109 ° 0 min 0,000 mm 0,0 UV-I 5 W/m² 6,1 °C 7,2 °C 0,0 km/h (0 Bft)
03.11.2017 16:53 6,9 °C 7,2 °C 92 % 1014,7 hPa 0,0 mm 0,0 km/h (0 Bft) O-SO 109 ° 0 min 0,000 mm 0,0 UV-I 5 W/m² 5,7 °C 6,9 °C 0,0 km/h (0 Bft)
03.11.2017 16:54 6,8 °C 6,9 °C 92 % 1014,7 hPa 0,0 mm 0,0 km/h (0 Bft) O-SO 109 ° 0 min 0,000 mm 0,0 UV-I 0 W/m² 5,6 °C 6,8 °C 0,0 km/h (0 Bft)
03.11.2017 16:55 6,7 °C 6,8 °C 92 % 1014,7 hPa 0,0 mm 0,0 km/h (0 Bft) O-SO 109 ° 0 min 0,000 mm 0,0 UV-I 0 W/m² 5,5 °C 6,7 °C 0,0 km/h (0 Bft)
03.11.2017 16:56 6,5 °C 6,7 °C 92 % 1014,7 hPa 0,0 mm 0,0 km/h (0 Bft) O-SO 109 ° 0 min 0,000 mm 0,0 UV-I 0 W/m² 5,3 °C 6,5 °C 0,0 km/h (0 Bft)
03.11.2017 16:57 6,4 °C 6,5 °C 92 % 1014,7 hPa 0,0 mm 0,0 km/h (0 Bft) O-SO 109 ° 0 min 0,000 mm 0,0 UV-I 0 W/m² 5,2 °C 6,4 °C 0,0 km/h (0 Bft)
03.11.2017 16:58 6,4 °C 6,5 °C 93 % 1014,7 hPa 0,0 mm 0,0 km/h (0 Bft) O-SO 109 ° 0 min 0,000 mm 0,0 UV-I 0 W/m² 5,4 °C 6,4 °C 0,0 km/h (0 Bft)
03.11.2017 16:59 6,4 °C 6,4 °C 93 % 1014,7 hPa 0,0 mm 0,0 km/h (0 Bft) O-SO 109 ° 0 min 0,000 mm 0,0 UV-I 0 W/m² 5,4 °C 6,4 °C 0,0 km/h (0 Bft)
03.11.2017 17:00 6,4 °C 6,4 °C 93 % 1014,7 hPa 0,0 mm 0,0 km/h (0 Bft) O-SO 109 ° 0 min 0,000 mm 0,0 UV-I 0 W/m² 5,4 °C 6,4 °C 0,0 km/h (0 Bft)
03.11.2017 17:01 6,6 °C 6,6 °C 94 % 1014,7 hPa 0,0 mm 0,0 km/h (0 Bft) O-SO 109 ° 0 min 0,000 mm 0,0 UV-I 0 W/m² 5,7 °C 6,6 °C 0,0 km/h (0 Bft)
03.11.2017 17:02 6,6 °C 6,7 °C 94 % 1014,7 hPa 0,0 mm 0,0 km/h (0 Bft) O-SO 109 ° 0 min 0,000 mm 0,0 UV-I 0 W/m² 5,7 °C 6,6 °C 0,0 km/h (0 Bft)
03.11.2017 17:03 6,7 °C 6,7 °C 94 % 1014,6 hPa 0,0 mm 0,0 km/h (0 Bft) O-SO 109 ° 0 min 0,000 mm 0,0 UV-I 0 W/m² 5,8 °C 6,7 °C 0,0 km/h (0 Bft)
03.11.2017 17:05 6,7 °C 6,8 °C 94 % 1014,7 hPa 0,0 mm 0,0 km/h (0 Bft) O-SO 109 ° 0 min 0,000 mm 0,0 UV-I 0 W/m² 5,8 °C 6,7 °C 0,0 km/h (0 Bft)
03.11.2017 17:06 6,5 °C 6,7 °C 93 % 1014,7 hPa 0,0 mm 0,0 km/h (0 Bft) O-SO 109 ° 0 min 0,000 mm 0,0 UV-I 0 W/m² 5,5 °C 6,5 °C 0,0 km/h (0 Bft)
03.11.2017 17:07 6,4 °C 6,5 °C 93 % 1014,7 hPa 0,0 mm 0,0 km/h (0 Bft) O-SO 109 ° 0 min 0,000 mm 0,0 UV-I 0 W/m² 5,4 °C 6,4 °C 0,0 km/h (0 Bft)
03.11.2017 17:08 6,2 °C 6,4 °C 93 % 1014,7 hPa 0,0 mm 0,0 km/h (0 Bft) O-SO 109 ° 0 min 0,000 mm 0,0 UV-I 0 W/m² 5,2 °C 6,2 °C 0,0 km/h (0 Bft)
03.11.2017 17:09 6,2 °C 6,2 °C 93 % 1014,7 hPa 0,0 mm 0,0 km/h (0 Bft) O-SO 109 ° 0 min 0,000 mm 0,0 UV-I 0 W/m² 5,2 °C 6,2 °C 0,0 km/h (0 Bft)
03.11.2017 17:10 6,1 °C 6,2 °C 93 % 1014,7 hPa 0,0 mm 0,0 km/h (0 Bft) O-SO 109 ° 0 min 0,000 mm 0,0 UV-I 0 W/m² 5,1 °C 6,1 °C 0,0 km/h (0 Bft)
03.11.2017 17:11 6,1 °C 6,1 °C 93 % 1014,8 hPa 0,0 mm 0,0 km/h (0 Bft) O-SO 109 ° 0 min 0,000 mm 0,0 UV-I 0 W/m² 5,1 °C 6,1 °C 0,0 km/h (0 Bft)
03.11.2017 17:12 6,1 °C 6,1 °C 94 % 1014,7 hPa 0,0 mm 0,0 km/h (0 Bft) O-SO 109 ° 0 min 0,000 mm 0,0 UV-I 0 W/m² 5,2 °C 6,1 °C 0,0 km/h (0 Bft)
03.11.2017 17:13 6,0 °C 6,1 °C 94 % 1014,7 hPa 0,0 mm 0,0 km/h (0 Bft) O-SO 109 ° 0 min 0,000 mm 0,0 UV-I 0 W/m² 5,1 °C 6,0 °C 0,0 km/h (0 Bft)
03.11.2017 17:14 5,9 °C 6,0 °C 93 % 1014,7 hPa 0,0 mm 0,0 km/h (0 Bft) O-SO 109 ° 0 min 0,000 mm 0,0 UV-I 0 W/m² 4,9 °C 5,9 °C 0,0 km/h (0 Bft)
03.11.2017 17:15 5,9 °C 5,9 °C 93 % 1014,7 hPa 0,0 mm 0,0 km/h (0 Bft) O-SO 109 ° 0 min 0,000 mm 0,0 UV-I 0 W/m² 4,9 °C 5,9 °C 0,0 km/h (0 Bft)
03.11.2017 17:16 5,8 °C 5,9 °C 93 % 1014,7 hPa 0,0 mm 0,0 km/h (0 Bft) O-SO 109 ° 0 min 0,000 mm 0,0 UV-I 0 W/m² 4,8 °C 5,8 °C 0,0 km/h (0 Bft)
03.11.2017 17:17 5,7 °C 5,8 °C 93 % 1014,7 hPa 0,0 mm 0,0 km/h (0 Bft) O-SO 109 ° 0 min 0,000 mm 0,0 UV-I 0 W/m² 4,7 °C 5,7 °C 0,0 km/h (0 Bft)
03.11.2017 17:18 5,7 °C 5,7 °C 94 % 1014,7 hPa 0,0 mm 0,0 km/h (0 Bft) O-SO 109 ° 0 min 0,000 mm 0,0 UV-I 0 W/m² 4,8 °C 5,7 °C 0,0 km/h (0 Bft)
03.11.2017 17:19 5,7 °C 5,7 °C 94 % 1014,7 hPa 0,0 mm 0,0 km/h (0 Bft) O-SO 109 ° 0 min 0,000 mm 0,0 UV-I 0 W/m² 4,8 °C 5,7 °C 0,0 km/h (0 Bft)
03.11.2017 17:20 5,7 °C 5,7 °C 94 % 1014,7 hPa 0,0 mm 0,0 km/h (0 Bft) O-SO 109 ° 0 min 0,000 mm 0,0 UV-I 0 W/m² 4,8 °C 5,7 °C 0,0 km/h (0 Bft)
03.11.2017 17:21 5,7 °C 5,7 °C 94 % 1014,7 hPa 0,0 mm 0,0 km/h (0 Bft) O-SO 109 ° 0 min 0,000 mm 0,0 UV-I 0 W/m² 4,8 °C 5,7 °C 0,0 km/h (0 Bft)
03.11.2017 17:22 5,7 °C 5,7 °C 94 % 1014,7 hPa 0,0 mm 0,0 km/h (0 Bft) O-SO 109 ° 0 min 0,000 mm 0,0 UV-I 0 W/m² 4,8 °C 5,7 °C 0,0 km/h (0 Bft)
03.11.2017 17:24 5,8 °C 5,8 °C 94 % 1014,7 hPa 0,0 mm 0,0 km/h (0 Bft) O-SO 109 ° 0 min 0,000 mm 0,0 UV-I 0 W/m² 4,9 °C 5,8 °C 0,0 km/h (0 Bft)
03.11.2017 17:25 5,9 °C 5,9 °C 94 % 1014,7 hPa 0,0 mm 0,0 km/h (0 Bft) O-SO 109 ° 0 min 0,000 mm 0,0 UV-I 0 W/m² 5,0 °C 5,9 °C 0,0 km/h (0 Bft)
03.11.2017 17:26 5,8 °C 5,9 °C 95 % 1014,7 hPa 0,0 mm 0,0 km/h (0 Bft) O-SO 109 ° 0 min 0,000 mm 0,0 UV-I 0 W/m² 5,1 °C 5,8 °C 0,0 km/h (0 Bft)
03.11.2017 17:27 5,8 °C 5,8 °C 94 % 1014,7 hPa 0,0 mm 0,0 km/h (0 Bft) O-SO 109 ° 0 min 0,000 mm 0,0 UV-I 0 W/m² 4,9 °C 5,8 °C 0,0 km/h (0 Bft)
03.11.2017 17:29 5,6 °C 5,8 °C 94 % 1014,7 hPa 0,0 mm 0,0 km/h (0 Bft) O-SO 109 ° 0 min 0,000 mm 0,0 UV-I 0 W/m² 4,7 °C 5,6 °C 0,0 km/h (0 Bft)
03.11.2017 17:30 5,6 °C 5,6 °C 94 % 1014,7 hPa 0,0 mm 0,0 km/h (0 Bft) O-SO 109 ° 0 min 0,000 mm 0,0 UV-I 0 W/m² 4,7 °C 5,6 °C 0,0 km/h (0 Bft)
03.11.2017 17:31 5,5 °C 5,6 °C 94 % 1014,7 hPa 0,0 mm 0,0 km/h (0 Bft) O-SO 109 ° 0 min 0,000 mm 0,0 UV-I 0 W/m² 4,6 °C 5,5 °C 0,0 km/h (0 Bft)
03.11.2017 17:32 5,5 °C 5,5 °C 94 % 1014,6 hPa 0,0 mm 0,0 km/h (0 Bft) O-SO 109 ° 0 min 0,000 mm 0,0 UV-I 0 W/m² 4,6 °C 5,5 °C 0,0 km/h (0 Bft)
03.11.2017 17:33 5,4 °C 5,5 °C 94 % 1014,6 hPa 0,0 mm 0,0 km/h (0 Bft) O-SO 109 ° 0 min 0,000 mm 0,0 UV-I 0 W/m² 4,5 °C 5,4 °C 0,0 km/h (0 Bft)
03.11.2017 17:34 5,4 °C 5,5 °C 94 % 1014,6 hPa 0,0 mm 0,0 km/h (0 Bft) O-SO 109 ° 0 min 0,000 mm 0,0 UV-I 0 W/m² 4,5 °C 5,4 °C 0,0 km/h (0 Bft)
03.11.2017 17:35 5,3 °C 5,4 °C 94 % 1014,6 hPa 0,0 mm 0,0 km/h (0 Bft) O-SO 109 ° 0 min 0,000 mm 0,0 UV-I 0 W/m² 4,4 °C 5,3 °C 0,0 km/h (0 Bft)
03.11.2017 17:36 5,2 °C 5,3 °C 94 % 1014,6 hPa 0,0 mm 0,0 km/h (0 Bft) O-SO 109 ° 0 min 0,000 mm 0,0 UV-I 0 W/m² 4,3 °C 5,2 °C 0,0 km/h (0 Bft)
03.11.2017 17:37 5,2 °C 5,2 °C 94 % 1014,6 hPa 0,0 mm 0,0 km/h (0 Bft) O-SO 109 ° 0 min 0,000 mm 0,0 UV-I 0 W/m² 4,3 °C 5,2 °C 0,0 km/h (0 Bft)
03.11.2017 17:38 5,1 °C 5,2 °C 94 % 1014,6 hPa 0,0 mm 0,0 km/h (0 Bft) O-SO 109 ° 0 min 0,000 mm 0,0 UV-I 0 W/m² 4,2 °C 5,1 °C 0,0 km/h (0 Bft)
03.11.2017 17:40 4,9 °C 5,1 °C 94 % 1014,7 hPa 0,0 mm 0,0 km/h (0 Bft) O-SO 109 ° 0 min 0,000 mm 0,0 UV-I 0 W/m² 4,0 °C 4,9 °C 0,0 km/h (0 Bft)
03.11.2017 17:41 4,9 °C 4,9 °C 94 % 1014,7 hPa 0,0 mm 0,0 km/h (0 Bft) O-SO 109 ° 0 min 0,000 mm 0,0 UV-I 0 W/m² 4,0 °C 4,9 °C 0,0 km/h (0 Bft)
03.11.2017 17:42 5,1 °C 5,1 °C 94 % 1014,7 hPa 0,0 mm 0,0 km/h (0 Bft) O-SO 109 ° 0 min 0,000 mm 0,0 UV-I 0 W/m² 4,2 °C 5,1 °C 0,0 km/h (0 Bft)
03.11.2017 17:43 5,2 °C 5,2 °C 94 % 1014,7 hPa 0,0 mm 0,0 km/h (0 Bft) O-SO 109 ° 0 min 0,000 mm 0,0 UV-I 0 W/m² 4,3 °C 5,2 °C 0,0 km/h (0 Bft)
03.11.2017 17:44 5,2 °C 5,2 °C 95 % 1014,7 hPa 0,0 mm 0,0 km/h (0 Bft) O-SO 109 ° 0 min 0,000 mm 0,0 UV-I 0 W/m² 4,5 °C 5,2 °C 0,0 km/h (0 Bft)
03.11.2017 17:45 5,2 °C 5,3 °C 95 % 1014,7 hPa 0,0 mm 0,0 km/h (0 Bft) O-SO 109 ° 0 min 0,000 mm 0,0 UV-I 0 W/m² 4,5 °C 5,2 °C 0,0 km/h (0 Bft)
03.11.2017 17:46 5,2 °C 5,2 °C 94 % 1014,7 hPa 0,0 mm 0,0 km/h (0 Bft) O-SO 109 ° 0 min 0,000 mm 0,0 UV-I 0 W/m² 4,3 °C 5,2 °C 0,0 km/h (0 Bft)
03.11.2017 17:47 5,1 °C 5,2 °C 94 % 1014,7 hPa 0,0 mm 0,0 km/h (0 Bft) O-SO 109 ° 0 min 0,000 mm 0,0 UV-I 0 W/m² 4,2 °C 5,1 °C 0,0 km/h (0 Bft)
03.11.2017 17:48 5,0 °C 5,1 °C 94 % 1014,8 hPa 0,0 mm 0,0 km/h (0 Bft) O-SO 109 ° 0 min 0,000 mm 0,0 UV-I 0 W/m² 4,1 °C 5,0 °C 0,0 km/h (0 Bft)
03.11.2017 17:49 4,9 °C 5,0 °C 94 % 1014,7 hPa 0,0 mm 0,0 km/h (0 Bft) O-SO 109 ° 0 min 0,000 mm 0,0 UV-I 0 W/m² 4,0 °C 4,9 °C 0,0 km/h (0 Bft)
03.11.2017 17:50 4,8 °C 4,9 °C 94 % 1014,8 hPa 0,0 mm 0,0 km/h (0 Bft) O-SO 109 ° 0 min 0,000 mm 0,0 UV-I 0 W/m² 3,9 °C 4,8 °C 0,0 km/h (0 Bft)
03.11.2017 17:51 4,7 °C 4,8 °C 94 % 1014,8 hPa 0,0 mm 0,0 km/h (0 Bft) O-SO 109 ° 0 min 0,000 mm 0,0 UV-I 0 W/m² 3,8 °C 4,7 °C 0,0 km/h (0 Bft)
03.11.2017 17:52 4,7 °C 4,7 °C 94 % 1014,8 hPa 0,0 mm 0,0 km/h (0 Bft) O-SO 109 ° 0 min 0,000 mm 0,0 UV-I 0 W/m² 3,8 °C 4,7 °C 0,0 km/h (0 Bft)
03.11.2017 17:53 4,7 °C 4,7 °C 94 % 1014,8 hPa 0,0 mm 0,0 km/h (0 Bft) O-SO 109 ° 0 min 0,000 mm 0,0 UV-I 0 W/m² 3,8 °C 4,7 °C 0,0 km/h (0 Bft)
03.11.2017 17:54 4,6 °C 4,7 °C 94 % 1014,7 hPa 0,0 mm 0,0 km/h (0 Bft) O-SO 109 ° 0 min 0,000 mm 0,0 UV-I 0 W/m² 3,7 °C 4,6 °C 0,0 km/h (0 Bft)
03.11.2017 17:55 4,6 °C 4,6 °C 94 % 1014,7 hPa 0,0 mm 0,0 km/h (0 Bft) O-SO 109 ° 0 min 0,000 mm 0,0 UV-I 0 W/m² 3,7 °C 4,6 °C 0,0 km/h (0 Bft)
03.11.2017 17:56 4,5 °C 4,6 °C 94 % 1014,8 hPa 0,0 mm 0,0 km/h (0 Bft) O-SO 109 ° 0 min 0,000 mm 0,0 UV-I 0 W/m² 3,6 °C 4,5 °C 0,0 km/h (0 Bft)
03.11.2017 17:57 4,5 °C 4,5 °C 94 % 1014,7 hPa 0,0 mm 0,0 km/h (0 Bft) O-SO 109 ° 0 min 0,000 mm 0,0 UV-I 0 W/m² 3,6 °C 4,5 °C 0,0 km/h (0 Bft)
03.11.2017 17:58 4,4 °C 4,5 °C 94 % 1014,7 hPa 0,0 mm 0,0 km/h (0 Bft) O-SO 109 ° 0 min 0,000 mm 0,0 UV-I 0 W/m² 3,5 °C 4,4 °C 0,0 km/h (0 Bft)
03.11.2017 17:59 4,4 °C 4,4 °C 94 % 1014,7 hPa 0,0 mm 0,0 km/h (0 Bft) O-SO 109 ° 0 min 0,000 mm 0,0 UV-I 0 W/m² 3,5 °C 4,4 °C 0,0 km/h (0 Bft)
03.11.2017 18:00 4,4 °C 4,4 °C 94 % 1014,7 hPa 0,0 mm 0,0 km/h (0 Bft) O-SO 109 ° 0 min 0,000 mm 0,0 UV-I 0 W/m² 3,5 °C 4,4 °C 0,0 km/h (0 Bft)
03.11.2017 18:01 4,4 °C 4,4 °C 94 % 1014,7 hPa 0,0 mm 0,0 km/h (0 Bft) O-SO 109 ° 0 min 0,000 mm 0,0 UV-I 0 W/m² 3,5 °C 4,4 °C 0,0 km/h (0 Bft)
03.11.2017 18:02 4,4 °C 4,4 °C 94 % 1014,7 hPa 0,0 mm 0,0 km/h (0 Bft) O-SO 109 ° 0 min 0,000 mm 0,0 UV-I 0 W/m² 3,5 °C 4,4 °C 0,0 km/h (0 Bft)
03.11.2017 18:03 4,3 °C 4,4 °C 94 % 1014,7 hPa 0,0 mm 0,0 km/h (0 Bft) O-SO 109 ° 0 min 0,000 mm 0,0 UV-I 0 W/m² 3,4 °C 4,3 °C 0,0 km/h (0 Bft)
03.11.2017 18:04 4,3 °C 4,3 °C 94 % 1014,7 hPa 0,0 mm 0,0 km/h (0 Bft) O-SO 109 ° 0 min 0,000 mm 0,0 UV-I 0 W/m² 3,4 °C 4,3 °C 0,0 km/h (0 Bft)
03.11.2017 18:05 4,2 °C 4,3 °C 94 % 1014,7 hPa 0,0 mm 0,0 km/h (0 Bft) O-SO 109 ° 0 min 0,000 mm 0,0 UV-I 0 W/m² 3,3 °C 4,2 °C 0,0 km/h (0 Bft)
03.11.2017 18:06 4,2 °C 4,3 °C 94 % 1014,7 hPa 0,0 mm 0,0 km/h (0 Bft) O-SO 109 ° 0 min 0,000 mm 0,0 UV-I 0 W/m² 3,3 °C 4,2 °C 0,0 km/h (0 Bft)
03.11.2017 18:07 4,2 °C 4,2 °C 94 % 1014,8 hPa 0,0 mm 0,0 km/h (0 Bft) O-SO 109 ° 0 min 0,000 mm 0,0 UV-I 0 W/m² 3,3 °C 4,2 °C 0,0 km/h (0 Bft)
03.11.2017 18:08 4,1 °C 4,2 °C 94 % 1014,7 hPa 0,0 mm 0,0 km/h (0 Bft) O-SO 109 ° 0 min 0,000 mm 0,0 UV-I 0 W/m² 3,2 °C 4,1 °C 0,0 km/h (0 Bft)
03.11.2017 18:09 4,1 °C 4,1 °C 94 % 1014,8 hPa 0,0 mm 0,0 km/h (0 Bft) O-SO 109 ° 0 min 0,000 mm 0,0 UV-I 0 W/m² 3,2 °C 4,1 °C 0,0 km/h (0 Bft)
03.11.2017 18:10 4,0 °C 4,1 °C 94 % 1014,8 hPa 0,0 mm 0,0 km/h (0 Bft) O-SO 109 ° 0 min 0,000 mm 0,0 UV-I 0 W/m² 3,1 °C 4,0 °C 0,0 km/h (0 Bft)
03.11.2017 18:11 3,9 °C 4,0 °C 94 % 1014,8 hPa 0,0 mm 0,0 km/h (0 Bft) O-SO 109 ° 0 min 0,000 mm 0,0 UV-I 0 W/m² 3,0 °C 3,9 °C 0,0 km/h (0 Bft)
03.11.2017 18:12 3,9 °C 3,9 °C 94 % 1014,7 hPa 0,0 mm 0,0 km/h (0 Bft) O-SO 109 ° 0 min 0,000 mm 0,0 UV-I 0 W/m² 3,0 °C 3,9 °C 0,0 km/h (0 Bft)
03.11.2017 18:13 4,0 °C 4,0 °C 94 % 1014,7 hPa 0,0 mm 0,0 km/h (0 Bft) O-SO 109 ° 0 min 0,000 mm 0,0 UV-I 0 W/m² 3,1 °C 4,0 °C 0,0 km/h (0 Bft)
03.11.2017 18:14 4,1 °C 4,1 °C 94 % 1014,8 hPa 0,0 mm 0,0 km/h (0 Bft) O-SO 109 ° 0 min 0,000 mm 0,0 UV-I 0 W/m² 3,2 °C 4,1 °C 0,0 km/h (0 Bft)
03.11.2017 18:15 4,2 °C 4,2 °C 95 % 1014,7 hPa 0,0 mm 0,0 km/h (0 Bft) O-SO 109 ° 0 min 0,000 mm 0,0 UV-I 0 W/m² 3,5 °C 4,2 °C 0,0 km/h (0 Bft)
03.11.2017 18:16 4,3 °C 4,3 °C 95 % 1014,7 hPa 0,0 mm 0,0 km/h (0 Bft) O-SO 109 ° 0 min 0,000 mm 0,0 UV-I 0 W/m² 3,6 °C 4,3 °C 0,0 km/h (0 Bft)
03.11.2017 18:17 4,3 °C 4,3 °C 95 % 1014,8 hPa 0,0 mm 0,0 km/h (0 Bft) O-SO 109 ° 0 min 0,000 mm 0,0 UV-I 0 W/m² 3,6 °C 4,3 °C 0,0 km/h (0 Bft)
03.11.2017 18:19 4,0 °C 4,3 °C 95 % 1014,8 hPa 0,0 mm 0,0 km/h (0 Bft) O-SO 109 ° 0 min 0,000 mm 0,0 UV-I 0 W/m² 3,3 °C 4,0 °C 0,0 km/h (0 Bft)
03.11.2017 18:20 4,0 °C 4,0 °C 94 % 1014,8 hPa 0,0 mm 0,0 km/h (0 Bft) O-SO 109 ° 0 min 0,000 mm 0,0 UV-I 0 W/m² 3,1 °C 4,0 °C 0,0 km/h (0 Bft)
03.11.2017 18:21 4,0 °C 4,0 °C 94 % 1014,7 hPa 0,0 mm 0,0 km/h (0 Bft) O-SO 109 ° 0 min 0,000 mm 0,0 UV-I 0 W/m² 3,1 °C 4,0 °C 0,0 km/h (0 Bft)
03.11.2017 18:22 4,0 °C 4,0 °C 95 % 1014,8 hPa 0,0 mm 0,0 km/h (0 Bft) O-SO 109 ° 0 min 0,000 mm 0,0 UV-I 0 W/m² 3,3 °C 4,0 °C 0,0 km/h (0 Bft)
03.11.2017 18:23 4,1 °C 4,1 °C 95 % 1014,8 hPa 0,0 mm 0,0 km/h (0 Bft) O-SO 109 ° 0 min 0,000 mm 0,0 UV-I 0 W/m² 3,4 °C 4,1 °C 0,0 km/h (0 Bft)
03.11.2017 18:24 4,2 °C 4,2 °C 95 % 1014,8 hPa 0,0 mm 0,0 km/h (0 Bft) O-SO 109 ° 0 min 0,000 mm 0,0 UV-I 0 W/m² 3,5 °C 4,2 °C 0,0 km/h (0 Bft)
03.11.2017 18:25 4,3 °C 4,3 °C 95 % 1014,8 hPa 0,0 mm 0,0 km/h (0 Bft) O-SO 109 ° 0 min 0,000 mm 0,0 UV-I 0 W/m² 3,6 °C 4,3 °C 0,0 km/h (0 Bft)
03.11.2017 18:26 4,6 °C 4,6 °C 95 % 1014,8 hPa 0,0 mm 0,0 km/h (0 Bft) O-SO 109 ° 0 min 0,000 mm 0,0 UV-I 0 W/m² 3,9 °C 4,6 °C 0,0 km/h (0 Bft)
03.11.2017 18:27 4,5 °C 4,6 °C 95 % 1014,7 hPa 0,0 mm 0,0 km/h (0 Bft) O-SO 109 ° 0 min 0,000 mm 0,0 UV-I 0 W/m² 3,8 °C 4,5 °C 0,0 km/h (0 Bft)
03.11.2017 18:29 4,0 °C 4,5 °C 95 % 1014,8 hPa 0,0 mm 0,0 km/h (0 Bft) O-SO 109 ° 0 min 0,000 mm 0,0 UV-I 0 W/m² 3,3 °C 4,0 °C 0,0 km/h (0 Bft)
03.11.2017 18:30 3,9 °C 4,0 °C 94 % 1014,8 hPa 0,0 mm 0,0 km/h (0 Bft) O-SO 109 ° 0 min 0,000 mm 0,0 UV-I 0 W/m² 3,0 °C 3,9 °C 0,0 km/h (0 Bft)
03.11.2017 18:31 3,9 °C 3,9 °C 94 % 1014,8 hPa 0,0 mm 0,0 km/h (0 Bft) O-SO 109 ° 0 min 0,000 mm 0,0 UV-I 0 W/m² 3,0 °C 3,9 °C 0,0 km/h (0 Bft)
03.11.2017 18:32 4,0 °C 4,0 °C 94 % 1014,7 hPa 0,0 mm 0,0 km/h (0 Bft) O-SO 109 ° 0 min 0,000 mm 0,0 UV-I 0 W/m² 3,1 °C 4,0 °C 0,0 km/h (0 Bft)
03.11.2017 18:33 3,9 °C 4,1 °C 95 % 1014,7 hPa 0,0 mm 0,0 km/h (0 Bft) O-SO 109 ° 0 min 0,000 mm 0,0 UV-I 0 W/m² 3,2 °C 3,9 °C 0,0 km/h (0 Bft)
03.11.2017 18:34 3,9 °C 4,0 °C 95 % 1014,7 hPa 0,0 mm 0,0 km/h (0 Bft) O-SO 109 ° 0 min 0,000 mm 0,0 UV-I 0 W/m² 3,2 °C 3,9 °C 0,0 km/h (0 Bft)
03.11.2017 18:35 3,8 °C 3,9 °C 95 % 1014,7 hPa 0,0 mm 0,0 km/h (0 Bft) O-SO 109 ° 0 min 0,000 mm 0,0 UV-I 0 W/m² 3,1 °C 3,8 °C 0,0 km/h (0 Bft)
03.11.2017 18:36 3,8 °C 3,8 °C 94 % 1014,7 hPa 0,0 mm 0,0 km/h (0 Bft) O-SO 109 ° 0 min 0,000 mm 0,0 UV-I 0 W/m² 2,9 °C 3,8 °C 0,0 km/h (0 Bft)
03.11.2017 18:37 3,7 °C 3,8 °C 94 % 1014,7 hPa 0,0 mm 0,0 km/h (0 Bft) O-SO 109 ° 0 min 0,000 mm 0,0 UV-I 0 W/m² 2,8 °C 3,7 °C 0,0 km/h (0 Bft)
03.11.2017 18:38 3,6 °C 3,7 °C 94 % 1014,7 hPa 0,0 mm 0,0 km/h (0 Bft) O-SO 109 ° 0 min 0,000 mm 0,0 UV-I 0 W/m² 2,7 °C 3,6 °C 0,0 km/h (0 Bft)
03.11.2017 18:39 3,7 °C 3,7 °C 95 % 1014,7 hPa 0,0 mm 0,0 km/h (0 Bft) O-SO 109 ° 0 min 0,000 mm 0,0 UV-I 0 W/m² 3,0 °C 3,7 °C 0,0 km/h (0 Bft)
03.11.2017 18:40 3,7 °C 3,7 °C 95 % 1014,7 hPa 0,0 mm 0,0 km/h (0 Bft) O-SO 109 ° 0 min 0,000 mm 0,0 UV-I 0 W/m² 3,0 °C 3,7 °C 0,0 km/h (0 Bft)
03.11.2017 18:41 3,8 °C 3,8 °C 95 % 1014,7 hPa 0,0 mm 0,0 km/h (0 Bft) O-SO 109 ° 0 min 0,000 mm 0,0 UV-I 0 W/m² 3,1 °C 3,8 °C 0,0 km/h (0 Bft)
03.11.2017 18:42 3,7 °C 3,8 °C 95 % 1014,7 hPa 0,0 mm 0,0 km/h (0 Bft) O-SO 109 ° 0 min 0,000 mm 0,0 UV-I 0 W/m² 3,0 °C 3,7 °C 0,0 km/h (0 Bft)
03.11.2017 18:43 3,7 °C 3,7 °C 95 % 1014,7 hPa 0,0 mm 0,0 km/h (0 Bft) O-SO 109 ° 0 min 0,000 mm 0,0 UV-I 0 W/m² 3,0 °C 3,7 °C 0,0 km/h (0 Bft)
03.11.2017 18:44 3,6 °C 3,7 °C 95 % 1014,7 hPa 0,0 mm 0,0 km/h (0 Bft) O-SO 109 ° 0 min 0,000 mm 0,0 UV-I 0 W/m² 2,9 °C 3,6 °C 0,0 km/h (0 Bft)
03.11.2017 18:45 3,6 °C 3,6 °C 95 % 1014,7 hPa 0,0 mm 0,0 km/h (0 Bft) O-SO 109 ° 0 min 0,000 mm 0,0 UV-I 0 W/m² 2,9 °C 3,6 °C 0,0 km/h (0 Bft)
03.11.2017 18:46 3,6 °C 3,6 °C 95 % 1014,7 hPa 0,0 mm 0,0 km/h (0 Bft) O-SO 109 ° 0 min 0,000 mm 0,0 UV-I 0 W/m² 2,9 °C 3,6 °C 0,0 km/h (0 Bft)
03.11.2017 18:47 3,6 °C 3,6 °C 95 % 1014,7 hPa 0,0 mm 0,0 km/h (0 Bft) O-SO 109 ° 0 min 0,000 mm 0,0 UV-I 0 W/m² 2,9 °C 3,6 °C 0,0 km/h (0 Bft)
03.11.2017 18:48 3,6 °C 3,6 °C 95 % 1014,7 hPa 0,0 mm 0,0 km/h (0 Bft) O-SO 109 ° 0 min 0,000 mm 0,0 UV-I 0 W/m² 2,9 °C 3,6 °C 0,0 km/h (0 Bft)
03.11.2017 18:49 3,6 °C 3,6 °C 95 % 1014,7 hPa 0,0 mm 0,0 km/h (0 Bft) O-SO 109 ° 0 min 0,000 mm 0,0 UV-I 0 W/m² 2,9 °C 3,6 °C 0,0 km/h (0 Bft)
03.11.2017 18:50 3,6 °C 3,6 °C 95 % 1014,6 hPa 0,0 mm 0,0 km/h (0 Bft) O-SO 109 ° 0 min 0,000 mm 0,0 UV-I 0 W/m² 2,9 °C 3,6 °C 0,0 km/h (0 Bft)
03.11.2017 18:51 3,5 °C 3,6 °C 95 % 1014,6 hPa 0,0 mm 0,0 km/h (0 Bft) O-SO 109 ° 0 min 0,000 mm 0,0 UV-I 0 W/m² 2,8 °C 3,5 °C 0,0 km/h (0 Bft)
03.11.2017 18:52 3,4 °C 3,5 °C 95 % 1014,6 hPa 0,0 mm 0,0 km/h (0 Bft) O-SO 109 ° 0 min 0,000 mm 0,0 UV-I 0 W/m² 2,7 °C 3,4 °C 0,0 km/h (0 Bft)
03.11.2017 18:53 3,4 °C 3,4 °C 94 % 1014,6 hPa 0,0 mm 0,0 km/h (0 Bft) O-SO 109 ° 0 min 0,000 mm 0,0 UV-I 0 W/m² 2,5 °C 3,4 °C 0,0 km/h (0 Bft)
03.11.2017 18:54 3,3 °C 3,4 °C 95 % 1014,6 hPa 0,0 mm 0,0 km/h (0 Bft) O-SO 109 ° 0 min 0,000 mm 0,0 UV-I 0 W/m² 2,6 °C 3,3 °C 0,0 km/h (0 Bft)
03.11.2017 18:55 3,4 °C 3,4 °C 95 % 1014,6 hPa 0,0 mm 0,0 km/h (0 Bft) O-SO 109 ° 0 min 0,000 mm 0,0 UV-I 0 W/m² 2,7 °C 3,4 °C 0,0 km/h (0 Bft)
03.11.2017 18:56 3,6 °C 3,6 °C 95 % 1014,6 hPa 0,0 mm 0,0 km/h (0 Bft) O-SO 109 ° 0 min 0,000 mm 0,0 UV-I 0 W/m² 2,9 °C 3,6 °C 0,0 km/h (0 Bft)
03.11.2017 18:57 3,6 °C 3,6 °C 95 % 1014,6 hPa 0,0 mm 0,0 km/h (0 Bft) O-SO 109 ° 0 min 0,000 mm 0,0 UV-I 0 W/m² 2,9 °C 3,6 °C 0,0 km/h (0 Bft)
03.11.2017 18:58 3,7 °C 3,7 °C 95 % 1014,5 hPa 0,0 mm 0,0 km/h (0 Bft) O-SO 109 ° 0 min 0,000 mm 0,0 UV-I 0 W/m² 3,0 °C 3,7 °C 0,0 km/h (0 Bft)
03.11.2017 18:59 3,8 °C 3,8 °C 95 % 1014,5 hPa 0,0 mm 0,0 km/h (0 Bft) O-SO 109 ° 0 min 0,000 mm 0,0 UV-I 0 W/m² 3,1 °C 3,8 °C 0,0 km/h (0 Bft)
03.11.2017 19:00 3,7 °C 3,8 °C 95 % 1014,5 hPa 0,0 mm 0,0 km/h (0 Bft) O-SO 109 ° 0 min 0,000 mm 0,0 UV-I 0 W/m² 3,0 °C 3,7 °C 0,0 km/h (0 Bft)
03.11.2017 19:01 3,6 °C 3,7 °C 95 % 1014,5 hPa 0,0 mm 0,0 km/h (0 Bft) O-SO 109 ° 0 min 0,000 mm 0,0 UV-I 0 W/m² 2,9 °C 3,6 °C 0,0 km/h (0 Bft)
03.11.2017 19:02 3,5 °C 3,6 °C 95 % 1014,5 hPa 0,0 mm 0,0 km/h (0 Bft) O-SO 109 ° 0 min 0,000 mm 0,0 UV-I 0 W/m² 2,8 °C 3,5 °C 0,0 km/h (0 Bft)
03.11.2017 19:03 3,3 °C 3,5 °C 94 % 1014,5 hPa 0,0 mm 0,0 km/h (0 Bft) O-SO 109 ° 0 min 0,000 mm 0,0 UV-I 0 W/m² 2,4 °C 3,3 °C 0,0 km/h (0 Bft)
03.11.2017 19:04 3,3 °C 3,3 °C 94 % 1014,5 hPa 0,0 mm 0,0 km/h (0 Bft) O-SO 109 ° 0 min 0,000 mm 0,0 UV-I 0 W/m² 2,4 °C 3,3 °C 0,0 km/h (0 Bft)
03.11.2017 19:05 3,2 °C 3,3 °C 95 % 1014,5 hPa 0,0 mm 0,0 km/h (0 Bft) O-SO 109 ° 0 min 0,000 mm 0,0 UV-I 0 W/m² 2,5 °C 3,2 °C 0,0 km/h (0 Bft)
03.11.2017 19:06 3,1 °C 3,2 °C 95 % 1014,5 hPa 0,0 mm 0,0 km/h (0 Bft) O-SO 109 ° 0 min 0,000 mm 0,0 UV-I 0 W/m² 2,4 °C 3,1 °C 0,0 km/h (0 Bft)
03.11.2017 19:07 2,9 °C 3,1 °C 94 % 1014,5 hPa 0,0 mm 0,0 km/h (0 Bft) O-SO 109 ° 0 min 0,000 mm 0,0 UV-I 0 W/m² 2,0 °C 2,9 °C 0,0 km/h (0 Bft)
03.11.2017 19:08 2,9 °C 2,9 °C 94 % 1014,5 hPa 0,0 mm 0,0 km/h (0 Bft) O-SO 109 ° 0 min 0,000 mm 0,0 UV-I 0 W/m² 2,0 °C 2,9 °C 0,0 km/h (0 Bft)
03.11.2017 19:09 2,9 °C 2,9 °C 95 % 1014,5 hPa 0,0 mm 0,0 km/h (0 Bft) O-SO 109 ° 0 min 0,000 mm 0,0 UV-I 0 W/m² 2,2 °C 2,9 °C 0,0 km/h (0 Bft)
03.11.2017 19:10 2,9 °C 2,9 °C 95 % 1014,5 hPa 0,0 mm 0,0 km/h (0 Bft) O-SO 109 ° 0 min 0,000 mm 0,0 UV-I 0 W/m² 2,2 °C 2,9 °C 0,0 km/h (0 Bft)
03.11.2017 19:11 2,9 °C 2,9 °C 95 % 1014,4 hPa 0,0 mm 0,0 km/h (0 Bft) O-SO 109 ° 0 min 0,000 mm 0,0 UV-I 0 W/m² 2,2 °C 2,9 °C 0,0 km/h (0 Bft)
03.11.2017 19:12 2,9 °C 2,9 °C 95 % 1014,4 hPa 0,0 mm 0,0 km/h (0 Bft) O-SO 109 ° 0 min 0,000 mm 0,0 UV-I 0 W/m² 2,2 °C 2,9 °C 0,0 km/h (0 Bft)
03.11.2017 19:13 2,9 °C 2,9 °C 95 % 1014,4 hPa 0,0 mm 0,0 km/h (0 Bft) O-SO 109 ° 0 min 0,000 mm 0,0 UV-I 0 W/m² 2,2 °C 2,9 °C 0,0 km/h (0 Bft)
03.11.2017 19:14 3,0 °C 3,0 °C 95 % 1014,4 hPa 0,0 mm 0,0 km/h (0 Bft) O-SO 109 ° 0 min 0,000 mm 0,0 UV-I 0 W/m² 2,3 °C 3,0 °C 0,0 km/h (0 Bft)
03.11.2017 19:15 3,0 °C 3,0 °C 95 % 1014,4 hPa 0,0 mm 0,0 km/h (0 Bft) O-SO 109 ° 0 min 0,000 mm 0,0 UV-I 0 W/m² 2,3 °C 3,0 °C 0,0 km/h (0 Bft)
03.11.2017 19:16 3,0 °C 3,0 °C 95 % 1014,5 hPa 0,0 mm 0,0 km/h (0 Bft) O-SO 109 ° 0 min 0,000 mm 0,0 UV-I 0 W/m² 2,3 °C 3,0 °C 0,0 km/h (0 Bft)
03.11.2017 19:17 3,0 °C 3,0 °C 95 % 1014,5 hPa 0,0 mm 0,0 km/h (0 Bft) O-SO 109 ° 0 min 0,000 mm 0,0 UV-I 0 W/m² 2,3 °C 3,0 °C 0,0 km/h (0 Bft)
03.11.2017 19:18 3,0 °C 3,0 °C 95 % 1014,5 hPa 0,0 mm 0,0 km/h (0 Bft) O-SO 109 ° 0 min 0,000 mm 0,0 UV-I 0 W/m² 2,3 °C 3,0 °C 0,0 km/h (0 Bft)
03.11.2017 19:19 3,1 °C 3,1 °C 95 % 1014,5 hPa 0,0 mm 0,0 km/h (0 Bft) O-SO 109 ° 0 min 0,000 mm 0,0 UV-I 0 W/m² 2,4 °C 3,1 °C 0,0 km/h (0 Bft)
03.11.2017 19:20 3,2 °C 3,2 °C 95 % 1014,5 hPa 0,0 mm 0,0 km/h (0 Bft) O-SO 109 ° 0 min 0,000 mm 0,0 UV-I 0 W/m² 2,5 °C 3,2 °C 0,0 km/h (0 Bft)
03.11.2017 19:21 3,2 °C 3,2 °C 95 % 1014,5 hPa 0,0 mm 0,0 km/h (0 Bft) O-SO 109 ° 0 min 0,000 mm 0,0 UV-I 0 W/m² 2,5 °C 3,2 °C 0,0 km/h (0 Bft)
03.11.2017 19:22 3,2 °C 3,2 °C 95 % 1014,5 hPa 0,0 mm 0,0 km/h (0 Bft) O-SO 109 ° 0 min 0,000 mm 0,0 UV-I 0 W/m² 2,5 °C 3,2 °C 0,0 km/h (0 Bft)
03.11.2017 19:23 3,3 °C 3,3 °C 95 % 1014,5 hPa 0,0 mm 0,0 km/h (0 Bft) O-SO 109 ° 0 min 0,000 mm 0,0 UV-I 0 W/m² 2,6 °C 3,3 °C 0,0 km/h (0 Bft)
03.11.2017 19:24 3,3 °C 3,3 °C 95 % 1014,5 hPa 0,0 mm 0,0 km/h (0 Bft) O-SO 109 ° 0 min 0,000 mm 0,0 UV-I 0 W/m² 2,6 °C 3,3 °C 0,0 km/h (0 Bft)
03.11.2017 19:25 3,2 °C 3,3 °C 95 % 1014,4 hPa 0,0 mm 0,0 km/h (0 Bft) O-SO 109 ° 0 min 0,000 mm 0,0 UV-I 0 W/m² 2,5 °C 3,2 °C 0,0 km/h (0 Bft)
03.11.2017 19:26 3,3 °C 3,3 °C 95 % 1014,4 hPa 0,0 mm 0,0 km/h (0 Bft) O-SO 109 ° 0 min 0,000 mm 0,0 UV-I 0 W/m² 2,6 °C 3,3 °C 0,0 km/h (0 Bft)
03.11.2017 19:27 3,3 °C 3,3 °C 95 % 1014,4 hPa 0,0 mm 0,0 km/h (0 Bft) O-SO 109 ° 0 min 0,000 mm 0,0 UV-I 0 W/m² 2,6 °C 3,3 °C 0,0 km/h (0 Bft)
03.11.2017 19:28 3,3 °C 3,3 °C 95 % 1014,4 hPa 0,0 mm 0,0 km/h (0 Bft) O-SO 109 ° 0 min 0,000 mm 0,0 UV-I 0 W/m² 2,6 °C 3,3 °C 0,0 km/h (0 Bft)
03.11.2017 19:29 3,3 °C 3,3 °C 95 % 1014,4 hPa 0,0 mm 0,0 km/h (0 Bft) O-SO 109 ° 0 min 0,000 mm 0,0 UV-I 0 W/m² 2,6 °C 3,3 °C 0,0 km/h (0 Bft)
03.11.2017 19:30 3,2 °C 3,3 °C 95 % 1014,4 hPa 0,0 mm 0,0 km/h (0 Bft) O-SO 109 ° 0 min 0,000 mm 0,0 UV-I 0 W/m² 2,5 °C 3,2 °C 0,0 km/h (0 Bft)
03.11.2017 19:31 3,1 °C 3,2 °C 95 % 1014,4 hPa 0,0 mm 0,0 km/h (0 Bft) O-SO 109 ° 0 min 0,000 mm 0,0 UV-I 0 W/m² 2,4 °C 3,1 °C 0,0 km/h (0 Bft)
03.11.2017 19:32 3,0 °C 3,1 °C 95 % 1014,4 hPa 0,0 mm 0,0 km/h (0 Bft) O-SO 109 ° 0 min 0,000 mm 0,0 UV-I 0 W/m² 2,3 °C 3,0 °C 0,0 km/h (0 Bft)
03.11.2017 19:33 3,0 °C 3,0 °C 95 % 1014,4 hPa 0,0 mm 0,0 km/h (0 Bft) O-SO 109 ° 0 min 0,000 mm 0,0 UV-I 0 W/m² 2,3 °C 3,0 °C 0,0 km/h (0 Bft)
03.11.2017 19:34 3,0 °C 3,0 °C 95 % 1014,4 hPa 0,0 mm 0,0 km/h (0 Bft) O-SO 109 ° 0 min 0,000 mm 0,0 UV-I 0 W/m² 2,3 °C 3,0 °C 0,0 km/h (0 Bft)
03.11.2017 19:35 3,0 °C 3,0 °C 95 % 1014,4 hPa 0,0 mm 0,0 km/h (0 Bft) O-SO 109 ° 0 min 0,000 mm 0,0 UV-I 0 W/m² 2,3 °C 3,0 °C 0,0 km/h (0 Bft)
03.11.2017 19:36 3,1 °C 3,1 °C 95 % 1014,4 hPa 0,0 mm 0,0 km/h (0 Bft) O-SO 109 ° 0 min 0,000 mm 0,0 UV-I 0 W/m² 2,4 °C 3,1 °C 0,0 km/h (0 Bft)
03.11.2017 19:37 3,1 °C 3,1 °C 95 % 1014,3 hPa 0,0 mm 0,0 km/h (0 Bft) O-SO 109 ° 0 min 0,000 mm 0,0 UV-I 0 W/m² 2,4 °C 3,1 °C 0,0 km/h (0 Bft)
03.11.2017 19:38 3,1 °C 3,1 °C 95 % 1014,3 hPa 0,0 mm 0,0 km/h (0 Bft) O-SO 109 ° 0 min 0,000 mm 0,0 UV-I 0 W/m² 2,4 °C 3,1 °C 0,0 km/h (0 Bft)
03.11.2017 19:39 3,1 °C 3,1 °C 95 % 1014,3 hPa 0,0 mm 0,0 km/h (0 Bft) O-SO 109 ° 0 min 0,000 mm 0,0 UV-I 0 W/m² 2,4 °C 3,1 °C 0,0 km/h (0 Bft)
03.11.2017 19:40 3,1 °C 3,1 °C 95 % 1014,3 hPa 0,0 mm 0,0 km/h (0 Bft) O-SO 109 ° 0 min 0,000 mm 0,0 UV-I 0 W/m² 2,4 °C 3,1 °C 0,0 km/h (0 Bft)
03.11.2017 19:41 3,1 °C 3,1 °C 95 % 1014,3 hPa 0,0 mm 0,0 km/h (0 Bft) O-SO 109 ° 0 min 0,000 mm 0,0 UV-I 0 W/m² 2,4 °C 3,1 °C 0,0 km/h (0 Bft)
03.11.2017 19:42 2,9 °C 3,1 °C 95 % 1014,3 hPa 0,0 mm 0,0 km/h (0 Bft) O-SO 109 ° 0 min 0,000 mm 0,0 UV-I 0 W/m² 2,2 °C 2,9 °C 0,0 km/h (0 Bft)
03.11.2017 19:43 2,7 °C 2,9 °C 95 % 1014,3 hPa 0,0 mm 0,0 km/h (0 Bft) O-SO 109 ° 0 min 0,000 mm 0,0 UV-I 0 W/m² 2,0 °C 2,7 °C 0,0 km/h (0 Bft)
03.11.2017 19:44 2,7 °C 2,7 °C 94 % 1014,3 hPa 0,0 mm 0,0 km/h (0 Bft) O-SO 109 ° 0 min 0,000 mm 0,0 UV-I 0 W/m² 1,8 °C 2,7 °C 0,0 km/h (0 Bft)
03.11.2017 19:45 2,6 °C 2,7 °C 95 % 1014,3 hPa 0,0 mm 0,0 km/h (0 Bft) O-SO 109 ° 0 min 0,000 mm 0,0 UV-I 0 W/m² 1,9 °C 2,6 °C 0,0 km/h (0 Bft)
03.11.2017 19:46 2,4 °C 2,6 °C 94 % 1014,3 hPa 0,0 mm 0,0 km/h (0 Bft) O-SO 109 ° 0 min 0,000 mm 0,0 UV-I 0 W/m² 1,5 °C 2,4 °C 0,0 km/h (0 Bft)
03.11.2017 19:47 2,4 °C 2,4 °C 94 % 1014,3 hPa 0,0 mm 0,0 km/h (0 Bft) O-SO 109 ° 0 min 0,000 mm 0,0 UV-I 0 W/m² 1,5 °C 2,4 °C 0,0 km/h (0 Bft)
03.11.2017 19:48 2,4 °C 2,4 °C 95 % 1014,3 hPa 0,0 mm 0,0 km/h (0 Bft) O-SO 109 ° 0 min 0,000 mm 0,0 UV-I 0 W/m² 1,7 °C 2,4 °C 0,0 km/h (0 Bft)
03.11.2017 19:49 2,4 °C 2,4 °C 95 % 1014,3 hPa 0,0 mm 0,0 km/h (0 Bft) O-SO 109 ° 0 min 0,000 mm 0,0 UV-I 0 W/m² 1,7 °C 2,4 °C 0,0 km/h (0 Bft)
03.11.2017 19:50 2,4 °C 2,4 °C 95 % 1014,3 hPa 0,0 mm 0,0 km/h (0 Bft) O-SO 109 ° 0 min 0,000 mm 0,0 UV-I 0 W/m² 1,7 °C 2,4 °C 0,0 km/h (0 Bft)
03.11.2017 19:51 2,4 °C 2,4 °C 95 % 1014,2 hPa 0,0 mm 0,0 km/h (0 Bft) O-SO 109 ° 0 min 0,000 mm 0,0 UV-I 0 W/m² 1,7 °C 2,4 °C 0,0 km/h (0 Bft)
03.11.2017 19:52 2,4 °C 2,4 °C 95 % 1014,2 hPa 0,0 mm 0,0 km/h (0 Bft) O-SO 109 ° 0 min 0,000 mm 0,0 UV-I 0 W/m² 1,7 °C 2,4 °C 0,0 km/h (0 Bft)
03.11.2017 19:53 2,4 °C 2,4 °C 95 % 1014,2 hPa 0,0 mm 0,0 km/h (0 Bft) O-SO 109 ° 0 min 0,000 mm 0,0 UV-I 0 W/m² 1,7 °C 2,4 °C 0,0 km/h (0 Bft)
03.11.2017 19:54 2,4 °C 2,4 °C 95 % 1014,2 hPa 0,0 mm 0,0 km/h (0 Bft) O-SO 109 ° 0 min 0,000 mm 0,0 UV-I 0 W/m² 1,7 °C 2,4 °C 0,0 km/h (0 Bft)
03.11.2017 19:55 2,3 °C 2,4 °C 95 % 1014,2 hPa 0,0 mm 0,0 km/h (0 Bft) O-SO 109 ° 0 min 0,000 mm 0,0 UV-I 0 W/m² 1,6 °C 2,3 °C 0,0 km/h (0 Bft)
03.11.2017 19:56 2,3 °C 2,3 °C 95 % 1014,2 hPa 0,0 mm 0,0 km/h (0 Bft) O-SO 109 ° 0 min 0,000 mm 0,0 UV-I 0 W/m² 1,6 °C 2,3 °C 0,0 km/h (0 Bft)
03.11.2017 19:57 2,3 °C 2,3 °C 95 % 1014,2 hPa 0,0 mm 0,0 km/h (0 Bft) O-SO 109 ° 0 min 0,000 mm 0,0 UV-I 0 W/m² 1,6 °C 2,3 °C 0,0 km/h (0 Bft)
03.11.2017 19:58 2,2 °C 2,3 °C 95 % 1014,2 hPa 0,0 mm 0,0 km/h (0 Bft) O-SO 109 ° 0 min 0,000 mm 0,0 UV-I 0 W/m² 1,5 °C 2,2 °C 0,0 km/h (0 Bft)
03.11.2017 19:59 2,3 °C 2,3 °C 95 % 1014,2 hPa 0,0 mm 0,0 km/h (0 Bft) O-SO 109 ° 0 min 0,000 mm 0,0 UV-I 0 W/m² 1,6 °C 2,3 °C 0,0 km/h (0 Bft)
03.11.2017 20:00 2,3 °C 2,3 °C 95 % 1014,2 hPa 0,0 mm 0,0 km/h (0 Bft) O-SO 109 ° 0 min 0,000 mm 0,0 UV-I 0 W/m² 1,6 °C 2,3 °C 0,0 km/h (0 Bft)
03.11.2017 20:01 2,3 °C 2,3 °C 95 % 1014,2 hPa 0,0 mm 0,0 km/h (0 Bft) O-SO 109 ° 0 min 0,000 mm 0,0 UV-I 0 W/m² 1,6 °C 2,3 °C 0,0 km/h (0 Bft)
03.11.2017 20:02 2,3 °C 2,3 °C 95 % 1014,2 hPa 0,0 mm 0,0 km/h (0 Bft) O-SO 109 ° 0 min 0,000 mm 0,0 UV-I 0 W/m² 1,6 °C 2,3 °C 0,0 km/h (0 Bft)
03.11.2017 20:03 2,3 °C 2,3 °C 95 % 1014,2 hPa 0,0 mm 0,0 km/h (0 Bft) O-SO 109 ° 0 min 0,000 mm 0,0 UV-I 0 W/m² 1,6 °C 2,3 °C 0,0 km/h (0 Bft)
03.11.2017 20:04 2,3 °C 2,4 °C 95 % 1014,2 hPa 0,0 mm 0,0 km/h (0 Bft) O-SO 109 ° 0 min 0,000 mm 0,0 UV-I 0 W/m² 1,6 °C 2,3 °C 0,0 km/h (0 Bft)
03.11.2017 20:05 2,4 °C 2,4 °C 95 % 1014,1 hPa 0,0 mm 0,0 km/h (0 Bft) O-SO 109 ° 0 min 0,000 mm 0,0 UV-I 0 W/m² 1,7 °C 2,4 °C 0,0 km/h (0 Bft)
03.11.2017 20:06 2,4 °C 2,4 °C 95 % 1014,1 hPa 0,0 mm 0,0 km/h (0 Bft) O-SO 109 ° 0 min 0,000 mm 0,0 UV-I 0 W/m² 1,7 °C 2,4 °C 0,0 km/h (0 Bft)
03.11.2017 20:07 2,3 °C 2,4 °C 95 % 1014,1 hPa 0,0 mm 0,0 km/h (0 Bft) O-SO 109 ° 0 min 0,000 mm 0,0 UV-I 0 W/m² 1,6 °C 2,3 °C 0,0 km/h (0 Bft)
03.11.2017 20:09 2,3 °C 2,3 °C 95 % 1014,1 hPa 0,0 mm 0,0 km/h (0 Bft) O-SO 109 ° 0 min 0,000 mm 0,0 UV-I 0 W/m² 1,6 °C 2,3 °C 0,0 km/h (0 Bft)
03.11.2017 20:10 2,3 °C 2,3 °C 95 % 1014,1 hPa 0,0 mm 0,0 km/h (0 Bft) O-SO 109 ° 0 min 0,000 mm 0,0 UV-I 0 W/m² 1,6 °C 2,3 °C 0,0 km/h (0 Bft)
03.11.2017 20:11 2,3 °C 2,3 °C 95 % 1014,2 hPa 0,0 mm 0,0 km/h (0 Bft) O-SO 109 ° 0 min 0,000 mm 0,0 UV-I 0 W/m² 1,6 °C 2,3 °C 0,0 km/h (0 Bft)
03.11.2017 20:12 2,3 °C 2,3 °C 95 % 1014,2 hPa 0,0 mm 0,0 km/h (0 Bft) O-SO 109 ° 0 min 0,000 mm 0,0 UV-I 0 W/m² 1,6 °C 2,3 °C 0,0 km/h (0 Bft)
03.11.2017 20:13 2,3 °C 2,3 °C 95 % 1014,2 hPa 0,0 mm 0,0 km/h (0 Bft) O-SO 109 ° 0 min 0,000 mm 0,0 UV-I 0 W/m² 1,6 °C 2,3 °C 0,0 km/h (0 Bft)
03.11.2017 20:14 2,3 °C 2,3 °C 95 % 1014,2 hPa 0,0 mm 0,0 km/h (0 Bft) O-SO 109 ° 0 min 0,000 mm 0,0 UV-I 0 W/m² 1,6 °C 2,3 °C 0,0 km/h (0 Bft)
03.11.2017 20:15 2,3 °C 2,3 °C 95 % 1014,1 hPa 0,0 mm 0,0 km/h (0 Bft) O-SO 109 ° 0 min 0,000 mm 0,0 UV-I 0 W/m² 1,6 °C 2,3 °C 0,0 km/h (0 Bft)
03.11.2017 20:16 2,3 °C 2,3 °C 95 % 1014,2 hPa 0,0 mm 0,0 km/h (0 Bft) O-SO 109 ° 0 min 0,000 mm 0,0 UV-I 0 W/m² 1,6 °C 2,3 °C 0,0 km/h (0 Bft)
03.11.2017 20:17 2,3 °C 2,3 °C 95 % 1014,1 hPa 0,0 mm 0,0 km/h (0 Bft) O-SO 109 ° 0 min 0,000 mm 0,0 UV-I 0 W/m² 1,6 °C 2,3 °C 0,0 km/h (0 Bft)
03.11.2017 20:18 2,3 °C 2,3 °C 95 % 1014,1 hPa 0,0 mm 0,0 km/h (0 Bft) O-SO 109 ° 0 min 0,000 mm 0,0 UV-I 0 W/m² 1,6 °C 2,3 °C 0,0 km/h (0 Bft)
03.11.2017 20:19 2,4 °C 2,4 °C 95 % 1014,1 hPa 0,0 mm 0,0 km/h (0 Bft) O-SO 109 ° 0 min 0,000 mm 0,0 UV-I 0 W/m² 1,7 °C 2,4 °C 0,0 km/h (0 Bft)
03.11.2017 20:20 2,4 °C 2,4 °C 95 % 1014,1 hPa 0,0 mm 0,0 km/h (0 Bft) O-SO 109 ° 0 min 0,000 mm 0,0 UV-I 0 W/m² 1,7 °C 2,4 °C 0,0 km/h (0 Bft)
03.11.2017 20:21 2,4 °C 2,5 °C 95 % 1014,1 hPa 0,0 mm 0,0 km/h (0 Bft) O-SO 109 ° 0 min 0,000 mm 0,0 UV-I 0 W/m² 1,7 °C 2,4 °C 0,0 km/h (0 Bft)
03.11.2017 20:22 2,6 °C 2,6 °C 95 % 1014,1 hPa 0,0 mm 0,0 km/h (0 Bft) O-SO 109 ° 0 min 0,000 mm 0,0 UV-I 0 W/m² 1,9 °C 2,6 °C 0,0 km/h (0 Bft)
03.11.2017 20:23 2,6 °C 2,6 °C 96 % 1014,1 hPa 0,0 mm 0,0 km/h (0 Bft) O-SO 109 ° 0 min 0,000 mm 0,0 UV-I 0 W/m² 2,0 °C 2,6 °C 0,0 km/h (0 Bft)
03.11.2017 20:24 2,6 °C 2,6 °C 95 % 1014,1 hPa 0,0 mm 0,0 km/h (0 Bft) O-SO 109 ° 0 min 0,000 mm 0,0 UV-I 0 W/m² 1,9 °C 2,6 °C 0,0 km/h (0 Bft)
03.11.2017 20:25 2,5 °C 2,6 °C 95 % 1014,1 hPa 0,0 mm 0,0 km/h (0 Bft) O-SO 109 ° 0 min 0,000 mm 0,0 UV-I 0 W/m² 1,8 °C 2,5 °C 0,0 km/h (0 Bft)
03.11.2017 20:26 2,4 °C 2,5 °C 95 % 1014,1 hPa 0,0 mm 0,0 km/h (0 Bft) O-SO 109 ° 0 min 0,000 mm 0,0 UV-I 0 W/m² 1,7 °C 2,4 °C 0,0 km/h (0 Bft)
03.11.2017 20:27 2,3 °C 2,4 °C 95 % 1014,2 hPa 0,0 mm 0,0 km/h (0 Bft) O-SO 109 ° 0 min 0,000 mm 0,0 UV-I 0 W/m² 1,6 °C 2,3 °C 0,0 km/h (0 Bft)
03.11.2017 20:28 2,3 °C 2,3 °C 95 % 1014,2 hPa 0,0 mm 0,0 km/h (0 Bft) O-SO 109 ° 0 min 0,000 mm 0,0 UV-I 0 W/m² 1,6 °C 2,3 °C 0,0 km/h (0 Bft)
03.11.2017 20:29 2,2 °C 2,3 °C 95 % 1014,2 hPa 0,0 mm 0,0 km/h (0 Bft) O-SO 109 ° 0 min 0,000 mm 0,0 UV-I 0 W/m² 1,5 °C 2,2 °C 0,0 km/h (0 Bft)
03.11.2017 20:30 2,2 °C 2,2 °C 95 % 1014,2 hPa 0,0 mm 0,0 km/h (0 Bft) O-SO 109 ° 0 min 0,000 mm 0,0 UV-I 0 W/m² 1,5 °C 2,2 °C 0,0 km/h (0 Bft)
03.11.2017 20:31 2,2 °C 2,2 °C 95 % 1014,2 hPa 0,0 mm 0,0 km/h (0 Bft) O-SO 109 ° 0 min 0,000 mm 0,0 UV-I 0 W/m² 1,5 °C 2,2 °C 0,0 km/h (0 Bft)
03.11.2017 20:32 2,3 °C 2,3 °C 95 % 1014,1 hPa 0,0 mm 0,0 km/h (0 Bft) O-SO 109 ° 0 min 0,000 mm 0,0 UV-I 0 W/m² 1,6 °C 2,3 °C 0,0 km/h (0 Bft)
03.11.2017 20:33 2,3 °C 2,3 °C 95 % 1014,1 hPa 0,0 mm 0,0 km/h (0 Bft) O-SO 109 ° 0 min 0,000 mm 0,0 UV-I 0 W/m² 1,6 °C 2,3 °C 0,0 km/h (0 Bft)
03.11.2017 20:34 2,4 °C 2,4 °C 95 % 1014,2 hPa 0,0 mm 0,0 km/h (0 Bft) O-SO 109 ° 0 min 0,000 mm 0,0 UV-I 0 W/m² 1,7 °C 2,4 °C 0,0 km/h (0 Bft)
03.11.2017 20:35 2,4 °C 2,4 °C 95 % 1014,2 hPa 0,0 mm 0,0 km/h (0 Bft) O-SO 109 ° 0 min 0,000 mm 0,0 UV-I 0 W/m² 1,7 °C 2,4 °C 0,0 km/h (0 Bft)
03.11.2017 20:36 2,4 °C 2,4 °C 95 % 1014,1 hPa 0,0 mm 0,0 km/h (0 Bft) O-SO 109 ° 0 min 0,000 mm 0,0 UV-I 0 W/m² 1,7 °C 2,4 °C 0,0 km/h (0 Bft)
03.11.2017 20:37 2,3 °C 2,4 °C 95 % 1014,1 hPa 0,0 mm 0,0 km/h (0 Bft) O-SO 109 ° 0 min 0,000 mm 0,0 UV-I 0 W/m² 1,6 °C 2,3 °C 0,0 km/h (0 Bft)
03.11.2017 20:38 2,3 °C 2,3 °C 95 % 1014,1 hPa 0,0 mm 0,0 km/h (0 Bft) O-SO 109 ° 0 min 0,000 mm 0,0 UV-I 0 W/m² 1,6 °C 2,3 °C 0,0 km/h (0 Bft)
03.11.2017 20:39 2,2 °C 2,3 °C 95 % 1014,2 hPa 0,0 mm 0,0 km/h (0 Bft) O-SO 109 ° 0 min 0,000 mm 0,0 UV-I 0 W/m² 1,5 °C 2,2 °C 0,0 km/h (0 Bft)
03.11.2017 20:40 2,2 °C 2,3 °C 95 % 1014,2 hPa 0,0 mm 0,0 km/h (0 Bft) O-SO 109 ° 0 min 0,000 mm 0,0 UV-I 0 W/m² 1,5 °C 2,2 °C 0,0 km/h (0 Bft)
03.11.2017 20:41 2,3 °C 2,3 °C 95 % 1014,2 hPa 0,0 mm 0,0 km/h (0 Bft) O-SO 109 ° 0 min 0,000 mm 0,0 UV-I 0 W/m² 1,6 °C 2,3 °C 0,0 km/h (0 Bft)
03.11.2017 20:42 2,3 °C 2,3 °C 95 % 1014,1 hPa 0,0 mm 0,0 km/h (0 Bft) O-SO 109 ° 0 min 0,000 mm 0,0 UV-I 0 W/m² 1,6 °C 2,3 °C 0,0 km/h (0 Bft)
03.11.2017 20:43 2,3 °C 2,3 °C 95 % 1014,2 hPa 0,0 mm 0,0 km/h (0 Bft) O-SO 109 ° 0 min 0,000 mm 0,0 UV-I 0 W/m² 1,6 °C 2,3 °C 0,0 km/h (0 Bft)
03.11.2017 20:44 2,4 °C 2,4 °C 95 % 1014,2 hPa 0,0 mm 0,0 km/h (0 Bft) O-SO 109 ° 0 min 0,000 mm 0,0 UV-I 0 W/m² 1,7 °C 2,4 °C 0,0 km/h (0 Bft)
03.11.2017 20:45 2,4 °C 2,4 °C 95 % 1014,1 hPa 0,0 mm 0,0 km/h (0 Bft) O-SO 109 ° 0 min 0,000 mm 0,0 UV-I 0 W/m² 1,7 °C 2,4 °C 0,0 km/h (0 Bft)
03.11.2017 20:46 2,4 °C 2,4 °C 95 % 1014,1 hPa 0,0 mm 0,0 km/h (0 Bft) O-SO 109 ° 0 min 0,000 mm 0,0 UV-I 0 W/m² 1,7 °C 2,4 °C 0,0 km/h (0 Bft)
03.11.2017 20:47 2,4 °C 2,4 °C 96 % 1014,1 hPa 0,0 mm 0,0 km/h (0 Bft) O-SO 109 ° 0 min 0,000 mm 0,0 UV-I 0 W/m² 1,8 °C 2,4 °C 0,0 km/h (0 Bft)
03.11.2017 20:48 2,3 °C 2,4 °C 95 % 1014,1 hPa 0,0 mm 0,0 km/h (0 Bft) O-SO 109 ° 0 min 0,000 mm 0,0 UV-I 0 W/m² 1,6 °C 2,3 °C 0,0 km/h (0 Bft)
03.11.2017 20:49 2,3 °C 2,3 °C 95 % 1014,1 hPa 0,0 mm 0,0 km/h (0 Bft) O-SO 109 ° 0 min 0,000 mm 0,0 UV-I 0 W/m² 1,6 °C 2,3 °C 0,0 km/h (0 Bft)
03.11.2017 20:50 2,2 °C 2,3 °C 95 % 1014,1 hPa 0,0 mm 0,0 km/h (0 Bft) O-SO 109 ° 0 min 0,000 mm 0,0 UV-I 0 W/m² 1,5 °C 2,2 °C 0,0 km/h (0 Bft)
03.11.2017 20:51 2,1 °C 2,2 °C 95 % 1014,1 hPa 0,0 mm 0,0 km/h (0 Bft) O-SO 109 ° 0 min 0,000 mm 0,0 UV-I 0 W/m² 1,4 °C 2,1 °C 0,0 km/h (0 Bft)
03.11.2017 20:52 2,0 °C 2,1 °C 95 % 1014,0 hPa 0,0 mm 0,0 km/h (0 Bft) O-SO 109 ° 0 min 0,000 mm 0,0 UV-I 0 W/m² 1,3 °C 2,0 °C 0,0 km/h (0 Bft)
03.11.2017 20:53 2,0 °C 2,0 °C 95 % 1014,0 hPa 0,0 mm 0,0 km/h (0 Bft) O-SO 109 ° 0 min 0,000 mm 0,0 UV-I 0 W/m² 1,3 °C 2,0 °C 0,0 km/h (0 Bft)
03.11.2017 20:54 1,9 °C 2,0 °C 95 % 1014,1 hPa 0,0 mm 0,0 km/h (0 Bft) O-SO 109 ° 0 min 0,000 mm 0,0 UV-I 0 W/m² 1,2 °C 1,9 °C 0,0 km/h (0 Bft)
03.11.2017 20:55 1,9 °C 1,9 °C 95 % 1014,1 hPa 0,0 mm 0,0 km/h (0 Bft) O-SO 109 ° 0 min 0,000 mm 0,0 UV-I 0 W/m² 1,2 °C 1,9 °C 0,0 km/h (0 Bft)
03.11.2017 20:56 1,9 °C 1,9 °C 95 % 1014,1 hPa 0,0 mm 0,0 km/h (0 Bft) O-SO 109 ° 0 min 0,000 mm 0,0 UV-I 0 W/m² 1,2 °C 1,9 °C 0,0 km/h (0 Bft)
03.11.2017 20:57 1,8 °C 1,9 °C 95 % 1014,1 hPa 0,0 mm 0,0 km/h (0 Bft) O-SO 109 ° 0 min 0,000 mm 0,0 UV-I 0 W/m² 1,1 °C 1,8 °C 0,0 km/h (0 Bft)
03.11.2017 20:58 1,8 °C 1,8 °C 95 % 1014,1 hPa 0,0 mm 0,0 km/h (0 Bft) O-SO 109 ° 0 min 0,000 mm 0,0 UV-I 0 W/m² 1,1 °C 1,8 °C 0,0 km/h (0 Bft)
03.11.2017 20:59 1,8 °C 1,8 °C 95 % 1014,1 hPa 0,0 mm 0,0 km/h (0 Bft) O-SO 109 ° 0 min 0,000 mm 0,0 UV-I 0 W/m² 1,1 °C 1,8 °C 0,0 km/h (0 Bft)
03.11.2017 21:00 1,8 °C 1,8 °C 95 % 1014,1 hPa 0,0 mm 0,0 km/h (0 Bft) O-SO 109 ° 0 min 0,000 mm 0,0 UV-I 0 W/m² 1,1 °C 1,8 °C 0,0 km/h (0 Bft)
03.11.2017 21:01 1,8 °C 1,8 °C 95 % 1014,1 hPa 0,0 mm 0,0 km/h (0 Bft) O-SO 109 ° 0 min 0,000 mm 0,0 UV-I 0 W/m² 1,1 °C 1,8 °C 0,0 km/h (0 Bft)
03.11.2017 21:02 1,8 °C 1,8 °C 95 % 1014,1 hPa 0,0 mm 0,0 km/h (0 Bft) O-SO 109 ° 0 min 0,000 mm 0,0 UV-I 0 W/m² 1,1 °C 1,8 °C 0,0 km/h (0 Bft)
03.11.2017 21:03 1,8 °C 1,8 °C 95 % 1014,1 hPa 0,0 mm 0,0 km/h (0 Bft) O-SO 109 ° 0 min 0,000 mm 0,0 UV-I 0 W/m² 1,1 °C 1,8 °C 0,0 km/h (0 Bft)
03.11.2017 21:04 1,8 °C 1,8 °C 95 % 1014,1 hPa 0,0 mm 0,0 km/h (0 Bft) O-SO 109 ° 0 min 0,000 mm 0,0 UV-I 0 W/m² 1,1 °C 1,8 °C 0,0 km/h (0 Bft)
03.11.2017 21:05 1,8 °C 1,8 °C 95 % 1014,1 hPa 0,0 mm 0,0 km/h (0 Bft) O-SO 109 ° 0 min 0,000 mm 0,0 UV-I 0 W/m² 1,1 °C 1,8 °C 0,0 km/h (0 Bft)
03.11.2017 21:06 1,8 °C 1,9 °C 95 % 1014,1 hPa 0,0 mm 0,0 km/h (0 Bft) O-SO 109 ° 0 min 0,000 mm 0,0 UV-I 0 W/m² 1,1 °C 1,8 °C 0,0 km/h (0 Bft)
03.11.2017 21:07 1,8 °C 1,8 °C 95 % 1014,1 hPa 0,0 mm 0,0 km/h (0 Bft) O-SO 109 ° 0 min 0,000 mm 0,0 UV-I 0 W/m² 1,1 °C 1,8 °C 0,0 km/h (0 Bft)
03.11.2017 21:08 1,7 °C 1,8 °C 95 % 1014,1 hPa 0,0 mm 0,0 km/h (0 Bft) O-SO 109 ° 0 min 0,000 mm 0,0 UV-I 0 W/m² 1,0 °C 1,7 °C 0,0 km/h (0 Bft)
03.11.2017 21:09 1,7 °C 1,7 °C 95 % 1014,1 hPa 0,0 mm 0,0 km/h (0 Bft) O-SO 109 ° 0 min 0,000 mm 0,0 UV-I 0 W/m² 1,0 °C 1,7 °C 0,0 km/h (0 Bft)
03.11.2017 21:10 1,6 °C 1,7 °C 95 % 1014,1 hPa 0,0 mm 0,0 km/h (0 Bft) O-SO 109 ° 0 min 0,000 mm 0,0 UV-I 0 W/m² 0,9 °C 1,6 °C 0,0 km/h (0 Bft)
03.11.2017 21:11 1,4 °C 1,6 °C 95 % 1014,2 hPa 0,0 mm 0,0 km/h (0 Bft) O-SO 109 ° 0 min 0,000 mm 0,0 UV-I 0 W/m² 0,7 °C 1,4 °C 0,0 km/h (0 Bft)
03.11.2017 21:12 1,4 °C 1,4 °C 95 % 1014,2 hPa 0,0 mm 0,0 km/h (0 Bft) O-SO 109 ° 0 min 0,000 mm 0,0 UV-I 0 W/m² 0,7 °C 1,4 °C 0,0 km/h (0 Bft)
03.11.2017 21:13 1,4 °C 1,4 °C 95 % 1014,1 hPa 0,0 mm 0,0 km/h (0 Bft) O-SO 109 ° 0 min 0,000 mm 0,0 UV-I 0 W/m² 0,7 °C 1,4 °C 0,0 km/h (0 Bft)
03.11.2017 21:14 1,4 °C 1,4 °C 95 % 1014,2 hPa 0,0 mm 0,0 km/h (0 Bft) O-SO 109 ° 0 min 0,000 mm 0,0 UV-I 0 W/m² 0,7 °C 1,4 °C 0,0 km/h (0 Bft)
03.11.2017 21:15 1,6 °C 1,6 °C 95 % 1014,1 hPa 0,0 mm 0,0 km/h (0 Bft) O-SO 109 ° 0 min 0,000 mm 0,0 UV-I 0 W/m² 0,9 °C 1,6 °C 0,0 km/h (0 Bft)
03.11.2017 21:16 1,5 °C 1,6 °C 95 % 1014,1 hPa 0,0 mm 0,0 km/h (0 Bft) O-SO 109 ° 0 min 0,000 mm 0,0 UV-I 0 W/m² 0,8 °C 1,5 °C 0,0 km/h (0 Bft)
03.11.2017 21:17 1,5 °C 1,6 °C 95 % 1014,1 hPa 0,0 mm 0,0 km/h (0 Bft) O-SO 109 ° 0 min 0,000 mm 0,0 UV-I 0 W/m² 0,8 °C 1,5 °C 0,0 km/h (0 Bft)
03.11.2017 21:18 1,4 °C 1,5 °C 95 % 1014,1 hPa 0,0 mm 0,0 km/h (0 Bft) O-SO 109 ° 0 min 0,000 mm 0,0 UV-I 0 W/m² 0,7 °C 1,4 °C 0,0 km/h (0 Bft)
03.11.2017 21:19 1,4 °C 1,5 °C 95 % 1014,1 hPa 0,0 mm 0,0 km/h (0 Bft) O-SO 109 ° 0 min 0,000 mm 0,0 UV-I 0 W/m² 0,7 °C 1,4 °C 0,0 km/h (0 Bft)
03.11.2017 21:20 1,4 °C 1,4 °C 95 % 1014,0 hPa 0,0 mm 0,0 km/h (0 Bft) O-SO 109 ° 0 min 0,000 mm 0,0 UV-I 0 W/m² 0,7 °C 1,4 °C 0,0 km/h (0 Bft)
03.11.2017 21:21 1,5 °C 1,5 °C 95 % 1014,1 hPa 0,0 mm 0,0 km/h (0 Bft) O-SO 109 ° 0 min 0,000 mm 0,0 UV-I 0 W/m² 0,8 °C 1,5 °C 0,0 km/h (0 Bft)
03.11.2017 21:22 1,6 °C 1,6 °C 95 % 1014,1 hPa 0,0 mm 0,0 km/h (0 Bft) O-SO 109 ° 0 min 0,000 mm 0,0 UV-I 0 W/m² 0,9 °C 1,6 °C 0,0 km/h (0 Bft)
03.11.2017 21:23 1,6 °C 1,6 °C 96 % 1014,1 hPa 0,0 mm 0,0 km/h (0 Bft) O-SO 109 ° 0 min 0,000 mm 0,0 UV-I 0 W/m² 1,0 °C 1,6 °C 0,0 km/h (0 Bft)
03.11.2017 21:24 1,6 °C 1,6 °C 96 % 1014,1 hPa 0,0 mm 0,0 km/h (0 Bft) O-SO 109 ° 0 min 0,000 mm 0,0 UV-I 0 W/m² 1,0 °C 1,6 °C 0,0 km/h (0 Bft)
03.11.2017 21:25 1,5 °C 1,6 °C 96 % 1014,1 hPa 0,0 mm 0,0 km/h (0 Bft) O-SO 109 ° 0 min 0,000 mm 0,0 UV-I 0 W/m² 0,9 °C 1,5 °C 0,0 km/h (0 Bft)
03.11.2017 21:26 1,4 °C 1,5 °C 95 % 1014,1 hPa 0,0 mm 0,0 km/h (0 Bft) O-SO 109 ° 0 min 0,000 mm 0,0 UV-I 0 W/m² 0,7 °C 1,4 °C 0,0 km/h (0 Bft)
03.11.2017 21:27 1,2 °C 1,4 °C 95 % 1014,0 hPa 0,0 mm 0,0 km/h (0 Bft) O-SO 109 ° 0 min 0,000 mm 0,0 UV-I 0 W/m² 0,5 °C 1,2 °C 0,0 km/h (0 Bft)
03.11.2017 21:28 1,2 °C 1,2 °C 95 % 1014,0 hPa 0,0 mm 0,0 km/h (0 Bft) O-SO 109 ° 0 min 0,000 mm 0,0 UV-I 0 W/m² 0,5 °C 1,2 °C 0,0 km/h (0 Bft)
03.11.2017 21:29 1,1 °C 1,2 °C 95 % 1014,0 hPa 0,0 mm 0,0 km/h (0 Bft) O-SO 109 ° 0 min 0,000 mm 0,0 UV-I 0 W/m² 0,4 °C 1,1 °C 0,0 km/h (0 Bft)
03.11.2017 21:30 1,1 °C 1,1 °C 95 % 1014,0 hPa 0,0 mm 0,0 km/h (0 Bft) O-SO 109 ° 0 min 0,000 mm 0,0 UV-I 0 W/m² 0,4 °C 1,1 °C 0,0 km/h (0 Bft)
03.11.2017 21:31 1,1 °C 1,1 °C 95 % 1014,0 hPa 0,0 mm 0,0 km/h (0 Bft) O-SO 109 ° 0 min 0,000 mm 0,0 UV-I 0 W/m² 0,4 °C 1,1 °C 0,0 km/h (0 Bft)
03.11.2017 21:32 1,1 °C 1,1 °C 95 % 1014,0 hPa 0,0 mm 0,0 km/h (0 Bft) O-SO 109 ° 0 min 0,000 mm 0,0 UV-I 0 W/m² 0,4 °C 1,1 °C 0,0 km/h (0 Bft)
03.11.2017 21:33 1,2 °C 1,2 °C 95 % 1014,0 hPa 0,0 mm 0,0 km/h (0 Bft) O-SO 109 ° 0 min 0,000 mm 0,0 UV-I 0 W/m² 0,5 °C 1,2 °C 0,0 km/h (0 Bft)
03.11.2017 21:34 1,2 °C 1,2 °C 95 % 1014,0 hPa 0,0 mm 0,0 km/h (0 Bft) O-SO 109 ° 0 min 0,000 mm 0,0 UV-I 0 W/m² 0,5 °C 1,2 °C 0,0 km/h (0 Bft)
03.11.2017 21:35 1,3 °C 1,3 °C 95 % 1014,0 hPa 0,0 mm 0,0 km/h (0 Bft) O-SO 109 ° 0 min 0,000 mm 0,0 UV-I 0 W/m² 0,6 °C 1,3 °C 0,0 km/h (0 Bft)
03.11.2017 21:36 1,4 °C 1,4 °C 95 % 1014,0 hPa 0,0 mm 0,0 km/h (0 Bft) O-SO 109 ° 0 min 0,000 mm 0,0 UV-I 0 W/m² 0,7 °C 1,4 °C 0,0 km/h (0 Bft)
03.11.2017 21:37 1,4 °C 1,4 °C 95 % 1013,9 hPa 0,0 mm 0,0 km/h (0 Bft) O-SO 109 ° 0 min 0,000 mm 0,0 UV-I 0 W/m² 0,7 °C 1,4 °C 0,0 km/h (0 Bft)
03.11.2017 21:38 1,6 °C 1,6 °C 96 % 1013,9 hPa 0,0 mm 0,0 km/h (0 Bft) O-SO 109 ° 0 min 0,000 mm 0,0 UV-I 0 W/m² 1,0 °C 1,6 °C 0,0 km/h (0 Bft)
03.11.2017 21:39 1,4 °C 1,6 °C 96 % 1014,0 hPa 0,0 mm 0,0 km/h (0 Bft) O-SO 109 ° 0 min 0,000 mm 0,0 UV-I 0 W/m² 0,8 °C 1,4 °C 0,0 km/h (0 Bft)
03.11.2017 21:40 1,4 °C 1,4 °C 95 % 1014,0 hPa 0,0 mm 0,0 km/h (0 Bft) O-SO 109 ° 0 min 0,000 mm 0,0 UV-I 0 W/m² 0,7 °C 1,4 °C 0,0 km/h (0 Bft)
03.11.2017 21:41 1,4 °C 1,4 °C 95 % 1014,0 hPa 0,0 mm 0,0 km/h (0 Bft) O-SO 109 ° 0 min 0,000 mm 0,0 UV-I 0 W/m² 0,7 °C 1,4 °C 0,0 km/h (0 Bft)
03.11.2017 21:42 1,3 °C 1,4 °C 95 % 1014,1 hPa 0,0 mm 0,0 km/h (0 Bft) O-SO 109 ° 0 min 0,000 mm 0,0 UV-I 0 W/m² 0,6 °C 1,3 °C 0,0 km/h (0 Bft)
03.11.2017 21:43 1,3 °C 1,3 °C 95 % 1014,0 hPa 0,0 mm 0,0 km/h (0 Bft) O-SO 109 ° 0 min 0,000 mm 0,0 UV-I 0 W/m² 0,6 °C 1,3 °C 0,0 km/h (0 Bft)
03.11.2017 21:44 1,4 °C 1,4 °C 95 % 1014,0 hPa 0,0 mm 0,0 km/h (0 Bft) O-SO 109 ° 0 min 0,000 mm 0,0 UV-I 0 W/m² 0,7 °C 1,4 °C 0,0 km/h (0 Bft)
03.11.2017 21:45 1,5 °C 1,5 °C 96 % 1014,0 hPa 0,0 mm 0,0 km/h (0 Bft) O-SO 109 ° 0 min 0,000 mm 0,0 UV-I 0 W/m² 0,9 °C 1,5 °C 0,0 km/h (0 Bft)
03.11.2017 21:46 1,6 °C 1,6 °C 96 % 1014,0 hPa 0,0 mm 0,0 km/h (0 Bft) O-SO 109 ° 0 min 0,000 mm 0,0 UV-I 0 W/m² 1,0 °C 1,6 °C 0,0 km/h (0 Bft)
03.11.2017 21:47 1,6 °C 1,6 °C 96 % 1014,0 hPa 0,0 mm 0,0 km/h (0 Bft) O-SO 109 ° 0 min 0,000 mm 0,0 UV-I 0 W/m² 1,0 °C 1,6 °C 0,0 km/h (0 Bft)
03.11.2017 21:49 1,4 °C 1,6 °C 95 % 1014,0 hPa 0,0 mm 0,0 km/h (0 Bft) O-SO 109 ° 0 min 0,000 mm 0,0 UV-I 0 W/m² 0,7 °C 1,4 °C 0,0 km/h (0 Bft)
03.11.2017 21:50 1,4 °C 1,4 °C 95 % 1014,0 hPa 0,0 mm 0,0 km/h (0 Bft) O-SO 109 ° 0 min 0,000 mm 0,0 UV-I 0 W/m² 0,7 °C 1,4 °C 0,0 km/h (0 Bft)
03.11.2017 21:51 1,2 °C 1,4 °C 95 % 1014,1 hPa 0,0 mm 0,0 km/h (0 Bft) O-SO 109 ° 0 min 0,000 mm 0,0 UV-I 0 W/m² 0,5 °C 1,2 °C 0,0 km/h (0 Bft)
03.11.2017 21:52 1,1 °C 1,2 °C 95 % 1014,1 hPa 0,0 mm 0,0 km/h (0 Bft) O-SO 109 ° 0 min 0,000 mm 0,0 UV-I 0 W/m² 0,4 °C 1,1 °C 0,0 km/h (0 Bft)
03.11.2017 21:53 1,0 °C 1,1 °C 95 % 1014,1 hPa 0,0 mm 0,0 km/h (0 Bft) O-SO 109 ° 0 min 0,000 mm 0,0 UV-I 0 W/m² 0,3 °C 1,0 °C 0,0 km/h (0 Bft)
03.11.2017 21:54 0,9 °C 1,0 °C 95 % 1014,1 hPa 0,0 mm 0,0 km/h (0 Bft) O-SO 109 ° 0 min 0,000 mm 0,0 UV-I 0 W/m² 0,2 °C 0,9 °C 0,0 km/h (0 Bft)
03.11.2017 21:55 0,9 °C 0,9 °C 95 % 1014,1 hPa 0,0 mm 0,0 km/h (0 Bft) O-SO 109 ° 0 min 0,000 mm 0,0 UV-I 0 W/m² 0,2 °C 0,9 °C 0,0 km/h (0 Bft)
03.11.2017 21:56 1,0 °C 1,0 °C 95 % 1014,1 hPa 0,0 mm 0,0 km/h (0 Bft) O-SO 109 ° 0 min 0,000 mm 0,0 UV-I 0 W/m² 0,3 °C 1,0 °C 0,0 km/h (0 Bft)
03.11.2017 21:57 1,1 °C 1,1 °C 95 % 1014,1 hPa 0,0 mm 0,0 km/h (0 Bft) O-SO 109 ° 0 min 0,000 mm 0,0 UV-I 0 W/m² 0,4 °C 1,1 °C 0,0 km/h (0 Bft)
03.11.2017 21:58 1,1 °C 1,1 °C 95 % 1014,1 hPa 0,0 mm 0,0 km/h (0 Bft) O-SO 109 ° 0 min 0,000 mm 0,0 UV-I 0 W/m² 0,4 °C 1,1 °C 0,0 km/h (0 Bft)
03.11.2017 21:59 1,1 °C 1,1 °C 95 % 1014,0 hPa 0,0 mm 0,0 km/h (0 Bft) O-SO 109 ° 0 min 0,000 mm 0,0 UV-I 0 W/m² 0,4 °C 1,1 °C 0,0 km/h (0 Bft)
03.11.2017 22:00 1,1 °C 1,1 °C 95 % 1014,1 hPa 0,0 mm 0,0 km/h (0 Bft) O-SO 109 ° 0 min 0,000 mm 0,0 UV-I 0 W/m² 0,4 °C 1,1 °C 0,0 km/h (0 Bft)
03.11.2017 22:01 1,1 °C 1,1 °C 95 % 1014,1 hPa 0,0 mm 0,0 km/h (0 Bft) O-SO 109 ° 0 min 0,000 mm 0,0 UV-I 0 W/m² 0,4 °C 1,1 °C 0,0 km/h (0 Bft)
03.11.2017 22:02 1,0 °C 1,1 °C 96 % 1014,1 hPa 0,0 mm 0,0 km/h (0 Bft) O-SO 109 ° 0 min 0,000 mm 0,0 UV-I 0 W/m² 0,4 °C 1,0 °C 0,0 km/h (0 Bft)
03.11.2017 22:03 1,1 °C 1,1 °C 95 % 1014,0 hPa 0,0 mm 0,0 km/h (0 Bft) O-SO 109 ° 0 min 0,000 mm 0,0 UV-I 0 W/m² 0,4 °C 1,1 °C 0,0 km/h (0 Bft)
03.11.2017 22:04 1,1 °C 1,1 °C 95 % 1014,0 hPa 0,0 mm 0,0 km/h (0 Bft) O-SO 109 ° 0 min 0,000 mm 0,0 UV-I 0 W/m² 0,4 °C 1,1 °C 0,0 km/h (0 Bft)
03.11.2017 22:05 1,2 °C 1,2 °C 95 % 1014,0 hPa 0,0 mm 0,0 km/h (0 Bft) O-SO 109 ° 0 min 0,000 mm 0,0 UV-I 0 W/m² 0,5 °C 1,2 °C 0,0 km/h (0 Bft)
03.11.2017 22:06 1,1 °C 1,2 °C 95 % 1014,0 hPa 0,0 mm 0,0 km/h (0 Bft) O-SO 109 ° 0 min 0,000 mm 0,0 UV-I 0 W/m² 0,4 °C 1,1 °C 0,0 km/h (0 Bft)
03.11.2017 22:07 1,1 °C 1,1 °C 95 % 1014,0 hPa 0,0 mm 0,0 km/h (0 Bft) O-SO 109 ° 0 min 0,000 mm 0,0 UV-I 0 W/m² 0,4 °C 1,1 °C 0,0 km/h (0 Bft)
03.11.2017 22:08 1,1 °C 1,1 °C 95 % 1014,0 hPa 0,0 mm 0,0 km/h (0 Bft) O-SO 109 ° 0 min 0,000 mm 0,0 UV-I 0 W/m² 0,4 °C 1,1 °C 0,0 km/h (0 Bft)
03.11.2017 22:09 1,1 °C 1,1 °C 95 % 1014,0 hPa 0,0 mm 0,0 km/h (0 Bft) O-SO 109 ° 0 min 0,000 mm 0,0 UV-I 0 W/m² 0,4 °C 1,1 °C 0,0 km/h (0 Bft)
03.11.2017 22:10 1,1 °C 1,1 °C 95 % 1014,0 hPa 0,0 mm 0,0 km/h (0 Bft) O-SO 109 ° 0 min 0,000 mm 0,0 UV-I 0 W/m² 0,4 °C 1,1 °C 0,0 km/h (0 Bft)
03.11.2017 22:11 1,1 °C 1,1 °C 95 % 1014,0 hPa 0,0 mm 0,0 km/h (0 Bft) O-SO 109 ° 0 min 0,000 mm 0,0 UV-I 0 W/m² 0,4 °C 1,1 °C 0,0 km/h (0 Bft)
03.11.2017 22:12 1,2 °C 1,2 °C 95 % 1014,0 hPa 0,0 mm 0,0 km/h (0 Bft) O-SO 109 ° 0 min 0,000 mm 0,0 UV-I 0 W/m² 0,5 °C 1,2 °C 0,0 km/h (0 Bft)
03.11.2017 22:13 1,3 °C 1,3 °C 96 % 1014,0 hPa 0,0 mm 0,0 km/h (0 Bft) O-SO 109 ° 0 min 0,000 mm 0,0 UV-I 0 W/m² 0,7 °C 1,3 °C 0,0 km/h (0 Bft)
03.11.2017 22:14 1,4 °C 1,4 °C 96 % 1014,0 hPa 0,0 mm 0,0 km/h (0 Bft) O-SO 109 ° 0 min 0,000 mm 0,0 UV-I 0 W/m² 0,8 °C 1,4 °C 0,0 km/h (0 Bft)
03.11.2017 22:15 1,3 °C 1,4 °C 96 % 1014,0 hPa 0,0 mm 0,0 km/h (0 Bft) O-SO 109 ° 0 min 0,000 mm 0,0 UV-I 0 W/m² 0,7 °C 1,3 °C 0,0 km/h (0 Bft)
03.11.2017 22:16 1,3 °C 1,4 °C 96 % 1014,0 hPa 0,0 mm 0,0 km/h (0 Bft) O-SO 109 ° 0 min 0,000 mm 0,0 UV-I 0 W/m² 0,7 °C 1,3 °C 0,0 km/h (0 Bft)
03.11.2017 22:17 1,3 °C 1,3 °C 96 % 1013,9 hPa 0,0 mm 0,0 km/h (0 Bft) O-SO 109 ° 0 min 0,000 mm 0,0 UV-I 0 W/m² 0,7 °C 1,3 °C 0,0 km/h (0 Bft)
03.11.2017 22:18 1,3 °C 1,3 °C 96 % 1014,0 hPa 0,0 mm 0,0 km/h (0 Bft) O-SO 109 ° 0 min 0,000 mm 0,0 UV-I 0 W/m² 0,7 °C 1,3 °C 0,0 km/h (0 Bft)
03.11.2017 22:19 1,3 °C 1,3 °C 96 % 1014,0 hPa 0,0 mm 0,0 km/h (0 Bft) O-SO 109 ° 0 min 0,000 mm 0,0 UV-I 0 W/m² 0,7 °C 1,3 °C 0,0 km/h (0 Bft)
03.11.2017 22:20 1,3 °C 1,3 °C 96 % 1013,9 hPa 0,0 mm 0,0 km/h (0 Bft) O-SO 109 ° 0 min 0,000 mm 0,0 UV-I 0 W/m² 0,7 °C 1,3 °C 0,0 km/h (0 Bft)
03.11.2017 22:21 1,3 °C 1,3 °C 96 % 1013,9 hPa 0,0 mm 0,0 km/h (0 Bft) O-SO 109 ° 0 min 0,000 mm 0,0 UV-I 0 W/m² 0,7 °C 1,3 °C 0,0 km/h (0 Bft)
03.11.2017 22:22 1,3 °C 1,3 °C 96 % 1013,9 hPa 0,0 mm 0,0 km/h (0 Bft) O-SO 109 ° 0 min 0,000 mm 0,0 UV-I 0 W/m² 0,7 °C 1,3 °C 0,0 km/h (0 Bft)
03.11.2017 22:24 1,3 °C 1,3 °C 96 % 1013,9 hPa 0,0 mm 0,0 km/h (0 Bft) O-SO 109 ° 0 min 0,000 mm 0,0 UV-I 0 W/m² 0,7 °C 1,3 °C 0,0 km/h (0 Bft)
03.11.2017 22:25 1,3 °C 1,3 °C 96 % 1013,9 hPa 0,0 mm 0,0 km/h (0 Bft) O-SO 109 ° 0 min 0,000 mm 0,0 UV-I 0 W/m² 0,7 °C 1,3 °C 0,0 km/h (0 Bft)
03.11.2017 22:26 1,3 °C 1,3 °C 96 % 1013,8 hPa 0,0 mm 0,0 km/h (0 Bft) O-SO 109 ° 0 min 0,000 mm 0,0 UV-I 0 W/m² 0,7 °C 1,3 °C 0,0 km/h (0 Bft)
03.11.2017 22:27 1,3 °C 1,3 °C 96 % 1013,8 hPa 0,0 mm 0,0 km/h (0 Bft) O-SO 109 ° 0 min 0,000 mm 0,0 UV-I 0 W/m² 0,7 °C 1,3 °C 0,0 km/h (0 Bft)
03.11.2017 22:28 1,4 °C 1,4 °C 96 % 1013,9 hPa 0,0 mm 0,0 km/h (0 Bft) O-SO 109 ° 0 min 0,000 mm 0,0 UV-I 0 W/m² 0,8 °C 1,4 °C 0,0 km/h (0 Bft)
03.11.2017 22:29 1,4 °C 1,4 °C 96 % 1013,8 hPa 0,0 mm 0,0 km/h (0 Bft) O-SO 109 ° 0 min 0,000 mm 0,0 UV-I 0 W/m² 0,8 °C 1,4 °C 0,0 km/h (0 Bft)
03.11.2017 22:30 1,4 °C 1,4 °C 96 % 1013,8 hPa 0,0 mm 0,0 km/h (0 Bft) O-SO 109 ° 0 min 0,000 mm 0,0 UV-I 0 W/m² 0,8 °C 1,4 °C 0,0 km/h (0 Bft)
03.11.2017 22:31 1,4 °C 1,4 °C 96 % 1013,9 hPa 0,0 mm 0,0 km/h (0 Bft) O-SO 109 ° 0 min 0,000 mm 0,0 UV-I 0 W/m² 0,8 °C 1,4 °C 0,0 km/h (0 Bft)
03.11.2017 22:32 1,4 °C 1,4 °C 96 % 1013,8 hPa 0,0 mm 0,0 km/h (0 Bft) O-SO 109 ° 0 min 0,000 mm 0,0 UV-I 0 W/m² 0,8 °C 1,4 °C 0,0 km/h (0 Bft)
03.11.2017 22:33 1,4 °C 1,4 °C 96 % 1013,8 hPa 0,0 mm 0,0 km/h (0 Bft) O-SO 109 ° 0 min 0,000 mm 0,0 UV-I 0 W/m² 0,8 °C 1,4 °C 0,0 km/h (0 Bft)
03.11.2017 22:34 1,4 °C 1,4 °C 96 % 1013,7 hPa 0,0 mm 0,0 km/h (0 Bft) O-SO 109 ° 0 min 0,000 mm 0,0 UV-I 0 W/m² 0,8 °C 1,4 °C 0,0 km/h (0 Bft)
03.11.2017 22:35 1,4 °C 1,4 °C 96 % 1013,8 hPa 0,0 mm 0,0 km/h (0 Bft) O-SO 109 ° 0 min 0,000 mm 0,0 UV-I 0 W/m² 0,8 °C 1,4 °C 0,0 km/h (0 Bft)
03.11.2017 22:36 1,3 °C 1,4 °C 96 % 1013,8 hPa 0,0 mm 0,0 km/h (0 Bft) O-SO 109 ° 0 min 0,000 mm 0,0 UV-I 0 W/m² 0,7 °C 1,3 °C 0,0 km/h (0 Bft)
03.11.2017 22:37 1,3 °C 1,3 °C 96 % 1013,8 hPa 0,0 mm 0,0 km/h (0 Bft) O-SO 109 ° 0 min 0,000 mm 0,0 UV-I 0 W/m² 0,7 °C 1,3 °C 0,0 km/h (0 Bft)
03.11.2017 22:38 1,1 °C 1,3 °C 95 % 1013,7 hPa 0,0 mm 0,0 km/h (0 Bft) O-SO 109 ° 0 min 0,000 mm 0,0 UV-I 0 W/m² 0,4 °C 1,1 °C 0,0 km/h (0 Bft)
03.11.2017 22:39 1,1 °C 1,1 °C 95 % 1013,8 hPa 0,0 mm 0,0 km/h (0 Bft) O-SO 109 ° 0 min 0,000 mm 0,0 UV-I 0 W/m² 0,4 °C 1,1 °C 0,0 km/h (0 Bft)
03.11.2017 22:40 1,1 °C 1,1 °C 95 % 1013,7 hPa 0,0 mm 0,0 km/h (0 Bft) O-SO 109 ° 0 min 0,000 mm 0,0 UV-I 0 W/m² 0,4 °C 1,1 °C 0,0 km/h (0 Bft)
03.11.2017 22:41 1,0 °C 1,1 °C 95 % 1013,7 hPa 0,0 mm 0,0 km/h (0 Bft) O-SO 109 ° 0 min 0,000 mm 0,0 UV-I 0 W/m² 0,3 °C 1,0 °C 0,0 km/h (0 Bft)
03.11.2017 22:42 1,1 °C 1,1 °C 95 % 1013,7 hPa 0,0 mm 0,0 km/h (0 Bft) O-SO 109 ° 0 min 0,000 mm 0,0 UV-I 0 W/m² 0,4 °C 1,1 °C 0,0 km/h (0 Bft)
03.11.2017 22:43 1,1 °C 1,1 °C 95 % 1013,7 hPa 0,0 mm 0,0 km/h (0 Bft) O-SO 109 ° 0 min 0,000 mm 0,0 UV-I 0 W/m² 0,4 °C 1,1 °C 0,0 km/h (0 Bft)
03.11.2017 22:44 1,2 °C 1,2 °C 96 % 1013,7 hPa 0,0 mm 0,0 km/h (0 Bft) O-SO 109 ° 0 min 0,000 mm 0,0 UV-I 0 W/m² 0,6 °C 1,2 °C 0,0 km/h (0 Bft)
03.11.2017 22:45 1,3 °C 1,3 °C 96 % 1013,7 hPa 0,0 mm 0,0 km/h (0 Bft) O-SO 109 ° 0 min 0,000 mm 0,0 UV-I 0 W/m² 0,7 °C 1,3 °C 0,0 km/h (0 Bft)
03.11.2017 22:46 1,4 °C 1,4 °C 96 % 1013,7 hPa 0,0 mm 2,8 km/h (1 Bft) S-SW 192 ° 0 min 0,000 mm 0,0 UV-I 0 W/m² 0,8 °C 1,4 °C 6,4 km/h (2 Bft)
03.11.2017 22:47 1,5 °C 1,5 °C 96 % 1013,7 hPa 0,0 mm 2,7 km/h (1 Bft) S-SW 205 ° 0 min 0,000 mm 0,0 UV-I 0 W/m² 0,9 °C 1,5 °C 4,8 km/h (1 Bft)
03.11.2017 22:48 1,7 °C 1,7 °C 96 % 1013,6 hPa 0,0 mm 0,5 km/h (0 Bft) S-SW 205 ° 0 min 0,000 mm 0,0 UV-I 0 W/m² 1,1 °C 1,7 °C 3,2 km/h (1 Bft)
03.11.2017 22:49 1,9 °C 1,9 °C 96 % 1013,6 hPa 0,0 mm 0,0 km/h (0 Bft) S-SW 205 ° 0 min 0,000 mm 0,0 UV-I 0 W/m² 1,3 °C 1,9 °C 0,0 km/h (0 Bft)
03.11.2017 22:50 2,1 °C 2,1 °C 96 % 1013,6 hPa 0,0 mm 0,0 km/h (0 Bft) S-SW 205 ° 0 min 0,000 mm 0,0 UV-I 0 W/m² 1,5 °C 2,1 °C 0,0 km/h (0 Bft)
03.11.2017 22:51 2,2 °C 2,2 °C 96 % 1013,6 hPa 0,0 mm 0,0 km/h (0 Bft) S-SW 205 ° 0 min 0,000 mm 0,0 UV-I 0 W/m² 1,6 °C 2,2 °C 0,0 km/h (0 Bft)
03.11.2017 22:52 2,1 °C 2,2 °C 96 % 1013,6 hPa 0,0 mm 0,0 km/h (0 Bft) S-SW 205 ° 0 min 0,000 mm 0,0 UV-I 0 W/m² 1,5 °C 2,1 °C 0,0 km/h (0 Bft)
03.11.2017 22:54 2,3 °C 2,3 °C 96 % 1013,6 hPa 0,0 mm 0,0 km/h (0 Bft) S-SW 205 ° 0 min 0,000 mm 0,0 UV-I 0 W/m² 1,7 °C 2,3 °C 0,0 km/h (0 Bft)
03.11.2017 22:55 2,4 °C 2,4 °C 96 % 1013,6 hPa 0,0 mm 0,0 km/h (0 Bft) S-SW 205 ° 0 min 0,000 mm 0,0 UV-I 0 W/m² 1,8 °C 2,4 °C 0,0 km/h (0 Bft)
03.11.2017 22:56 2,6 °C 2,6 °C 96 % 1013,6 hPa 0,0 mm 0,0 km/h (0 Bft) S-SW 205 ° 0 min 0,000 mm 0,0 UV-I 0 W/m² 2,0 °C 2,6 °C 0,0 km/h (0 Bft)
03.11.2017 22:57 2,6 °C 2,6 °C 96 % 1013,6 hPa 0,0 mm 0,0 km/h (0 Bft) S-SW 205 ° 0 min 0,000 mm 0,0 UV-I 0 W/m² 2,0 °C 2,6 °C 0,0 km/h (0 Bft)
03.11.2017 22:58 2,4 °C 2,6 °C 96 % 1013,6 hPa 0,0 mm 0,0 km/h (0 Bft) S-SW 205 ° 0 min 0,000 mm 0,0 UV-I 0 W/m² 1,8 °C 2,4 °C 0,0 km/h (0 Bft)
03.11.2017 22:59 2,5 °C 2,5 °C 96 % 1013,6 hPa 0,0 mm 0,0 km/h (0 Bft) S-SW 205 ° 0 min 0,000 mm 0,0 UV-I 0 W/m² 1,9 °C 2,5 °C 0,0 km/h (0 Bft)
03.11.2017 23:00 2,4 °C 2,5 °C 96 % 1013,6 hPa 0,0 mm 1,3 km/h (1 Bft) S-SW 205 ° 0 min 0,000 mm 0,0 UV-I 0 W/m² 1,8 °C 2,4 °C 3,2 km/h (1 Bft)
03.11.2017 23:01 2,3 °C 2,4 °C 96 % 1013,6 hPa 0,0 mm 0,1 km/h (0 Bft) S-SW 205 ° 0 min 0,000 mm 0,0 UV-I 0 W/m² 1,7 °C 2,3 °C 1,6 km/h (1 Bft)
03.11.2017 23:02 2,2 °C 2,3 °C 96 % 1013,6 hPa 0,0 mm 0,0 km/h (0 Bft) S-SW 205 ° 0 min 0,000 mm 0,0 UV-I 0 W/m² 1,6 °C 2,2 °C 0,0 km/h (0 Bft)
03.11.2017 23:03 2,4 °C 2,4 °C 96 % 1013,6 hPa 0,0 mm 0,7 km/h (0 Bft) S-SW 205 ° 0 min 0,000 mm 0,0 UV-I 0 W/m² 1,8 °C 2,4 °C 3,2 km/h (1 Bft)
03.11.2017 23:04 2,7 °C 2,7 °C 96 % 1013,6 hPa 0,0 mm 3,1 km/h (1 Bft) S-SW 205 ° 0 min 0,000 mm 0,0 UV-I 0 W/m² 2,1 °C 2,7 °C 4,8 km/h (1 Bft)
03.11.2017 23:05 2,9 °C 2,9 °C 96 % 1013,6 hPa 0,0 mm 1,6 km/h (1 Bft) S-SW 205 ° 0 min 0,000 mm 0,0 UV-I 0 W/m² 2,3 °C 2,9 °C 3,2 km/h (1 Bft)
03.11.2017 23:06 3,1 °C 3,1 °C 96 % 1013,6 hPa 0,0 mm 2,1 km/h (1 Bft) S-SW 205 ° 0 min 0,000 mm 0,0 UV-I 0 W/m² 2,5 °C 3,1 °C 3,2 km/h (1 Bft)
03.11.2017 23:07 3,2 °C 3,2 °C 96 % 1013,6 hPa 0,0 mm 1,5 km/h (1 Bft) S-SW 205 ° 0 min 0,000 mm 0,0 UV-I 0 W/m² 2,6 °C 3,2 °C 3,2 km/h (1 Bft)
03.11.2017 23:08 3,2 °C 3,2 °C 96 % 1013,5 hPa 0,0 mm 0,5 km/h (0 Bft) S-SW 205 ° 0 min 0,000 mm 0,0 UV-I 0 W/m² 2,6 °C 3,2 °C 1,6 km/h (1 Bft)
03.11.2017 23:09 3,2 °C 3,3 °C 96 % 1013,5 hPa 0,0 mm 0,0 km/h (0 Bft) S-SW 205 ° 0 min 0,000 mm 0,0 UV-I 0 W/m² 2,6 °C 3,2 °C 0,0 km/h (0 Bft)
03.11.2017 23:10 2,9 °C 3,2 °C 96 % 1013,5 hPa 0,0 mm 0,0 km/h (0 Bft) S-SW 205 ° 0 min 0,000 mm 0,0 UV-I 0 W/m² 2,3 °C 2,9 °C 0,0 km/h (0 Bft)
03.11.2017 23:11 2,5 °C 2,9 °C 96 % 1013,5 hPa 0,0 mm 0,0 km/h (0 Bft) S-SW 205 ° 0 min 0,000 mm 0,0 UV-I 0 W/m² 1,9 °C 2,5 °C 0,0 km/h (0 Bft)
03.11.2017 23:12 2,2 °C 2,5 °C 96 % 1013,5 hPa 0,0 mm 0,0 km/h (0 Bft) S-SW 205 ° 0 min 0,000 mm 0,0 UV-I 0 W/m² 1,6 °C 2,2 °C 0,0 km/h (0 Bft)
03.11.2017 23:13 1,9 °C 2,2 °C 96 % 1013,5 hPa 0,0 mm 0,0 km/h (0 Bft) S-SW 205 ° 0 min 0,000 mm 0,0 UV-I 0 W/m² 1,3 °C 1,9 °C 0,0 km/h (0 Bft)
03.11.2017 23:14 1,8 °C 1,9 °C 96 % 1013,5 hPa 0,0 mm 0,0 km/h (0 Bft) S-SW 205 ° 0 min 0,000 mm 0,0 UV-I 0 W/m² 1,2 °C 1,8 °C 0,0 km/h (0 Bft)
03.11.2017 23:15 1,7 °C 1,8 °C 95 % 1013,5 hPa 0,0 mm 0,0 km/h (0 Bft) S-SW 205 ° 0 min 0,000 mm 0,0 UV-I 0 W/m² 1,0 °C 1,7 °C 0,0 km/h (0 Bft)
03.11.2017 23:16 1,6 °C 1,7 °C 95 % 1013,5 hPa 0,0 mm 0,0 km/h (0 Bft) S-SW 205 ° 0 min 0,000 mm 0,0 UV-I 0 W/m² 0,9 °C 1,6 °C 0,0 km/h (0 Bft)
03.11.2017 23:17 1,5 °C 1,6 °C 95 % 1013,4 hPa 0,0 mm 0,0 km/h (0 Bft) S-SW 205 ° 0 min 0,000 mm 0,0 UV-I 0 W/m² 0,8 °C 1,5 °C 0,0 km/h (0 Bft)
03.11.2017 23:18 1,5 °C 1,5 °C 95 % 1013,5 hPa 0,0 mm 0,0 km/h (0 Bft) S-SW 205 ° 0 min 0,000 mm 0,0 UV-I 0 W/m² 0,8 °C 1,5 °C 0,0 km/h (0 Bft)
03.11.2017 23:19 1,4 °C 1,5 °C 95 % 1013,4 hPa 0,0 mm 0,0 km/h (0 Bft) S-SW 205 ° 0 min 0,000 mm 0,0 UV-I 0 W/m² 0,7 °C 1,4 °C 0,0 km/h (0 Bft)
03.11.2017 23:20 1,4 °C 1,4 °C 95 % 1013,5 hPa 0,0 mm 0,0 km/h (0 Bft) S-SW 205 ° 0 min 0,000 mm 0,0 UV-I 0 W/m² 0,7 °C 1,4 °C 0,0 km/h (0 Bft)
03.11.2017 23:21 1,4 °C 1,4 °C 95 % 1013,4 hPa 0,0 mm 0,0 km/h (0 Bft) S-SW 205 ° 0 min 0,000 mm 0,0 UV-I 0 W/m² 0,7 °C 1,4 °C 0,0 km/h (0 Bft)
03.11.2017 23:22 1,3 °C 1,4 °C 95 % 1013,5 hPa 0,0 mm 0,0 km/h (0 Bft) S-SW 205 ° 0 min 0,000 mm 0,0 UV-I 0 W/m² 0,6 °C 1,3 °C 0,0 km/h (0 Bft)
03.11.2017 23:23 1,3 °C 1,3 °C 95 % 1013,5 hPa 0,0 mm 0,0 km/h (0 Bft) S-SW 205 ° 0 min 0,000 mm 0,0 UV-I 0 W/m² 0,6 °C 1,3 °C 0,0 km/h (0 Bft)
03.11.2017 23:24 1,3 °C 1,3 °C 96 % 1013,5 hPa 0,0 mm 0,0 km/h (0 Bft) S-SW 205 ° 0 min 0,000 mm 0,0 UV-I 0 W/m² 0,7 °C 1,3 °C 0,0 km/h (0 Bft)
03.11.2017 23:25 1,4 °C 1,4 °C 96 % 1013,5 hPa 0,0 mm 0,0 km/h (0 Bft) S-SW 205 ° 0 min 0,000 mm 0,0 UV-I 0 W/m² 0,8 °C 1,4 °C 0,0 km/h (0 Bft)
03.11.2017 23:26 1,6 °C 1,6 °C 96 % 1013,5 hPa 0,0 mm 0,0 km/h (0 Bft) S-SW 205 ° 0 min 0,000 mm 0,0 UV-I 0 W/m² 1,0 °C 1,6 °C 0,0 km/h (0 Bft)
03.11.2017 23:27 1,8 °C 1,8 °C 96 % 1013,5 hPa 0,0 mm 0,0 km/h (0 Bft) S-SW 205 ° 0 min 0,000 mm 0,0 UV-I 0 W/m² 1,2 °C 1,8 °C 0,0 km/h (0 Bft)
03.11.2017 23:28 1,9 °C 1,9 °C 96 % 1013,5 hPa 0,0 mm 0,0 km/h (0 Bft) S-SW 205 ° 0 min 0,000 mm 0,0 UV-I 0 W/m² 1,3 °C 1,9 °C 0,0 km/h (0 Bft)
03.11.2017 23:29 2,0 °C 2,0 °C 96 % 1013,5 hPa 0,0 mm 0,0 km/h (0 Bft) S-SW 205 ° 0 min 0,000 mm 0,0 UV-I 0 W/m² 1,4 °C 2,0 °C 0,0 km/h (0 Bft)
03.11.2017 23:30 2,1 °C 2,1 °C 96 % 1013,6 hPa 0,0 mm 0,0 km/h (0 Bft) S-SW 205 ° 0 min 0,000 mm 0,0 UV-I 0 W/m² 1,5 °C 2,1 °C 0,0 km/h (0 Bft)
03.11.2017 23:31 2,2 °C 2,2 °C 96 % 1013,6 hPa 0,0 mm 0,0 km/h (0 Bft) S-SW 205 ° 0 min 0,000 mm 0,0 UV-I 0 W/m² 1,6 °C 2,2 °C 0,0 km/h (0 Bft)
03.11.2017 23:32 2,3 °C 2,3 °C 96 % 1013,6 hPa 0,0 mm 0,0 km/h (0 Bft) S-SW 205 ° 0 min 0,000 mm 0,0 UV-I 0 W/m² 1,7 °C 2,3 °C 0,0 km/h (0 Bft)
03.11.2017 23:33 2,3 °C 2,3 °C 96 % 1013,6 hPa 0,0 mm 0,0 km/h (0 Bft) S-SW 205 ° 0 min 0,000 mm 0,0 UV-I 0 W/m² 1,7 °C 2,3 °C 0,0 km/h (0 Bft)
03.11.2017 23:34 2,3 °C 2,3 °C 96 % 1013,6 hPa 0,0 mm 0,0 km/h (0 Bft) S-SW 205 ° 0 min 0,000 mm 0,0 UV-I 0 W/m² 1,7 °C 2,3 °C 0,0 km/h (0 Bft)
03.11.2017 23:35 2,3 °C 2,3 °C 96 % 1013,6 hPa 0,0 mm 0,0 km/h (0 Bft) S-SW 205 ° 0 min 0,000 mm 0,0 UV-I 0 W/m² 1,7 °C 2,3 °C 0,0 km/h (0 Bft)
03.11.2017 23:36 2,3 °C 2,4 °C 96 % 1013,6 hPa 0,0 mm 0,0 km/h (0 Bft) S-SW 205 ° 0 min 0,000 mm 0,0 UV-I 0 W/m² 1,7 °C 2,3 °C 0,0 km/h (0 Bft)
03.11.2017 23:37 2,3 °C 2,4 °C 96 % 1013,6 hPa 0,0 mm 0,0 km/h (0 Bft) S-SW 205 ° 0 min 0,000 mm 0,0 UV-I 0 W/m² 1,7 °C 2,3 °C 0,0 km/h (0 Bft)
03.11.2017 23:38 2,4 °C 2,4 °C 96 % 1013,6 hPa 0,0 mm 0,0 km/h (0 Bft) S-SW 205 ° 0 min 0,000 mm 0,0 UV-I 0 W/m² 1,8 °C 2,4 °C 0,0 km/h (0 Bft)
03.11.2017 23:39 2,5 °C 2,5 °C 96 % 1013,6 hPa 0,0 mm 0,0 km/h (0 Bft) S-SW 205 ° 0 min 0,000 mm 0,0 UV-I 0 W/m² 1,9 °C 2,5 °C 0,0 km/h (0 Bft)
03.11.2017 23:40 2,7 °C 2,7 °C 96 % 1013,6 hPa 0,0 mm 0,0 km/h (0 Bft) S-SW 205 ° 0 min 0,000 mm 0,0 UV-I 0 W/m² 2,1 °C 2,7 °C 0,0 km/h (0 Bft)
03.11.2017 23:41 2,8 °C 2,8 °C 96 % 1013,6 hPa 0,0 mm 0,0 km/h (0 Bft) S-SW 205 ° 0 min 0,000 mm 0,0 UV-I 0 W/m² 2,2 °C 2,8 °C 0,0 km/h (0 Bft)
03.11.2017 23:42 2,9 °C 2,9 °C 96 % 1013,5 hPa 0,0 mm 0,0 km/h (0 Bft) S-SW 205 ° 0 min 0,000 mm 0,0 UV-I 0 W/m² 2,3 °C 2,9 °C 0,0 km/h (0 Bft)
03.11.2017 23:43 2,9 °C 2,9 °C 96 % 1013,5 hPa 0,0 mm 0,0 km/h (0 Bft) S-SW 205 ° 0 min 0,000 mm 0,0 UV-I 0 W/m² 2,3 °C 2,9 °C 0,0 km/h (0 Bft)
03.11.2017 23:44 2,8 °C 2,9 °C 96 % 1013,5 hPa 0,0 mm 0,8 km/h (0 Bft) S-SW 205 ° 0 min 0,000 mm 0,0 UV-I 0 W/m² 2,2 °C 2,8 °C 1,6 km/h (1 Bft)
03.11.2017 23:45 2,4 °C 2,8 °C 96 % 1013,5 hPa 0,0 mm 0,1 km/h (0 Bft) S-SW 205 ° 0 min 0,000 mm 0,0 UV-I 0 W/m² 1,8 °C 2,4 °C 1,6 km/h (1 Bft)
03.11.2017 23:46 2,3 °C 2,4 °C 96 % 1013,6 hPa 0,0 mm 0,0 km/h (0 Bft) S-SW 205 ° 0 min 0,000 mm 0,0 UV-I 0 W/m² 1,7 °C 2,3 °C 0,0 km/h (0 Bft)
03.11.2017 23:47 2,0 °C 2,3 °C 96 % 1013,5 hPa 0,0 mm 0,0 km/h (0 Bft) S-SW 205 ° 0 min 0,000 mm 0,0 UV-I 0 W/m² 1,4 °C 2,0 °C 0,0 km/h (0 Bft)
03.11.2017 23:48 1,8 °C 2,0 °C 96 % 1013,6 hPa 0,0 mm 0,0 km/h (0 Bft) S-SW 205 ° 0 min 0,000 mm 0,0 UV-I 0 W/m² 1,2 °C 1,8 °C 0,0 km/h (0 Bft)
03.11.2017 23:49 1,7 °C 1,8 °C 96 % 1013,6 hPa 0,0 mm 0,0 km/h (0 Bft) S-SW 205 ° 0 min 0,000 mm 0,0 UV-I 0 W/m² 1,1 °C 1,7 °C 0,0 km/h (0 Bft)
03.11.2017 23:50 1,7 °C 1,7 °C 96 % 1013,5 hPa 0,0 mm 0,0 km/h (0 Bft) S-SW 205 ° 0 min 0,000 mm 0,0 UV-I 0 W/m² 1,1 °C 1,7 °C 0,0 km/h (0 Bft)
03.11.2017 23:51 1,7 °C 1,7 °C 96 % 1013,5 hPa 0,0 mm 0,0 km/h (0 Bft) S-SW 205 ° 0 min 0,000 mm 0,0 UV-I 0 W/m² 1,1 °C 1,7 °C 0,0 km/h (0 Bft)
03.11.2017 23:52 1,7 °C 1,7 °C 96 % 1013,5 hPa 0,0 mm 0,0 km/h (0 Bft) S-SW 205 ° 0 min 0,000 mm 0,0 UV-I 0 W/m² 1,1 °C 1,7 °C 0,0 km/h (0 Bft)
03.11.2017 23:53 1,7 °C 1,7 °C 96 % 1013,5 hPa 0,0 mm 0,0 km/h (0 Bft) S-SW 205 ° 0 min 0,000 mm 0,0 UV-I 0 W/m² 1,1 °C 1,7 °C 0,0 km/h (0 Bft)
03.11.2017 23:54 1,7 °C 1,7 °C 96 % 1013,6 hPa 0,0 mm 0,0 km/h (0 Bft) S-SW 205 ° 0 min 0,000 mm 0,0 UV-I 0 W/m² 1,1 °C 1,7 °C 0,0 km/h (0 Bft)
03.11.2017 23:55 1,6 °C 1,7 °C 96 % 1013,5 hPa 0,0 mm 0,0 km/h (0 Bft) S-SW 205 ° 0 min 0,000 mm 0,0 UV-I 0 W/m² 1,0 °C 1,6 °C 0,0 km/h (0 Bft)
03.11.2017 23:56 1,6 °C 1,6 °C 96 % 1013,5 hPa 0,0 mm 0,0 km/h (0 Bft) S-SW 205 ° 0 min 0,000 mm 0,0 UV-I 0 W/m² 1,0 °C 1,6 °C 0,0 km/h (0 Bft)
03.11.2017 23:57 1,7 °C 1,7 °C 96 % 1013,5 hPa 0,0 mm 0,0 km/h (0 Bft) S-SW 205 ° 0 min 0,000 mm 0,0 UV-I 0 W/m² 1,1 °C 1,7 °C 0,0 km/h (0 Bft)
03.11.2017 23:59 1,9 °C 1,9 °C 96 % 1013,5 hPa 0,0 mm 0,0 km/h (0 Bft) S-SW 205 ° 0 min 0,000 mm 0,0 UV-I 0 W/m² 1,3 °C 1,9 °C 0,0 km/h (0 Bft)
_ Min-Zeit 21:55 21:55 00:18 23:21 - 23:59 - - - - - - 21:55 21:55 23:59
Minimum _ 0,9 °C 0,9 °C 79 % 1013,4 hPa - 0,0 km/h (0 Bft) - - - - - - 0,2 °C 0,9 °C 0,0 km/h (0 Bft)
_ Max-Zeit 14:46 14:48 23:59 10:57 07:46 01:58 - - 23:59 12:00 11:49 10:57 13:50 14:36 14:39
Maximum _ 9,8 °C 9,8 °C 96 % 1016,8 hPa 0,2 mm 8,2 km/h
W-NW (2 Bft)
- - 0 min 0,102 mm 1,7 UV-I 287 W/m² 8,1 °C 9,8 °C 12,9 km/h
O-NO (3 Bft)
Durchschnitt _ 6,8 °C 6,8 °C 91 % 1015,5 hPa #7,6 mm 1,2 km/h (1 Bft) O-NO - #0 min. #0,508 mm 1,1 UV-I 40 W/m² 5,5 °C 6,8 °C 2,0 km/h (1 Bft)